<?xml version="1.0" encoding="UTF-8" standalone="no" ?>
<gpx xmlns="http://www.topografix.com/GPX/1/1" xmlns:xsi="http://www.w3.org/2001/XMLSchema-instance" xsi:schemaLocation="http://www.topografix.com/GPX/1/1 http://www.topografix.com/GPX/1/1/gpx.xsd" version="1.1" creator="VisuGPX - https://www.visugpx.com">
  <metadata>
    <name>rando vtt avec lolo</name>
    <desc><![CDATA[rando avec lolo]]></desc>
  </metadata>
  <trk>
    <name><![CDATA[2011-07-15 15:50]]></name>
    <desc><![CDATA[Dure]]></desc>
    <trkseg>
      <trkpt lat="45.27308" lon="1.4103">
        <ele>169</ele>
        <time>2011-07-15T13:50:30Z</time>
      </trkpt>
      <trkpt lat="45.27308" lon="1.4103">
        <ele>169</ele>
        <time>2011-07-15T13:50:30Z</time>
      </trkpt>
      <trkpt lat="45.27308" lon="1.4103">
        <ele>169</ele>
        <time>2011-07-15T13:50:40Z</time>
      </trkpt>
      <trkpt lat="45.27285" lon="1.41036">
        <ele>169</ele>
        <time>2011-07-15T13:50:45Z</time>
      </trkpt>
      <trkpt lat="45.27285" lon="1.41036">
        <ele>169</ele>
        <time>2011-07-15T13:50:45Z</time>
      </trkpt>
      <trkpt lat="45.27285" lon="1.41036">
        <ele>169</ele>
        <time>2011-07-15T13:50:49Z</time>
      </trkpt>
      <trkpt lat="45.27279" lon="1.41035">
        <ele>176</ele>
        <time>2011-07-15T13:50:50Z</time>
      </trkpt>
      <trkpt lat="45.27284" lon="1.41032">
        <ele>166</ele>
        <time>2011-07-15T13:50:51Z</time>
      </trkpt>
      <trkpt lat="45.27278" lon="1.41034">
        <ele>177</ele>
        <time>2011-07-15T13:52:04Z</time>
      </trkpt>
      <trkpt lat="45.27283" lon="1.41034">
        <ele>175</ele>
        <time>2011-07-15T13:52:53Z</time>
      </trkpt>
      <trkpt lat="45.27288" lon="1.4103">
        <ele>176</ele>
        <time>2011-07-15T13:52:56Z</time>
      </trkpt>
      <trkpt lat="45.27293" lon="1.41033">
        <ele>178</ele>
        <time>2011-07-15T13:53:03Z</time>
      </trkpt>
      <trkpt lat="45.27296" lon="1.41028">
        <ele>177</ele>
        <time>2011-07-15T13:53:10Z</time>
      </trkpt>
      <trkpt lat="45.27296" lon="1.41018">
        <ele>171</ele>
        <time>2011-07-15T13:53:13Z</time>
      </trkpt>
      <trkpt lat="45.27296" lon="1.41008">
        <ele>172</ele>
        <time>2011-07-15T13:53:16Z</time>
      </trkpt>
      <trkpt lat="45.27299" lon="1.41002">
        <ele>171</ele>
        <time>2011-07-15T13:53:19Z</time>
      </trkpt>
      <trkpt lat="45.27302" lon="1.40996">
        <ele>174</ele>
        <time>2011-07-15T13:53:23Z</time>
      </trkpt>
      <trkpt lat="45.27305" lon="1.40989">
        <ele>178</ele>
        <time>2011-07-15T13:53:25Z</time>
      </trkpt>
      <trkpt lat="45.27304" lon="1.40982">
        <ele>178</ele>
        <time>2011-07-15T13:53:29Z</time>
      </trkpt>
      <trkpt lat="45.27305" lon="1.40974">
        <ele>183</ele>
        <time>2011-07-15T13:53:32Z</time>
      </trkpt>
      <trkpt lat="45.27307" lon="1.40968">
        <ele>181</ele>
        <time>2011-07-15T13:53:35Z</time>
      </trkpt>
      <trkpt lat="45.27307" lon="1.40961">
        <ele>179</ele>
        <time>2011-07-15T13:53:39Z</time>
      </trkpt>
      <trkpt lat="45.27309" lon="1.40952">
        <ele>177</ele>
        <time>2011-07-15T13:53:42Z</time>
      </trkpt>
      <trkpt lat="45.2731" lon="1.40943">
        <ele>177</ele>
        <time>2011-07-15T13:53:44Z</time>
      </trkpt>
      <trkpt lat="45.27311" lon="1.40934">
        <ele>175</ele>
        <time>2011-07-15T13:53:46Z</time>
      </trkpt>
      <trkpt lat="45.27312" lon="1.40928">
        <ele>177</ele>
        <time>2011-07-15T13:53:48Z</time>
      </trkpt>
      <trkpt lat="45.27314" lon="1.40919">
        <ele>180</ele>
        <time>2011-07-15T13:53:51Z</time>
      </trkpt>
      <trkpt lat="45.27316" lon="1.4091">
        <ele>178</ele>
        <time>2011-07-15T13:53:54Z</time>
      </trkpt>
      <trkpt lat="45.27316" lon="1.40903">
        <ele>179</ele>
        <time>2011-07-15T13:53:56Z</time>
      </trkpt>
      <trkpt lat="45.27318" lon="1.40897">
        <ele>181</ele>
        <time>2011-07-15T13:53:58Z</time>
      </trkpt>
      <trkpt lat="45.2732" lon="1.40888">
        <ele>186</ele>
        <time>2011-07-15T13:54:01Z</time>
      </trkpt>
      <trkpt lat="45.27321" lon="1.40881">
        <ele>189</ele>
        <time>2011-07-15T13:54:03Z</time>
      </trkpt>
      <trkpt lat="45.27323" lon="1.40875">
        <ele>184</ele>
        <time>2011-07-15T13:54:05Z</time>
      </trkpt>
      <trkpt lat="45.27326" lon="1.40867">
        <ele>180</ele>
        <time>2011-07-15T13:54:07Z</time>
      </trkpt>
      <trkpt lat="45.27328" lon="1.40861">
        <ele>178</ele>
        <time>2011-07-15T13:54:09Z</time>
      </trkpt>
      <trkpt lat="45.2733" lon="1.40855">
        <ele>178</ele>
        <time>2011-07-15T13:54:11Z</time>
      </trkpt>
      <trkpt lat="45.27333" lon="1.40849">
        <ele>182</ele>
        <time>2011-07-15T13:54:13Z</time>
      </trkpt>
      <trkpt lat="45.27336" lon="1.40842">
        <ele>182</ele>
        <time>2011-07-15T13:54:15Z</time>
      </trkpt>
      <trkpt lat="45.27339" lon="1.40835">
        <ele>183</ele>
        <time>2011-07-15T13:54:17Z</time>
      </trkpt>
      <trkpt lat="45.27342" lon="1.40827">
        <ele>180</ele>
        <time>2011-07-15T13:54:19Z</time>
      </trkpt>
      <trkpt lat="45.27344" lon="1.40822">
        <ele>180</ele>
        <time>2011-07-15T13:54:21Z</time>
      </trkpt>
      <trkpt lat="45.27347" lon="1.40815">
        <ele>182</ele>
        <time>2011-07-15T13:54:23Z</time>
      </trkpt>
      <trkpt lat="45.2735" lon="1.40808">
        <ele>183</ele>
        <time>2011-07-15T13:54:25Z</time>
      </trkpt>
      <trkpt lat="45.27353" lon="1.40802">
        <ele>185</ele>
        <time>2011-07-15T13:54:27Z</time>
      </trkpt>
      <trkpt lat="45.27355" lon="1.40797">
        <ele>187</ele>
        <time>2011-07-15T13:54:29Z</time>
      </trkpt>
      <trkpt lat="45.27358" lon="1.4079">
        <ele>186</ele>
        <time>2011-07-15T13:54:31Z</time>
      </trkpt>
      <trkpt lat="45.2736" lon="1.40784">
        <ele>185</ele>
        <time>2011-07-15T13:54:33Z</time>
      </trkpt>
      <trkpt lat="45.27363" lon="1.40778">
        <ele>187</ele>
        <time>2011-07-15T13:54:35Z</time>
      </trkpt>
      <trkpt lat="45.27366" lon="1.40771">
        <ele>187</ele>
        <time>2011-07-15T13:54:37Z</time>
      </trkpt>
      <trkpt lat="45.27368" lon="1.40766">
        <ele>189</ele>
        <time>2011-07-15T13:54:39Z</time>
      </trkpt>
      <trkpt lat="45.27371" lon="1.40761">
        <ele>192</ele>
        <time>2011-07-15T13:54:42Z</time>
      </trkpt>
      <trkpt lat="45.27376" lon="1.40758">
        <ele>194</ele>
        <time>2011-07-15T13:54:45Z</time>
      </trkpt>
      <trkpt lat="45.27381" lon="1.40761">
        <ele>195</ele>
        <time>2011-07-15T13:54:48Z</time>
      </trkpt>
      <trkpt lat="45.27386" lon="1.4076">
        <ele>188</ele>
        <time>2011-07-15T13:55:23Z</time>
      </trkpt>
      <trkpt lat="45.27392" lon="1.40762">
        <ele>186</ele>
        <time>2011-07-15T13:55:26Z</time>
      </trkpt>
      <trkpt lat="45.27398" lon="1.40765">
        <ele>186</ele>
        <time>2011-07-15T13:55:29Z</time>
      </trkpt>
      <trkpt lat="45.27403" lon="1.40767">
        <ele>185</ele>
        <time>2011-07-15T13:55:31Z</time>
      </trkpt>
      <trkpt lat="45.27408" lon="1.40769">
        <ele>186</ele>
        <time>2011-07-15T13:55:33Z</time>
      </trkpt>
      <trkpt lat="45.27413" lon="1.40773">
        <ele>191</ele>
        <time>2011-07-15T13:55:36Z</time>
      </trkpt>
      <trkpt lat="45.27418" lon="1.40775">
        <ele>193</ele>
        <time>2011-07-15T13:55:38Z</time>
      </trkpt>
      <trkpt lat="45.27425" lon="1.40778">
        <ele>194</ele>
        <time>2011-07-15T13:55:40Z</time>
      </trkpt>
      <trkpt lat="45.27431" lon="1.40782">
        <ele>194</ele>
        <time>2011-07-15T13:55:42Z</time>
      </trkpt>
      <trkpt lat="45.27436" lon="1.40784">
        <ele>190</ele>
        <time>2011-07-15T13:55:44Z</time>
      </trkpt>
      <trkpt lat="45.27442" lon="1.40787">
        <ele>190</ele>
        <time>2011-07-15T13:55:46Z</time>
      </trkpt>
      <trkpt lat="45.27448" lon="1.4079">
        <ele>191</ele>
        <time>2011-07-15T13:55:48Z</time>
      </trkpt>
      <trkpt lat="45.27453" lon="1.40793">
        <ele>190</ele>
        <time>2011-07-15T13:55:50Z</time>
      </trkpt>
      <trkpt lat="45.27459" lon="1.40795">
        <ele>191</ele>
        <time>2011-07-15T13:55:52Z</time>
      </trkpt>
      <trkpt lat="45.27466" lon="1.40798">
        <ele>190</ele>
        <time>2011-07-15T13:55:54Z</time>
      </trkpt>
      <trkpt lat="45.27471" lon="1.408">
        <ele>190</ele>
        <time>2011-07-15T13:55:56Z</time>
      </trkpt>
      <trkpt lat="45.27475" lon="1.40804">
        <ele>189</ele>
        <time>2011-07-15T13:55:58Z</time>
      </trkpt>
      <trkpt lat="45.27479" lon="1.40806">
        <ele>188</ele>
        <time>2011-07-15T13:56:00Z</time>
      </trkpt>
      <trkpt lat="45.27484" lon="1.40805">
        <ele>189</ele>
        <time>2011-07-15T13:56:02Z</time>
      </trkpt>
      <trkpt lat="45.27489" lon="1.40801">
        <ele>188</ele>
        <time>2011-07-15T13:56:04Z</time>
      </trkpt>
      <trkpt lat="45.27493" lon="1.40796">
        <ele>187</ele>
        <time>2011-07-15T13:56:06Z</time>
      </trkpt>
      <trkpt lat="45.27496" lon="1.4079">
        <ele>185</ele>
        <time>2011-07-15T13:56:09Z</time>
      </trkpt>
      <trkpt lat="45.27498" lon="1.40784">
        <ele>186</ele>
        <time>2011-07-15T13:56:11Z</time>
      </trkpt>
      <trkpt lat="45.27501" lon="1.40777">
        <ele>189</ele>
        <time>2011-07-15T13:56:13Z</time>
      </trkpt>
      <trkpt lat="45.27502" lon="1.4077">
        <ele>186</ele>
        <time>2011-07-15T13:56:15Z</time>
      </trkpt>
      <trkpt lat="45.27503" lon="1.40761">
        <ele>195</ele>
        <time>2011-07-15T13:56:18Z</time>
      </trkpt>
      <trkpt lat="45.27507" lon="1.40755">
        <ele>198</ele>
        <time>2011-07-15T13:56:21Z</time>
      </trkpt>
      <trkpt lat="45.27513" lon="1.40754">
        <ele>200</ele>
        <time>2011-07-15T13:56:24Z</time>
      </trkpt>
      <trkpt lat="45.2752" lon="1.40755">
        <ele>196</ele>
        <time>2011-07-15T13:56:27Z</time>
      </trkpt>
      <trkpt lat="45.27525" lon="1.40757">
        <ele>194</ele>
        <time>2011-07-15T13:56:30Z</time>
      </trkpt>
      <trkpt lat="45.2753" lon="1.40758">
        <ele>191</ele>
        <time>2011-07-15T13:56:32Z</time>
      </trkpt>
      <trkpt lat="45.27535" lon="1.4076">
        <ele>195</ele>
        <time>2011-07-15T13:56:34Z</time>
      </trkpt>
      <trkpt lat="45.27539" lon="1.40762">
        <ele>195</ele>
        <time>2011-07-15T13:56:36Z</time>
      </trkpt>
      <trkpt lat="45.27545" lon="1.40763">
        <ele>196</ele>
        <time>2011-07-15T13:56:39Z</time>
      </trkpt>
      <trkpt lat="45.27551" lon="1.40766">
        <ele>197</ele>
        <time>2011-07-15T13:56:42Z</time>
      </trkpt>
      <trkpt lat="45.27556" lon="1.40768">
        <ele>199</ele>
        <time>2011-07-15T13:56:44Z</time>
      </trkpt>
      <trkpt lat="45.2756" lon="1.40769">
        <ele>202</ele>
        <time>2011-07-15T13:56:46Z</time>
      </trkpt>
      <trkpt lat="45.27565" lon="1.40769">
        <ele>201</ele>
        <time>2011-07-15T13:56:48Z</time>
      </trkpt>
      <trkpt lat="45.2757" lon="1.40771">
        <ele>199</ele>
        <time>2011-07-15T13:56:50Z</time>
      </trkpt>
      <trkpt lat="45.27575" lon="1.40772">
        <ele>196</ele>
        <time>2011-07-15T13:56:52Z</time>
      </trkpt>
      <trkpt lat="45.2758" lon="1.40773">
        <ele>201</ele>
        <time>2011-07-15T13:56:54Z</time>
      </trkpt>
      <trkpt lat="45.27586" lon="1.40774">
        <ele>202</ele>
        <time>2011-07-15T13:56:56Z</time>
      </trkpt>
      <trkpt lat="45.27592" lon="1.40774">
        <ele>203</ele>
        <time>2011-07-15T13:56:58Z</time>
      </trkpt>
      <trkpt lat="45.27599" lon="1.40775">
        <ele>204</ele>
        <time>2011-07-15T13:57:00Z</time>
      </trkpt>
      <trkpt lat="45.27606" lon="1.40776">
        <ele>205</ele>
        <time>2011-07-15T13:57:02Z</time>
      </trkpt>
      <trkpt lat="45.27612" lon="1.40776">
        <ele>206</ele>
        <time>2011-07-15T13:57:04Z</time>
      </trkpt>
      <trkpt lat="45.27619" lon="1.40777">
        <ele>206</ele>
        <time>2011-07-15T13:57:06Z</time>
      </trkpt>
      <trkpt lat="45.27626" lon="1.40776">
        <ele>205</ele>
        <time>2011-07-15T13:57:08Z</time>
      </trkpt>
      <trkpt lat="45.27634" lon="1.40776">
        <ele>205</ele>
        <time>2011-07-15T13:57:10Z</time>
      </trkpt>
      <trkpt lat="45.2764" lon="1.40775">
        <ele>209</ele>
        <time>2011-07-15T13:57:12Z</time>
      </trkpt>
      <trkpt lat="45.27645" lon="1.40774">
        <ele>207</ele>
        <time>2011-07-15T13:57:14Z</time>
      </trkpt>
      <trkpt lat="45.27652" lon="1.40773">
        <ele>206</ele>
        <time>2011-07-15T13:57:16Z</time>
      </trkpt>
      <trkpt lat="45.27657" lon="1.40772">
        <ele>210</ele>
        <time>2011-07-15T13:57:18Z</time>
      </trkpt>
      <trkpt lat="45.27663" lon="1.4077">
        <ele>205</ele>
        <time>2011-07-15T13:57:20Z</time>
      </trkpt>
      <trkpt lat="45.27668" lon="1.4077">
        <ele>203</ele>
        <time>2011-07-15T13:57:22Z</time>
      </trkpt>
      <trkpt lat="45.27674" lon="1.4077">
        <ele>205</ele>
        <time>2011-07-15T13:57:24Z</time>
      </trkpt>
      <trkpt lat="45.2768" lon="1.4077">
        <ele>205</ele>
        <time>2011-07-15T13:57:26Z</time>
      </trkpt>
      <trkpt lat="45.27687" lon="1.40769">
        <ele>206</ele>
        <time>2011-07-15T13:57:28Z</time>
      </trkpt>
      <trkpt lat="45.27694" lon="1.40767">
        <ele>204</ele>
        <time>2011-07-15T13:57:30Z</time>
      </trkpt>
      <trkpt lat="45.27702" lon="1.40766">
        <ele>203</ele>
        <time>2011-07-15T13:57:32Z</time>
      </trkpt>
      <trkpt lat="45.27709" lon="1.40764">
        <ele>201</ele>
        <time>2011-07-15T13:57:34Z</time>
      </trkpt>
      <trkpt lat="45.27714" lon="1.40762">
        <ele>205</ele>
        <time>2011-07-15T13:57:36Z</time>
      </trkpt>
      <trkpt lat="45.27721" lon="1.40761">
        <ele>205</ele>
        <time>2011-07-15T13:57:38Z</time>
      </trkpt>
      <trkpt lat="45.27728" lon="1.40759">
        <ele>205</ele>
        <time>2011-07-15T13:57:40Z</time>
      </trkpt>
      <trkpt lat="45.27736" lon="1.40759">
        <ele>203</ele>
        <time>2011-07-15T13:57:42Z</time>
      </trkpt>
      <trkpt lat="45.27741" lon="1.40756">
        <ele>206</ele>
        <time>2011-07-15T13:57:43Z</time>
      </trkpt>
      <trkpt lat="45.27747" lon="1.40753">
        <ele>206</ele>
        <time>2011-07-15T13:57:44Z</time>
      </trkpt>
      <trkpt lat="45.27753" lon="1.40746">
        <ele>204</ele>
        <time>2011-07-15T13:57:45Z</time>
      </trkpt>
      <trkpt lat="45.27761" lon="1.40741">
        <ele>203</ele>
        <time>2011-07-15T13:57:46Z</time>
      </trkpt>
      <trkpt lat="45.27769" lon="1.40736">
        <ele>203</ele>
        <time>2011-07-15T13:57:47Z</time>
      </trkpt>
      <trkpt lat="45.27777" lon="1.40731">
        <ele>200</ele>
        <time>2011-07-15T13:57:48Z</time>
      </trkpt>
      <trkpt lat="45.27785" lon="1.40726">
        <ele>199</ele>
        <time>2011-07-15T13:57:49Z</time>
      </trkpt>
      <trkpt lat="45.2779" lon="1.40722">
        <ele>200</ele>
        <time>2011-07-15T13:57:50Z</time>
      </trkpt>
      <trkpt lat="45.27796" lon="1.40718">
        <ele>201</ele>
        <time>2011-07-15T13:57:51Z</time>
      </trkpt>
      <trkpt lat="45.278" lon="1.40714">
        <ele>199</ele>
        <time>2011-07-15T13:57:52Z</time>
      </trkpt>
      <trkpt lat="45.27806" lon="1.40706">
        <ele>198</ele>
        <time>2011-07-15T13:57:54Z</time>
      </trkpt>
      <trkpt lat="45.27811" lon="1.40698">
        <ele>197</ele>
        <time>2011-07-15T13:57:56Z</time>
      </trkpt>
      <trkpt lat="45.27815" lon="1.40692">
        <ele>196</ele>
        <time>2011-07-15T13:57:58Z</time>
      </trkpt>
      <trkpt lat="45.27815" lon="1.40692">
        <ele>196</ele>
        <time>2011-07-15T13:57:58Z</time>
      </trkpt>
      <trkpt lat="45.27815" lon="1.40692">
        <ele>196</ele>
        <time>2011-07-15T13:58:01Z</time>
      </trkpt>
      <trkpt lat="45.27823" lon="1.40682">
        <ele>202</ele>
        <time>2011-07-15T13:58:02Z</time>
      </trkpt>
      <trkpt lat="45.27826" lon="1.40676">
        <ele>203</ele>
        <time>2011-07-15T13:58:04Z</time>
      </trkpt>
      <trkpt lat="45.27834" lon="1.40665">
        <ele>207</ele>
        <time>2011-07-15T13:58:09Z</time>
      </trkpt>
      <trkpt lat="45.2784" lon="1.40654">
        <ele>204</ele>
        <time>2011-07-15T13:58:13Z</time>
      </trkpt>
      <trkpt lat="45.27846" lon="1.40645">
        <ele>203</ele>
        <time>2011-07-15T13:58:18Z</time>
      </trkpt>
      <trkpt lat="45.27851" lon="1.40637">
        <ele>207</ele>
        <time>2011-07-15T13:58:21Z</time>
      </trkpt>
      <trkpt lat="45.27854" lon="1.40629">
        <ele>210</ele>
        <time>2011-07-15T13:58:24Z</time>
      </trkpt>
      <trkpt lat="45.27857" lon="1.40622">
        <ele>214</ele>
        <time>2011-07-15T13:58:26Z</time>
      </trkpt>
      <trkpt lat="45.2786" lon="1.40615">
        <ele>211</ele>
        <time>2011-07-15T13:58:28Z</time>
      </trkpt>
      <trkpt lat="45.27863" lon="1.40603">
        <ele>204</ele>
        <time>2011-07-15T13:58:31Z</time>
      </trkpt>
      <trkpt lat="45.27864" lon="1.40595">
        <ele>206</ele>
        <time>2011-07-15T13:58:33Z</time>
      </trkpt>
      <trkpt lat="45.27864" lon="1.40595">
        <ele>206</ele>
        <time>2011-07-15T13:58:33Z</time>
      </trkpt>
      <trkpt lat="45.27864" lon="1.40595">
        <ele>206</ele>
        <time>2011-07-15T13:58:34Z</time>
      </trkpt>
      <trkpt lat="45.27866" lon="1.40587">
        <ele>210</ele>
        <time>2011-07-15T13:58:35Z</time>
      </trkpt>
      <trkpt lat="45.27866" lon="1.40577">
        <ele>208</ele>
        <time>2011-07-15T13:58:38Z</time>
      </trkpt>
      <trkpt lat="45.27866" lon="1.40577">
        <ele>208</ele>
        <time>2011-07-15T13:58:38Z</time>
      </trkpt>
      <trkpt lat="45.27866" lon="1.40577">
        <ele>208</ele>
        <time>2011-07-15T13:58:42Z</time>
      </trkpt>
      <trkpt lat="45.27866" lon="1.40564">
        <ele>216</ele>
        <time>2011-07-15T13:58:43Z</time>
      </trkpt>
      <trkpt lat="45.27866" lon="1.40542">
        <ele>213</ele>
        <time>2011-07-15T13:58:52Z</time>
      </trkpt>
      <trkpt lat="45.27866" lon="1.40542">
        <ele>213</ele>
        <time>2011-07-15T13:58:52Z</time>
      </trkpt>
      <trkpt lat="45.27866" lon="1.40542">
        <ele>213</ele>
        <time>2011-07-15T13:58:55Z</time>
      </trkpt>
      <trkpt lat="45.27866" lon="1.40526">
        <ele>211</ele>
        <time>2011-07-15T13:58:56Z</time>
      </trkpt>
      <trkpt lat="45.27866" lon="1.40518">
        <ele>206</ele>
        <time>2011-07-15T13:58:58Z</time>
      </trkpt>
      <trkpt lat="45.27865" lon="1.40508">
        <ele>206</ele>
        <time>2011-07-15T13:59:01Z</time>
      </trkpt>
      <trkpt lat="45.27865" lon="1.40499">
        <ele>204</ele>
        <time>2011-07-15T13:59:04Z</time>
      </trkpt>
      <trkpt lat="45.27866" lon="1.4049">
        <ele>205</ele>
        <time>2011-07-15T13:59:07Z</time>
      </trkpt>
      <trkpt lat="45.27866" lon="1.4049">
        <ele>205</ele>
        <time>2011-07-15T13:59:07Z</time>
      </trkpt>
      <trkpt lat="45.27866" lon="1.4049">
        <ele>205</ele>
        <time>2011-07-15T13:59:08Z</time>
      </trkpt>
      <trkpt lat="45.27868" lon="1.40483">
        <ele>210</ele>
        <time>2011-07-15T13:59:09Z</time>
      </trkpt>
      <trkpt lat="45.27868" lon="1.40483">
        <ele>210</ele>
        <time>2011-07-15T13:59:09Z</time>
      </trkpt>
      <trkpt lat="45.27868" lon="1.40483">
        <ele>210</ele>
        <time>2011-07-15T13:59:11Z</time>
      </trkpt>
      <trkpt lat="45.27869" lon="1.40475">
        <ele>211</ele>
        <time>2011-07-15T13:59:12Z</time>
      </trkpt>
      <trkpt lat="45.2787" lon="1.40462">
        <ele>210</ele>
        <time>2011-07-15T13:59:18Z</time>
      </trkpt>
      <trkpt lat="45.2787" lon="1.40462">
        <ele>210</ele>
        <time>2011-07-15T13:59:18Z</time>
      </trkpt>
      <trkpt lat="45.2787" lon="1.40462">
        <ele>210</ele>
        <time>2011-07-15T13:59:19Z</time>
      </trkpt>
      <trkpt lat="45.27871" lon="1.40453">
        <ele>214</ele>
        <time>2011-07-15T13:59:20Z</time>
      </trkpt>
      <trkpt lat="45.27871" lon="1.40453">
        <ele>214</ele>
        <time>2011-07-15T13:59:20Z</time>
      </trkpt>
      <trkpt lat="45.27871" lon="1.40453">
        <ele>214</ele>
        <time>2011-07-15T13:59:22Z</time>
      </trkpt>
      <trkpt lat="45.27871" lon="1.40445">
        <ele>217</ele>
        <time>2011-07-15T13:59:23Z</time>
      </trkpt>
      <trkpt lat="45.27871" lon="1.40436">
        <ele>216</ele>
        <time>2011-07-15T13:59:26Z</time>
      </trkpt>
      <trkpt lat="45.27871" lon="1.40427">
        <ele>216</ele>
        <time>2011-07-15T13:59:29Z</time>
      </trkpt>
      <trkpt lat="45.2787" lon="1.4042">
        <ele>222</ele>
        <time>2011-07-15T13:59:31Z</time>
      </trkpt>
      <trkpt lat="45.27869" lon="1.40413">
        <ele>224</ele>
        <time>2011-07-15T13:59:34Z</time>
      </trkpt>
      <trkpt lat="45.27867" lon="1.40405">
        <ele>222</ele>
        <time>2011-07-15T13:59:37Z</time>
      </trkpt>
      <trkpt lat="45.27864" lon="1.40399">
        <ele>225</ele>
        <time>2011-07-15T13:59:40Z</time>
      </trkpt>
      <trkpt lat="45.2786" lon="1.40394">
        <ele>227</ele>
        <time>2011-07-15T13:59:42Z</time>
      </trkpt>
      <trkpt lat="45.27856" lon="1.40387">
        <ele>226</ele>
        <time>2011-07-15T13:59:45Z</time>
      </trkpt>
      <trkpt lat="45.27851" lon="1.40384">
        <ele>232</ele>
        <time>2011-07-15T13:59:48Z</time>
      </trkpt>
      <trkpt lat="45.27848" lon="1.40379">
        <ele>234</ele>
        <time>2011-07-15T13:59:50Z</time>
      </trkpt>
      <trkpt lat="45.27844" lon="1.40374">
        <ele>231</ele>
        <time>2011-07-15T13:59:52Z</time>
      </trkpt>
      <trkpt lat="45.27838" lon="1.40369">
        <ele>230</ele>
        <time>2011-07-15T13:59:55Z</time>
      </trkpt>
      <trkpt lat="45.27833" lon="1.40364">
        <ele>229</ele>
        <time>2011-07-15T13:59:58Z</time>
      </trkpt>
      <trkpt lat="45.27828" lon="1.40359">
        <ele>232</ele>
        <time>2011-07-15T14:00:01Z</time>
      </trkpt>
      <trkpt lat="45.27824" lon="1.40356">
        <ele>229</ele>
        <time>2011-07-15T14:00:03Z</time>
      </trkpt>
      <trkpt lat="45.27819" lon="1.40352">
        <ele>229</ele>
        <time>2011-07-15T14:00:05Z</time>
      </trkpt>
      <trkpt lat="45.27815" lon="1.40348">
        <ele>226</ele>
        <time>2011-07-15T14:00:07Z</time>
      </trkpt>
      <trkpt lat="45.2781" lon="1.40344">
        <ele>226</ele>
        <time>2011-07-15T14:00:09Z</time>
      </trkpt>
      <trkpt lat="45.27806" lon="1.4034">
        <ele>224</ele>
        <time>2011-07-15T14:00:11Z</time>
      </trkpt>
      <trkpt lat="45.27802" lon="1.40337">
        <ele>225</ele>
        <time>2011-07-15T14:00:13Z</time>
      </trkpt>
      <trkpt lat="45.27796" lon="1.40332">
        <ele>230</ele>
        <time>2011-07-15T14:00:16Z</time>
      </trkpt>
      <trkpt lat="45.27791" lon="1.4033">
        <ele>230</ele>
        <time>2011-07-15T14:00:18Z</time>
      </trkpt>
      <trkpt lat="45.27785" lon="1.40327">
        <ele>232</ele>
        <time>2011-07-15T14:00:20Z</time>
      </trkpt>
      <trkpt lat="45.27779" lon="1.40325">
        <ele>233</ele>
        <time>2011-07-15T14:00:22Z</time>
      </trkpt>
      <trkpt lat="45.27774" lon="1.40324">
        <ele>233</ele>
        <time>2011-07-15T14:00:24Z</time>
      </trkpt>
      <trkpt lat="45.2777" lon="1.40318">
        <ele>230</ele>
        <time>2011-07-15T14:00:26Z</time>
      </trkpt>
      <trkpt lat="45.27772" lon="1.4031">
        <ele>232</ele>
        <time>2011-07-15T14:00:28Z</time>
      </trkpt>
      <trkpt lat="45.27778" lon="1.40307">
        <ele>232</ele>
        <time>2011-07-15T14:00:31Z</time>
      </trkpt>
      <trkpt lat="45.27784" lon="1.40305">
        <ele>238</ele>
        <time>2011-07-15T14:00:33Z</time>
      </trkpt>
      <trkpt lat="45.27791" lon="1.40303">
        <ele>234</ele>
        <time>2011-07-15T14:00:35Z</time>
      </trkpt>
      <trkpt lat="45.27797" lon="1.40302">
        <ele>232</ele>
        <time>2011-07-15T14:00:37Z</time>
      </trkpt>
      <trkpt lat="45.27803" lon="1.40302">
        <ele>234</ele>
        <time>2011-07-15T14:00:39Z</time>
      </trkpt>
      <trkpt lat="45.27809" lon="1.40303">
        <ele>233</ele>
        <time>2011-07-15T14:00:41Z</time>
      </trkpt>
      <trkpt lat="45.27816" lon="1.40304">
        <ele>231</ele>
        <time>2011-07-15T14:00:43Z</time>
      </trkpt>
      <trkpt lat="45.27822" lon="1.40305">
        <ele>233</ele>
        <time>2011-07-15T14:00:45Z</time>
      </trkpt>
      <trkpt lat="45.27828" lon="1.40307">
        <ele>233</ele>
        <time>2011-07-15T14:00:47Z</time>
      </trkpt>
      <trkpt lat="45.27835" lon="1.40308">
        <ele>233</ele>
        <time>2011-07-15T14:00:49Z</time>
      </trkpt>
      <trkpt lat="45.27841" lon="1.4031">
        <ele>234</ele>
        <time>2011-07-15T14:00:51Z</time>
      </trkpt>
      <trkpt lat="45.27846" lon="1.40311">
        <ele>239</ele>
        <time>2011-07-15T14:00:53Z</time>
      </trkpt>
      <trkpt lat="45.27852" lon="1.40312">
        <ele>240</ele>
        <time>2011-07-15T14:00:55Z</time>
      </trkpt>
      <trkpt lat="45.27858" lon="1.40312">
        <ele>238</ele>
        <time>2011-07-15T14:00:57Z</time>
      </trkpt>
      <trkpt lat="45.27865" lon="1.40312">
        <ele>234</ele>
        <time>2011-07-15T14:00:59Z</time>
      </trkpt>
      <trkpt lat="45.2787" lon="1.40312">
        <ele>231</ele>
        <time>2011-07-15T14:01:01Z</time>
      </trkpt>
      <trkpt lat="45.27875" lon="1.40312">
        <ele>230</ele>
        <time>2011-07-15T14:01:03Z</time>
      </trkpt>
      <trkpt lat="45.27881" lon="1.40311">
        <ele>234</ele>
        <time>2011-07-15T14:01:05Z</time>
      </trkpt>
      <trkpt lat="45.27886" lon="1.4031">
        <ele>233</ele>
        <time>2011-07-15T14:01:07Z</time>
      </trkpt>
      <trkpt lat="45.27892" lon="1.40309">
        <ele>232</ele>
        <time>2011-07-15T14:01:09Z</time>
      </trkpt>
      <trkpt lat="45.27897" lon="1.40309">
        <ele>235</ele>
        <time>2011-07-15T14:01:11Z</time>
      </trkpt>
      <trkpt lat="45.27903" lon="1.40308">
        <ele>236</ele>
        <time>2011-07-15T14:01:13Z</time>
      </trkpt>
      <trkpt lat="45.27909" lon="1.40308">
        <ele>233</ele>
        <time>2011-07-15T14:01:15Z</time>
      </trkpt>
      <trkpt lat="45.27915" lon="1.40306">
        <ele>233</ele>
        <time>2011-07-15T14:01:17Z</time>
      </trkpt>
      <trkpt lat="45.27922" lon="1.40304">
        <ele>234</ele>
        <time>2011-07-15T14:01:19Z</time>
      </trkpt>
      <trkpt lat="45.27929" lon="1.40303">
        <ele>238</ele>
        <time>2011-07-15T14:01:21Z</time>
      </trkpt>
      <trkpt lat="45.27935" lon="1.40302">
        <ele>240</ele>
        <time>2011-07-15T14:01:23Z</time>
      </trkpt>
      <trkpt lat="45.27941" lon="1.403">
        <ele>238</ele>
        <time>2011-07-15T14:01:25Z</time>
      </trkpt>
      <trkpt lat="45.27946" lon="1.40298">
        <ele>239</ele>
        <time>2011-07-15T14:01:27Z</time>
      </trkpt>
      <trkpt lat="45.27953" lon="1.40296">
        <ele>240</ele>
        <time>2011-07-15T14:01:29Z</time>
      </trkpt>
      <trkpt lat="45.27959" lon="1.40294">
        <ele>240</ele>
        <time>2011-07-15T14:01:31Z</time>
      </trkpt>
      <trkpt lat="45.27965" lon="1.40292">
        <ele>234</ele>
        <time>2011-07-15T14:01:33Z</time>
      </trkpt>
      <trkpt lat="45.27971" lon="1.40289">
        <ele>235</ele>
        <time>2011-07-15T14:01:35Z</time>
      </trkpt>
      <trkpt lat="45.27977" lon="1.40287">
        <ele>235</ele>
        <time>2011-07-15T14:01:37Z</time>
      </trkpt>
      <trkpt lat="45.27982" lon="1.40284">
        <ele>236</ele>
        <time>2011-07-15T14:01:40Z</time>
      </trkpt>
      <trkpt lat="45.27989" lon="1.40284">
        <ele>236</ele>
        <time>2011-07-15T14:01:43Z</time>
      </trkpt>
      <trkpt lat="45.27994" lon="1.40285">
        <ele>233</ele>
        <time>2011-07-15T14:01:45Z</time>
      </trkpt>
      <trkpt lat="45.27999" lon="1.40287">
        <ele>239</ele>
        <time>2011-07-15T14:01:47Z</time>
      </trkpt>
      <trkpt lat="45.28004" lon="1.4029">
        <ele>241</ele>
        <time>2011-07-15T14:01:49Z</time>
      </trkpt>
      <trkpt lat="45.2801" lon="1.40293">
        <ele>243</ele>
        <time>2011-07-15T14:01:51Z</time>
      </trkpt>
      <trkpt lat="45.28015" lon="1.40296">
        <ele>243</ele>
        <time>2011-07-15T14:01:53Z</time>
      </trkpt>
      <trkpt lat="45.2802" lon="1.40298">
        <ele>247</ele>
        <time>2011-07-15T14:01:55Z</time>
      </trkpt>
      <trkpt lat="45.28026" lon="1.40301">
        <ele>251</ele>
        <time>2011-07-15T14:01:57Z</time>
      </trkpt>
      <trkpt lat="45.2803" lon="1.40302">
        <ele>248</ele>
        <time>2011-07-15T14:01:59Z</time>
      </trkpt>
      <trkpt lat="45.28036" lon="1.40304">
        <ele>249</ele>
        <time>2011-07-15T14:02:01Z</time>
      </trkpt>
      <trkpt lat="45.2804" lon="1.40305">
        <ele>248</ele>
        <time>2011-07-15T14:02:03Z</time>
      </trkpt>
      <trkpt lat="45.28046" lon="1.40307">
        <ele>248</ele>
        <time>2011-07-15T14:02:05Z</time>
      </trkpt>
      <trkpt lat="45.28051" lon="1.40308">
        <ele>246</ele>
        <time>2011-07-15T14:02:07Z</time>
      </trkpt>
      <trkpt lat="45.28056" lon="1.40308">
        <ele>249</ele>
        <time>2011-07-15T14:02:09Z</time>
      </trkpt>
      <trkpt lat="45.28062" lon="1.4031">
        <ele>247</ele>
        <time>2011-07-15T14:02:11Z</time>
      </trkpt>
      <trkpt lat="45.28068" lon="1.4031">
        <ele>246</ele>
        <time>2011-07-15T14:02:13Z</time>
      </trkpt>
      <trkpt lat="45.28074" lon="1.40309">
        <ele>245</ele>
        <time>2011-07-15T14:02:15Z</time>
      </trkpt>
      <trkpt lat="45.28079" lon="1.40309">
        <ele>249</ele>
        <time>2011-07-15T14:02:17Z</time>
      </trkpt>
      <trkpt lat="45.28084" lon="1.40308">
        <ele>248</ele>
        <time>2011-07-15T14:02:19Z</time>
      </trkpt>
      <trkpt lat="45.28089" lon="1.40307">
        <ele>250</ele>
        <time>2011-07-15T14:02:21Z</time>
      </trkpt>
      <trkpt lat="45.28094" lon="1.40306">
        <ele>249</ele>
        <time>2011-07-15T14:02:23Z</time>
      </trkpt>
      <trkpt lat="45.28098" lon="1.40306">
        <ele>245</ele>
        <time>2011-07-15T14:02:25Z</time>
      </trkpt>
      <trkpt lat="45.28105" lon="1.40305">
        <ele>251</ele>
        <time>2011-07-15T14:02:27Z</time>
      </trkpt>
      <trkpt lat="45.2811" lon="1.40304">
        <ele>253</ele>
        <time>2011-07-15T14:02:29Z</time>
      </trkpt>
      <trkpt lat="45.2812" lon="1.403">
        <ele>252</ele>
        <time>2011-07-15T14:02:33Z</time>
      </trkpt>
      <trkpt lat="45.28126" lon="1.40301">
        <ele>253</ele>
        <time>2011-07-15T14:02:50Z</time>
      </trkpt>
      <trkpt lat="45.28126" lon="1.40301">
        <ele>253</ele>
        <time>2011-07-15T14:02:50Z</time>
      </trkpt>
      <trkpt lat="45.28126" lon="1.40301">
        <ele>250</ele>
        <time>2011-07-15T14:02:53Z</time>
      </trkpt>
      <trkpt lat="45.2813" lon="1.40296">
        <ele>258</ele>
        <time>2011-07-15T14:03:04Z</time>
      </trkpt>
      <trkpt lat="45.28136" lon="1.40298">
        <ele>258</ele>
        <time>2011-07-15T14:03:08Z</time>
      </trkpt>
      <trkpt lat="45.28141" lon="1.40299">
        <ele>256</ele>
        <time>2011-07-15T14:03:10Z</time>
      </trkpt>
      <trkpt lat="45.28147" lon="1.403">
        <ele>257</ele>
        <time>2011-07-15T14:03:12Z</time>
      </trkpt>
      <trkpt lat="45.28152" lon="1.40301">
        <ele>256</ele>
        <time>2011-07-15T14:03:14Z</time>
      </trkpt>
      <trkpt lat="45.28158" lon="1.40303">
        <ele>254</ele>
        <time>2011-07-15T14:03:16Z</time>
      </trkpt>
      <trkpt lat="45.28164" lon="1.40306">
        <ele>258</ele>
        <time>2011-07-15T14:03:18Z</time>
      </trkpt>
      <trkpt lat="45.2817" lon="1.40307">
        <ele>256</ele>
        <time>2011-07-15T14:03:20Z</time>
      </trkpt>
      <trkpt lat="45.28176" lon="1.40308">
        <ele>258</ele>
        <time>2011-07-15T14:03:22Z</time>
      </trkpt>
      <trkpt lat="45.28182" lon="1.40311">
        <ele>258</ele>
        <time>2011-07-15T14:03:24Z</time>
      </trkpt>
      <trkpt lat="45.28189" lon="1.40313">
        <ele>257</ele>
        <time>2011-07-15T14:03:26Z</time>
      </trkpt>
      <trkpt lat="45.28195" lon="1.40316">
        <ele>258</ele>
        <time>2011-07-15T14:03:28Z</time>
      </trkpt>
      <trkpt lat="45.28199" lon="1.40316">
        <ele>257</ele>
        <time>2011-07-15T14:03:30Z</time>
      </trkpt>
      <trkpt lat="45.28206" lon="1.40317">
        <ele>256</ele>
        <time>2011-07-15T14:03:33Z</time>
      </trkpt>
      <trkpt lat="45.28212" lon="1.40319">
        <ele>258</ele>
        <time>2011-07-15T14:03:36Z</time>
      </trkpt>
      <trkpt lat="45.28218" lon="1.40321">
        <ele>259</ele>
        <time>2011-07-15T14:03:38Z</time>
      </trkpt>
      <trkpt lat="45.28224" lon="1.40322">
        <ele>262</ele>
        <time>2011-07-15T14:03:40Z</time>
      </trkpt>
      <trkpt lat="45.28229" lon="1.40322">
        <ele>259</ele>
        <time>2011-07-15T14:03:42Z</time>
      </trkpt>
      <trkpt lat="45.28236" lon="1.40323">
        <ele>256</ele>
        <time>2011-07-15T14:03:44Z</time>
      </trkpt>
      <trkpt lat="45.28243" lon="1.40323">
        <ele>256</ele>
        <time>2011-07-15T14:03:46Z</time>
      </trkpt>
      <trkpt lat="45.28249" lon="1.40324">
        <ele>255</ele>
        <time>2011-07-15T14:03:48Z</time>
      </trkpt>
      <trkpt lat="45.28255" lon="1.40324">
        <ele>259</ele>
        <time>2011-07-15T14:03:50Z</time>
      </trkpt>
      <trkpt lat="45.28261" lon="1.40325">
        <ele>256</ele>
        <time>2011-07-15T14:03:52Z</time>
      </trkpt>
      <trkpt lat="45.28267" lon="1.40324">
        <ele>260</ele>
        <time>2011-07-15T14:03:54Z</time>
      </trkpt>
      <trkpt lat="45.28273" lon="1.40325">
        <ele>262</ele>
        <time>2011-07-15T14:03:56Z</time>
      </trkpt>
      <trkpt lat="45.28279" lon="1.40326">
        <ele>266</ele>
        <time>2011-07-15T14:03:58Z</time>
      </trkpt>
      <trkpt lat="45.28286" lon="1.40328">
        <ele>266</ele>
        <time>2011-07-15T14:04:00Z</time>
      </trkpt>
      <trkpt lat="45.28292" lon="1.4033">
        <ele>267</ele>
        <time>2011-07-15T14:04:02Z</time>
      </trkpt>
      <trkpt lat="45.28299" lon="1.40331">
        <ele>265</ele>
        <time>2011-07-15T14:04:04Z</time>
      </trkpt>
      <trkpt lat="45.28304" lon="1.40332">
        <ele>264</ele>
        <time>2011-07-15T14:04:05Z</time>
      </trkpt>
      <trkpt lat="45.28311" lon="1.40334">
        <ele>268</ele>
        <time>2011-07-15T14:04:07Z</time>
      </trkpt>
      <trkpt lat="45.28318" lon="1.40336">
        <ele>264</ele>
        <time>2011-07-15T14:04:09Z</time>
      </trkpt>
      <trkpt lat="45.28323" lon="1.40337">
        <ele>264</ele>
        <time>2011-07-15T14:04:10Z</time>
      </trkpt>
      <trkpt lat="45.28328" lon="1.40338">
        <ele>264</ele>
        <time>2011-07-15T14:04:11Z</time>
      </trkpt>
      <trkpt lat="45.28337" lon="1.40341">
        <ele>266</ele>
        <time>2011-07-15T14:04:13Z</time>
      </trkpt>
      <trkpt lat="45.28342" lon="1.40341">
        <ele>265</ele>
        <time>2011-07-15T14:04:14Z</time>
      </trkpt>
      <trkpt lat="45.28348" lon="1.40342">
        <ele>266</ele>
        <time>2011-07-15T14:04:15Z</time>
      </trkpt>
      <trkpt lat="45.28352" lon="1.40342">
        <ele>264</ele>
        <time>2011-07-15T14:04:16Z</time>
      </trkpt>
      <trkpt lat="45.28358" lon="1.40343">
        <ele>266</ele>
        <time>2011-07-15T14:04:16Z</time>
      </trkpt>
      <trkpt lat="45.28363" lon="1.40343">
        <ele>264</ele>
        <time>2011-07-15T14:04:18Z</time>
      </trkpt>
      <trkpt lat="45.28368" lon="1.40342">
        <ele>263</ele>
        <time>2011-07-15T14:04:19Z</time>
      </trkpt>
      <trkpt lat="45.28374" lon="1.40341">
        <ele>262</ele>
        <time>2011-07-15T14:04:20Z</time>
      </trkpt>
      <trkpt lat="45.28378" lon="1.40341">
        <ele>258</ele>
        <time>2011-07-15T14:04:21Z</time>
      </trkpt>
      <trkpt lat="45.28384" lon="1.4034">
        <ele>258</ele>
        <time>2011-07-15T14:04:22Z</time>
      </trkpt>
      <trkpt lat="45.28388" lon="1.40339">
        <ele>256</ele>
        <time>2011-07-15T14:04:23Z</time>
      </trkpt>
      <trkpt lat="45.28393" lon="1.40339">
        <ele>255</ele>
        <time>2011-07-15T14:04:24Z</time>
      </trkpt>
      <trkpt lat="45.28399" lon="1.40338">
        <ele>252</ele>
        <time>2011-07-15T14:04:25Z</time>
      </trkpt>
      <trkpt lat="45.28405" lon="1.40336">
        <ele>253</ele>
        <time>2011-07-15T14:04:26Z</time>
      </trkpt>
      <trkpt lat="45.28412" lon="1.40334">
        <ele>253</ele>
        <time>2011-07-15T14:04:27Z</time>
      </trkpt>
      <trkpt lat="45.28419" lon="1.40333">
        <ele>255</ele>
        <time>2011-07-15T14:04:28Z</time>
      </trkpt>
      <trkpt lat="45.28425" lon="1.40332">
        <ele>257</ele>
        <time>2011-07-15T14:04:29Z</time>
      </trkpt>
      <trkpt lat="45.28432" lon="1.40331">
        <ele>257</ele>
        <time>2011-07-15T14:04:30Z</time>
      </trkpt>
      <trkpt lat="45.28437" lon="1.4033">
        <ele>255</ele>
        <time>2011-07-15T14:04:31Z</time>
      </trkpt>
      <trkpt lat="45.28443" lon="1.40329">
        <ele>257</ele>
        <time>2011-07-15T14:04:32Z</time>
      </trkpt>
      <trkpt lat="45.28448" lon="1.40327">
        <ele>257</ele>
        <time>2011-07-15T14:04:33Z</time>
      </trkpt>
      <trkpt lat="45.28453" lon="1.40326">
        <ele>257</ele>
        <time>2011-07-15T14:04:34Z</time>
      </trkpt>
      <trkpt lat="45.28462" lon="1.40324">
        <ele>257</ele>
        <time>2011-07-15T14:04:36Z</time>
      </trkpt>
      <trkpt lat="45.28471" lon="1.40323">
        <ele>256</ele>
        <time>2011-07-15T14:04:38Z</time>
      </trkpt>
      <trkpt lat="45.28478" lon="1.40323">
        <ele>250</ele>
        <time>2011-07-15T14:04:39Z</time>
      </trkpt>
      <trkpt lat="45.28486" lon="1.40322">
        <ele>248</ele>
        <time>2011-07-15T14:04:40Z</time>
      </trkpt>
      <trkpt lat="45.28493" lon="1.40322">
        <ele>249</ele>
        <time>2011-07-15T14:04:41Z</time>
      </trkpt>
      <trkpt lat="45.285" lon="1.40322">
        <ele>252</ele>
        <time>2011-07-15T14:04:42Z</time>
      </trkpt>
      <trkpt lat="45.28508" lon="1.40322">
        <ele>251</ele>
        <time>2011-07-15T14:04:43Z</time>
      </trkpt>
      <trkpt lat="45.28516" lon="1.40322">
        <ele>249</ele>
        <time>2011-07-15T14:04:44Z</time>
      </trkpt>
      <trkpt lat="45.28523" lon="1.4032">
        <ele>253</ele>
        <time>2011-07-15T14:04:45Z</time>
      </trkpt>
      <trkpt lat="45.2853" lon="1.40317">
        <ele>253</ele>
        <time>2011-07-15T14:04:46Z</time>
      </trkpt>
      <trkpt lat="45.28537" lon="1.40315">
        <ele>255</ele>
        <time>2011-07-15T14:04:47Z</time>
      </trkpt>
      <trkpt lat="45.28542" lon="1.40314">
        <ele>256</ele>
        <time>2011-07-15T14:04:48Z</time>
      </trkpt>
      <trkpt lat="45.28547" lon="1.40314">
        <ele>256</ele>
        <time>2011-07-15T14:04:49Z</time>
      </trkpt>
      <trkpt lat="45.28553" lon="1.40313">
        <ele>258</ele>
        <time>2011-07-15T14:04:50Z</time>
      </trkpt>
      <trkpt lat="45.28559" lon="1.40312">
        <ele>258</ele>
        <time>2011-07-15T14:04:51Z</time>
      </trkpt>
      <trkpt lat="45.28566" lon="1.40312">
        <ele>259</ele>
        <time>2011-07-15T14:04:52Z</time>
      </trkpt>
      <trkpt lat="45.28573" lon="1.40312">
        <ele>261</ele>
        <time>2011-07-15T14:04:53Z</time>
      </trkpt>
      <trkpt lat="45.28578" lon="1.40313">
        <ele>263</ele>
        <time>2011-07-15T14:04:54Z</time>
      </trkpt>
      <trkpt lat="45.28584" lon="1.40314">
        <ele>264</ele>
        <time>2011-07-15T14:04:55Z</time>
      </trkpt>
      <trkpt lat="45.28592" lon="1.40314">
        <ele>264</ele>
        <time>2011-07-15T14:04:56Z</time>
      </trkpt>
      <trkpt lat="45.286" lon="1.40315">
        <ele>264</ele>
        <time>2011-07-15T14:04:57Z</time>
      </trkpt>
      <trkpt lat="45.28607" lon="1.40315">
        <ele>265</ele>
        <time>2011-07-15T14:04:58Z</time>
      </trkpt>
      <trkpt lat="45.28614" lon="1.40314">
        <ele>259</ele>
        <time>2011-07-15T14:04:59Z</time>
      </trkpt>
      <trkpt lat="45.2862" lon="1.40314">
        <ele>257</ele>
        <time>2011-07-15T14:05:00Z</time>
      </trkpt>
      <trkpt lat="45.28626" lon="1.40314">
        <ele>256</ele>
        <time>2011-07-15T14:05:01Z</time>
      </trkpt>
      <trkpt lat="45.28631" lon="1.40314">
        <ele>257</ele>
        <time>2011-07-15T14:05:02Z</time>
      </trkpt>
      <trkpt lat="45.28636" lon="1.40313">
        <ele>259</ele>
        <time>2011-07-15T14:05:03Z</time>
      </trkpt>
      <trkpt lat="45.28641" lon="1.40312">
        <ele>259</ele>
        <time>2011-07-15T14:05:04Z</time>
      </trkpt>
      <trkpt lat="45.28647" lon="1.4031">
        <ele>258</ele>
        <time>2011-07-15T14:05:05Z</time>
      </trkpt>
      <trkpt lat="45.28652" lon="1.4031">
        <ele>259</ele>
        <time>2011-07-15T14:05:06Z</time>
      </trkpt>
      <trkpt lat="45.28657" lon="1.40309">
        <ele>260</ele>
        <time>2011-07-15T14:05:07Z</time>
      </trkpt>
      <trkpt lat="45.28662" lon="1.40308">
        <ele>261</ele>
        <time>2011-07-15T14:05:08Z</time>
      </trkpt>
      <trkpt lat="45.28669" lon="1.4031">
        <ele>260</ele>
        <time>2011-07-15T14:05:10Z</time>
      </trkpt>
      <trkpt lat="45.28676" lon="1.40307">
        <ele>259</ele>
        <time>2011-07-15T14:05:12Z</time>
      </trkpt>
      <trkpt lat="45.28684" lon="1.40305">
        <ele>262</ele>
        <time>2011-07-15T14:05:14Z</time>
      </trkpt>
      <trkpt lat="45.28691" lon="1.40304">
        <ele>259</ele>
        <time>2011-07-15T14:05:16Z</time>
      </trkpt>
      <trkpt lat="45.28697" lon="1.40302">
        <ele>263</ele>
        <time>2011-07-15T14:05:18Z</time>
      </trkpt>
      <trkpt lat="45.28704" lon="1.40299">
        <ele>262</ele>
        <time>2011-07-15T14:05:20Z</time>
      </trkpt>
      <trkpt lat="45.28711" lon="1.40297">
        <ele>265</ele>
        <time>2011-07-15T14:05:22Z</time>
      </trkpt>
      <trkpt lat="45.28717" lon="1.40296">
        <ele>265</ele>
        <time>2011-07-15T14:05:24Z</time>
      </trkpt>
      <trkpt lat="45.28725" lon="1.40297">
        <ele>266</ele>
        <time>2011-07-15T14:05:26Z</time>
      </trkpt>
      <trkpt lat="45.2873" lon="1.40293">
        <ele>263</ele>
        <time>2011-07-15T14:05:28Z</time>
      </trkpt>
      <trkpt lat="45.28734" lon="1.40286">
        <ele>264</ele>
        <time>2011-07-15T14:05:30Z</time>
      </trkpt>
      <trkpt lat="45.28738" lon="1.4028">
        <ele>269</ele>
        <time>2011-07-15T14:05:32Z</time>
      </trkpt>
      <trkpt lat="45.28745" lon="1.40276">
        <ele>269</ele>
        <time>2011-07-15T14:05:34Z</time>
      </trkpt>
      <trkpt lat="45.28751" lon="1.4027">
        <ele>271</ele>
        <time>2011-07-15T14:05:36Z</time>
      </trkpt>
      <trkpt lat="45.28755" lon="1.40263">
        <ele>270</ele>
        <time>2011-07-15T14:05:38Z</time>
      </trkpt>
      <trkpt lat="45.28758" lon="1.40256">
        <ele>270</ele>
        <time>2011-07-15T14:05:40Z</time>
      </trkpt>
      <trkpt lat="45.28761" lon="1.40249">
        <ele>269</ele>
        <time>2011-07-15T14:05:42Z</time>
      </trkpt>
      <trkpt lat="45.28764" lon="1.40244">
        <ele>267</ele>
        <time>2011-07-15T14:05:44Z</time>
      </trkpt>
      <trkpt lat="45.28766" lon="1.40238">
        <ele>266</ele>
        <time>2011-07-15T14:05:46Z</time>
      </trkpt>
      <trkpt lat="45.28772" lon="1.40232">
        <ele>268</ele>
        <time>2011-07-15T14:05:48Z</time>
      </trkpt>
      <trkpt lat="45.28776" lon="1.4023">
        <ele>265</ele>
        <time>2011-07-15T14:05:49Z</time>
      </trkpt>
      <trkpt lat="45.28782" lon="1.40227">
        <ele>265</ele>
        <time>2011-07-15T14:05:50Z</time>
      </trkpt>
      <trkpt lat="45.28791" lon="1.40224">
        <ele>264</ele>
        <time>2011-07-15T14:05:52Z</time>
      </trkpt>
      <trkpt lat="45.28797" lon="1.4022">
        <ele>265</ele>
        <time>2011-07-15T14:05:53Z</time>
      </trkpt>
      <trkpt lat="45.28803" lon="1.40217">
        <ele>263</ele>
        <time>2011-07-15T14:05:54Z</time>
      </trkpt>
      <trkpt lat="45.2881" lon="1.40212">
        <ele>261</ele>
        <time>2011-07-15T14:05:55Z</time>
      </trkpt>
      <trkpt lat="45.28817" lon="1.40208">
        <ele>261</ele>
        <time>2011-07-15T14:05:56Z</time>
      </trkpt>
      <trkpt lat="45.28824" lon="1.40203">
        <ele>262</ele>
        <time>2011-07-15T14:05:57Z</time>
      </trkpt>
      <trkpt lat="45.2883" lon="1.40199">
        <ele>260</ele>
        <time>2011-07-15T14:05:58Z</time>
      </trkpt>
      <trkpt lat="45.28837" lon="1.40195">
        <ele>259</ele>
        <time>2011-07-15T14:05:59Z</time>
      </trkpt>
      <trkpt lat="45.28844" lon="1.40192">
        <ele>256</ele>
        <time>2011-07-15T14:06:00Z</time>
      </trkpt>
      <trkpt lat="45.2885" lon="1.40189">
        <ele>254</ele>
        <time>2011-07-15T14:06:01Z</time>
      </trkpt>
      <trkpt lat="45.28856" lon="1.40186">
        <ele>254</ele>
        <time>2011-07-15T14:06:02Z</time>
      </trkpt>
      <trkpt lat="45.28862" lon="1.40187">
        <ele>258</ele>
        <time>2011-07-15T14:06:03Z</time>
      </trkpt>
      <trkpt lat="45.28869" lon="1.40188">
        <ele>262</ele>
        <time>2011-07-15T14:06:05Z</time>
      </trkpt>
      <trkpt lat="45.28875" lon="1.4019">
        <ele>262</ele>
        <time>2011-07-15T14:06:06Z</time>
      </trkpt>
      <trkpt lat="45.28881" lon="1.40192">
        <ele>261</ele>
        <time>2011-07-15T14:06:07Z</time>
      </trkpt>
      <trkpt lat="45.28892" lon="1.40196">
        <ele>240</ele>
        <time>2011-07-15T14:06:09Z</time>
      </trkpt>
      <trkpt lat="45.28899" lon="1.40199">
        <ele>234</ele>
        <time>2011-07-15T14:06:10Z</time>
      </trkpt>
      <trkpt lat="45.28906" lon="1.40201">
        <ele>233</ele>
        <time>2011-07-15T14:06:11Z</time>
      </trkpt>
      <trkpt lat="45.28913" lon="1.40204">
        <ele>232</ele>
        <time>2011-07-15T14:06:12Z</time>
      </trkpt>
      <trkpt lat="45.28918" lon="1.40207">
        <ele>227</ele>
        <time>2011-07-15T14:06:13Z</time>
      </trkpt>
      <trkpt lat="45.28923" lon="1.40208">
        <ele>232</ele>
        <time>2011-07-15T14:06:14Z</time>
      </trkpt>
      <trkpt lat="45.28939" lon="1.4021">
        <ele>231</ele>
        <time>2011-07-15T14:06:18Z</time>
      </trkpt>
      <trkpt lat="45.28939" lon="1.4021">
        <ele>231</ele>
        <time>2011-07-15T14:06:18Z</time>
      </trkpt>
      <trkpt lat="45.28939" lon="1.4021">
        <ele>231</ele>
        <time>2011-07-15T14:06:19Z</time>
      </trkpt>
      <trkpt lat="45.28948" lon="1.4021">
        <ele>232</ele>
        <time>2011-07-15T14:06:20Z</time>
      </trkpt>
      <trkpt lat="45.28955" lon="1.40211">
        <ele>236</ele>
        <time>2011-07-15T14:06:21Z</time>
      </trkpt>
      <trkpt lat="45.28961" lon="1.40211">
        <ele>234</ele>
        <time>2011-07-15T14:06:22Z</time>
      </trkpt>
      <trkpt lat="45.2897" lon="1.40212">
        <ele>233</ele>
        <time>2011-07-15T14:06:24Z</time>
      </trkpt>
      <trkpt lat="45.28975" lon="1.40214">
        <ele>230</ele>
        <time>2011-07-15T14:06:25Z</time>
      </trkpt>
      <trkpt lat="45.2898" lon="1.40216">
        <ele>232</ele>
        <time>2011-07-15T14:06:26Z</time>
      </trkpt>
      <trkpt lat="45.2898" lon="1.40216">
        <ele>232</ele>
        <time>2011-07-15T14:06:26Z</time>
      </trkpt>
      <trkpt lat="45.2898" lon="1.40216">
        <ele>232</ele>
        <time>2011-07-15T14:06:27Z</time>
      </trkpt>
      <trkpt lat="45.28988" lon="1.40221">
        <ele>231</ele>
        <time>2011-07-15T14:06:28Z</time>
      </trkpt>
      <trkpt lat="45.28996" lon="1.40224">
        <ele>236</ele>
        <time>2011-07-15T14:06:30Z</time>
      </trkpt>
      <trkpt lat="45.29" lon="1.40227">
        <ele>234</ele>
        <time>2011-07-15T14:06:31Z</time>
      </trkpt>
      <trkpt lat="45.29004" lon="1.4023">
        <ele>234</ele>
        <time>2011-07-15T14:06:32Z</time>
      </trkpt>
      <trkpt lat="45.29009" lon="1.40231">
        <ele>230</ele>
        <time>2011-07-15T14:06:33Z</time>
      </trkpt>
      <trkpt lat="45.29014" lon="1.40232">
        <ele>230</ele>
        <time>2011-07-15T14:06:34Z</time>
      </trkpt>
      <trkpt lat="45.29019" lon="1.40232">
        <ele>230</ele>
        <time>2011-07-15T14:06:35Z</time>
      </trkpt>
      <trkpt lat="45.29025" lon="1.40232">
        <ele>227</ele>
        <time>2011-07-15T14:06:36Z</time>
      </trkpt>
      <trkpt lat="45.2903" lon="1.40232">
        <ele>226</ele>
        <time>2011-07-15T14:06:37Z</time>
      </trkpt>
      <trkpt lat="45.29036" lon="1.40231">
        <ele>226</ele>
        <time>2011-07-15T14:06:38Z</time>
      </trkpt>
      <trkpt lat="45.29042" lon="1.4023">
        <ele>227</ele>
        <time>2011-07-15T14:06:39Z</time>
      </trkpt>
      <trkpt lat="45.29048" lon="1.40229">
        <ele>226</ele>
        <time>2011-07-15T14:06:40Z</time>
      </trkpt>
      <trkpt lat="45.29053" lon="1.40228">
        <ele>227</ele>
        <time>2011-07-15T14:06:41Z</time>
      </trkpt>
      <trkpt lat="45.29057" lon="1.40227">
        <ele>228</ele>
        <time>2011-07-15T14:06:42Z</time>
      </trkpt>
      <trkpt lat="45.29062" lon="1.40227">
        <ele>229</ele>
        <time>2011-07-15T14:06:43Z</time>
      </trkpt>
      <trkpt lat="45.29067" lon="1.40226">
        <ele>227</ele>
        <time>2011-07-15T14:06:44Z</time>
      </trkpt>
      <trkpt lat="45.29073" lon="1.40225">
        <ele>228</ele>
        <time>2011-07-15T14:06:45Z</time>
      </trkpt>
      <trkpt lat="45.29079" lon="1.40224">
        <ele>225</ele>
        <time>2011-07-15T14:06:46Z</time>
      </trkpt>
      <trkpt lat="45.29084" lon="1.40224">
        <ele>224</ele>
        <time>2011-07-15T14:06:47Z</time>
      </trkpt>
      <trkpt lat="45.2909" lon="1.40223">
        <ele>227</ele>
        <time>2011-07-15T14:06:48Z</time>
      </trkpt>
      <trkpt lat="45.29097" lon="1.40221">
        <ele>225</ele>
        <time>2011-07-15T14:06:49Z</time>
      </trkpt>
      <trkpt lat="45.29103" lon="1.4022">
        <ele>224</ele>
        <time>2011-07-15T14:06:50Z</time>
      </trkpt>
      <trkpt lat="45.29111" lon="1.40218">
        <ele>227</ele>
        <time>2011-07-15T14:06:51Z</time>
      </trkpt>
      <trkpt lat="45.29118" lon="1.40216">
        <ele>226</ele>
        <time>2011-07-15T14:06:52Z</time>
      </trkpt>
      <trkpt lat="45.29124" lon="1.40215">
        <ele>226</ele>
        <time>2011-07-15T14:06:53Z</time>
      </trkpt>
      <trkpt lat="45.29129" lon="1.40214">
        <ele>227</ele>
        <time>2011-07-15T14:06:54Z</time>
      </trkpt>
      <trkpt lat="45.29136" lon="1.40214">
        <ele>226</ele>
        <time>2011-07-15T14:06:55Z</time>
      </trkpt>
      <trkpt lat="45.29142" lon="1.40214">
        <ele>226</ele>
        <time>2011-07-15T14:06:56Z</time>
      </trkpt>
      <trkpt lat="45.29149" lon="1.40214">
        <ele>226</ele>
        <time>2011-07-15T14:06:57Z</time>
      </trkpt>
      <trkpt lat="45.29156" lon="1.40214">
        <ele>230</ele>
        <time>2011-07-15T14:06:58Z</time>
      </trkpt>
      <trkpt lat="45.29163" lon="1.40213">
        <ele>229</ele>
        <time>2011-07-15T14:06:59Z</time>
      </trkpt>
      <trkpt lat="45.29169" lon="1.40213">
        <ele>228</ele>
        <time>2011-07-15T14:07:00Z</time>
      </trkpt>
      <trkpt lat="45.29176" lon="1.40212">
        <ele>230</ele>
        <time>2011-07-15T14:07:01Z</time>
      </trkpt>
      <trkpt lat="45.29182" lon="1.40212">
        <ele>231</ele>
        <time>2011-07-15T14:07:02Z</time>
      </trkpt>
      <trkpt lat="45.29188" lon="1.40212">
        <ele>234</ele>
        <time>2011-07-15T14:07:03Z</time>
      </trkpt>
      <trkpt lat="45.29193" lon="1.40213">
        <ele>233</ele>
        <time>2011-07-15T14:07:04Z</time>
      </trkpt>
      <trkpt lat="45.29199" lon="1.40213">
        <ele>232</ele>
        <time>2011-07-15T14:07:05Z</time>
      </trkpt>
      <trkpt lat="45.29204" lon="1.40212">
        <ele>229</ele>
        <time>2011-07-15T14:07:06Z</time>
      </trkpt>
      <trkpt lat="45.2921" lon="1.40211">
        <ele>226</ele>
        <time>2011-07-15T14:07:07Z</time>
      </trkpt>
      <trkpt lat="45.29214" lon="1.4021">
        <ele>224</ele>
        <time>2011-07-15T14:07:08Z</time>
      </trkpt>
      <trkpt lat="45.2922" lon="1.40208">
        <ele>223</ele>
        <time>2011-07-15T14:07:09Z</time>
      </trkpt>
      <trkpt lat="45.29224" lon="1.40207">
        <ele>224</ele>
        <time>2011-07-15T14:07:10Z</time>
      </trkpt>
      <trkpt lat="45.29229" lon="1.40206">
        <ele>226</ele>
        <time>2011-07-15T14:07:11Z</time>
      </trkpt>
      <trkpt lat="45.29234" lon="1.40204">
        <ele>227</ele>
        <time>2011-07-15T14:07:12Z</time>
      </trkpt>
      <trkpt lat="45.29242" lon="1.40203">
        <ele>226</ele>
        <time>2011-07-15T14:07:14Z</time>
      </trkpt>
      <trkpt lat="45.29247" lon="1.40203">
        <ele>226</ele>
        <time>2011-07-15T14:07:15Z</time>
      </trkpt>
      <trkpt lat="45.29253" lon="1.40202">
        <ele>225</ele>
        <time>2011-07-15T14:07:16Z</time>
      </trkpt>
      <trkpt lat="45.29259" lon="1.40202">
        <ele>223</ele>
        <time>2011-07-15T14:07:17Z</time>
      </trkpt>
      <trkpt lat="45.29264" lon="1.40202">
        <ele>220</ele>
        <time>2011-07-15T14:07:18Z</time>
      </trkpt>
      <trkpt lat="45.29268" lon="1.40201">
        <ele>220</ele>
        <time>2011-07-15T14:07:19Z</time>
      </trkpt>
      <trkpt lat="45.29277" lon="1.40201">
        <ele>220</ele>
        <time>2011-07-15T14:07:21Z</time>
      </trkpt>
      <trkpt lat="45.29282" lon="1.40201">
        <ele>219</ele>
        <time>2011-07-15T14:07:22Z</time>
      </trkpt>
      <trkpt lat="45.29287" lon="1.40201">
        <ele>220</ele>
        <time>2011-07-15T14:07:23Z</time>
      </trkpt>
      <trkpt lat="45.29292" lon="1.402">
        <ele>224</ele>
        <time>2011-07-15T14:07:24Z</time>
      </trkpt>
      <trkpt lat="45.293" lon="1.402">
        <ele>226</ele>
        <time>2011-07-15T14:07:26Z</time>
      </trkpt>
      <trkpt lat="45.29308" lon="1.40198">
        <ele>226</ele>
        <time>2011-07-15T14:07:28Z</time>
      </trkpt>
      <trkpt lat="45.29315" lon="1.40198">
        <ele>224</ele>
        <time>2011-07-15T14:07:30Z</time>
      </trkpt>
      <trkpt lat="45.29323" lon="1.40197">
        <ele>224</ele>
        <time>2011-07-15T14:07:32Z</time>
      </trkpt>
      <trkpt lat="45.2933" lon="1.40196">
        <ele>224</ele>
        <time>2011-07-15T14:07:34Z</time>
      </trkpt>
      <trkpt lat="45.29338" lon="1.40195">
        <ele>225</ele>
        <time>2011-07-15T14:07:36Z</time>
      </trkpt>
      <trkpt lat="45.29344" lon="1.40197">
        <ele>226</ele>
        <time>2011-07-15T14:07:38Z</time>
      </trkpt>
      <trkpt lat="45.29348" lon="1.40202">
        <ele>228</ele>
        <time>2011-07-15T14:07:40Z</time>
      </trkpt>
      <trkpt lat="45.29349" lon="1.4021">
        <ele>230</ele>
        <time>2011-07-15T14:07:42Z</time>
      </trkpt>
      <trkpt lat="45.29346" lon="1.40217">
        <ele>232</ele>
        <time>2011-07-15T14:07:44Z</time>
      </trkpt>
      <trkpt lat="45.29342" lon="1.40227">
        <ele>232</ele>
        <time>2011-07-15T14:07:46Z</time>
      </trkpt>
      <trkpt lat="45.29343" lon="1.40237">
        <ele>233</ele>
        <time>2011-07-15T14:07:48Z</time>
      </trkpt>
      <trkpt lat="45.29348" lon="1.40244">
        <ele>233</ele>
        <time>2011-07-15T14:07:50Z</time>
      </trkpt>
      <trkpt lat="45.29356" lon="1.40247">
        <ele>233</ele>
        <time>2011-07-15T14:07:52Z</time>
      </trkpt>
      <trkpt lat="45.29364" lon="1.40248">
        <ele>228</ele>
        <time>2011-07-15T14:07:54Z</time>
      </trkpt>
      <trkpt lat="45.29369" lon="1.40249">
        <ele>227</ele>
        <time>2011-07-15T14:07:55Z</time>
      </trkpt>
      <trkpt lat="45.29375" lon="1.4025">
        <ele>227</ele>
        <time>2011-07-15T14:07:56Z</time>
      </trkpt>
      <trkpt lat="45.2938" lon="1.4025">
        <ele>229</ele>
        <time>2011-07-15T14:07:57Z</time>
      </trkpt>
      <trkpt lat="45.29384" lon="1.4025">
        <ele>228</ele>
        <time>2011-07-15T14:07:58Z</time>
      </trkpt>
      <trkpt lat="45.29389" lon="1.40251">
        <ele>228</ele>
        <time>2011-07-15T14:07:59Z</time>
      </trkpt>
      <trkpt lat="45.29394" lon="1.40251">
        <ele>229</ele>
        <time>2011-07-15T14:08:00Z</time>
      </trkpt>
      <trkpt lat="45.29402" lon="1.40251">
        <ele>227</ele>
        <time>2011-07-15T14:08:02Z</time>
      </trkpt>
      <trkpt lat="45.29409" lon="1.40251">
        <ele>226</ele>
        <time>2011-07-15T14:08:04Z</time>
      </trkpt>
      <trkpt lat="45.29416" lon="1.40251">
        <ele>227</ele>
        <time>2011-07-15T14:08:06Z</time>
      </trkpt>
      <trkpt lat="45.29421" lon="1.4025">
        <ele>231</ele>
        <time>2011-07-15T14:08:08Z</time>
      </trkpt>
      <trkpt lat="45.29426" lon="1.4025">
        <ele>231</ele>
        <time>2011-07-15T14:08:10Z</time>
      </trkpt>
      <trkpt lat="45.2943" lon="1.4025">
        <ele>228</ele>
        <time>2011-07-15T14:08:12Z</time>
      </trkpt>
      <trkpt lat="45.29437" lon="1.4025">
        <ele>231</ele>
        <time>2011-07-15T14:08:15Z</time>
      </trkpt>
      <trkpt lat="45.29441" lon="1.4025">
        <ele>230</ele>
        <time>2011-07-15T14:08:17Z</time>
      </trkpt>
      <trkpt lat="45.29448" lon="1.40251">
        <ele>236</ele>
        <time>2011-07-15T14:08:20Z</time>
      </trkpt>
      <trkpt lat="45.29454" lon="1.4025">
        <ele>237</ele>
        <time>2011-07-15T14:08:22Z</time>
      </trkpt>
      <trkpt lat="45.29459" lon="1.4025">
        <ele>237</ele>
        <time>2011-07-15T14:08:24Z</time>
      </trkpt>
      <trkpt lat="45.29464" lon="1.40249">
        <ele>232</ele>
        <time>2011-07-15T14:08:26Z</time>
      </trkpt>
      <trkpt lat="45.29469" lon="1.40248">
        <ele>233</ele>
        <time>2011-07-15T14:08:28Z</time>
      </trkpt>
      <trkpt lat="45.29474" lon="1.40249">
        <ele>234</ele>
        <time>2011-07-15T14:08:30Z</time>
      </trkpt>
      <trkpt lat="45.29478" lon="1.40252">
        <ele>234</ele>
        <time>2011-07-15T14:08:33Z</time>
      </trkpt>
      <trkpt lat="45.29483" lon="1.40253">
        <ele>236</ele>
        <time>2011-07-15T14:08:36Z</time>
      </trkpt>
      <trkpt lat="45.29491" lon="1.40255">
        <ele>237</ele>
        <time>2011-07-15T14:08:40Z</time>
      </trkpt>
      <trkpt lat="45.29491" lon="1.40255">
        <ele>237</ele>
        <time>2011-07-15T14:08:40Z</time>
      </trkpt>
      <trkpt lat="45.29491" lon="1.40255">
        <ele>237</ele>
        <time>2011-07-15T14:08:41Z</time>
      </trkpt>
      <trkpt lat="45.29496" lon="1.40258">
        <ele>236</ele>
        <time>2011-07-15T14:08:45Z</time>
      </trkpt>
      <trkpt lat="45.29496" lon="1.40258">
        <ele>236</ele>
        <time>2011-07-15T14:08:45Z</time>
      </trkpt>
      <trkpt lat="45.29496" lon="1.40258">
        <ele>236</ele>
        <time>2011-07-15T14:08:46Z</time>
      </trkpt>
      <trkpt lat="45.29502" lon="1.40262">
        <ele>233</ele>
        <time>2011-07-15T14:08:47Z</time>
      </trkpt>
      <trkpt lat="45.29507" lon="1.40264">
        <ele>235</ele>
        <time>2011-07-15T14:08:49Z</time>
      </trkpt>
      <trkpt lat="45.29511" lon="1.40268">
        <ele>236</ele>
        <time>2011-07-15T14:08:52Z</time>
      </trkpt>
      <trkpt lat="45.29515" lon="1.40272">
        <ele>240</ele>
        <time>2011-07-15T14:08:55Z</time>
      </trkpt>
      <trkpt lat="45.2952" lon="1.40276">
        <ele>240</ele>
        <time>2011-07-15T14:08:58Z</time>
      </trkpt>
      <trkpt lat="45.29525" lon="1.40279">
        <ele>245</ele>
        <time>2011-07-15T14:09:01Z</time>
      </trkpt>
      <trkpt lat="45.29525" lon="1.40279">
        <ele>245</ele>
        <time>2011-07-15T14:09:01Z</time>
      </trkpt>
      <trkpt lat="45.29525" lon="1.40279">
        <ele>245</ele>
        <time>2011-07-15T14:09:02Z</time>
      </trkpt>
      <trkpt lat="45.29533" lon="1.40285">
        <ele>246</ele>
        <time>2011-07-15T14:09:07Z</time>
      </trkpt>
      <trkpt lat="45.29538" lon="1.4029">
        <ele>248</ele>
        <time>2011-07-15T14:09:10Z</time>
      </trkpt>
      <trkpt lat="45.29544" lon="1.40294">
        <ele>246</ele>
        <time>2011-07-15T14:09:13Z</time>
      </trkpt>
      <trkpt lat="45.29548" lon="1.40296">
        <ele>247</ele>
        <time>2011-07-15T14:09:15Z</time>
      </trkpt>
      <trkpt lat="45.29555" lon="1.40301">
        <ele>249</ele>
        <time>2011-07-15T14:09:19Z</time>
      </trkpt>
      <trkpt lat="45.2956" lon="1.40305">
        <ele>246</ele>
        <time>2011-07-15T14:09:22Z</time>
      </trkpt>
      <trkpt lat="45.2956" lon="1.40305">
        <ele>246</ele>
        <time>2011-07-15T14:09:22Z</time>
      </trkpt>
      <trkpt lat="45.2956" lon="1.40305">
        <ele>246</ele>
        <time>2011-07-15T14:09:24Z</time>
      </trkpt>
      <trkpt lat="45.29566" lon="1.40308">
        <ele>250</ele>
        <time>2011-07-15T14:09:25Z</time>
      </trkpt>
      <trkpt lat="45.29571" lon="1.40312">
        <ele>251</ele>
        <time>2011-07-15T14:09:27Z</time>
      </trkpt>
      <trkpt lat="45.29578" lon="1.4032">
        <ele>253</ele>
        <time>2011-07-15T14:09:33Z</time>
      </trkpt>
      <trkpt lat="45.29578" lon="1.4032">
        <ele>253</ele>
        <time>2011-07-15T14:09:33Z</time>
      </trkpt>
      <trkpt lat="45.29578" lon="1.4032">
        <ele>253</ele>
        <time>2011-07-15T14:09:38Z</time>
      </trkpt>
      <trkpt lat="45.29583" lon="1.40329">
        <ele>251</ele>
        <time>2011-07-15T14:09:39Z</time>
      </trkpt>
      <trkpt lat="45.29583" lon="1.40329">
        <ele>251</ele>
        <time>2011-07-15T14:09:39Z</time>
      </trkpt>
      <trkpt lat="45.29583" lon="1.40329">
        <ele>251</ele>
        <time>2011-07-15T14:09:45Z</time>
      </trkpt>
      <trkpt lat="45.29581" lon="1.40345">
        <ele>251</ele>
        <time>2011-07-15T14:09:46Z</time>
      </trkpt>
      <trkpt lat="45.29581" lon="1.40345">
        <ele>251</ele>
        <time>2011-07-15T14:09:46Z</time>
      </trkpt>
      <trkpt lat="45.29581" lon="1.40345">
        <ele>251</ele>
        <time>2011-07-15T14:09:48Z</time>
      </trkpt>
      <trkpt lat="45.29576" lon="1.40358">
        <ele>251</ele>
        <time>2011-07-15T14:09:49Z</time>
      </trkpt>
      <trkpt lat="45.29573" lon="1.40368">
        <ele>248</ele>
        <time>2011-07-15T14:09:51Z</time>
      </trkpt>
      <trkpt lat="45.29572" lon="1.40378">
        <ele>245</ele>
        <time>2011-07-15T14:09:52Z</time>
      </trkpt>
      <trkpt lat="45.29571" lon="1.40386">
        <ele>247</ele>
        <time>2011-07-15T14:09:53Z</time>
      </trkpt>
      <trkpt lat="45.2957" lon="1.40394">
        <ele>243</ele>
        <time>2011-07-15T14:09:54Z</time>
      </trkpt>
      <trkpt lat="45.2957" lon="1.40404">
        <ele>240</ele>
        <time>2011-07-15T14:09:55Z</time>
      </trkpt>
      <trkpt lat="45.2957" lon="1.40413">
        <ele>241</ele>
        <time>2011-07-15T14:09:56Z</time>
      </trkpt>
      <trkpt lat="45.29571" lon="1.4042">
        <ele>242</ele>
        <time>2011-07-15T14:09:57Z</time>
      </trkpt>
      <trkpt lat="45.29571" lon="1.40429">
        <ele>245</ele>
        <time>2011-07-15T14:09:58Z</time>
      </trkpt>
      <trkpt lat="45.29572" lon="1.40438">
        <ele>246</ele>
        <time>2011-07-15T14:09:59Z</time>
      </trkpt>
      <trkpt lat="45.29571" lon="1.40447">
        <ele>247</ele>
        <time>2011-07-15T14:10:00Z</time>
      </trkpt>
      <trkpt lat="45.2957" lon="1.40457">
        <ele>247</ele>
        <time>2011-07-15T14:10:01Z</time>
      </trkpt>
      <trkpt lat="45.2957" lon="1.40465">
        <ele>249</ele>
        <time>2011-07-15T14:10:02Z</time>
      </trkpt>
      <trkpt lat="45.2957" lon="1.40473">
        <ele>250</ele>
        <time>2011-07-15T14:10:03Z</time>
      </trkpt>
      <trkpt lat="45.2957" lon="1.4048">
        <ele>251</ele>
        <time>2011-07-15T14:10:04Z</time>
      </trkpt>
      <trkpt lat="45.29569" lon="1.40492">
        <ele>255</ele>
        <time>2011-07-15T14:10:06Z</time>
      </trkpt>
      <trkpt lat="45.29568" lon="1.40505">
        <ele>252</ele>
        <time>2011-07-15T14:10:08Z</time>
      </trkpt>
      <trkpt lat="45.29568" lon="1.40512">
        <ele>252</ele>
        <time>2011-07-15T14:10:09Z</time>
      </trkpt>
      <trkpt lat="45.29568" lon="1.40522">
        <ele>252</ele>
        <time>2011-07-15T14:10:11Z</time>
      </trkpt>
      <trkpt lat="45.2957" lon="1.40528">
        <ele>251</ele>
        <time>2011-07-15T14:10:13Z</time>
      </trkpt>
      <trkpt lat="45.2957" lon="1.40528">
        <ele>251</ele>
        <time>2011-07-15T14:10:13Z</time>
      </trkpt>
      <trkpt lat="45.2957" lon="1.40528">
        <ele>251</ele>
        <time>2011-07-15T14:10:23Z</time>
      </trkpt>
      <trkpt lat="45.29573" lon="1.40534">
        <ele>249</ele>
        <time>2011-07-15T14:10:24Z</time>
      </trkpt>
      <trkpt lat="45.29577" lon="1.40537">
        <ele>246</ele>
        <time>2011-07-15T14:10:27Z</time>
      </trkpt>
      <trkpt lat="45.29582" lon="1.40536">
        <ele>245</ele>
        <time>2011-07-15T14:10:30Z</time>
      </trkpt>
      <trkpt lat="45.29587" lon="1.40533">
        <ele>242</ele>
        <time>2011-07-15T14:10:34Z</time>
      </trkpt>
      <trkpt lat="45.29593" lon="1.40528">
        <ele>243</ele>
        <time>2011-07-15T14:10:37Z</time>
      </trkpt>
      <trkpt lat="45.29597" lon="1.40524">
        <ele>241</ele>
        <time>2011-07-15T14:10:39Z</time>
      </trkpt>
      <trkpt lat="45.29601" lon="1.40521">
        <ele>239</ele>
        <time>2011-07-15T14:10:41Z</time>
      </trkpt>
      <trkpt lat="45.29606" lon="1.40518">
        <ele>240</ele>
        <time>2011-07-15T14:10:43Z</time>
      </trkpt>
      <trkpt lat="45.29611" lon="1.40515">
        <ele>240</ele>
        <time>2011-07-15T14:10:45Z</time>
      </trkpt>
      <trkpt lat="45.29615" lon="1.40511">
        <ele>239</ele>
        <time>2011-07-15T14:10:47Z</time>
      </trkpt>
      <trkpt lat="45.2962" lon="1.40511">
        <ele>242</ele>
        <time>2011-07-15T14:11:07Z</time>
      </trkpt>
      <trkpt lat="45.2962" lon="1.40511">
        <ele>242</ele>
        <time>2011-07-15T14:11:07Z</time>
      </trkpt>
      <trkpt lat="45.2962" lon="1.40511">
        <ele>242</ele>
        <time>2011-07-15T14:11:09Z</time>
      </trkpt>
      <trkpt lat="45.29625" lon="1.40508">
        <ele>240</ele>
        <time>2011-07-15T14:11:12Z</time>
      </trkpt>
      <trkpt lat="45.29632" lon="1.40504">
        <ele>244</ele>
        <time>2011-07-15T14:11:15Z</time>
      </trkpt>
      <trkpt lat="45.29638" lon="1.40501">
        <ele>244</ele>
        <time>2011-07-15T14:11:17Z</time>
      </trkpt>
      <trkpt lat="45.29645" lon="1.40496">
        <ele>243</ele>
        <time>2011-07-15T14:11:19Z</time>
      </trkpt>
      <trkpt lat="45.29651" lon="1.40493">
        <ele>243</ele>
        <time>2011-07-15T14:11:21Z</time>
      </trkpt>
      <trkpt lat="45.29657" lon="1.4049">
        <ele>241</ele>
        <time>2011-07-15T14:11:23Z</time>
      </trkpt>
      <trkpt lat="45.29664" lon="1.40486">
        <ele>244</ele>
        <time>2011-07-15T14:11:25Z</time>
      </trkpt>
      <trkpt lat="45.29672" lon="1.40482">
        <ele>243</ele>
        <time>2011-07-15T14:11:27Z</time>
      </trkpt>
      <trkpt lat="45.2968" lon="1.40478">
        <ele>241</ele>
        <time>2011-07-15T14:11:29Z</time>
      </trkpt>
      <trkpt lat="45.29688" lon="1.40475">
        <ele>245</ele>
        <time>2011-07-15T14:11:31Z</time>
      </trkpt>
      <trkpt lat="45.29696" lon="1.40472">
        <ele>246</ele>
        <time>2011-07-15T14:11:33Z</time>
      </trkpt>
      <trkpt lat="45.29703" lon="1.40468">
        <ele>250</ele>
        <time>2011-07-15T14:11:35Z</time>
      </trkpt>
      <trkpt lat="45.2971" lon="1.40465">
        <ele>251</ele>
        <time>2011-07-15T14:11:37Z</time>
      </trkpt>
      <trkpt lat="45.29719" lon="1.40461">
        <ele>249</ele>
        <time>2011-07-15T14:11:39Z</time>
      </trkpt>
      <trkpt lat="45.29724" lon="1.40458">
        <ele>248</ele>
        <time>2011-07-15T14:11:40Z</time>
      </trkpt>
      <trkpt lat="45.29729" lon="1.40455">
        <ele>248</ele>
        <time>2011-07-15T14:11:41Z</time>
      </trkpt>
      <trkpt lat="45.29734" lon="1.40453">
        <ele>250</ele>
        <time>2011-07-15T14:11:42Z</time>
      </trkpt>
      <trkpt lat="45.2974" lon="1.4045">
        <ele>251</ele>
        <time>2011-07-15T14:11:43Z</time>
      </trkpt>
      <trkpt lat="45.29746" lon="1.40448">
        <ele>252</ele>
        <time>2011-07-15T14:11:44Z</time>
      </trkpt>
      <trkpt lat="45.29751" lon="1.40445">
        <ele>251</ele>
        <time>2011-07-15T14:11:45Z</time>
      </trkpt>
      <trkpt lat="45.29756" lon="1.40443">
        <ele>251</ele>
        <time>2011-07-15T14:11:46Z</time>
      </trkpt>
      <trkpt lat="45.2976" lon="1.40442">
        <ele>251</ele>
        <time>2011-07-15T14:11:47Z</time>
      </trkpt>
      <trkpt lat="45.29765" lon="1.40441">
        <ele>251</ele>
        <time>2011-07-15T14:11:48Z</time>
      </trkpt>
      <trkpt lat="45.2977" lon="1.4044">
        <ele>250</ele>
        <time>2011-07-15T14:11:49Z</time>
      </trkpt>
      <trkpt lat="45.29774" lon="1.40437">
        <ele>250</ele>
        <time>2011-07-15T14:11:50Z</time>
      </trkpt>
      <trkpt lat="45.29777" lon="1.40432">
        <ele>249</ele>
        <time>2011-07-15T14:11:51Z</time>
      </trkpt>
      <trkpt lat="45.29778" lon="1.40421">
        <ele>248</ele>
        <time>2011-07-15T14:11:53Z</time>
      </trkpt>
      <trkpt lat="45.29778" lon="1.40415">
        <ele>250</ele>
        <time>2011-07-15T14:11:54Z</time>
      </trkpt>
      <trkpt lat="45.29776" lon="1.40408">
        <ele>252</ele>
        <time>2011-07-15T14:11:55Z</time>
      </trkpt>
      <trkpt lat="45.29774" lon="1.40401">
        <ele>252</ele>
        <time>2011-07-15T14:11:56Z</time>
      </trkpt>
      <trkpt lat="45.29773" lon="1.40395">
        <ele>253</ele>
        <time>2011-07-15T14:11:57Z</time>
      </trkpt>
      <trkpt lat="45.29773" lon="1.40387">
        <ele>255</ele>
        <time>2011-07-15T14:11:58Z</time>
      </trkpt>
      <trkpt lat="45.29779" lon="1.40378">
        <ele>255</ele>
        <time>2011-07-15T14:12:00Z</time>
      </trkpt>
      <trkpt lat="45.29783" lon="1.40378">
        <ele>256</ele>
        <time>2011-07-15T14:12:01Z</time>
      </trkpt>
      <trkpt lat="45.29789" lon="1.40378">
        <ele>256</ele>
        <time>2011-07-15T14:12:02Z</time>
      </trkpt>
      <trkpt lat="45.29795" lon="1.40381">
        <ele>256</ele>
        <time>2011-07-15T14:12:03Z</time>
      </trkpt>
      <trkpt lat="45.29802" lon="1.40384">
        <ele>251</ele>
        <time>2011-07-15T14:12:04Z</time>
      </trkpt>
      <trkpt lat="45.29809" lon="1.40388">
        <ele>254</ele>
        <time>2011-07-15T14:12:05Z</time>
      </trkpt>
      <trkpt lat="45.29817" lon="1.40388">
        <ele>251</ele>
        <time>2011-07-15T14:12:06Z</time>
      </trkpt>
      <trkpt lat="45.29827" lon="1.40388">
        <ele>250</ele>
        <time>2011-07-15T14:12:07Z</time>
      </trkpt>
      <trkpt lat="45.29836" lon="1.40389">
        <ele>250</ele>
        <time>2011-07-15T14:12:08Z</time>
      </trkpt>
      <trkpt lat="45.29845" lon="1.40389">
        <ele>251</ele>
        <time>2011-07-15T14:12:09Z</time>
      </trkpt>
      <trkpt lat="45.29854" lon="1.40389">
        <ele>252</ele>
        <time>2011-07-15T14:12:10Z</time>
      </trkpt>
      <trkpt lat="45.29863" lon="1.40389">
        <ele>250</ele>
        <time>2011-07-15T14:12:11Z</time>
      </trkpt>
      <trkpt lat="45.29872" lon="1.40389">
        <ele>250</ele>
        <time>2011-07-15T14:12:12Z</time>
      </trkpt>
      <trkpt lat="45.29882" lon="1.4039">
        <ele>251</ele>
        <time>2011-07-15T14:12:13Z</time>
      </trkpt>
      <trkpt lat="45.29892" lon="1.40391">
        <ele>252</ele>
        <time>2011-07-15T14:12:14Z</time>
      </trkpt>
      <trkpt lat="45.299" lon="1.40391">
        <ele>251</ele>
        <time>2011-07-15T14:12:15Z</time>
      </trkpt>
      <trkpt lat="45.2991" lon="1.40391">
        <ele>251</ele>
        <time>2011-07-15T14:12:16Z</time>
      </trkpt>
      <trkpt lat="45.2992" lon="1.40391">
        <ele>248</ele>
        <time>2011-07-15T14:12:17Z</time>
      </trkpt>
      <trkpt lat="45.2993" lon="1.40389">
        <ele>251</ele>
        <time>2011-07-15T14:12:18Z</time>
      </trkpt>
      <trkpt lat="45.29936" lon="1.40389">
        <ele>250</ele>
        <time>2011-07-15T14:12:19Z</time>
      </trkpt>
      <trkpt lat="45.29943" lon="1.40389">
        <ele>248</ele>
        <time>2011-07-15T14:12:20Z</time>
      </trkpt>
      <trkpt lat="45.29949" lon="1.40388">
        <ele>246</ele>
        <time>2011-07-15T14:12:21Z</time>
      </trkpt>
      <trkpt lat="45.29957" lon="1.40388">
        <ele>246</ele>
        <time>2011-07-15T14:12:22Z</time>
      </trkpt>
      <trkpt lat="45.29965" lon="1.40386">
        <ele>247</ele>
        <time>2011-07-15T14:12:23Z</time>
      </trkpt>
      <trkpt lat="45.29972" lon="1.40384">
        <ele>247</ele>
        <time>2011-07-15T14:12:24Z</time>
      </trkpt>
      <trkpt lat="45.29978" lon="1.40383">
        <ele>245</ele>
        <time>2011-07-15T14:12:25Z</time>
      </trkpt>
      <trkpt lat="45.29983" lon="1.40381">
        <ele>245</ele>
        <time>2011-07-15T14:12:26Z</time>
      </trkpt>
      <trkpt lat="45.2999" lon="1.4038">
        <ele>245</ele>
        <time>2011-07-15T14:12:28Z</time>
      </trkpt>
      <trkpt lat="45.29998" lon="1.4038">
        <ele>247</ele>
        <time>2011-07-15T14:12:30Z</time>
      </trkpt>
      <trkpt lat="45.30004" lon="1.40379">
        <ele>248</ele>
        <time>2011-07-15T14:12:32Z</time>
      </trkpt>
      <trkpt lat="45.3001" lon="1.40378">
        <ele>250</ele>
        <time>2011-07-15T14:12:34Z</time>
      </trkpt>
      <trkpt lat="45.30014" lon="1.40378">
        <ele>250</ele>
        <time>2011-07-15T14:12:36Z</time>
      </trkpt>
      <trkpt lat="45.3002" lon="1.40377">
        <ele>251</ele>
        <time>2011-07-15T14:12:38Z</time>
      </trkpt>
      <trkpt lat="45.30025" lon="1.40375">
        <ele>249</ele>
        <time>2011-07-15T14:12:40Z</time>
      </trkpt>
      <trkpt lat="45.30031" lon="1.40374">
        <ele>248</ele>
        <time>2011-07-15T14:12:42Z</time>
      </trkpt>
      <trkpt lat="45.30037" lon="1.40373">
        <ele>247</ele>
        <time>2011-07-15T14:12:44Z</time>
      </trkpt>
      <trkpt lat="45.30043" lon="1.40371">
        <ele>247</ele>
        <time>2011-07-15T14:12:46Z</time>
      </trkpt>
      <trkpt lat="45.30048" lon="1.4037">
        <ele>248</ele>
        <time>2011-07-15T14:12:48Z</time>
      </trkpt>
      <trkpt lat="45.30053" lon="1.40367">
        <ele>247</ele>
        <time>2011-07-15T14:12:50Z</time>
      </trkpt>
      <trkpt lat="45.30058" lon="1.40366">
        <ele>249</ele>
        <time>2011-07-15T14:12:52Z</time>
      </trkpt>
      <trkpt lat="45.30062" lon="1.40365">
        <ele>250</ele>
        <time>2011-07-15T14:12:54Z</time>
      </trkpt>
      <trkpt lat="45.30067" lon="1.40363">
        <ele>248</ele>
        <time>2011-07-15T14:12:56Z</time>
      </trkpt>
      <trkpt lat="45.30073" lon="1.40362">
        <ele>248</ele>
        <time>2011-07-15T14:12:58Z</time>
      </trkpt>
      <trkpt lat="45.3008" lon="1.40359">
        <ele>248</ele>
        <time>2011-07-15T14:13:00Z</time>
      </trkpt>
      <trkpt lat="45.30087" lon="1.40357">
        <ele>248</ele>
        <time>2011-07-15T14:13:02Z</time>
      </trkpt>
      <trkpt lat="45.30094" lon="1.40354">
        <ele>251</ele>
        <time>2011-07-15T14:13:04Z</time>
      </trkpt>
      <trkpt lat="45.301" lon="1.40351">
        <ele>251</ele>
        <time>2011-07-15T14:13:06Z</time>
      </trkpt>
      <trkpt lat="45.30107" lon="1.40349">
        <ele>251</ele>
        <time>2011-07-15T14:13:08Z</time>
      </trkpt>
      <trkpt lat="45.30113" lon="1.40348">
        <ele>252</ele>
        <time>2011-07-15T14:13:10Z</time>
      </trkpt>
      <trkpt lat="45.30118" lon="1.40346">
        <ele>252</ele>
        <time>2011-07-15T14:13:12Z</time>
      </trkpt>
      <trkpt lat="45.30124" lon="1.40344">
        <ele>251</ele>
        <time>2011-07-15T14:13:14Z</time>
      </trkpt>
      <trkpt lat="45.30131" lon="1.40342">
        <ele>251</ele>
        <time>2011-07-15T14:13:16Z</time>
      </trkpt>
      <trkpt lat="45.30138" lon="1.40339">
        <ele>253</ele>
        <time>2011-07-15T14:13:18Z</time>
      </trkpt>
      <trkpt lat="45.30145" lon="1.40337">
        <ele>257</ele>
        <time>2011-07-15T14:13:20Z</time>
      </trkpt>
      <trkpt lat="45.30152" lon="1.40334">
        <ele>258</ele>
        <time>2011-07-15T14:13:22Z</time>
      </trkpt>
      <trkpt lat="45.3016" lon="1.40332">
        <ele>256</ele>
        <time>2011-07-15T14:13:24Z</time>
      </trkpt>
      <trkpt lat="45.30167" lon="1.40329">
        <ele>256</ele>
        <time>2011-07-15T14:13:26Z</time>
      </trkpt>
      <trkpt lat="45.30174" lon="1.40327">
        <ele>258</ele>
        <time>2011-07-15T14:13:28Z</time>
      </trkpt>
      <trkpt lat="45.30181" lon="1.40324">
        <ele>258</ele>
        <time>2011-07-15T14:13:30Z</time>
      </trkpt>
      <trkpt lat="45.30189" lon="1.40321">
        <ele>256</ele>
        <time>2011-07-15T14:13:32Z</time>
      </trkpt>
      <trkpt lat="45.30197" lon="1.40319">
        <ele>256</ele>
        <time>2011-07-15T14:13:34Z</time>
      </trkpt>
      <trkpt lat="45.30205" lon="1.40316">
        <ele>256</ele>
        <time>2011-07-15T14:13:36Z</time>
      </trkpt>
      <trkpt lat="45.30212" lon="1.40314">
        <ele>254</ele>
        <time>2011-07-15T14:13:38Z</time>
      </trkpt>
      <trkpt lat="45.3022" lon="1.40311">
        <ele>252</ele>
        <time>2011-07-15T14:13:40Z</time>
      </trkpt>
      <trkpt lat="45.30229" lon="1.40308">
        <ele>255</ele>
        <time>2011-07-15T14:13:42Z</time>
      </trkpt>
      <trkpt lat="45.30236" lon="1.40306">
        <ele>257</ele>
        <time>2011-07-15T14:13:44Z</time>
      </trkpt>
      <trkpt lat="45.30243" lon="1.40305">
        <ele>256</ele>
        <time>2011-07-15T14:13:46Z</time>
      </trkpt>
      <trkpt lat="45.30251" lon="1.40303">
        <ele>254</ele>
        <time>2011-07-15T14:13:48Z</time>
      </trkpt>
      <trkpt lat="45.30259" lon="1.40301">
        <ele>251</ele>
        <time>2011-07-15T14:13:50Z</time>
      </trkpt>
      <trkpt lat="45.30266" lon="1.40299">
        <ele>248</ele>
        <time>2011-07-15T14:13:52Z</time>
      </trkpt>
      <trkpt lat="45.30273" lon="1.40298">
        <ele>250</ele>
        <time>2011-07-15T14:13:54Z</time>
      </trkpt>
      <trkpt lat="45.30279" lon="1.40298">
        <ele>249</ele>
        <time>2011-07-15T14:13:56Z</time>
      </trkpt>
      <trkpt lat="45.30285" lon="1.40297">
        <ele>250</ele>
        <time>2011-07-15T14:13:58Z</time>
      </trkpt>
      <trkpt lat="45.3029" lon="1.40295">
        <ele>254</ele>
        <time>2011-07-15T14:14:00Z</time>
      </trkpt>
      <trkpt lat="45.30296" lon="1.40294">
        <ele>254</ele>
        <time>2011-07-15T14:14:02Z</time>
      </trkpt>
      <trkpt lat="45.30302" lon="1.40293">
        <ele>252</ele>
        <time>2011-07-15T14:14:04Z</time>
      </trkpt>
      <trkpt lat="45.30307" lon="1.40292">
        <ele>250</ele>
        <time>2011-07-15T14:14:06Z</time>
      </trkpt>
      <trkpt lat="45.30313" lon="1.40291">
        <ele>251</ele>
        <time>2011-07-15T14:14:08Z</time>
      </trkpt>
      <trkpt lat="45.30319" lon="1.40289">
        <ele>254</ele>
        <time>2011-07-15T14:14:10Z</time>
      </trkpt>
      <trkpt lat="45.30324" lon="1.40288">
        <ele>254</ele>
        <time>2011-07-15T14:14:12Z</time>
      </trkpt>
      <trkpt lat="45.30329" lon="1.40286">
        <ele>257</ele>
        <time>2011-07-15T14:14:14Z</time>
      </trkpt>
      <trkpt lat="45.30336" lon="1.40284">
        <ele>259</ele>
        <time>2011-07-15T14:14:16Z</time>
      </trkpt>
      <trkpt lat="45.30342" lon="1.40284">
        <ele>262</ele>
        <time>2011-07-15T14:14:18Z</time>
      </trkpt>
      <trkpt lat="45.30346" lon="1.40283">
        <ele>263</ele>
        <time>2011-07-15T14:14:20Z</time>
      </trkpt>
      <trkpt lat="45.30351" lon="1.40282">
        <ele>264</ele>
        <time>2011-07-15T14:14:22Z</time>
      </trkpt>
      <trkpt lat="45.30357" lon="1.40282">
        <ele>263</ele>
        <time>2011-07-15T14:14:24Z</time>
      </trkpt>
      <trkpt lat="45.30362" lon="1.4028">
        <ele>263</ele>
        <time>2011-07-15T14:14:26Z</time>
      </trkpt>
      <trkpt lat="45.30367" lon="1.40279">
        <ele>261</ele>
        <time>2011-07-15T14:14:28Z</time>
      </trkpt>
      <trkpt lat="45.30372" lon="1.40277">
        <ele>261</ele>
        <time>2011-07-15T14:14:30Z</time>
      </trkpt>
      <trkpt lat="45.30378" lon="1.40275">
        <ele>261</ele>
        <time>2011-07-15T14:14:32Z</time>
      </trkpt>
      <trkpt lat="45.30385" lon="1.40273">
        <ele>260</ele>
        <time>2011-07-15T14:14:34Z</time>
      </trkpt>
      <trkpt lat="45.30392" lon="1.4027">
        <ele>259</ele>
        <time>2011-07-15T14:14:36Z</time>
      </trkpt>
      <trkpt lat="45.30398" lon="1.40266">
        <ele>259</ele>
        <time>2011-07-15T14:14:38Z</time>
      </trkpt>
      <trkpt lat="45.30404" lon="1.40263">
        <ele>260</ele>
        <time>2011-07-15T14:14:40Z</time>
      </trkpt>
      <trkpt lat="45.3041" lon="1.40259">
        <ele>261</ele>
        <time>2011-07-15T14:14:42Z</time>
      </trkpt>
      <trkpt lat="45.30416" lon="1.40258">
        <ele>262</ele>
        <time>2011-07-15T14:14:44Z</time>
      </trkpt>
      <trkpt lat="45.30423" lon="1.40256">
        <ele>260</ele>
        <time>2011-07-15T14:14:46Z</time>
      </trkpt>
      <trkpt lat="45.30427" lon="1.40255">
        <ele>261</ele>
        <time>2011-07-15T14:14:48Z</time>
      </trkpt>
      <trkpt lat="45.30432" lon="1.40256">
        <ele>263</ele>
        <time>2011-07-15T14:14:50Z</time>
      </trkpt>
      <trkpt lat="45.30438" lon="1.40254">
        <ele>265</ele>
        <time>2011-07-15T14:14:52Z</time>
      </trkpt>
      <trkpt lat="45.30443" lon="1.40252">
        <ele>269</ele>
        <time>2011-07-15T14:14:55Z</time>
      </trkpt>
      <trkpt lat="45.3045" lon="1.40248">
        <ele>267</ele>
        <time>2011-07-15T14:14:57Z</time>
      </trkpt>
      <trkpt lat="45.30455" lon="1.40248">
        <ele>262</ele>
        <time>2011-07-15T14:14:59Z</time>
      </trkpt>
      <trkpt lat="45.30461" lon="1.40249">
        <ele>267</ele>
        <time>2011-07-15T14:15:01Z</time>
      </trkpt>
      <trkpt lat="45.30466" lon="1.40247">
        <ele>269</ele>
        <time>2011-07-15T14:15:03Z</time>
      </trkpt>
      <trkpt lat="45.30472" lon="1.40245">
        <ele>268</ele>
        <time>2011-07-15T14:15:05Z</time>
      </trkpt>
      <trkpt lat="45.30478" lon="1.40242">
        <ele>267</ele>
        <time>2011-07-15T14:15:07Z</time>
      </trkpt>
      <trkpt lat="45.30483" lon="1.4024">
        <ele>267</ele>
        <time>2011-07-15T14:15:09Z</time>
      </trkpt>
      <trkpt lat="45.30489" lon="1.40238">
        <ele>263</ele>
        <time>2011-07-15T14:15:11Z</time>
      </trkpt>
      <trkpt lat="45.30494" lon="1.40236">
        <ele>265</ele>
        <time>2011-07-15T14:15:13Z</time>
      </trkpt>
      <trkpt lat="45.305" lon="1.40234">
        <ele>266</ele>
        <time>2011-07-15T14:15:15Z</time>
      </trkpt>
      <trkpt lat="45.30505" lon="1.40231">
        <ele>266</ele>
        <time>2011-07-15T14:15:17Z</time>
      </trkpt>
      <trkpt lat="45.3051" lon="1.40228">
        <ele>265</ele>
        <time>2011-07-15T14:15:19Z</time>
      </trkpt>
      <trkpt lat="45.30516" lon="1.40225">
        <ele>264</ele>
        <time>2011-07-15T14:15:21Z</time>
      </trkpt>
      <trkpt lat="45.30522" lon="1.40222">
        <ele>264</ele>
        <time>2011-07-15T14:15:23Z</time>
      </trkpt>
      <trkpt lat="45.30528" lon="1.40219">
        <ele>266</ele>
        <time>2011-07-15T14:15:25Z</time>
      </trkpt>
      <trkpt lat="45.30534" lon="1.40215">
        <ele>266</ele>
        <time>2011-07-15T14:15:27Z</time>
      </trkpt>
      <trkpt lat="45.3054" lon="1.40212">
        <ele>266</ele>
        <time>2011-07-15T14:15:29Z</time>
      </trkpt>
      <trkpt lat="45.30546" lon="1.40208">
        <ele>264</ele>
        <time>2011-07-15T14:15:31Z</time>
      </trkpt>
      <trkpt lat="45.30552" lon="1.40204">
        <ele>263</ele>
        <time>2011-07-15T14:15:33Z</time>
      </trkpt>
      <trkpt lat="45.30558" lon="1.402">
        <ele>260</ele>
        <time>2011-07-15T14:15:35Z</time>
      </trkpt>
      <trkpt lat="45.30564" lon="1.40196">
        <ele>260</ele>
        <time>2011-07-15T14:15:37Z</time>
      </trkpt>
      <trkpt lat="45.30571" lon="1.40192">
        <ele>259</ele>
        <time>2011-07-15T14:15:39Z</time>
      </trkpt>
      <trkpt lat="45.30577" lon="1.40188">
        <ele>260</ele>
        <time>2011-07-15T14:15:41Z</time>
      </trkpt>
      <trkpt lat="45.30583" lon="1.40183">
        <ele>263</ele>
        <time>2011-07-15T14:15:43Z</time>
      </trkpt>
      <trkpt lat="45.3059" lon="1.40179">
        <ele>266</ele>
        <time>2011-07-15T14:15:45Z</time>
      </trkpt>
      <trkpt lat="45.30596" lon="1.40176">
        <ele>268</ele>
        <time>2011-07-15T14:15:47Z</time>
      </trkpt>
      <trkpt lat="45.30601" lon="1.40172">
        <ele>269</ele>
        <time>2011-07-15T14:15:49Z</time>
      </trkpt>
      <trkpt lat="45.30606" lon="1.40169">
        <ele>269</ele>
        <time>2011-07-15T14:15:51Z</time>
      </trkpt>
      <trkpt lat="45.30611" lon="1.40166">
        <ele>270</ele>
        <time>2011-07-15T14:15:53Z</time>
      </trkpt>
      <trkpt lat="45.30617" lon="1.40163">
        <ele>268</ele>
        <time>2011-07-15T14:15:55Z</time>
      </trkpt>
      <trkpt lat="45.30623" lon="1.40158">
        <ele>264</ele>
        <time>2011-07-15T14:15:57Z</time>
      </trkpt>
      <trkpt lat="45.30628" lon="1.40155">
        <ele>266</ele>
        <time>2011-07-15T14:15:59Z</time>
      </trkpt>
      <trkpt lat="45.30633" lon="1.40151">
        <ele>266</ele>
        <time>2011-07-15T14:16:01Z</time>
      </trkpt>
      <trkpt lat="45.30639" lon="1.40147">
        <ele>265</ele>
        <time>2011-07-15T14:16:03Z</time>
      </trkpt>
      <trkpt lat="45.30644" lon="1.40144">
        <ele>265</ele>
        <time>2011-07-15T14:16:05Z</time>
      </trkpt>
      <trkpt lat="45.30649" lon="1.4014">
        <ele>264</ele>
        <time>2011-07-15T14:16:07Z</time>
      </trkpt>
      <trkpt lat="45.30654" lon="1.40137">
        <ele>266</ele>
        <time>2011-07-15T14:16:09Z</time>
      </trkpt>
      <trkpt lat="45.30659" lon="1.40134">
        <ele>268</ele>
        <time>2011-07-15T14:16:11Z</time>
      </trkpt>
      <trkpt lat="45.30664" lon="1.4013">
        <ele>266</ele>
        <time>2011-07-15T14:16:13Z</time>
      </trkpt>
      <trkpt lat="45.3067" lon="1.40127">
        <ele>267</ele>
        <time>2011-07-15T14:16:15Z</time>
      </trkpt>
      <trkpt lat="45.30675" lon="1.40124">
        <ele>269</ele>
        <time>2011-07-15T14:16:17Z</time>
      </trkpt>
      <trkpt lat="45.3068" lon="1.4012">
        <ele>269</ele>
        <time>2011-07-15T14:16:19Z</time>
      </trkpt>
      <trkpt lat="45.30686" lon="1.40117">
        <ele>272</ele>
        <time>2011-07-15T14:16:21Z</time>
      </trkpt>
      <trkpt lat="45.30691" lon="1.40114">
        <ele>274</ele>
        <time>2011-07-15T14:16:23Z</time>
      </trkpt>
      <trkpt lat="45.30697" lon="1.40111">
        <ele>276</ele>
        <time>2011-07-15T14:16:25Z</time>
      </trkpt>
      <trkpt lat="45.30703" lon="1.40108">
        <ele>276</ele>
        <time>2011-07-15T14:16:27Z</time>
      </trkpt>
      <trkpt lat="45.3071" lon="1.40104">
        <ele>276</ele>
        <time>2011-07-15T14:16:29Z</time>
      </trkpt>
      <trkpt lat="45.30714" lon="1.40101">
        <ele>274</ele>
        <time>2011-07-15T14:16:30Z</time>
      </trkpt>
      <trkpt lat="45.30718" lon="1.40098">
        <ele>275</ele>
        <time>2011-07-15T14:16:31Z</time>
      </trkpt>
      <trkpt lat="45.30726" lon="1.40094">
        <ele>273</ele>
        <time>2011-07-15T14:16:33Z</time>
      </trkpt>
      <trkpt lat="45.30732" lon="1.40091">
        <ele>275</ele>
        <time>2011-07-15T14:16:35Z</time>
      </trkpt>
      <trkpt lat="45.30737" lon="1.40088">
        <ele>276</ele>
        <time>2011-07-15T14:16:37Z</time>
      </trkpt>
      <trkpt lat="45.30742" lon="1.40085">
        <ele>275</ele>
        <time>2011-07-15T14:16:39Z</time>
      </trkpt>
      <trkpt lat="45.30748" lon="1.40083">
        <ele>274</ele>
        <time>2011-07-15T14:16:41Z</time>
      </trkpt>
      <trkpt lat="45.30752" lon="1.4008">
        <ele>273</ele>
        <time>2011-07-15T14:16:43Z</time>
      </trkpt>
      <trkpt lat="45.30757" lon="1.40079">
        <ele>270</ele>
        <time>2011-07-15T14:16:45Z</time>
      </trkpt>
      <trkpt lat="45.30762" lon="1.4008">
        <ele>275</ele>
        <time>2011-07-15T14:16:47Z</time>
      </trkpt>
      <trkpt lat="45.30768" lon="1.40081">
        <ele>275</ele>
        <time>2011-07-15T14:16:49Z</time>
      </trkpt>
      <trkpt lat="45.30773" lon="1.40084">
        <ele>278</ele>
        <time>2011-07-15T14:16:51Z</time>
      </trkpt>
      <trkpt lat="45.30778" lon="1.40087">
        <ele>278</ele>
        <time>2011-07-15T14:16:53Z</time>
      </trkpt>
      <trkpt lat="45.30782" lon="1.4009">
        <ele>279</ele>
        <time>2011-07-15T14:16:55Z</time>
      </trkpt>
      <trkpt lat="45.30789" lon="1.40096">
        <ele>278</ele>
        <time>2011-07-15T14:17:02Z</time>
      </trkpt>
      <trkpt lat="45.30789" lon="1.40096">
        <ele>278</ele>
        <time>2011-07-15T14:17:02Z</time>
      </trkpt>
      <trkpt lat="45.30789" lon="1.40096">
        <ele>278</ele>
        <time>2011-07-15T14:17:03Z</time>
      </trkpt>
      <trkpt lat="45.30794" lon="1.401">
        <ele>273</ele>
        <time>2011-07-15T14:17:10Z</time>
      </trkpt>
      <trkpt lat="45.30798" lon="1.40104">
        <ele>273</ele>
        <time>2011-07-15T14:17:14Z</time>
      </trkpt>
      <trkpt lat="45.30802" lon="1.40109">
        <ele>273</ele>
        <time>2011-07-15T14:17:17Z</time>
      </trkpt>
      <trkpt lat="45.30807" lon="1.40114">
        <ele>276</ele>
        <time>2011-07-15T14:17:20Z</time>
      </trkpt>
      <trkpt lat="45.30811" lon="1.40117">
        <ele>279</ele>
        <time>2011-07-15T14:17:22Z</time>
      </trkpt>
      <trkpt lat="45.30817" lon="1.4012">
        <ele>280</ele>
        <time>2011-07-15T14:17:25Z</time>
      </trkpt>
      <trkpt lat="45.30822" lon="1.40123">
        <ele>277</ele>
        <time>2011-07-15T14:17:28Z</time>
      </trkpt>
      <trkpt lat="45.30827" lon="1.40127">
        <ele>279</ele>
        <time>2011-07-15T14:17:31Z</time>
      </trkpt>
      <trkpt lat="45.30832" lon="1.40129">
        <ele>280</ele>
        <time>2011-07-15T14:17:34Z</time>
      </trkpt>
      <trkpt lat="45.30836" lon="1.40132">
        <ele>279</ele>
        <time>2011-07-15T14:17:37Z</time>
      </trkpt>
      <trkpt lat="45.30841" lon="1.40134">
        <ele>280</ele>
        <time>2011-07-15T14:17:40Z</time>
      </trkpt>
      <trkpt lat="45.30846" lon="1.40136">
        <ele>281</ele>
        <time>2011-07-15T14:17:43Z</time>
      </trkpt>
      <trkpt lat="45.30852" lon="1.40138">
        <ele>284</ele>
        <time>2011-07-15T14:17:46Z</time>
      </trkpt>
      <trkpt lat="45.30858" lon="1.40141">
        <ele>285</ele>
        <time>2011-07-15T14:17:49Z</time>
      </trkpt>
      <trkpt lat="45.30862" lon="1.40146">
        <ele>285</ele>
        <time>2011-07-15T14:17:52Z</time>
      </trkpt>
      <trkpt lat="45.30865" lon="1.40151">
        <ele>284</ele>
        <time>2011-07-15T14:17:54Z</time>
      </trkpt>
      <trkpt lat="45.30871" lon="1.40152">
        <ele>285</ele>
        <time>2011-07-15T14:17:57Z</time>
      </trkpt>
      <trkpt lat="45.30878" lon="1.40152">
        <ele>286</ele>
        <time>2011-07-15T14:18:00Z</time>
      </trkpt>
      <trkpt lat="45.30883" lon="1.40152">
        <ele>285</ele>
        <time>2011-07-15T14:18:02Z</time>
      </trkpt>
      <trkpt lat="45.30889" lon="1.40151">
        <ele>285</ele>
        <time>2011-07-15T14:18:04Z</time>
      </trkpt>
      <trkpt lat="45.30894" lon="1.4015">
        <ele>285</ele>
        <time>2011-07-15T14:18:06Z</time>
      </trkpt>
      <trkpt lat="45.30901" lon="1.40148">
        <ele>284</ele>
        <time>2011-07-15T14:18:08Z</time>
      </trkpt>
      <trkpt lat="45.30906" lon="1.40148">
        <ele>286</ele>
        <time>2011-07-15T14:18:10Z</time>
      </trkpt>
      <trkpt lat="45.30912" lon="1.40147">
        <ele>289</ele>
        <time>2011-07-15T14:18:12Z</time>
      </trkpt>
      <trkpt lat="45.30919" lon="1.40146">
        <ele>292</ele>
        <time>2011-07-15T14:18:14Z</time>
      </trkpt>
      <trkpt lat="45.30924" lon="1.40145">
        <ele>292</ele>
        <time>2011-07-15T14:18:16Z</time>
      </trkpt>
      <trkpt lat="45.30928" lon="1.40145">
        <ele>292</ele>
        <time>2011-07-15T14:18:18Z</time>
      </trkpt>
      <trkpt lat="45.30934" lon="1.40145">
        <ele>293</ele>
        <time>2011-07-15T14:18:20Z</time>
      </trkpt>
      <trkpt lat="45.30939" lon="1.40144">
        <ele>292</ele>
        <time>2011-07-15T14:18:22Z</time>
      </trkpt>
      <trkpt lat="45.30946" lon="1.40143">
        <ele>290</ele>
        <time>2011-07-15T14:18:24Z</time>
      </trkpt>
      <trkpt lat="45.30952" lon="1.40142">
        <ele>289</ele>
        <time>2011-07-15T14:18:26Z</time>
      </trkpt>
      <trkpt lat="45.30957" lon="1.4014">
        <ele>290</ele>
        <time>2011-07-15T14:18:28Z</time>
      </trkpt>
      <trkpt lat="45.30963" lon="1.40138">
        <ele>291</ele>
        <time>2011-07-15T14:18:30Z</time>
      </trkpt>
      <trkpt lat="45.30969" lon="1.40136">
        <ele>293</ele>
        <time>2011-07-15T14:18:32Z</time>
      </trkpt>
      <trkpt lat="45.30975" lon="1.40133">
        <ele>290</ele>
        <time>2011-07-15T14:18:34Z</time>
      </trkpt>
      <trkpt lat="45.30982" lon="1.4013">
        <ele>288</ele>
        <time>2011-07-15T14:18:36Z</time>
      </trkpt>
      <trkpt lat="45.3099" lon="1.40127">
        <ele>287</ele>
        <time>2011-07-15T14:18:38Z</time>
      </trkpt>
      <trkpt lat="45.30996" lon="1.40124">
        <ele>288</ele>
        <time>2011-07-15T14:18:40Z</time>
      </trkpt>
      <trkpt lat="45.31003" lon="1.4012">
        <ele>289</ele>
        <time>2011-07-15T14:18:42Z</time>
      </trkpt>
      <trkpt lat="45.31008" lon="1.40118">
        <ele>289</ele>
        <time>2011-07-15T14:18:44Z</time>
      </trkpt>
      <trkpt lat="45.31014" lon="1.40114">
        <ele>288</ele>
        <time>2011-07-15T14:18:46Z</time>
      </trkpt>
      <trkpt lat="45.31021" lon="1.4011">
        <ele>288</ele>
        <time>2011-07-15T14:18:48Z</time>
      </trkpt>
      <trkpt lat="45.31028" lon="1.40106">
        <ele>290</ele>
        <time>2011-07-15T14:18:50Z</time>
      </trkpt>
      <trkpt lat="45.31032" lon="1.40103">
        <ele>290</ele>
        <time>2011-07-15T14:18:51Z</time>
      </trkpt>
      <trkpt lat="45.31036" lon="1.40099">
        <ele>290</ele>
        <time>2011-07-15T14:18:52Z</time>
      </trkpt>
      <trkpt lat="45.3104" lon="1.40096">
        <ele>289</ele>
        <time>2011-07-15T14:18:53Z</time>
      </trkpt>
      <trkpt lat="45.31045" lon="1.40092">
        <ele>288</ele>
        <time>2011-07-15T14:18:54Z</time>
      </trkpt>
      <trkpt lat="45.31048" lon="1.40088">
        <ele>290</ele>
        <time>2011-07-15T14:18:55Z</time>
      </trkpt>
      <trkpt lat="45.31052" lon="1.40084">
        <ele>290</ele>
        <time>2011-07-15T14:18:56Z</time>
      </trkpt>
      <trkpt lat="45.31059" lon="1.40078">
        <ele>290</ele>
        <time>2011-07-15T14:18:58Z</time>
      </trkpt>
      <trkpt lat="45.31063" lon="1.40075">
        <ele>290</ele>
        <time>2011-07-15T14:18:59Z</time>
      </trkpt>
      <trkpt lat="45.3107" lon="1.40067">
        <ele>290</ele>
        <time>2011-07-15T14:19:01Z</time>
      </trkpt>
      <trkpt lat="45.31074" lon="1.40063">
        <ele>290</ele>
        <time>2011-07-15T14:19:02Z</time>
      </trkpt>
      <trkpt lat="45.31078" lon="1.40059">
        <ele>290</ele>
        <time>2011-07-15T14:19:03Z</time>
      </trkpt>
      <trkpt lat="45.31082" lon="1.40055">
        <ele>291</ele>
        <time>2011-07-15T14:19:04Z</time>
      </trkpt>
      <trkpt lat="45.31086" lon="1.4005">
        <ele>290</ele>
        <time>2011-07-15T14:19:05Z</time>
      </trkpt>
      <trkpt lat="45.3109" lon="1.40046">
        <ele>289</ele>
        <time>2011-07-15T14:19:06Z</time>
      </trkpt>
      <trkpt lat="45.31094" lon="1.40041">
        <ele>288</ele>
        <time>2011-07-15T14:19:07Z</time>
      </trkpt>
      <trkpt lat="45.31098" lon="1.40037">
        <ele>291</ele>
        <time>2011-07-15T14:19:08Z</time>
      </trkpt>
      <trkpt lat="45.31102" lon="1.40032">
        <ele>290</ele>
        <time>2011-07-15T14:19:09Z</time>
      </trkpt>
      <trkpt lat="45.31106" lon="1.40026">
        <ele>289</ele>
        <time>2011-07-15T14:19:10Z</time>
      </trkpt>
      <trkpt lat="45.3111" lon="1.40022">
        <ele>289</ele>
        <time>2011-07-15T14:19:11Z</time>
      </trkpt>
      <trkpt lat="45.31114" lon="1.40015">
        <ele>288</ele>
        <time>2011-07-15T14:19:12Z</time>
      </trkpt>
      <trkpt lat="45.31118" lon="1.4001">
        <ele>289</ele>
        <time>2011-07-15T14:19:13Z</time>
      </trkpt>
      <trkpt lat="45.31123" lon="1.40006">
        <ele>290</ele>
        <time>2011-07-15T14:19:14Z</time>
      </trkpt>
      <trkpt lat="45.31128" lon="1.4">
        <ele>290</ele>
        <time>2011-07-15T14:19:15Z</time>
      </trkpt>
      <trkpt lat="45.31132" lon="1.39994">
        <ele>290</ele>
        <time>2011-07-15T14:19:16Z</time>
      </trkpt>
      <trkpt lat="45.31136" lon="1.39989">
        <ele>290</ele>
        <time>2011-07-15T14:19:17Z</time>
      </trkpt>
      <trkpt lat="45.3114" lon="1.39983">
        <ele>289</ele>
        <time>2011-07-15T14:19:18Z</time>
      </trkpt>
      <trkpt lat="45.31144" lon="1.39976">
        <ele>291</ele>
        <time>2011-07-15T14:19:19Z</time>
      </trkpt>
      <trkpt lat="45.31148" lon="1.39971">
        <ele>290</ele>
        <time>2011-07-15T14:19:20Z</time>
      </trkpt>
      <trkpt lat="45.31151" lon="1.39965">
        <ele>288</ele>
        <time>2011-07-15T14:19:21Z</time>
      </trkpt>
      <trkpt lat="45.31155" lon="1.3996">
        <ele>290</ele>
        <time>2011-07-15T14:19:22Z</time>
      </trkpt>
      <trkpt lat="45.31159" lon="1.39954">
        <ele>290</ele>
        <time>2011-07-15T14:19:23Z</time>
      </trkpt>
      <trkpt lat="45.31164" lon="1.39949">
        <ele>289</ele>
        <time>2011-07-15T14:19:24Z</time>
      </trkpt>
      <trkpt lat="45.31168" lon="1.39943">
        <ele>290</ele>
        <time>2011-07-15T14:19:25Z</time>
      </trkpt>
      <trkpt lat="45.31172" lon="1.39938">
        <ele>289</ele>
        <time>2011-07-15T14:19:26Z</time>
      </trkpt>
      <trkpt lat="45.31177" lon="1.39932">
        <ele>290</ele>
        <time>2011-07-15T14:19:27Z</time>
      </trkpt>
      <trkpt lat="45.31181" lon="1.39926">
        <ele>289</ele>
        <time>2011-07-15T14:19:28Z</time>
      </trkpt>
      <trkpt lat="45.31185" lon="1.39921">
        <ele>288</ele>
        <time>2011-07-15T14:19:29Z</time>
      </trkpt>
      <trkpt lat="45.31189" lon="1.39916">
        <ele>290</ele>
        <time>2011-07-15T14:19:30Z</time>
      </trkpt>
      <trkpt lat="45.31194" lon="1.3991">
        <ele>289</ele>
        <time>2011-07-15T14:19:31Z</time>
      </trkpt>
      <trkpt lat="45.31198" lon="1.39905">
        <ele>287</ele>
        <time>2011-07-15T14:19:32Z</time>
      </trkpt>
      <trkpt lat="45.31202" lon="1.39899">
        <ele>287</ele>
        <time>2011-07-15T14:19:33Z</time>
      </trkpt>
      <trkpt lat="45.31206" lon="1.39893">
        <ele>287</ele>
        <time>2011-07-15T14:19:34Z</time>
      </trkpt>
      <trkpt lat="45.31211" lon="1.39887">
        <ele>287</ele>
        <time>2011-07-15T14:19:35Z</time>
      </trkpt>
      <trkpt lat="45.31215" lon="1.39882">
        <ele>288</ele>
        <time>2011-07-15T14:19:36Z</time>
      </trkpt>
      <trkpt lat="45.3122" lon="1.39877">
        <ele>285</ele>
        <time>2011-07-15T14:19:37Z</time>
      </trkpt>
      <trkpt lat="45.31225" lon="1.39871">
        <ele>284</ele>
        <time>2011-07-15T14:19:38Z</time>
      </trkpt>
      <trkpt lat="45.31229" lon="1.39866">
        <ele>285</ele>
        <time>2011-07-15T14:19:39Z</time>
      </trkpt>
      <trkpt lat="45.31234" lon="1.39862">
        <ele>286</ele>
        <time>2011-07-15T14:19:40Z</time>
      </trkpt>
      <trkpt lat="45.31238" lon="1.39858">
        <ele>286</ele>
        <time>2011-07-15T14:19:41Z</time>
      </trkpt>
      <trkpt lat="45.31244" lon="1.39854">
        <ele>287</ele>
        <time>2011-07-15T14:19:42Z</time>
      </trkpt>
      <trkpt lat="45.31249" lon="1.3985">
        <ele>287</ele>
        <time>2011-07-15T14:19:43Z</time>
      </trkpt>
      <trkpt lat="45.31254" lon="1.39846">
        <ele>287</ele>
        <time>2011-07-15T14:19:44Z</time>
      </trkpt>
      <trkpt lat="45.3126" lon="1.39842">
        <ele>288</ele>
        <time>2011-07-15T14:19:45Z</time>
      </trkpt>
      <trkpt lat="45.31265" lon="1.39839">
        <ele>288</ele>
        <time>2011-07-15T14:19:46Z</time>
      </trkpt>
      <trkpt lat="45.31271" lon="1.39835">
        <ele>288</ele>
        <time>2011-07-15T14:19:47Z</time>
      </trkpt>
      <trkpt lat="45.31276" lon="1.39831">
        <ele>288</ele>
        <time>2011-07-15T14:19:48Z</time>
      </trkpt>
      <trkpt lat="45.31282" lon="1.39827">
        <ele>288</ele>
        <time>2011-07-15T14:19:49Z</time>
      </trkpt>
      <trkpt lat="45.31287" lon="1.39823">
        <ele>288</ele>
        <time>2011-07-15T14:19:50Z</time>
      </trkpt>
      <trkpt lat="45.31293" lon="1.39819">
        <ele>288</ele>
        <time>2011-07-15T14:19:51Z</time>
      </trkpt>
      <trkpt lat="45.31298" lon="1.39816">
        <ele>288</ele>
        <time>2011-07-15T14:19:52Z</time>
      </trkpt>
      <trkpt lat="45.31302" lon="1.39813">
        <ele>287</ele>
        <time>2011-07-15T14:19:53Z</time>
      </trkpt>
      <trkpt lat="45.31309" lon="1.39816">
        <ele>286</ele>
        <time>2011-07-15T14:19:55Z</time>
      </trkpt>
      <trkpt lat="45.31308" lon="1.39828">
        <ele>286</ele>
        <time>2011-07-15T14:20:01Z</time>
      </trkpt>
      <trkpt lat="45.31308" lon="1.39828">
        <ele>286</ele>
        <time>2011-07-15T14:20:01Z</time>
      </trkpt>
      <trkpt lat="45.31308" lon="1.39828">
        <ele>286</ele>
        <time>2011-07-15T14:20:03Z</time>
      </trkpt>
      <trkpt lat="45.31305" lon="1.39834">
        <ele>287</ele>
        <time>2011-07-15T14:20:04Z</time>
      </trkpt>
      <trkpt lat="45.31305" lon="1.39834">
        <ele>287</ele>
        <time>2011-07-15T14:20:04Z</time>
      </trkpt>
      <trkpt lat="45.31305" lon="1.39834">
        <ele>287</ele>
        <time>2011-07-15T14:20:05Z</time>
      </trkpt>
      <trkpt lat="45.31302" lon="1.3984">
        <ele>291</ele>
        <time>2011-07-15T14:20:06Z</time>
      </trkpt>
      <trkpt lat="45.31302" lon="1.3984">
        <ele>291</ele>
        <time>2011-07-15T14:20:06Z</time>
      </trkpt>
      <trkpt lat="45.31302" lon="1.3984">
        <ele>291</ele>
        <time>2011-07-15T14:20:08Z</time>
      </trkpt>
      <trkpt lat="45.31299" lon="1.39847">
        <ele>288</ele>
        <time>2011-07-15T14:20:09Z</time>
      </trkpt>
      <trkpt lat="45.31302" lon="1.39854">
        <ele>290</ele>
        <time>2011-07-15T14:20:12Z</time>
      </trkpt>
      <trkpt lat="45.31307" lon="1.39857">
        <ele>294</ele>
        <time>2011-07-15T14:20:15Z</time>
      </trkpt>
      <trkpt lat="45.31311" lon="1.3986">
        <ele>292</ele>
        <time>2011-07-15T14:20:17Z</time>
      </trkpt>
      <trkpt lat="45.31315" lon="1.39863">
        <ele>292</ele>
        <time>2011-07-15T14:20:19Z</time>
      </trkpt>
      <trkpt lat="45.3132" lon="1.39866">
        <ele>294</ele>
        <time>2011-07-15T14:20:21Z</time>
      </trkpt>
      <trkpt lat="45.31324" lon="1.3987">
        <ele>295</ele>
        <time>2011-07-15T14:20:23Z</time>
      </trkpt>
      <trkpt lat="45.31331" lon="1.39876">
        <ele>294</ele>
        <time>2011-07-15T14:20:28Z</time>
      </trkpt>
      <trkpt lat="45.31336" lon="1.39879">
        <ele>295</ele>
        <time>2011-07-15T14:20:32Z</time>
      </trkpt>
      <trkpt lat="45.3134" lon="1.39883">
        <ele>295</ele>
        <time>2011-07-15T14:20:34Z</time>
      </trkpt>
      <trkpt lat="45.31345" lon="1.39886">
        <ele>295</ele>
        <time>2011-07-15T14:20:36Z</time>
      </trkpt>
      <trkpt lat="45.3135" lon="1.39886">
        <ele>296</ele>
        <time>2011-07-15T14:20:38Z</time>
      </trkpt>
      <trkpt lat="45.31354" lon="1.39883">
        <ele>296</ele>
        <time>2011-07-15T14:20:42Z</time>
      </trkpt>
      <trkpt lat="45.31359" lon="1.39883">
        <ele>298</ele>
        <time>2011-07-15T14:20:45Z</time>
      </trkpt>
      <trkpt lat="45.31364" lon="1.3988">
        <ele>297</ele>
        <time>2011-07-15T14:20:49Z</time>
      </trkpt>
      <trkpt lat="45.3137" lon="1.39878">
        <ele>299</ele>
        <time>2011-07-15T14:20:54Z</time>
      </trkpt>
      <trkpt lat="45.31374" lon="1.39875">
        <ele>301</ele>
        <time>2011-07-15T14:20:57Z</time>
      </trkpt>
      <trkpt lat="45.31374" lon="1.39875">
        <ele>301</ele>
        <time>2011-07-15T14:20:57Z</time>
      </trkpt>
      <trkpt lat="45.31374" lon="1.39875">
        <ele>301</ele>
        <time>2011-07-15T14:20:59Z</time>
      </trkpt>
      <trkpt lat="45.3138" lon="1.39873">
        <ele>296</ele>
        <time>2011-07-15T14:21:04Z</time>
      </trkpt>
      <trkpt lat="45.3138" lon="1.39873">
        <ele>296</ele>
        <time>2011-07-15T14:21:04Z</time>
      </trkpt>
      <trkpt lat="45.3138" lon="1.39873">
        <ele>296</ele>
        <time>2011-07-15T14:21:05Z</time>
      </trkpt>
      <trkpt lat="45.31385" lon="1.39874">
        <ele>300</ele>
        <time>2011-07-15T14:21:07Z</time>
      </trkpt>
      <trkpt lat="45.31385" lon="1.39874">
        <ele>300</ele>
        <time>2011-07-15T14:21:07Z</time>
      </trkpt>
      <trkpt lat="45.31385" lon="1.39874">
        <ele>300</ele>
        <time>2011-07-15T14:21:08Z</time>
      </trkpt>
      <trkpt lat="45.31389" lon="1.39873">
        <ele>303</ele>
        <time>2011-07-15T14:21:10Z</time>
      </trkpt>
      <trkpt lat="45.31394" lon="1.39872">
        <ele>305</ele>
        <time>2011-07-15T14:21:13Z</time>
      </trkpt>
      <trkpt lat="45.31394" lon="1.39872">
        <ele>305</ele>
        <time>2011-07-15T14:21:13Z</time>
      </trkpt>
      <trkpt lat="45.31394" lon="1.39872">
        <ele>305</ele>
        <time>2011-07-15T14:21:14Z</time>
      </trkpt>
      <trkpt lat="45.31399" lon="1.39871">
        <ele>307</ele>
        <time>2011-07-15T14:21:16Z</time>
      </trkpt>
      <trkpt lat="45.31404" lon="1.3987">
        <ele>307</ele>
        <time>2011-07-15T14:21:19Z</time>
      </trkpt>
      <trkpt lat="45.31409" lon="1.39869">
        <ele>306</ele>
        <time>2011-07-15T14:21:22Z</time>
      </trkpt>
      <trkpt lat="45.31415" lon="1.39869">
        <ele>300</ele>
        <time>2011-07-15T14:21:25Z</time>
      </trkpt>
      <trkpt lat="45.3142" lon="1.3987">
        <ele>301</ele>
        <time>2011-07-15T14:21:28Z</time>
      </trkpt>
      <trkpt lat="45.31427" lon="1.3987">
        <ele>301</ele>
        <time>2011-07-15T14:21:32Z</time>
      </trkpt>
      <trkpt lat="45.31432" lon="1.39869">
        <ele>300</ele>
        <time>2011-07-15T14:21:35Z</time>
      </trkpt>
      <trkpt lat="45.31441" lon="1.39868">
        <ele>304</ele>
        <time>2011-07-15T14:21:40Z</time>
      </trkpt>
      <trkpt lat="45.31446" lon="1.39868">
        <ele>305</ele>
        <time>2011-07-15T14:21:42Z</time>
      </trkpt>
      <trkpt lat="45.31446" lon="1.39868">
        <ele>305</ele>
        <time>2011-07-15T14:21:42Z</time>
      </trkpt>
      <trkpt lat="45.31446" lon="1.39868">
        <ele>305</ele>
        <time>2011-07-15T14:21:44Z</time>
      </trkpt>
      <trkpt lat="45.31451" lon="1.39869">
        <ele>301</ele>
        <time>2011-07-15T14:21:45Z</time>
      </trkpt>
      <trkpt lat="45.31451" lon="1.39869">
        <ele>301</ele>
        <time>2011-07-15T14:21:45Z</time>
      </trkpt>
      <trkpt lat="45.31451" lon="1.39869">
        <ele>301</ele>
        <time>2011-07-15T14:21:49Z</time>
      </trkpt>
      <trkpt lat="45.31456" lon="1.39869">
        <ele>298</ele>
        <time>2011-07-15T14:21:52Z</time>
      </trkpt>
      <trkpt lat="45.31461" lon="1.39866">
        <ele>304</ele>
        <time>2011-07-15T14:21:56Z</time>
      </trkpt>
      <trkpt lat="45.31465" lon="1.39863">
        <ele>304</ele>
        <time>2011-07-15T14:21:59Z</time>
      </trkpt>
      <trkpt lat="45.31465" lon="1.39863">
        <ele>304</ele>
        <time>2011-07-15T14:21:59Z</time>
      </trkpt>
      <trkpt lat="45.31465" lon="1.39863">
        <ele>304</ele>
        <time>2011-07-15T14:22:00Z</time>
      </trkpt>
      <trkpt lat="45.3147" lon="1.39861">
        <ele>307</ele>
        <time>2011-07-15T14:22:02Z</time>
      </trkpt>
      <trkpt lat="45.31476" lon="1.3986">
        <ele>308</ele>
        <time>2011-07-15T14:22:06Z</time>
      </trkpt>
      <trkpt lat="45.31481" lon="1.3986">
        <ele>313</ele>
        <time>2011-07-15T14:22:09Z</time>
      </trkpt>
      <trkpt lat="45.3149" lon="1.39861">
        <ele>315</ele>
        <time>2011-07-15T14:22:14Z</time>
      </trkpt>
      <trkpt lat="45.3149" lon="1.39861">
        <ele>315</ele>
        <time>2011-07-15T14:22:14Z</time>
      </trkpt>
      <trkpt lat="45.3149" lon="1.39861">
        <ele>315</ele>
        <time>2011-07-15T14:22:16Z</time>
      </trkpt>
      <trkpt lat="45.31496" lon="1.39861">
        <ele>312</ele>
        <time>2011-07-15T14:22:17Z</time>
      </trkpt>
      <trkpt lat="45.31496" lon="1.39861">
        <ele>312</ele>
        <time>2011-07-15T14:22:17Z</time>
      </trkpt>
      <trkpt lat="45.31496" lon="1.39861">
        <ele>312</ele>
        <time>2011-07-15T14:22:24Z</time>
      </trkpt>
      <trkpt lat="45.31503" lon="1.39863">
        <ele>308</ele>
        <time>2011-07-15T14:22:25Z</time>
      </trkpt>
      <trkpt lat="45.31503" lon="1.39863">
        <ele>308</ele>
        <time>2011-07-15T14:22:25Z</time>
      </trkpt>
      <trkpt lat="45.31503" lon="1.39863">
        <ele>308</ele>
        <time>2011-07-15T14:22:29Z</time>
      </trkpt>
      <trkpt lat="45.31508" lon="1.39867">
        <ele>304</ele>
        <time>2011-07-15T14:22:30Z</time>
      </trkpt>
      <trkpt lat="45.31508" lon="1.39867">
        <ele>304</ele>
        <time>2011-07-15T14:22:30Z</time>
      </trkpt>
      <trkpt lat="45.31508" lon="1.39867">
        <ele>304</ele>
        <time>2011-07-15T14:22:31Z</time>
      </trkpt>
      <trkpt lat="45.31519" lon="1.39872">
        <ele>312</ele>
        <time>2011-07-15T14:22:36Z</time>
      </trkpt>
      <trkpt lat="45.31519" lon="1.39872">
        <ele>312</ele>
        <time>2011-07-15T14:22:36Z</time>
      </trkpt>
      <trkpt lat="45.31519" lon="1.39872">
        <ele>312</ele>
        <time>2011-07-15T14:22:38Z</time>
      </trkpt>
      <trkpt lat="45.31531" lon="1.39885">
        <ele>322</ele>
        <time>2011-07-15T14:22:45Z</time>
      </trkpt>
      <trkpt lat="45.31541" lon="1.39897">
        <ele>317</ele>
        <time>2011-07-15T14:22:52Z</time>
      </trkpt>
      <trkpt lat="45.31541" lon="1.39897">
        <ele>317</ele>
        <time>2011-07-15T14:22:52Z</time>
      </trkpt>
      <trkpt lat="45.31541" lon="1.39897">
        <ele>317</ele>
        <time>2011-07-15T14:22:54Z</time>
      </trkpt>
      <trkpt lat="45.31547" lon="1.39906">
        <ele>316</ele>
        <time>2011-07-15T14:22:58Z</time>
      </trkpt>
      <trkpt lat="45.31547" lon="1.39906">
        <ele>316</ele>
        <time>2011-07-15T14:22:58Z</time>
      </trkpt>
      <trkpt lat="45.31547" lon="1.39906">
        <ele>316</ele>
        <time>2011-07-15T14:22:59Z</time>
      </trkpt>
      <trkpt lat="45.31552" lon="1.39912">
        <ele>317</ele>
        <time>2011-07-15T14:23:00Z</time>
      </trkpt>
      <trkpt lat="45.31552" lon="1.39912">
        <ele>317</ele>
        <time>2011-07-15T14:23:00Z</time>
      </trkpt>
      <trkpt lat="45.31552" lon="1.39912">
        <ele>317</ele>
        <time>2011-07-15T14:23:03Z</time>
      </trkpt>
      <trkpt lat="45.31555" lon="1.3992">
        <ele>320</ele>
        <time>2011-07-15T14:23:04Z</time>
      </trkpt>
      <trkpt lat="45.31555" lon="1.3992">
        <ele>320</ele>
        <time>2011-07-15T14:23:04Z</time>
      </trkpt>
      <trkpt lat="45.31555" lon="1.3992">
        <ele>320</ele>
        <time>2011-07-15T14:23:06Z</time>
      </trkpt>
      <trkpt lat="45.31558" lon="1.39931">
        <ele>317</ele>
        <time>2011-07-15T14:23:07Z</time>
      </trkpt>
      <trkpt lat="45.31558" lon="1.39931">
        <ele>317</ele>
        <time>2011-07-15T14:23:07Z</time>
      </trkpt>
      <trkpt lat="45.31558" lon="1.39931">
        <ele>317</ele>
        <time>2011-07-15T14:23:11Z</time>
      </trkpt>
      <trkpt lat="45.31563" lon="1.39944">
        <ele>318</ele>
        <time>2011-07-15T14:23:12Z</time>
      </trkpt>
      <trkpt lat="45.31563" lon="1.39944">
        <ele>318</ele>
        <time>2011-07-15T14:23:12Z</time>
      </trkpt>
      <trkpt lat="45.31563" lon="1.39944">
        <ele>318</ele>
        <time>2011-07-15T14:23:17Z</time>
      </trkpt>
      <trkpt lat="45.3157" lon="1.39951">
        <ele>313</ele>
        <time>2011-07-15T14:23:18Z</time>
      </trkpt>
      <trkpt lat="45.3157" lon="1.39951">
        <ele>313</ele>
        <time>2011-07-15T14:23:18Z</time>
      </trkpt>
      <trkpt lat="45.3157" lon="1.39951">
        <ele>313</ele>
        <time>2011-07-15T14:23:21Z</time>
      </trkpt>
      <trkpt lat="45.31575" lon="1.39955">
        <ele>319</ele>
        <time>2011-07-15T14:23:22Z</time>
      </trkpt>
      <trkpt lat="45.31575" lon="1.39955">
        <ele>319</ele>
        <time>2011-07-15T14:23:22Z</time>
      </trkpt>
      <trkpt lat="45.31575" lon="1.39955">
        <ele>319</ele>
        <time>2011-07-15T14:23:24Z</time>
      </trkpt>
      <trkpt lat="45.31579" lon="1.39958">
        <ele>328</ele>
        <time>2011-07-15T14:23:25Z</time>
      </trkpt>
      <trkpt lat="45.31579" lon="1.39958">
        <ele>328</ele>
        <time>2011-07-15T14:23:25Z</time>
      </trkpt>
      <trkpt lat="45.31579" lon="1.39958">
        <ele>328</ele>
        <time>2011-07-15T14:23:32Z</time>
      </trkpt>
      <trkpt lat="45.3159" lon="1.39959">
        <ele>328</ele>
        <time>2011-07-15T14:23:33Z</time>
      </trkpt>
      <trkpt lat="45.3159" lon="1.39959">
        <ele>328</ele>
        <time>2011-07-15T14:23:33Z</time>
      </trkpt>
      <trkpt lat="45.3159" lon="1.39959">
        <ele>328</ele>
        <time>2011-07-15T14:23:38Z</time>
      </trkpt>
      <trkpt lat="45.31598" lon="1.39966">
        <ele>322</ele>
        <time>2011-07-15T14:23:39Z</time>
      </trkpt>
      <trkpt lat="45.31598" lon="1.39966">
        <ele>322</ele>
        <time>2011-07-15T14:23:39Z</time>
      </trkpt>
      <trkpt lat="45.31598" lon="1.39966">
        <ele>322</ele>
        <time>2011-07-15T14:24:04Z</time>
      </trkpt>
      <trkpt lat="45.31601" lon="1.39975">
        <ele>334</ele>
        <time>2011-07-15T14:24:10Z</time>
      </trkpt>
      <trkpt lat="45.31601" lon="1.39975">
        <ele>334</ele>
        <time>2011-07-15T14:24:10Z</time>
      </trkpt>
      <trkpt lat="45.31601" lon="1.39975">
        <ele>334</ele>
        <time>2011-07-15T14:24:14Z</time>
      </trkpt>
      <trkpt lat="45.31603" lon="1.39985">
        <ele>333</ele>
        <time>2011-07-15T14:24:15Z</time>
      </trkpt>
      <trkpt lat="45.31603" lon="1.39985">
        <ele>333</ele>
        <time>2011-07-15T14:24:15Z</time>
      </trkpt>
      <trkpt lat="45.31603" lon="1.39985">
        <ele>333</ele>
        <time>2011-07-15T14:24:21Z</time>
      </trkpt>
      <trkpt lat="45.31606" lon="1.39994">
        <ele>334</ele>
        <time>2011-07-15T14:24:22Z</time>
      </trkpt>
      <trkpt lat="45.31606" lon="1.39994">
        <ele>334</ele>
        <time>2011-07-15T14:24:22Z</time>
      </trkpt>
      <trkpt lat="45.31606" lon="1.39994">
        <ele>334</ele>
        <time>2011-07-15T14:24:28Z</time>
      </trkpt>
      <trkpt lat="45.31607" lon="1.40006">
        <ele>335</ele>
        <time>2011-07-15T14:24:29Z</time>
      </trkpt>
      <trkpt lat="45.31606" lon="1.40014">
        <ele>341</ele>
        <time>2011-07-15T14:24:34Z</time>
      </trkpt>
      <trkpt lat="45.31606" lon="1.40014">
        <ele>341</ele>
        <time>2011-07-15T14:24:34Z</time>
      </trkpt>
      <trkpt lat="45.31606" lon="1.40014">
        <ele>341</ele>
        <time>2011-07-15T14:24:35Z</time>
      </trkpt>
      <trkpt lat="45.31606" lon="1.40024">
        <ele>336</ele>
        <time>2011-07-15T14:24:41Z</time>
      </trkpt>
      <trkpt lat="45.31606" lon="1.40024">
        <ele>336</ele>
        <time>2011-07-15T14:24:41Z</time>
      </trkpt>
      <trkpt lat="45.31606" lon="1.40024">
        <ele>336</ele>
        <time>2011-07-15T14:24:42Z</time>
      </trkpt>
      <trkpt lat="45.3161" lon="1.4003">
        <ele>337</ele>
        <time>2011-07-15T14:24:46Z</time>
      </trkpt>
      <trkpt lat="45.3161" lon="1.4003">
        <ele>337</ele>
        <time>2011-07-15T14:24:46Z</time>
      </trkpt>
      <trkpt lat="45.3161" lon="1.4003">
        <ele>337</ele>
        <time>2011-07-15T14:24:47Z</time>
      </trkpt>
      <trkpt lat="45.31616" lon="1.40033">
        <ele>334</ele>
        <time>2011-07-15T14:24:51Z</time>
      </trkpt>
      <trkpt lat="45.31621" lon="1.40032">
        <ele>335</ele>
        <time>2011-07-15T14:24:56Z</time>
      </trkpt>
      <trkpt lat="45.31626" lon="1.40029">
        <ele>339</ele>
        <time>2011-07-15T14:25:00Z</time>
      </trkpt>
      <trkpt lat="45.31631" lon="1.40026">
        <ele>337</ele>
        <time>2011-07-15T14:25:03Z</time>
      </trkpt>
      <trkpt lat="45.31636" lon="1.40024">
        <ele>341</ele>
        <time>2011-07-15T14:25:07Z</time>
      </trkpt>
      <trkpt lat="45.31641" lon="1.40026">
        <ele>344</ele>
        <time>2011-07-15T14:25:12Z</time>
      </trkpt>
      <trkpt lat="45.31644" lon="1.40032">
        <ele>343</ele>
        <time>2011-07-15T14:25:16Z</time>
      </trkpt>
      <trkpt lat="45.31647" lon="1.40038">
        <ele>345</ele>
        <time>2011-07-15T14:25:20Z</time>
      </trkpt>
      <trkpt lat="45.3165" lon="1.40044">
        <ele>344</ele>
        <time>2011-07-15T14:25:24Z</time>
      </trkpt>
      <trkpt lat="45.31653" lon="1.40049">
        <ele>350</ele>
        <time>2011-07-15T14:25:29Z</time>
      </trkpt>
      <trkpt lat="45.31657" lon="1.40055">
        <ele>350</ele>
        <time>2011-07-15T14:25:33Z</time>
      </trkpt>
      <trkpt lat="45.3166" lon="1.40062">
        <ele>351</ele>
        <time>2011-07-15T14:25:36Z</time>
      </trkpt>
      <trkpt lat="45.31662" lon="1.40068">
        <ele>344</ele>
        <time>2011-07-15T14:25:39Z</time>
      </trkpt>
      <trkpt lat="45.31664" lon="1.40074">
        <ele>348</ele>
        <time>2011-07-15T14:25:43Z</time>
      </trkpt>
      <trkpt lat="45.31668" lon="1.4008">
        <ele>349</ele>
        <time>2011-07-15T14:25:46Z</time>
      </trkpt>
      <trkpt lat="45.31671" lon="1.40085">
        <ele>347</ele>
        <time>2011-07-15T14:25:49Z</time>
      </trkpt>
      <trkpt lat="45.31675" lon="1.40088">
        <ele>348</ele>
        <time>2011-07-15T14:25:52Z</time>
      </trkpt>
      <trkpt lat="45.3168" lon="1.40092">
        <ele>348</ele>
        <time>2011-07-15T14:25:55Z</time>
      </trkpt>
      <trkpt lat="45.31684" lon="1.40096">
        <ele>349</ele>
        <time>2011-07-15T14:25:59Z</time>
      </trkpt>
      <trkpt lat="45.31688" lon="1.40101">
        <ele>351</ele>
        <time>2011-07-15T14:26:04Z</time>
      </trkpt>
      <trkpt lat="45.3169" lon="1.40107">
        <ele>356</ele>
        <time>2011-07-15T14:26:08Z</time>
      </trkpt>
      <trkpt lat="45.31693" lon="1.40113">
        <ele>352</ele>
        <time>2011-07-15T14:26:13Z</time>
      </trkpt>
      <trkpt lat="45.31697" lon="1.40119">
        <ele>358</ele>
        <time>2011-07-15T14:26:17Z</time>
      </trkpt>
      <trkpt lat="45.31701" lon="1.40125">
        <ele>355</ele>
        <time>2011-07-15T14:26:22Z</time>
      </trkpt>
      <trkpt lat="45.31704" lon="1.4013">
        <ele>356</ele>
        <time>2011-07-15T14:26:25Z</time>
      </trkpt>
      <trkpt lat="45.31707" lon="1.40135">
        <ele>358</ele>
        <time>2011-07-15T14:26:28Z</time>
      </trkpt>
      <trkpt lat="45.31711" lon="1.40138">
        <ele>358</ele>
        <time>2011-07-15T14:26:31Z</time>
      </trkpt>
      <trkpt lat="45.31716" lon="1.40141">
        <ele>357</ele>
        <time>2011-07-15T14:26:36Z</time>
      </trkpt>
      <trkpt lat="45.31721" lon="1.40144">
        <ele>360</ele>
        <time>2011-07-15T14:26:40Z</time>
      </trkpt>
      <trkpt lat="45.31726" lon="1.40147">
        <ele>356</ele>
        <time>2011-07-15T14:26:44Z</time>
      </trkpt>
      <trkpt lat="45.31731" lon="1.4015">
        <ele>359</ele>
        <time>2011-07-15T14:26:48Z</time>
      </trkpt>
      <trkpt lat="45.31735" lon="1.40154">
        <ele>359</ele>
        <time>2011-07-15T14:26:53Z</time>
      </trkpt>
      <trkpt lat="45.3174" lon="1.40157">
        <ele>356</ele>
        <time>2011-07-15T14:26:56Z</time>
      </trkpt>
      <trkpt lat="45.31744" lon="1.40159">
        <ele>361</ele>
        <time>2011-07-15T14:26:59Z</time>
      </trkpt>
      <trkpt lat="45.31749" lon="1.40163">
        <ele>362</ele>
        <time>2011-07-15T14:27:03Z</time>
      </trkpt>
      <trkpt lat="45.31755" lon="1.40163">
        <ele>361</ele>
        <time>2011-07-15T14:27:07Z</time>
      </trkpt>
      <trkpt lat="45.3176" lon="1.40162">
        <ele>355</ele>
        <time>2011-07-15T14:27:11Z</time>
      </trkpt>
      <trkpt lat="45.31765" lon="1.40164">
        <ele>356</ele>
        <time>2011-07-15T14:27:15Z</time>
      </trkpt>
      <trkpt lat="45.3177" lon="1.40165">
        <ele>361</ele>
        <time>2011-07-15T14:27:19Z</time>
      </trkpt>
      <trkpt lat="45.31775" lon="1.40164">
        <ele>361</ele>
        <time>2011-07-15T14:27:22Z</time>
      </trkpt>
      <trkpt lat="45.3178" lon="1.40164">
        <ele>363</ele>
        <time>2011-07-15T14:27:25Z</time>
      </trkpt>
      <trkpt lat="45.31786" lon="1.40163">
        <ele>359</ele>
        <time>2011-07-15T14:27:28Z</time>
      </trkpt>
      <trkpt lat="45.31791" lon="1.40164">
        <ele>361</ele>
        <time>2011-07-15T14:27:32Z</time>
      </trkpt>
      <trkpt lat="45.31796" lon="1.40166">
        <ele>367</ele>
        <time>2011-07-15T14:27:37Z</time>
      </trkpt>
      <trkpt lat="45.31802" lon="1.4017">
        <ele>372</ele>
        <time>2011-07-15T14:27:41Z</time>
      </trkpt>
      <trkpt lat="45.31808" lon="1.4017">
        <ele>371</ele>
        <time>2011-07-15T14:27:43Z</time>
      </trkpt>
      <trkpt lat="45.31813" lon="1.40172">
        <ele>369</ele>
        <time>2011-07-15T14:27:46Z</time>
      </trkpt>
      <trkpt lat="45.31819" lon="1.40174">
        <ele>369</ele>
        <time>2011-07-15T14:27:49Z</time>
      </trkpt>
      <trkpt lat="45.31824" lon="1.40176">
        <ele>369</ele>
        <time>2011-07-15T14:27:52Z</time>
      </trkpt>
      <trkpt lat="45.31829" lon="1.40177">
        <ele>364</ele>
        <time>2011-07-15T14:27:55Z</time>
      </trkpt>
      <trkpt lat="45.31834" lon="1.40179">
        <ele>366</ele>
        <time>2011-07-15T14:27:59Z</time>
      </trkpt>
      <trkpt lat="45.31839" lon="1.40182">
        <ele>357</ele>
        <time>2011-07-15T14:28:04Z</time>
      </trkpt>
      <trkpt lat="45.31844" lon="1.40186">
        <ele>363</ele>
        <time>2011-07-15T14:28:12Z</time>
      </trkpt>
      <trkpt lat="45.31848" lon="1.40192">
        <ele>360</ele>
        <time>2011-07-15T14:28:17Z</time>
      </trkpt>
      <trkpt lat="45.31852" lon="1.40197">
        <ele>367</ele>
        <time>2011-07-15T14:28:20Z</time>
      </trkpt>
      <trkpt lat="45.31854" lon="1.40203">
        <ele>369</ele>
        <time>2011-07-15T14:28:24Z</time>
      </trkpt>
      <trkpt lat="45.31858" lon="1.40208">
        <ele>372</ele>
        <time>2011-07-15T14:28:29Z</time>
      </trkpt>
      <trkpt lat="45.31862" lon="1.40214">
        <ele>377</ele>
        <time>2011-07-15T14:28:33Z</time>
      </trkpt>
      <trkpt lat="45.31866" lon="1.40217">
        <ele>377</ele>
        <time>2011-07-15T14:28:36Z</time>
      </trkpt>
      <trkpt lat="45.3187" lon="1.40223">
        <ele>382</ele>
        <time>2011-07-15T14:28:39Z</time>
      </trkpt>
      <trkpt lat="45.31869" lon="1.40233">
        <ele>375</ele>
        <time>2011-07-15T14:28:42Z</time>
      </trkpt>
      <trkpt lat="45.31869" lon="1.4024">
        <ele>377</ele>
        <time>2011-07-15T14:28:45Z</time>
      </trkpt>
      <trkpt lat="45.31869" lon="1.40248">
        <ele>374</ele>
        <time>2011-07-15T14:28:49Z</time>
      </trkpt>
      <trkpt lat="45.31868" lon="1.40254">
        <ele>371</ele>
        <time>2011-07-15T14:28:53Z</time>
      </trkpt>
      <trkpt lat="45.31865" lon="1.40261">
        <ele>371</ele>
        <time>2011-07-15T14:28:57Z</time>
      </trkpt>
      <trkpt lat="45.31861" lon="1.40267">
        <ele>378</ele>
        <time>2011-07-15T14:29:01Z</time>
      </trkpt>
      <trkpt lat="45.31861" lon="1.40276">
        <ele>377</ele>
        <time>2011-07-15T14:29:04Z</time>
      </trkpt>
      <trkpt lat="45.31858" lon="1.40282">
        <ele>370</ele>
        <time>2011-07-15T14:29:06Z</time>
      </trkpt>
      <trkpt lat="45.31855" lon="1.40289">
        <ele>368</ele>
        <time>2011-07-15T14:29:08Z</time>
      </trkpt>
      <trkpt lat="45.31852" lon="1.40298">
        <ele>364</ele>
        <time>2011-07-15T14:29:10Z</time>
      </trkpt>
      <trkpt lat="45.31852" lon="1.40306">
        <ele>366</ele>
        <time>2011-07-15T14:29:12Z</time>
      </trkpt>
      <trkpt lat="45.31852" lon="1.40313">
        <ele>367</ele>
        <time>2011-07-15T14:29:15Z</time>
      </trkpt>
      <trkpt lat="45.31856" lon="1.40318">
        <ele>364</ele>
        <time>2011-07-15T14:29:18Z</time>
      </trkpt>
      <trkpt lat="45.31859" lon="1.40326">
        <ele>361</ele>
        <time>2011-07-15T14:29:22Z</time>
      </trkpt>
      <trkpt lat="45.31863" lon="1.40331">
        <ele>363</ele>
        <time>2011-07-15T14:29:25Z</time>
      </trkpt>
      <trkpt lat="45.31868" lon="1.40335">
        <ele>366</ele>
        <time>2011-07-15T14:29:28Z</time>
      </trkpt>
      <trkpt lat="45.31872" lon="1.40339">
        <ele>368</ele>
        <time>2011-07-15T14:29:31Z</time>
      </trkpt>
      <trkpt lat="45.31875" lon="1.40344">
        <ele>368</ele>
        <time>2011-07-15T14:29:33Z</time>
      </trkpt>
      <trkpt lat="45.31879" lon="1.40349">
        <ele>368</ele>
        <time>2011-07-15T14:29:35Z</time>
      </trkpt>
      <trkpt lat="45.31882" lon="1.40353">
        <ele>371</ele>
        <time>2011-07-15T14:29:37Z</time>
      </trkpt>
      <trkpt lat="45.31887" lon="1.40357">
        <ele>373</ele>
        <time>2011-07-15T14:29:40Z</time>
      </trkpt>
      <trkpt lat="45.31891" lon="1.40363">
        <ele>371</ele>
        <time>2011-07-15T14:29:43Z</time>
      </trkpt>
      <trkpt lat="45.31895" lon="1.40367">
        <ele>373</ele>
        <time>2011-07-15T14:29:46Z</time>
      </trkpt>
      <trkpt lat="45.31901" lon="1.40372">
        <ele>379</ele>
        <time>2011-07-15T14:29:49Z</time>
      </trkpt>
      <trkpt lat="45.31906" lon="1.40377">
        <ele>379</ele>
        <time>2011-07-15T14:29:52Z</time>
      </trkpt>
      <trkpt lat="45.31911" lon="1.4038">
        <ele>374</ele>
        <time>2011-07-15T14:29:55Z</time>
      </trkpt>
      <trkpt lat="45.31915" lon="1.40383">
        <ele>377</ele>
        <time>2011-07-15T14:29:57Z</time>
      </trkpt>
      <trkpt lat="45.31919" lon="1.40387">
        <ele>375</ele>
        <time>2011-07-15T14:29:59Z</time>
      </trkpt>
      <trkpt lat="45.31925" lon="1.40392">
        <ele>375</ele>
        <time>2011-07-15T14:30:02Z</time>
      </trkpt>
      <trkpt lat="45.31929" lon="1.40395">
        <ele>376</ele>
        <time>2011-07-15T14:30:04Z</time>
      </trkpt>
      <trkpt lat="45.31935" lon="1.40399">
        <ele>379</ele>
        <time>2011-07-15T14:30:07Z</time>
      </trkpt>
      <trkpt lat="45.31937" lon="1.40406">
        <ele>377</ele>
        <time>2011-07-15T14:30:11Z</time>
      </trkpt>
      <trkpt lat="45.31932" lon="1.40417">
        <ele>380</ele>
        <time>2011-07-15T14:30:13Z</time>
      </trkpt>
      <trkpt lat="45.3193" lon="1.40423">
        <ele>385</ele>
        <time>2011-07-15T14:30:14Z</time>
      </trkpt>
      <trkpt lat="45.31927" lon="1.4043">
        <ele>382</ele>
        <time>2011-07-15T14:30:15Z</time>
      </trkpt>
      <trkpt lat="45.31924" lon="1.40438">
        <ele>377</ele>
        <time>2011-07-15T14:30:16Z</time>
      </trkpt>
      <trkpt lat="45.31922" lon="1.40445">
        <ele>372</ele>
        <time>2011-07-15T14:30:17Z</time>
      </trkpt>
      <trkpt lat="45.31919" lon="1.40453">
        <ele>378</ele>
        <time>2011-07-15T14:30:18Z</time>
      </trkpt>
      <trkpt lat="45.31916" lon="1.40462">
        <ele>381</ele>
        <time>2011-07-15T14:30:19Z</time>
      </trkpt>
      <trkpt lat="45.31913" lon="1.4047">
        <ele>380</ele>
        <time>2011-07-15T14:30:20Z</time>
      </trkpt>
      <trkpt lat="45.31911" lon="1.40479">
        <ele>376</ele>
        <time>2011-07-15T14:30:21Z</time>
      </trkpt>
      <trkpt lat="45.31908" lon="1.40492">
        <ele>375</ele>
        <time>2011-07-15T14:30:22Z</time>
      </trkpt>
      <trkpt lat="45.31906" lon="1.40506">
        <ele>373</ele>
        <time>2011-07-15T14:30:23Z</time>
      </trkpt>
      <trkpt lat="45.31904" lon="1.40523">
        <ele>375</ele>
        <time>2011-07-15T14:30:24Z</time>
      </trkpt>
      <trkpt lat="45.31901" lon="1.40539">
        <ele>373</ele>
        <time>2011-07-15T14:30:25Z</time>
      </trkpt>
      <trkpt lat="45.31898" lon="1.40552">
        <ele>372</ele>
        <time>2011-07-15T14:30:26Z</time>
      </trkpt>
      <trkpt lat="45.31898" lon="1.40564">
        <ele>372</ele>
        <time>2011-07-15T14:30:27Z</time>
      </trkpt>
      <trkpt lat="45.31896" lon="1.40571">
        <ele>372</ele>
        <time>2011-07-15T14:30:28Z</time>
      </trkpt>
      <trkpt lat="45.31894" lon="1.40579">
        <ele>375</ele>
        <time>2011-07-15T14:30:30Z</time>
      </trkpt>
      <trkpt lat="45.31891" lon="1.40584">
        <ele>375</ele>
        <time>2011-07-15T14:30:31Z</time>
      </trkpt>
      <trkpt lat="45.31884" lon="1.40593">
        <ele>374</ele>
        <time>2011-07-15T14:30:33Z</time>
      </trkpt>
      <trkpt lat="45.3188" lon="1.40597">
        <ele>373</ele>
        <time>2011-07-15T14:30:34Z</time>
      </trkpt>
      <trkpt lat="45.31876" lon="1.40602">
        <ele>371</ele>
        <time>2011-07-15T14:30:35Z</time>
      </trkpt>
      <trkpt lat="45.31876" lon="1.40602">
        <ele>371</ele>
        <time>2011-07-15T14:30:35Z</time>
      </trkpt>
      <trkpt lat="45.31876" lon="1.40602">
        <ele>371</ele>
        <time>2011-07-15T14:30:37Z</time>
      </trkpt>
      <trkpt lat="45.31873" lon="1.40609">
        <ele>371</ele>
        <time>2011-07-15T14:30:38Z</time>
      </trkpt>
      <trkpt lat="45.3187" lon="1.40615">
        <ele>370</ele>
        <time>2011-07-15T14:30:39Z</time>
      </trkpt>
      <trkpt lat="45.3187" lon="1.40615">
        <ele>370</ele>
        <time>2011-07-15T14:30:39Z</time>
      </trkpt>
      <trkpt lat="45.3187" lon="1.40615">
        <ele>370</ele>
        <time>2011-07-15T14:30:44Z</time>
      </trkpt>
      <trkpt lat="45.31856" lon="1.40629">
        <ele>378</ele>
        <time>2011-07-15T14:30:45Z</time>
      </trkpt>
      <trkpt lat="45.3185" lon="1.40633">
        <ele>378</ele>
        <time>2011-07-15T14:30:46Z</time>
      </trkpt>
      <trkpt lat="45.31844" lon="1.40637">
        <ele>378</ele>
        <time>2011-07-15T14:30:47Z</time>
      </trkpt>
      <trkpt lat="45.31837" lon="1.4064">
        <ele>379</ele>
        <time>2011-07-15T14:30:48Z</time>
      </trkpt>
      <trkpt lat="45.3183" lon="1.40643">
        <ele>373</ele>
        <time>2011-07-15T14:30:49Z</time>
      </trkpt>
      <trkpt lat="45.31823" lon="1.40646">
        <ele>371</ele>
        <time>2011-07-15T14:30:50Z</time>
      </trkpt>
      <trkpt lat="45.31816" lon="1.40648">
        <ele>372</ele>
        <time>2011-07-15T14:30:51Z</time>
      </trkpt>
      <trkpt lat="45.31809" lon="1.4065">
        <ele>373</ele>
        <time>2011-07-15T14:30:52Z</time>
      </trkpt>
      <trkpt lat="45.31803" lon="1.40652">
        <ele>373</ele>
        <time>2011-07-15T14:30:53Z</time>
      </trkpt>
      <trkpt lat="45.31796" lon="1.40654">
        <ele>374</ele>
        <time>2011-07-15T14:30:54Z</time>
      </trkpt>
      <trkpt lat="45.3179" lon="1.40655">
        <ele>376</ele>
        <time>2011-07-15T14:30:55Z</time>
      </trkpt>
      <trkpt lat="45.31784" lon="1.40656">
        <ele>375</ele>
        <time>2011-07-15T14:30:56Z</time>
      </trkpt>
      <trkpt lat="45.31779" lon="1.40657">
        <ele>375</ele>
        <time>2011-07-15T14:30:57Z</time>
      </trkpt>
      <trkpt lat="45.31773" lon="1.40658">
        <ele>373</ele>
        <time>2011-07-15T14:30:58Z</time>
      </trkpt>
      <trkpt lat="45.31767" lon="1.40659">
        <ele>376</ele>
        <time>2011-07-15T14:30:59Z</time>
      </trkpt>
      <trkpt lat="45.3176" lon="1.4066">
        <ele>380</ele>
        <time>2011-07-15T14:31:00Z</time>
      </trkpt>
      <trkpt lat="45.31754" lon="1.40662">
        <ele>379</ele>
        <time>2011-07-15T14:31:01Z</time>
      </trkpt>
      <trkpt lat="45.31748" lon="1.40663">
        <ele>378</ele>
        <time>2011-07-15T14:31:02Z</time>
      </trkpt>
      <trkpt lat="45.31741" lon="1.40664">
        <ele>377</ele>
        <time>2011-07-15T14:31:03Z</time>
      </trkpt>
      <trkpt lat="45.31734" lon="1.40666">
        <ele>378</ele>
        <time>2011-07-15T14:31:04Z</time>
      </trkpt>
      <trkpt lat="45.31728" lon="1.40669">
        <ele>374</ele>
        <time>2011-07-15T14:31:05Z</time>
      </trkpt>
      <trkpt lat="45.3172" lon="1.40674">
        <ele>371</ele>
        <time>2011-07-15T14:31:06Z</time>
      </trkpt>
      <trkpt lat="45.31712" lon="1.40678">
        <ele>370</ele>
        <time>2011-07-15T14:31:07Z</time>
      </trkpt>
      <trkpt lat="45.31702" lon="1.40683">
        <ele>369</ele>
        <time>2011-07-15T14:31:08Z</time>
      </trkpt>
      <trkpt lat="45.31702" lon="1.40683">
        <ele>369</ele>
        <time>2011-07-15T14:31:08Z</time>
      </trkpt>
      <trkpt lat="45.31702" lon="1.40683">
        <ele>369</ele>
        <time>2011-07-15T14:31:10Z</time>
      </trkpt>
      <trkpt lat="45.31695" lon="1.40686">
        <ele>372</ele>
        <time>2011-07-15T14:31:11Z</time>
      </trkpt>
      <trkpt lat="45.31687" lon="1.4069">
        <ele>371</ele>
        <time>2011-07-15T14:31:12Z</time>
      </trkpt>
      <trkpt lat="45.31677" lon="1.40695">
        <ele>372</ele>
        <time>2011-07-15T14:31:13Z</time>
      </trkpt>
      <trkpt lat="45.31667" lon="1.407">
        <ele>369</ele>
        <time>2011-07-15T14:31:14Z</time>
      </trkpt>
      <trkpt lat="45.31657" lon="1.40706">
        <ele>374</ele>
        <time>2011-07-15T14:31:15Z</time>
      </trkpt>
      <trkpt lat="45.31647" lon="1.40711">
        <ele>374</ele>
        <time>2011-07-15T14:31:16Z</time>
      </trkpt>
      <trkpt lat="45.31637" lon="1.40717">
        <ele>371</ele>
        <time>2011-07-15T14:31:17Z</time>
      </trkpt>
      <trkpt lat="45.31629" lon="1.40722">
        <ele>372</ele>
        <time>2011-07-15T14:31:18Z</time>
      </trkpt>
      <trkpt lat="45.31621" lon="1.40729">
        <ele>358</ele>
        <time>2011-07-15T14:31:19Z</time>
      </trkpt>
      <trkpt lat="45.3161" lon="1.40735">
        <ele>355</ele>
        <time>2011-07-15T14:31:20Z</time>
      </trkpt>
      <trkpt lat="45.31602" lon="1.40738">
        <ele>353</ele>
        <time>2011-07-15T14:31:21Z</time>
      </trkpt>
      <trkpt lat="45.3159" lon="1.4074">
        <ele>352</ele>
        <time>2011-07-15T14:31:22Z</time>
      </trkpt>
      <trkpt lat="45.31577" lon="1.40739">
        <ele>352</ele>
        <time>2011-07-15T14:31:23Z</time>
      </trkpt>
      <trkpt lat="45.31567" lon="1.40736">
        <ele>350</ele>
        <time>2011-07-15T14:31:24Z</time>
      </trkpt>
      <trkpt lat="45.31558" lon="1.40732">
        <ele>348</ele>
        <time>2011-07-15T14:31:25Z</time>
      </trkpt>
      <trkpt lat="45.3155" lon="1.40728">
        <ele>348</ele>
        <time>2011-07-15T14:31:26Z</time>
      </trkpt>
      <trkpt lat="45.31542" lon="1.40722">
        <ele>350</ele>
        <time>2011-07-15T14:31:27Z</time>
      </trkpt>
      <trkpt lat="45.31533" lon="1.40718">
        <ele>350</ele>
        <time>2011-07-15T14:31:28Z</time>
      </trkpt>
      <trkpt lat="45.31525" lon="1.40714">
        <ele>349</ele>
        <time>2011-07-15T14:31:29Z</time>
      </trkpt>
      <trkpt lat="45.31518" lon="1.40711">
        <ele>350</ele>
        <time>2011-07-15T14:31:30Z</time>
      </trkpt>
      <trkpt lat="45.31511" lon="1.4071">
        <ele>348</ele>
        <time>2011-07-15T14:31:31Z</time>
      </trkpt>
      <trkpt lat="45.31504" lon="1.4071">
        <ele>351</ele>
        <time>2011-07-15T14:31:32Z</time>
      </trkpt>
      <trkpt lat="45.31498" lon="1.40712">
        <ele>355</ele>
        <time>2011-07-15T14:31:33Z</time>
      </trkpt>
      <trkpt lat="45.31492" lon="1.40714">
        <ele>352</ele>
        <time>2011-07-15T14:31:34Z</time>
      </trkpt>
      <trkpt lat="45.31484" lon="1.40717">
        <ele>350</ele>
        <time>2011-07-15T14:31:35Z</time>
      </trkpt>
      <trkpt lat="45.31477" lon="1.40721">
        <ele>351</ele>
        <time>2011-07-15T14:31:36Z</time>
      </trkpt>
      <trkpt lat="45.3147" lon="1.40725">
        <ele>350</ele>
        <time>2011-07-15T14:31:37Z</time>
      </trkpt>
      <trkpt lat="45.31462" lon="1.40729">
        <ele>351</ele>
        <time>2011-07-15T14:31:38Z</time>
      </trkpt>
      <trkpt lat="45.31454" lon="1.40733">
        <ele>349</ele>
        <time>2011-07-15T14:31:39Z</time>
      </trkpt>
      <trkpt lat="45.31443" lon="1.40738">
        <ele>344</ele>
        <time>2011-07-15T14:31:40Z</time>
      </trkpt>
      <trkpt lat="45.31431" lon="1.40744">
        <ele>342</ele>
        <time>2011-07-15T14:31:41Z</time>
      </trkpt>
      <trkpt lat="45.31419" lon="1.4075">
        <ele>338</ele>
        <time>2011-07-15T14:31:42Z</time>
      </trkpt>
      <trkpt lat="45.31407" lon="1.40755">
        <ele>341</ele>
        <time>2011-07-15T14:31:43Z</time>
      </trkpt>
      <trkpt lat="45.31394" lon="1.4076">
        <ele>341</ele>
        <time>2011-07-15T14:31:44Z</time>
      </trkpt>
      <trkpt lat="45.31381" lon="1.40766">
        <ele>342</ele>
        <time>2011-07-15T14:31:45Z</time>
      </trkpt>
      <trkpt lat="45.31365" lon="1.40771">
        <ele>341</ele>
        <time>2011-07-15T14:31:46Z</time>
      </trkpt>
      <trkpt lat="45.31352" lon="1.40777">
        <ele>339</ele>
        <time>2011-07-15T14:31:47Z</time>
      </trkpt>
      <trkpt lat="45.3134" lon="1.40784">
        <ele>336</ele>
        <time>2011-07-15T14:31:48Z</time>
      </trkpt>
      <trkpt lat="45.3133" lon="1.40792">
        <ele>336</ele>
        <time>2011-07-15T14:31:49Z</time>
      </trkpt>
      <trkpt lat="45.31322" lon="1.408">
        <ele>335</ele>
        <time>2011-07-15T14:31:50Z</time>
      </trkpt>
      <trkpt lat="45.31317" lon="1.40809">
        <ele>337</ele>
        <time>2011-07-15T14:31:51Z</time>
      </trkpt>
      <trkpt lat="45.31313" lon="1.40821">
        <ele>332</ele>
        <time>2011-07-15T14:31:52Z</time>
      </trkpt>
      <trkpt lat="45.3131" lon="1.40836">
        <ele>327</ele>
        <time>2011-07-15T14:31:53Z</time>
      </trkpt>
      <trkpt lat="45.31308" lon="1.40849">
        <ele>326</ele>
        <time>2011-07-15T14:31:54Z</time>
      </trkpt>
      <trkpt lat="45.31307" lon="1.40862">
        <ele>326</ele>
        <time>2011-07-15T14:31:55Z</time>
      </trkpt>
      <trkpt lat="45.31305" lon="1.40875">
        <ele>324</ele>
        <time>2011-07-15T14:31:56Z</time>
      </trkpt>
      <trkpt lat="45.31303" lon="1.40889">
        <ele>324</ele>
        <time>2011-07-15T14:31:57Z</time>
      </trkpt>
      <trkpt lat="45.31301" lon="1.40901">
        <ele>323</ele>
        <time>2011-07-15T14:31:58Z</time>
      </trkpt>
      <trkpt lat="45.31299" lon="1.40911">
        <ele>323</ele>
        <time>2011-07-15T14:31:59Z</time>
      </trkpt>
      <trkpt lat="45.31295" lon="1.40915">
        <ele>322</ele>
        <time>2011-07-15T14:32:00Z</time>
      </trkpt>
      <trkpt lat="45.31289" lon="1.40918">
        <ele>321</ele>
        <time>2011-07-15T14:32:01Z</time>
      </trkpt>
      <trkpt lat="45.31284" lon="1.40917">
        <ele>321</ele>
        <time>2011-07-15T14:32:02Z</time>
      </trkpt>
      <trkpt lat="45.31277" lon="1.40915">
        <ele>323</ele>
        <time>2011-07-15T14:32:03Z</time>
      </trkpt>
      <trkpt lat="45.3127" lon="1.40912">
        <ele>321</ele>
        <time>2011-07-15T14:32:04Z</time>
      </trkpt>
      <trkpt lat="45.31264" lon="1.40908">
        <ele>322</ele>
        <time>2011-07-15T14:32:05Z</time>
      </trkpt>
      <trkpt lat="45.31258" lon="1.40903">
        <ele>320</ele>
        <time>2011-07-15T14:32:06Z</time>
      </trkpt>
      <trkpt lat="45.31253" lon="1.40898">
        <ele>318</ele>
        <time>2011-07-15T14:32:07Z</time>
      </trkpt>
      <trkpt lat="45.31248" lon="1.40895">
        <ele>318</ele>
        <time>2011-07-15T14:32:08Z</time>
      </trkpt>
      <trkpt lat="45.31244" lon="1.40892">
        <ele>316</ele>
        <time>2011-07-15T14:32:09Z</time>
      </trkpt>
      <trkpt lat="45.3124" lon="1.40889">
        <ele>313</ele>
        <time>2011-07-15T14:32:11Z</time>
      </trkpt>
      <trkpt lat="45.3124" lon="1.40889">
        <ele>313</ele>
        <time>2011-07-15T14:32:11Z</time>
      </trkpt>
      <trkpt lat="45.3124" lon="1.40889">
        <ele>313</ele>
        <time>2011-07-15T14:32:22Z</time>
      </trkpt>
      <trkpt lat="45.3123" lon="1.40885">
        <ele>313</ele>
        <time>2011-07-15T14:32:26Z</time>
      </trkpt>
      <trkpt lat="45.31224" lon="1.40883">
        <ele>311</ele>
        <time>2011-07-15T14:32:28Z</time>
      </trkpt>
      <trkpt lat="45.31217" lon="1.40886">
        <ele>309</ele>
        <time>2011-07-15T14:32:30Z</time>
      </trkpt>
      <trkpt lat="45.31212" lon="1.40888">
        <ele>313</ele>
        <time>2011-07-15T14:32:31Z</time>
      </trkpt>
      <trkpt lat="45.31205" lon="1.40891">
        <ele>311</ele>
        <time>2011-07-15T14:32:32Z</time>
      </trkpt>
      <trkpt lat="45.31199" lon="1.40894">
        <ele>313</ele>
        <time>2011-07-15T14:32:33Z</time>
      </trkpt>
      <trkpt lat="45.31192" lon="1.40897">
        <ele>313</ele>
        <time>2011-07-15T14:32:34Z</time>
      </trkpt>
      <trkpt lat="45.31186" lon="1.40906">
        <ele>308</ele>
        <time>2011-07-15T14:32:36Z</time>
      </trkpt>
      <trkpt lat="45.31183" lon="1.40915">
        <ele>310</ele>
        <time>2011-07-15T14:32:38Z</time>
      </trkpt>
      <trkpt lat="45.31184" lon="1.40926">
        <ele>306</ele>
        <time>2011-07-15T14:32:41Z</time>
      </trkpt>
      <trkpt lat="45.31187" lon="1.40933">
        <ele>305</ele>
        <time>2011-07-15T14:32:43Z</time>
      </trkpt>
      <trkpt lat="45.31191" lon="1.40943">
        <ele>306</ele>
        <time>2011-07-15T14:32:47Z</time>
      </trkpt>
      <trkpt lat="45.31194" lon="1.40958">
        <ele>309</ele>
        <time>2011-07-15T14:32:51Z</time>
      </trkpt>
      <trkpt lat="45.31193" lon="1.40965">
        <ele>312</ele>
        <time>2011-07-15T14:32:53Z</time>
      </trkpt>
      <trkpt lat="45.31193" lon="1.40965">
        <ele>312</ele>
        <time>2011-07-15T14:32:53Z</time>
      </trkpt>
      <trkpt lat="45.31193" lon="1.40965">
        <ele>312</ele>
        <time>2011-07-15T14:32:56Z</time>
      </trkpt>
      <trkpt lat="45.31192" lon="1.4098">
        <ele>306</ele>
        <time>2011-07-15T14:32:57Z</time>
      </trkpt>
      <trkpt lat="45.31187" lon="1.40984">
        <ele>306</ele>
        <time>2011-07-15T14:32:59Z</time>
      </trkpt>
      <trkpt lat="45.31181" lon="1.40987">
        <ele>309</ele>
        <time>2011-07-15T14:33:01Z</time>
      </trkpt>
      <trkpt lat="45.31175" lon="1.40989">
        <ele>310</ele>
        <time>2011-07-15T14:33:03Z</time>
      </trkpt>
      <trkpt lat="45.31169" lon="1.40993">
        <ele>315</ele>
        <time>2011-07-15T14:33:05Z</time>
      </trkpt>
      <trkpt lat="45.31163" lon="1.41001">
        <ele>316</ele>
        <time>2011-07-15T14:33:07Z</time>
      </trkpt>
      <trkpt lat="45.31159" lon="1.41006">
        <ele>318</ele>
        <time>2011-07-15T14:33:08Z</time>
      </trkpt>
      <trkpt lat="45.31153" lon="1.41014">
        <ele>318</ele>
        <time>2011-07-15T14:33:10Z</time>
      </trkpt>
      <trkpt lat="45.31146" lon="1.41024">
        <ele>318</ele>
        <time>2011-07-15T14:33:12Z</time>
      </trkpt>
      <trkpt lat="45.31142" lon="1.41029">
        <ele>316</ele>
        <time>2011-07-15T14:33:13Z</time>
      </trkpt>
      <trkpt lat="45.31137" lon="1.41035">
        <ele>314</ele>
        <time>2011-07-15T14:33:14Z</time>
      </trkpt>
      <trkpt lat="45.31133" lon="1.4104">
        <ele>312</ele>
        <time>2011-07-15T14:33:15Z</time>
      </trkpt>
      <trkpt lat="45.31127" lon="1.41046">
        <ele>310</ele>
        <time>2011-07-15T14:33:16Z</time>
      </trkpt>
      <trkpt lat="45.31122" lon="1.41051">
        <ele>308</ele>
        <time>2011-07-15T14:33:17Z</time>
      </trkpt>
      <trkpt lat="45.31117" lon="1.41057">
        <ele>308</ele>
        <time>2011-07-15T14:33:18Z</time>
      </trkpt>
      <trkpt lat="45.31111" lon="1.41064">
        <ele>308</ele>
        <time>2011-07-15T14:33:19Z</time>
      </trkpt>
      <trkpt lat="45.31105" lon="1.41071">
        <ele>307</ele>
        <time>2011-07-15T14:33:20Z</time>
      </trkpt>
      <trkpt lat="45.311" lon="1.41079">
        <ele>307</ele>
        <time>2011-07-15T14:33:21Z</time>
      </trkpt>
      <trkpt lat="45.31096" lon="1.41087">
        <ele>306</ele>
        <time>2011-07-15T14:33:22Z</time>
      </trkpt>
      <trkpt lat="45.31091" lon="1.41096">
        <ele>308</ele>
        <time>2011-07-15T14:33:23Z</time>
      </trkpt>
      <trkpt lat="45.3109" lon="1.41108">
        <ele>307</ele>
        <time>2011-07-15T14:33:24Z</time>
      </trkpt>
      <trkpt lat="45.31088" lon="1.41119">
        <ele>305</ele>
        <time>2011-07-15T14:33:25Z</time>
      </trkpt>
      <trkpt lat="45.31086" lon="1.41128">
        <ele>308</ele>
        <time>2011-07-15T14:33:26Z</time>
      </trkpt>
      <trkpt lat="45.31083" lon="1.41136">
        <ele>306</ele>
        <time>2011-07-15T14:33:27Z</time>
      </trkpt>
      <trkpt lat="45.31078" lon="1.41141">
        <ele>306</ele>
        <time>2011-07-15T14:33:28Z</time>
      </trkpt>
      <trkpt lat="45.31078" lon="1.41141">
        <ele>306</ele>
        <time>2011-07-15T14:33:28Z</time>
      </trkpt>
      <trkpt lat="45.31078" lon="1.41141">
        <ele>306</ele>
        <time>2011-07-15T14:33:29Z</time>
      </trkpt>
      <trkpt lat="45.31074" lon="1.41138">
        <ele>304</ele>
        <time>2011-07-15T14:33:30Z</time>
      </trkpt>
      <trkpt lat="45.31069" lon="1.41135">
        <ele>303</ele>
        <time>2011-07-15T14:33:31Z</time>
      </trkpt>
      <trkpt lat="45.31064" lon="1.41129">
        <ele>299</ele>
        <time>2011-07-15T14:33:32Z</time>
      </trkpt>
      <trkpt lat="45.31062" lon="1.41122">
        <ele>300</ele>
        <time>2011-07-15T14:33:33Z</time>
      </trkpt>
      <trkpt lat="45.31061" lon="1.41115">
        <ele>302</ele>
        <time>2011-07-15T14:33:34Z</time>
      </trkpt>
      <trkpt lat="45.3106" lon="1.41104">
        <ele>299</ele>
        <time>2011-07-15T14:33:35Z</time>
      </trkpt>
      <trkpt lat="45.31062" lon="1.41091">
        <ele>301</ele>
        <time>2011-07-15T14:33:36Z</time>
      </trkpt>
      <trkpt lat="45.31064" lon="1.41078">
        <ele>303</ele>
        <time>2011-07-15T14:33:37Z</time>
      </trkpt>
      <trkpt lat="45.31066" lon="1.41064">
        <ele>301</ele>
        <time>2011-07-15T14:33:38Z</time>
      </trkpt>
      <trkpt lat="45.31069" lon="1.41049">
        <ele>300</ele>
        <time>2011-07-15T14:33:39Z</time>
      </trkpt>
      <trkpt lat="45.31073" lon="1.41035">
        <ele>299</ele>
        <time>2011-07-15T14:33:40Z</time>
      </trkpt>
      <trkpt lat="45.31076" lon="1.41021">
        <ele>300</ele>
        <time>2011-07-15T14:33:41Z</time>
      </trkpt>
      <trkpt lat="45.3108" lon="1.41009">
        <ele>301</ele>
        <time>2011-07-15T14:33:42Z</time>
      </trkpt>
      <trkpt lat="45.31084" lon="1.40997">
        <ele>300</ele>
        <time>2011-07-15T14:33:43Z</time>
      </trkpt>
      <trkpt lat="45.31088" lon="1.40986">
        <ele>300</ele>
        <time>2011-07-15T14:33:44Z</time>
      </trkpt>
      <trkpt lat="45.31092" lon="1.40976">
        <ele>301</ele>
        <time>2011-07-15T14:33:45Z</time>
      </trkpt>
      <trkpt lat="45.31094" lon="1.4097">
        <ele>296</ele>
        <time>2011-07-15T14:33:46Z</time>
      </trkpt>
      <trkpt lat="45.31093" lon="1.40963">
        <ele>295</ele>
        <time>2011-07-15T14:33:48Z</time>
      </trkpt>
      <trkpt lat="45.31086" lon="1.40963">
        <ele>299</ele>
        <time>2011-07-15T14:33:51Z</time>
      </trkpt>
      <trkpt lat="45.31081" lon="1.40974">
        <ele>299</ele>
        <time>2011-07-15T14:33:53Z</time>
      </trkpt>
      <trkpt lat="45.31078" lon="1.40979">
        <ele>299</ele>
        <time>2011-07-15T14:33:54Z</time>
      </trkpt>
      <trkpt lat="45.31075" lon="1.40983">
        <ele>298</ele>
        <time>2011-07-15T14:33:55Z</time>
      </trkpt>
      <trkpt lat="45.31071" lon="1.40988">
        <ele>297</ele>
        <time>2011-07-15T14:33:56Z</time>
      </trkpt>
      <trkpt lat="45.31066" lon="1.40998">
        <ele>291</ele>
        <time>2011-07-15T14:33:58Z</time>
      </trkpt>
      <trkpt lat="45.31061" lon="1.41003">
        <ele>287</ele>
        <time>2011-07-15T14:33:59Z</time>
      </trkpt>
      <trkpt lat="45.31056" lon="1.4101">
        <ele>287</ele>
        <time>2011-07-15T14:34:00Z</time>
      </trkpt>
      <trkpt lat="45.31051" lon="1.41017">
        <ele>287</ele>
        <time>2011-07-15T14:34:01Z</time>
      </trkpt>
      <trkpt lat="45.31046" lon="1.41025">
        <ele>289</ele>
        <time>2011-07-15T14:34:02Z</time>
      </trkpt>
      <trkpt lat="45.31039" lon="1.41032">
        <ele>291</ele>
        <time>2011-07-15T14:34:03Z</time>
      </trkpt>
      <trkpt lat="45.31034" lon="1.4104">
        <ele>291</ele>
        <time>2011-07-15T14:34:04Z</time>
      </trkpt>
      <trkpt lat="45.31028" lon="1.41049">
        <ele>291</ele>
        <time>2011-07-15T14:34:05Z</time>
      </trkpt>
      <trkpt lat="45.31024" lon="1.41058">
        <ele>290</ele>
        <time>2011-07-15T14:34:06Z</time>
      </trkpt>
      <trkpt lat="45.31019" lon="1.41067">
        <ele>289</ele>
        <time>2011-07-15T14:34:07Z</time>
      </trkpt>
      <trkpt lat="45.31016" lon="1.41075">
        <ele>290</ele>
        <time>2011-07-15T14:34:08Z</time>
      </trkpt>
      <trkpt lat="45.31012" lon="1.41084">
        <ele>289</ele>
        <time>2011-07-15T14:34:09Z</time>
      </trkpt>
      <trkpt lat="45.31009" lon="1.41095">
        <ele>286</ele>
        <time>2011-07-15T14:34:10Z</time>
      </trkpt>
      <trkpt lat="45.31009" lon="1.41106">
        <ele>278</ele>
        <time>2011-07-15T14:34:11Z</time>
      </trkpt>
      <trkpt lat="45.31009" lon="1.41117">
        <ele>277</ele>
        <time>2011-07-15T14:34:12Z</time>
      </trkpt>
      <trkpt lat="45.31009" lon="1.41128">
        <ele>276</ele>
        <time>2011-07-15T14:34:13Z</time>
      </trkpt>
      <trkpt lat="45.31008" lon="1.41138">
        <ele>276</ele>
        <time>2011-07-15T14:34:14Z</time>
      </trkpt>
      <trkpt lat="45.31007" lon="1.41146">
        <ele>275</ele>
        <time>2011-07-15T14:34:15Z</time>
      </trkpt>
      <trkpt lat="45.31007" lon="1.41146">
        <ele>275</ele>
        <time>2011-07-15T14:34:15Z</time>
      </trkpt>
      <trkpt lat="45.31007" lon="1.41146">
        <ele>275</ele>
        <time>2011-07-15T14:34:16Z</time>
      </trkpt>
      <trkpt lat="45.31003" lon="1.4115">
        <ele>274</ele>
        <time>2011-07-15T14:34:17Z</time>
      </trkpt>
      <trkpt lat="45.30999" lon="1.41155">
        <ele>284</ele>
        <time>2011-07-15T14:34:18Z</time>
      </trkpt>
      <trkpt lat="45.30994" lon="1.4116">
        <ele>296</ele>
        <time>2011-07-15T14:34:19Z</time>
      </trkpt>
      <trkpt lat="45.3099" lon="1.41164">
        <ele>294</ele>
        <time>2011-07-15T14:34:20Z</time>
      </trkpt>
      <trkpt lat="45.30984" lon="1.41167">
        <ele>297</ele>
        <time>2011-07-15T14:34:21Z</time>
      </trkpt>
      <trkpt lat="45.30979" lon="1.41171">
        <ele>301</ele>
        <time>2011-07-15T14:34:22Z</time>
      </trkpt>
      <trkpt lat="45.30974" lon="1.41174">
        <ele>303</ele>
        <time>2011-07-15T14:34:23Z</time>
      </trkpt>
      <trkpt lat="45.30969" lon="1.41178">
        <ele>305</ele>
        <time>2011-07-15T14:34:24Z</time>
      </trkpt>
      <trkpt lat="45.30961" lon="1.41182">
        <ele>301</ele>
        <time>2011-07-15T14:34:25Z</time>
      </trkpt>
      <trkpt lat="45.30953" lon="1.41186">
        <ele>300</ele>
        <time>2011-07-15T14:34:26Z</time>
      </trkpt>
      <trkpt lat="45.30945" lon="1.4119">
        <ele>299</ele>
        <time>2011-07-15T14:34:27Z</time>
      </trkpt>
      <trkpt lat="45.30937" lon="1.41194">
        <ele>301</ele>
        <time>2011-07-15T14:34:28Z</time>
      </trkpt>
      <trkpt lat="45.30855" lon="1.41304">
        <ele>305</ele>
        <time>2011-07-15T14:34:38Z</time>
      </trkpt>
      <trkpt lat="45.30848" lon="1.41316">
        <ele>306</ele>
        <time>2011-07-15T14:34:39Z</time>
      </trkpt>
      <trkpt lat="45.30842" lon="1.41329">
        <ele>309</ele>
        <time>2011-07-15T14:34:40Z</time>
      </trkpt>
      <trkpt lat="45.30836" lon="1.41342">
        <ele>306</ele>
        <time>2011-07-15T14:34:41Z</time>
      </trkpt>
      <trkpt lat="45.3083" lon="1.41355">
        <ele>306</ele>
        <time>2011-07-15T14:34:42Z</time>
      </trkpt>
      <trkpt lat="45.30825" lon="1.41369">
        <ele>306</ele>
        <time>2011-07-15T14:34:43Z</time>
      </trkpt>
      <trkpt lat="45.30821" lon="1.41384">
        <ele>305</ele>
        <time>2011-07-15T14:34:44Z</time>
      </trkpt>
      <trkpt lat="45.30817" lon="1.41399">
        <ele>303</ele>
        <time>2011-07-15T14:34:45Z</time>
      </trkpt>
      <trkpt lat="45.30813" lon="1.41419">
        <ele>298</ele>
        <time>2011-07-15T14:34:46Z</time>
      </trkpt>
      <trkpt lat="45.3081" lon="1.41436">
        <ele>294</ele>
        <time>2011-07-15T14:34:47Z</time>
      </trkpt>
      <trkpt lat="45.30805" lon="1.41458">
        <ele>289</ele>
        <time>2011-07-15T14:34:48Z</time>
      </trkpt>
      <trkpt lat="45.30804" lon="1.41479">
        <ele>289</ele>
        <time>2011-07-15T14:34:49Z</time>
      </trkpt>
      <trkpt lat="45.30805" lon="1.41502">
        <ele>282</ele>
        <time>2011-07-15T14:34:50Z</time>
      </trkpt>
      <trkpt lat="45.30807" lon="1.4152">
        <ele>281</ele>
        <time>2011-07-15T14:34:51Z</time>
      </trkpt>
      <trkpt lat="45.30808" lon="1.41536">
        <ele>280</ele>
        <time>2011-07-15T14:34:52Z</time>
      </trkpt>
      <trkpt lat="45.30808" lon="1.41551">
        <ele>274</ele>
        <time>2011-07-15T14:34:53Z</time>
      </trkpt>
      <trkpt lat="45.30808" lon="1.41563">
        <ele>271</ele>
        <time>2011-07-15T14:34:54Z</time>
      </trkpt>
      <trkpt lat="45.30808" lon="1.41576">
        <ele>274</ele>
        <time>2011-07-15T14:34:55Z</time>
      </trkpt>
      <trkpt lat="45.30809" lon="1.41587">
        <ele>272</ele>
        <time>2011-07-15T14:34:56Z</time>
      </trkpt>
      <trkpt lat="45.30811" lon="1.41597">
        <ele>272</ele>
        <time>2011-07-15T14:34:57Z</time>
      </trkpt>
      <trkpt lat="45.30814" lon="1.41606">
        <ele>269</ele>
        <time>2011-07-15T14:34:58Z</time>
      </trkpt>
      <trkpt lat="45.30814" lon="1.41612">
        <ele>263</ele>
        <time>2011-07-15T14:34:59Z</time>
      </trkpt>
      <trkpt lat="45.30813" lon="1.41619">
        <ele>262</ele>
        <time>2011-07-15T14:35:00Z</time>
      </trkpt>
      <trkpt lat="45.30812" lon="1.41629">
        <ele>251</ele>
        <time>2011-07-15T14:35:02Z</time>
      </trkpt>
      <trkpt lat="45.30807" lon="1.41628">
        <ele>247</ele>
        <time>2011-07-15T14:35:04Z</time>
      </trkpt>
      <trkpt lat="45.30794" lon="1.4163">
        <ele>271</ele>
        <time>2011-07-15T14:35:31Z</time>
      </trkpt>
      <trkpt lat="45.30794" lon="1.4163">
        <ele>271</ele>
        <time>2011-07-15T14:35:31Z</time>
      </trkpt>
      <trkpt lat="45.30794" lon="1.4163">
        <ele>271</ele>
        <time>2011-07-15T14:35:52Z</time>
      </trkpt>
      <trkpt lat="45.30787" lon="1.4164">
        <ele>250</ele>
        <time>2011-07-15T14:35:56Z</time>
      </trkpt>
      <trkpt lat="45.30784" lon="1.41645">
        <ele>249</ele>
        <time>2011-07-15T14:35:57Z</time>
      </trkpt>
      <trkpt lat="45.30778" lon="1.41654">
        <ele>246</ele>
        <time>2011-07-15T14:35:58Z</time>
      </trkpt>
      <trkpt lat="45.30772" lon="1.41664">
        <ele>242</ele>
        <time>2011-07-15T14:35:59Z</time>
      </trkpt>
      <trkpt lat="45.30765" lon="1.41673">
        <ele>241</ele>
        <time>2011-07-15T14:36:00Z</time>
      </trkpt>
      <trkpt lat="45.30757" lon="1.4168">
        <ele>219</ele>
        <time>2011-07-15T14:36:02Z</time>
      </trkpt>
      <trkpt lat="45.30752" lon="1.41686">
        <ele>213</ele>
        <time>2011-07-15T14:36:04Z</time>
      </trkpt>
      <trkpt lat="45.30746" lon="1.41689">
        <ele>215</ele>
        <time>2011-07-15T14:36:06Z</time>
      </trkpt>
      <trkpt lat="45.30737" lon="1.4169">
        <ele>214</ele>
        <time>2011-07-15T14:36:08Z</time>
      </trkpt>
      <trkpt lat="45.3073" lon="1.41688">
        <ele>216</ele>
        <time>2011-07-15T14:36:09Z</time>
      </trkpt>
      <trkpt lat="45.30724" lon="1.41686">
        <ele>217</ele>
        <time>2011-07-15T14:36:10Z</time>
      </trkpt>
      <trkpt lat="45.30719" lon="1.41682">
        <ele>239</ele>
        <time>2011-07-15T14:36:11Z</time>
      </trkpt>
      <trkpt lat="45.30716" lon="1.41677">
        <ele>234</ele>
        <time>2011-07-15T14:36:12Z</time>
      </trkpt>
      <trkpt lat="45.30712" lon="1.41673">
        <ele>231</ele>
        <time>2011-07-15T14:36:13Z</time>
      </trkpt>
      <trkpt lat="45.30705" lon="1.41666">
        <ele>232</ele>
        <time>2011-07-15T14:36:15Z</time>
      </trkpt>
      <trkpt lat="45.307" lon="1.41662">
        <ele>221</ele>
        <time>2011-07-15T14:36:17Z</time>
      </trkpt>
      <trkpt lat="45.307" lon="1.41662">
        <ele>221</ele>
        <time>2011-07-15T14:36:17Z</time>
      </trkpt>
      <trkpt lat="45.307" lon="1.41662">
        <ele>221</ele>
        <time>2011-07-15T14:36:19Z</time>
      </trkpt>
      <trkpt lat="45.30695" lon="1.41658">
        <ele>219</ele>
        <time>2011-07-15T14:36:20Z</time>
      </trkpt>
      <trkpt lat="45.3069" lon="1.41655">
        <ele>216</ele>
        <time>2011-07-15T14:36:21Z</time>
      </trkpt>
      <trkpt lat="45.30686" lon="1.41652">
        <ele>216</ele>
        <time>2011-07-15T14:36:22Z</time>
      </trkpt>
      <trkpt lat="45.30678" lon="1.41645">
        <ele>213</ele>
        <time>2011-07-15T14:36:25Z</time>
      </trkpt>
      <trkpt lat="45.30674" lon="1.41641">
        <ele>213</ele>
        <time>2011-07-15T14:36:26Z</time>
      </trkpt>
      <trkpt lat="45.3067" lon="1.41637">
        <ele>213</ele>
        <time>2011-07-15T14:36:27Z</time>
      </trkpt>
      <trkpt lat="45.30664" lon="1.41631">
        <ele>211</ele>
        <time>2011-07-15T14:36:29Z</time>
      </trkpt>
      <trkpt lat="45.30653" lon="1.41614">
        <ele>210</ele>
        <time>2011-07-15T14:36:37Z</time>
      </trkpt>
      <trkpt lat="45.30653" lon="1.41614">
        <ele>210</ele>
        <time>2011-07-15T14:36:37Z</time>
      </trkpt>
      <trkpt lat="45.30653" lon="1.41614">
        <ele>210</ele>
        <time>2011-07-15T14:36:39Z</time>
      </trkpt>
      <trkpt lat="45.30646" lon="1.41602">
        <ele>210</ele>
        <time>2011-07-15T14:36:40Z</time>
      </trkpt>
      <trkpt lat="45.30646" lon="1.41602">
        <ele>210</ele>
        <time>2011-07-15T14:36:40Z</time>
      </trkpt>
      <trkpt lat="45.30646" lon="1.41602">
        <ele>210</ele>
        <time>2011-07-15T14:36:41Z</time>
      </trkpt>
      <trkpt lat="45.30642" lon="1.41596">
        <ele>208</ele>
        <time>2011-07-15T14:36:42Z</time>
      </trkpt>
      <trkpt lat="45.30642" lon="1.41596">
        <ele>208</ele>
        <time>2011-07-15T14:36:42Z</time>
      </trkpt>
      <trkpt lat="45.30642" lon="1.41596">
        <ele>208</ele>
        <time>2011-07-15T14:36:44Z</time>
      </trkpt>
      <trkpt lat="45.30637" lon="1.41592">
        <ele>202</ele>
        <time>2011-07-15T14:36:45Z</time>
      </trkpt>
      <trkpt lat="45.30629" lon="1.41587">
        <ele>195</ele>
        <time>2011-07-15T14:36:48Z</time>
      </trkpt>
      <trkpt lat="45.30623" lon="1.41585">
        <ele>196</ele>
        <time>2011-07-15T14:36:49Z</time>
      </trkpt>
      <trkpt lat="45.30618" lon="1.41583">
        <ele>194</ele>
        <time>2011-07-15T14:36:50Z</time>
      </trkpt>
      <trkpt lat="45.30612" lon="1.4158">
        <ele>198</ele>
        <time>2011-07-15T14:36:51Z</time>
      </trkpt>
      <trkpt lat="45.30608" lon="1.41578">
        <ele>201</ele>
        <time>2011-07-15T14:36:52Z</time>
      </trkpt>
      <trkpt lat="45.30604" lon="1.41574">
        <ele>203</ele>
        <time>2011-07-15T14:36:53Z</time>
      </trkpt>
      <trkpt lat="45.30597" lon="1.4157">
        <ele>204</ele>
        <time>2011-07-15T14:36:55Z</time>
      </trkpt>
      <trkpt lat="45.30588" lon="1.41564">
        <ele>203</ele>
        <time>2011-07-15T14:36:58Z</time>
      </trkpt>
      <trkpt lat="45.30582" lon="1.41563">
        <ele>204</ele>
        <time>2011-07-15T14:37:00Z</time>
      </trkpt>
      <trkpt lat="45.30576" lon="1.41564">
        <ele>201</ele>
        <time>2011-07-15T14:37:02Z</time>
      </trkpt>
      <trkpt lat="45.3057" lon="1.41566">
        <ele>199</ele>
        <time>2011-07-15T14:37:04Z</time>
      </trkpt>
      <trkpt lat="45.30563" lon="1.41568">
        <ele>200</ele>
        <time>2011-07-15T14:37:06Z</time>
      </trkpt>
      <trkpt lat="45.30556" lon="1.4157">
        <ele>197</ele>
        <time>2011-07-15T14:37:08Z</time>
      </trkpt>
      <trkpt lat="45.3055" lon="1.41571">
        <ele>196</ele>
        <time>2011-07-15T14:37:10Z</time>
      </trkpt>
      <trkpt lat="45.30543" lon="1.41573">
        <ele>196</ele>
        <time>2011-07-15T14:37:12Z</time>
      </trkpt>
      <trkpt lat="45.30534" lon="1.41572">
        <ele>198</ele>
        <time>2011-07-15T14:37:14Z</time>
      </trkpt>
      <trkpt lat="45.30526" lon="1.41571">
        <ele>199</ele>
        <time>2011-07-15T14:37:16Z</time>
      </trkpt>
      <trkpt lat="45.30518" lon="1.41571">
        <ele>200</ele>
        <time>2011-07-15T14:37:18Z</time>
      </trkpt>
      <trkpt lat="45.30509" lon="1.41571">
        <ele>199</ele>
        <time>2011-07-15T14:37:20Z</time>
      </trkpt>
      <trkpt lat="45.305" lon="1.41572">
        <ele>201</ele>
        <time>2011-07-15T14:37:22Z</time>
      </trkpt>
      <trkpt lat="45.30493" lon="1.41571">
        <ele>200</ele>
        <time>2011-07-15T14:37:24Z</time>
      </trkpt>
      <trkpt lat="45.30484" lon="1.41571">
        <ele>199</ele>
        <time>2011-07-15T14:37:28Z</time>
      </trkpt>
      <trkpt lat="45.30479" lon="1.4157">
        <ele>200</ele>
        <time>2011-07-15T14:37:29Z</time>
      </trkpt>
      <trkpt lat="45.30474" lon="1.41572">
        <ele>201</ele>
        <time>2011-07-15T14:37:30Z</time>
      </trkpt>
      <trkpt lat="45.30469" lon="1.41573">
        <ele>201</ele>
        <time>2011-07-15T14:37:31Z</time>
      </trkpt>
      <trkpt lat="45.30461" lon="1.41577">
        <ele>202</ele>
        <time>2011-07-15T14:37:33Z</time>
      </trkpt>
      <trkpt lat="45.30453" lon="1.41581">
        <ele>202</ele>
        <time>2011-07-15T14:37:35Z</time>
      </trkpt>
      <trkpt lat="45.30447" lon="1.41585">
        <ele>202</ele>
        <time>2011-07-15T14:37:37Z</time>
      </trkpt>
      <trkpt lat="45.30441" lon="1.41589">
        <ele>201</ele>
        <time>2011-07-15T14:37:39Z</time>
      </trkpt>
      <trkpt lat="45.30436" lon="1.41594">
        <ele>202</ele>
        <time>2011-07-15T14:37:41Z</time>
      </trkpt>
      <trkpt lat="45.3043" lon="1.41598">
        <ele>202</ele>
        <time>2011-07-15T14:37:43Z</time>
      </trkpt>
      <trkpt lat="45.30424" lon="1.41603">
        <ele>202</ele>
        <time>2011-07-15T14:37:45Z</time>
      </trkpt>
      <trkpt lat="45.30419" lon="1.41608">
        <ele>199</ele>
        <time>2011-07-15T14:37:47Z</time>
      </trkpt>
      <trkpt lat="45.30412" lon="1.41612">
        <ele>198</ele>
        <time>2011-07-15T14:37:49Z</time>
      </trkpt>
      <trkpt lat="45.30406" lon="1.41619">
        <ele>198</ele>
        <time>2011-07-15T14:37:51Z</time>
      </trkpt>
      <trkpt lat="45.30402" lon="1.41622">
        <ele>197</ele>
        <time>2011-07-15T14:37:52Z</time>
      </trkpt>
      <trkpt lat="45.30398" lon="1.41626">
        <ele>196</ele>
        <time>2011-07-15T14:37:53Z</time>
      </trkpt>
      <trkpt lat="45.30394" lon="1.4163">
        <ele>198</ele>
        <time>2011-07-15T14:37:54Z</time>
      </trkpt>
      <trkpt lat="45.30391" lon="1.41634">
        <ele>196</ele>
        <time>2011-07-15T14:37:55Z</time>
      </trkpt>
      <trkpt lat="45.30387" lon="1.41638">
        <ele>191</ele>
        <time>2011-07-15T14:37:56Z</time>
      </trkpt>
      <trkpt lat="45.30381" lon="1.41644">
        <ele>195</ele>
        <time>2011-07-15T14:37:58Z</time>
      </trkpt>
      <trkpt lat="45.30374" lon="1.4165">
        <ele>200</ele>
        <time>2011-07-15T14:38:00Z</time>
      </trkpt>
      <trkpt lat="45.3037" lon="1.41654">
        <ele>200</ele>
        <time>2011-07-15T14:38:01Z</time>
      </trkpt>
      <trkpt lat="45.30365" lon="1.41657">
        <ele>202</ele>
        <time>2011-07-15T14:38:02Z</time>
      </trkpt>
      <trkpt lat="45.30359" lon="1.41665">
        <ele>202</ele>
        <time>2011-07-15T14:38:04Z</time>
      </trkpt>
      <trkpt lat="45.30355" lon="1.41672">
        <ele>200</ele>
        <time>2011-07-15T14:38:06Z</time>
      </trkpt>
      <trkpt lat="45.30349" lon="1.41679">
        <ele>198</ele>
        <time>2011-07-15T14:38:08Z</time>
      </trkpt>
      <trkpt lat="45.30344" lon="1.41687">
        <ele>205</ele>
        <time>2011-07-15T14:38:10Z</time>
      </trkpt>
      <trkpt lat="45.3034" lon="1.41692">
        <ele>204</ele>
        <time>2011-07-15T14:38:12Z</time>
      </trkpt>
      <trkpt lat="45.3034" lon="1.41692">
        <ele>204</ele>
        <time>2011-07-15T14:38:12Z</time>
      </trkpt>
      <trkpt lat="45.3034" lon="1.41692">
        <ele>204</ele>
        <time>2011-07-15T14:38:15Z</time>
      </trkpt>
      <trkpt lat="45.30336" lon="1.41697">
        <ele>201</ele>
        <time>2011-07-15T14:38:16Z</time>
      </trkpt>
      <trkpt lat="45.3033" lon="1.41704">
        <ele>202</ele>
        <time>2011-07-15T14:38:18Z</time>
      </trkpt>
      <trkpt lat="45.3033" lon="1.41704">
        <ele>202</ele>
        <time>2011-07-15T14:38:18Z</time>
      </trkpt>
      <trkpt lat="45.3033" lon="1.41704">
        <ele>202</ele>
        <time>2011-07-15T14:38:19Z</time>
      </trkpt>
      <trkpt lat="45.30327" lon="1.41714">
        <ele>204</ele>
        <time>2011-07-15T14:38:21Z</time>
      </trkpt>
      <trkpt lat="45.30323" lon="1.41722">
        <ele>202</ele>
        <time>2011-07-15T14:38:23Z</time>
      </trkpt>
      <trkpt lat="45.30323" lon="1.41732">
        <ele>204</ele>
        <time>2011-07-15T14:38:25Z</time>
      </trkpt>
      <trkpt lat="45.30324" lon="1.41739">
        <ele>207</ele>
        <time>2011-07-15T14:38:27Z</time>
      </trkpt>
      <trkpt lat="45.30327" lon="1.41749">
        <ele>203</ele>
        <time>2011-07-15T14:38:31Z</time>
      </trkpt>
      <trkpt lat="45.30327" lon="1.41749">
        <ele>203</ele>
        <time>2011-07-15T14:38:31Z</time>
      </trkpt>
      <trkpt lat="45.30327" lon="1.41749">
        <ele>203</ele>
        <time>2011-07-15T14:38:32Z</time>
      </trkpt>
      <trkpt lat="45.3033" lon="1.41758">
        <ele>208</ele>
        <time>2011-07-15T14:38:35Z</time>
      </trkpt>
      <trkpt lat="45.30334" lon="1.41767">
        <ele>209</ele>
        <time>2011-07-15T14:38:38Z</time>
      </trkpt>
      <trkpt lat="45.30334" lon="1.41767">
        <ele>209</ele>
        <time>2011-07-15T14:38:38Z</time>
      </trkpt>
      <trkpt lat="45.30334" lon="1.41767">
        <ele>209</ele>
        <time>2011-07-15T14:38:39Z</time>
      </trkpt>
      <trkpt lat="45.30336" lon="1.41774">
        <ele>200</ele>
        <time>2011-07-15T14:38:41Z</time>
      </trkpt>
      <trkpt lat="45.30337" lon="1.41785">
        <ele>200</ele>
        <time>2011-07-15T14:38:46Z</time>
      </trkpt>
      <trkpt lat="45.30337" lon="1.41785">
        <ele>200</ele>
        <time>2011-07-15T14:38:46Z</time>
      </trkpt>
      <trkpt lat="45.30337" lon="1.41785">
        <ele>200</ele>
        <time>2011-07-15T14:38:48Z</time>
      </trkpt>
      <trkpt lat="45.30338" lon="1.41794">
        <ele>202</ele>
        <time>2011-07-15T14:38:49Z</time>
      </trkpt>
      <trkpt lat="45.30339" lon="1.41811">
        <ele>209</ele>
        <time>2011-07-15T14:38:56Z</time>
      </trkpt>
      <trkpt lat="45.30339" lon="1.41811">
        <ele>209</ele>
        <time>2011-07-15T14:38:56Z</time>
      </trkpt>
      <trkpt lat="45.30339" lon="1.41811">
        <ele>209</ele>
        <time>2011-07-15T14:38:58Z</time>
      </trkpt>
      <trkpt lat="45.30341" lon="1.4182">
        <ele>206</ele>
        <time>2011-07-15T14:38:59Z</time>
      </trkpt>
      <trkpt lat="45.30341" lon="1.4182">
        <ele>206</ele>
        <time>2011-07-15T14:38:59Z</time>
      </trkpt>
      <trkpt lat="45.30341" lon="1.4182">
        <ele>206</ele>
        <time>2011-07-15T14:39:06Z</time>
      </trkpt>
      <trkpt lat="45.30343" lon="1.41835">
        <ele>205</ele>
        <time>2011-07-15T14:39:07Z</time>
      </trkpt>
      <trkpt lat="45.30343" lon="1.41835">
        <ele>205</ele>
        <time>2011-07-15T14:39:07Z</time>
      </trkpt>
      <trkpt lat="45.30343" lon="1.41835">
        <ele>205</ele>
        <time>2011-07-15T14:39:16Z</time>
      </trkpt>
      <trkpt lat="45.30339" lon="1.41849">
        <ele>208</ele>
        <time>2011-07-15T14:39:17Z</time>
      </trkpt>
      <trkpt lat="45.30339" lon="1.41849">
        <ele>208</ele>
        <time>2011-07-15T14:39:17Z</time>
      </trkpt>
      <trkpt lat="45.30339" lon="1.41849">
        <ele>208</ele>
        <time>2011-07-15T14:39:32Z</time>
      </trkpt>
      <trkpt lat="45.30343" lon="1.41858">
        <ele>208</ele>
        <time>2011-07-15T14:39:33Z</time>
      </trkpt>
      <trkpt lat="45.30343" lon="1.41858">
        <ele>208</ele>
        <time>2011-07-15T14:39:33Z</time>
      </trkpt>
      <trkpt lat="45.30343" lon="1.41858">
        <ele>208</ele>
        <time>2011-07-15T14:39:35Z</time>
      </trkpt>
      <trkpt lat="45.30355" lon="1.41858">
        <ele>205</ele>
        <time>2011-07-15T14:39:43Z</time>
      </trkpt>
      <trkpt lat="45.30366" lon="1.41854">
        <ele>201</ele>
        <time>2011-07-15T14:40:04Z</time>
      </trkpt>
      <trkpt lat="45.30366" lon="1.41854">
        <ele>201</ele>
        <time>2011-07-15T14:40:04Z</time>
      </trkpt>
      <trkpt lat="45.30366" lon="1.41854">
        <ele>201</ele>
        <time>2011-07-15T14:40:09Z</time>
      </trkpt>
      <trkpt lat="45.30375" lon="1.41846">
        <ele>194</ele>
        <time>2011-07-15T14:40:10Z</time>
      </trkpt>
      <trkpt lat="45.30375" lon="1.41846">
        <ele>194</ele>
        <time>2011-07-15T14:40:10Z</time>
      </trkpt>
      <trkpt lat="45.30375" lon="1.41846">
        <ele>194</ele>
        <time>2011-07-15T14:40:18Z</time>
      </trkpt>
      <trkpt lat="45.30384" lon="1.4184">
        <ele>198</ele>
        <time>2011-07-15T14:40:19Z</time>
      </trkpt>
      <trkpt lat="45.30393" lon="1.41837">
        <ele>202</ele>
        <time>2011-07-15T14:40:24Z</time>
      </trkpt>
      <trkpt lat="45.30393" lon="1.41837">
        <ele>202</ele>
        <time>2011-07-15T14:40:24Z</time>
      </trkpt>
      <trkpt lat="45.30393" lon="1.41837">
        <ele>202</ele>
        <time>2011-07-15T14:40:29Z</time>
      </trkpt>
      <trkpt lat="45.30398" lon="1.41837">
        <ele>203</ele>
        <time>2011-07-15T14:40:30Z</time>
      </trkpt>
      <trkpt lat="45.30398" lon="1.41837">
        <ele>203</ele>
        <time>2011-07-15T14:40:30Z</time>
      </trkpt>
      <trkpt lat="45.30398" lon="1.41837">
        <ele>203</ele>
        <time>2011-07-15T14:40:32Z</time>
      </trkpt>
      <trkpt lat="45.30404" lon="1.41837">
        <ele>202</ele>
        <time>2011-07-15T14:40:33Z</time>
      </trkpt>
      <trkpt lat="45.3041" lon="1.41838">
        <ele>204</ele>
        <time>2011-07-15T14:40:37Z</time>
      </trkpt>
      <trkpt lat="45.30416" lon="1.4184">
        <ele>203</ele>
        <time>2011-07-15T14:40:41Z</time>
      </trkpt>
      <trkpt lat="45.30428" lon="1.41841">
        <ele>200</ele>
        <time>2011-07-15T14:40:49Z</time>
      </trkpt>
      <trkpt lat="45.30428" lon="1.41841">
        <ele>200</ele>
        <time>2011-07-15T14:40:49Z</time>
      </trkpt>
      <trkpt lat="45.30428" lon="1.41841">
        <ele>200</ele>
        <time>2011-07-15T14:40:59Z</time>
      </trkpt>
      <trkpt lat="45.30438" lon="1.41839">
        <ele>199</ele>
        <time>2011-07-15T14:41:00Z</time>
      </trkpt>
      <trkpt lat="45.30438" lon="1.41839">
        <ele>199</ele>
        <time>2011-07-15T14:41:00Z</time>
      </trkpt>
      <trkpt lat="45.30438" lon="1.41839">
        <ele>199</ele>
        <time>2011-07-15T14:41:03Z</time>
      </trkpt>
      <trkpt lat="45.30444" lon="1.41842">
        <ele>201</ele>
        <time>2011-07-15T14:41:07Z</time>
      </trkpt>
      <trkpt lat="45.30448" lon="1.41845">
        <ele>204</ele>
        <time>2011-07-15T14:41:11Z</time>
      </trkpt>
      <trkpt lat="45.30453" lon="1.41847">
        <ele>211</ele>
        <time>2011-07-15T14:41:16Z</time>
      </trkpt>
      <trkpt lat="45.30459" lon="1.41847">
        <ele>213</ele>
        <time>2011-07-15T14:41:21Z</time>
      </trkpt>
      <trkpt lat="45.30464" lon="1.41845">
        <ele>209</ele>
        <time>2011-07-15T14:41:25Z</time>
      </trkpt>
      <trkpt lat="45.30469" lon="1.41846">
        <ele>216</ele>
        <time>2011-07-15T14:41:29Z</time>
      </trkpt>
      <trkpt lat="45.30474" lon="1.41847">
        <ele>215</ele>
        <time>2011-07-15T14:41:35Z</time>
      </trkpt>
      <trkpt lat="45.30479" lon="1.41851">
        <ele>227</ele>
        <time>2011-07-15T14:41:39Z</time>
      </trkpt>
      <trkpt lat="45.30483" lon="1.41855">
        <ele>223</ele>
        <time>2011-07-15T14:41:44Z</time>
      </trkpt>
      <trkpt lat="45.30488" lon="1.41858">
        <ele>231</ele>
        <time>2011-07-15T14:41:48Z</time>
      </trkpt>
      <trkpt lat="45.30492" lon="1.41863">
        <ele>236</ele>
        <time>2011-07-15T14:41:53Z</time>
      </trkpt>
      <trkpt lat="45.30495" lon="1.41869">
        <ele>247</ele>
        <time>2011-07-15T14:41:57Z</time>
      </trkpt>
      <trkpt lat="45.30497" lon="1.41875">
        <ele>245</ele>
        <time>2011-07-15T14:42:01Z</time>
      </trkpt>
      <trkpt lat="45.30491" lon="1.41878">
        <ele>240</ele>
        <time>2011-07-15T14:42:08Z</time>
      </trkpt>
      <trkpt lat="45.30486" lon="1.41876">
        <ele>247</ele>
        <time>2011-07-15T14:42:10Z</time>
      </trkpt>
      <trkpt lat="45.3048" lon="1.41877">
        <ele>245</ele>
        <time>2011-07-15T14:42:15Z</time>
      </trkpt>
      <trkpt lat="45.30476" lon="1.4188">
        <ele>236</ele>
        <time>2011-07-15T14:42:18Z</time>
      </trkpt>
      <trkpt lat="45.30471" lon="1.41884">
        <ele>240</ele>
        <time>2011-07-15T14:42:22Z</time>
      </trkpt>
      <trkpt lat="45.30466" lon="1.41887">
        <ele>237</ele>
        <time>2011-07-15T14:42:26Z</time>
      </trkpt>
      <trkpt lat="45.30462" lon="1.41888">
        <ele>248</ele>
        <time>2011-07-15T14:42:30Z</time>
      </trkpt>
      <trkpt lat="45.30457" lon="1.41891">
        <ele>245</ele>
        <time>2011-07-15T14:42:34Z</time>
      </trkpt>
      <trkpt lat="45.30453" lon="1.41895">
        <ele>250</ele>
        <time>2011-07-15T14:42:38Z</time>
      </trkpt>
      <trkpt lat="45.3045" lon="1.41901">
        <ele>249</ele>
        <time>2011-07-15T14:42:41Z</time>
      </trkpt>
      <trkpt lat="45.30446" lon="1.41905">
        <ele>248</ele>
        <time>2011-07-15T14:42:45Z</time>
      </trkpt>
      <trkpt lat="45.30442" lon="1.41909">
        <ele>256</ele>
        <time>2011-07-15T14:42:48Z</time>
      </trkpt>
      <trkpt lat="45.30437" lon="1.41913">
        <ele>260</ele>
        <time>2011-07-15T14:42:51Z</time>
      </trkpt>
      <trkpt lat="45.30432" lon="1.41918">
        <ele>246</ele>
        <time>2011-07-15T14:42:54Z</time>
      </trkpt>
      <trkpt lat="45.30427" lon="1.41922">
        <ele>250</ele>
        <time>2011-07-15T14:42:57Z</time>
      </trkpt>
      <trkpt lat="45.30422" lon="1.41926">
        <ele>252</ele>
        <time>2011-07-15T14:43:00Z</time>
      </trkpt>
      <trkpt lat="45.30418" lon="1.41928">
        <ele>254</ele>
        <time>2011-07-15T14:43:04Z</time>
      </trkpt>
      <trkpt lat="45.30413" lon="1.41932">
        <ele>258</ele>
        <time>2011-07-15T14:43:07Z</time>
      </trkpt>
      <trkpt lat="45.30408" lon="1.41936">
        <ele>262</ele>
        <time>2011-07-15T14:43:10Z</time>
      </trkpt>
      <trkpt lat="45.30404" lon="1.4194">
        <ele>262</ele>
        <time>2011-07-15T14:43:13Z</time>
      </trkpt>
      <trkpt lat="45.30398" lon="1.41944">
        <ele>265</ele>
        <time>2011-07-15T14:43:16Z</time>
      </trkpt>
      <trkpt lat="45.30394" lon="1.41947">
        <ele>266</ele>
        <time>2011-07-15T14:43:19Z</time>
      </trkpt>
      <trkpt lat="45.3039" lon="1.41951">
        <ele>266</ele>
        <time>2011-07-15T14:43:22Z</time>
      </trkpt>
      <trkpt lat="45.30386" lon="1.41955">
        <ele>271</ele>
        <time>2011-07-15T14:43:25Z</time>
      </trkpt>
      <trkpt lat="45.30381" lon="1.41959">
        <ele>267</ele>
        <time>2011-07-15T14:43:28Z</time>
      </trkpt>
      <trkpt lat="45.30368" lon="1.41974">
        <ele>252</ele>
        <time>2011-07-15T14:43:38Z</time>
      </trkpt>
      <trkpt lat="45.30364" lon="1.4198">
        <ele>254</ele>
        <time>2011-07-15T14:43:41Z</time>
      </trkpt>
      <trkpt lat="45.3036" lon="1.41984">
        <ele>263</ele>
        <time>2011-07-15T14:43:44Z</time>
      </trkpt>
      <trkpt lat="45.30356" lon="1.41988">
        <ele>261</ele>
        <time>2011-07-15T14:43:47Z</time>
      </trkpt>
      <trkpt lat="45.30353" lon="1.41994">
        <ele>265</ele>
        <time>2011-07-15T14:43:51Z</time>
      </trkpt>
      <trkpt lat="45.3035" lon="1.42">
        <ele>269</ele>
        <time>2011-07-15T14:43:54Z</time>
      </trkpt>
      <trkpt lat="45.30348" lon="1.42009">
        <ele>267</ele>
        <time>2011-07-15T14:43:57Z</time>
      </trkpt>
      <trkpt lat="45.30352" lon="1.42014">
        <ele>265</ele>
        <time>2011-07-15T14:44:02Z</time>
      </trkpt>
      <trkpt lat="45.30357" lon="1.42014">
        <ele>262</ele>
        <time>2011-07-15T14:44:06Z</time>
      </trkpt>
      <trkpt lat="45.30363" lon="1.42014">
        <ele>266</ele>
        <time>2011-07-15T14:44:12Z</time>
      </trkpt>
      <trkpt lat="45.30368" lon="1.42012">
        <ele>270</ele>
        <time>2011-07-15T14:44:19Z</time>
      </trkpt>
      <trkpt lat="45.30372" lon="1.42009">
        <ele>270</ele>
        <time>2011-07-15T14:44:23Z</time>
      </trkpt>
      <trkpt lat="45.30377" lon="1.42009">
        <ele>263</ele>
        <time>2011-07-15T14:44:30Z</time>
      </trkpt>
      <trkpt lat="45.30382" lon="1.42009">
        <ele>267</ele>
        <time>2011-07-15T14:44:33Z</time>
      </trkpt>
      <trkpt lat="45.30387" lon="1.42007">
        <ele>263</ele>
        <time>2011-07-15T14:44:37Z</time>
      </trkpt>
      <trkpt lat="45.30393" lon="1.42006">
        <ele>270</ele>
        <time>2011-07-15T14:44:42Z</time>
      </trkpt>
      <trkpt lat="45.30398" lon="1.42006">
        <ele>263</ele>
        <time>2011-07-15T14:44:46Z</time>
      </trkpt>
      <trkpt lat="45.30403" lon="1.42009">
        <ele>266</ele>
        <time>2011-07-15T14:44:51Z</time>
      </trkpt>
      <trkpt lat="45.30408" lon="1.4201">
        <ele>271</ele>
        <time>2011-07-15T14:44:57Z</time>
      </trkpt>
      <trkpt lat="45.30412" lon="1.42007">
        <ele>272</ele>
        <time>2011-07-15T14:45:00Z</time>
      </trkpt>
      <trkpt lat="45.30417" lon="1.42007">
        <ele>277</ele>
        <time>2011-07-15T14:45:04Z</time>
      </trkpt>
      <trkpt lat="45.30422" lon="1.42007">
        <ele>274</ele>
        <time>2011-07-15T14:45:07Z</time>
      </trkpt>
      <trkpt lat="45.30426" lon="1.42006">
        <ele>280</ele>
        <time>2011-07-15T14:45:12Z</time>
      </trkpt>
      <trkpt lat="45.30432" lon="1.42004">
        <ele>278</ele>
        <time>2011-07-15T14:45:16Z</time>
      </trkpt>
      <trkpt lat="45.30437" lon="1.42005">
        <ele>259</ele>
        <time>2011-07-15T14:45:20Z</time>
      </trkpt>
      <trkpt lat="45.30442" lon="1.42006">
        <ele>266</ele>
        <time>2011-07-15T14:45:24Z</time>
      </trkpt>
      <trkpt lat="45.30447" lon="1.42007">
        <ele>252</ele>
        <time>2011-07-15T14:45:28Z</time>
      </trkpt>
      <trkpt lat="45.30452" lon="1.42011">
        <ele>257</ele>
        <time>2011-07-15T14:45:32Z</time>
      </trkpt>
      <trkpt lat="45.30457" lon="1.42013">
        <ele>263</ele>
        <time>2011-07-15T14:45:35Z</time>
      </trkpt>
      <trkpt lat="45.30461" lon="1.42013">
        <ele>265</ele>
        <time>2011-07-15T14:45:39Z</time>
      </trkpt>
      <trkpt lat="45.30466" lon="1.42014">
        <ele>268</ele>
        <time>2011-07-15T14:45:42Z</time>
      </trkpt>
      <trkpt lat="45.30472" lon="1.42012">
        <ele>269</ele>
        <time>2011-07-15T14:45:46Z</time>
      </trkpt>
      <trkpt lat="45.30477" lon="1.42013">
        <ele>274</ele>
        <time>2011-07-15T14:45:49Z</time>
      </trkpt>
      <trkpt lat="45.30481" lon="1.42012">
        <ele>276</ele>
        <time>2011-07-15T14:45:51Z</time>
      </trkpt>
      <trkpt lat="45.30486" lon="1.42012">
        <ele>278</ele>
        <time>2011-07-15T14:45:54Z</time>
      </trkpt>
      <trkpt lat="45.30491" lon="1.42012">
        <ele>276</ele>
        <time>2011-07-15T14:45:57Z</time>
      </trkpt>
      <trkpt lat="45.30496" lon="1.42013">
        <ele>278</ele>
        <time>2011-07-15T14:46:01Z</time>
      </trkpt>
      <trkpt lat="45.30501" lon="1.42013">
        <ele>282</ele>
        <time>2011-07-15T14:46:05Z</time>
      </trkpt>
      <trkpt lat="45.30506" lon="1.42013">
        <ele>286</ele>
        <time>2011-07-15T14:46:09Z</time>
      </trkpt>
      <trkpt lat="45.30511" lon="1.42013">
        <ele>282</ele>
        <time>2011-07-15T14:46:12Z</time>
      </trkpt>
      <trkpt lat="45.30516" lon="1.42013">
        <ele>285</ele>
        <time>2011-07-15T14:46:16Z</time>
      </trkpt>
      <trkpt lat="45.3052" lon="1.42016">
        <ele>280</ele>
        <time>2011-07-15T14:46:20Z</time>
      </trkpt>
      <trkpt lat="45.30521" lon="1.42023">
        <ele>277</ele>
        <time>2011-07-15T14:46:25Z</time>
      </trkpt>
      <trkpt lat="45.30516" lon="1.42022">
        <ele>288</ele>
        <time>2011-07-15T14:46:28Z</time>
      </trkpt>
      <trkpt lat="45.30511" lon="1.42025">
        <ele>288</ele>
        <time>2011-07-15T14:46:35Z</time>
      </trkpt>
      <trkpt lat="45.30507" lon="1.42029">
        <ele>293</ele>
        <time>2011-07-15T14:46:39Z</time>
      </trkpt>
      <trkpt lat="45.30503" lon="1.42033">
        <ele>296</ele>
        <time>2011-07-15T14:46:43Z</time>
      </trkpt>
      <trkpt lat="45.30499" lon="1.42036">
        <ele>295</ele>
        <time>2011-07-15T14:46:49Z</time>
      </trkpt>
      <trkpt lat="45.30494" lon="1.4204">
        <ele>302</ele>
        <time>2011-07-15T14:46:54Z</time>
      </trkpt>
      <trkpt lat="45.3049" lon="1.42044">
        <ele>306</ele>
        <time>2011-07-15T14:46:58Z</time>
      </trkpt>
      <trkpt lat="45.30484" lon="1.42047">
        <ele>308</ele>
        <time>2011-07-15T14:47:02Z</time>
      </trkpt>
      <trkpt lat="45.3048" lon="1.4205">
        <ele>307</ele>
        <time>2011-07-15T14:47:06Z</time>
      </trkpt>
      <trkpt lat="45.30475" lon="1.42051">
        <ele>307</ele>
        <time>2011-07-15T14:47:12Z</time>
      </trkpt>
      <trkpt lat="45.30471" lon="1.42055">
        <ele>313</ele>
        <time>2011-07-15T14:47:17Z</time>
      </trkpt>
      <trkpt lat="45.30467" lon="1.4206">
        <ele>311</ele>
        <time>2011-07-15T14:47:21Z</time>
      </trkpt>
      <trkpt lat="45.30463" lon="1.42064">
        <ele>319</ele>
        <time>2011-07-15T14:47:24Z</time>
      </trkpt>
      <trkpt lat="45.30462" lon="1.42071">
        <ele>314</ele>
        <time>2011-07-15T14:47:28Z</time>
      </trkpt>
      <trkpt lat="45.30462" lon="1.42078">
        <ele>316</ele>
        <time>2011-07-15T14:47:31Z</time>
      </trkpt>
      <trkpt lat="45.30461" lon="1.42084">
        <ele>315</ele>
        <time>2011-07-15T14:47:35Z</time>
      </trkpt>
      <trkpt lat="45.30459" lon="1.42092">
        <ele>310</ele>
        <time>2011-07-15T14:47:39Z</time>
      </trkpt>
      <trkpt lat="45.30458" lon="1.421">
        <ele>320</ele>
        <time>2011-07-15T14:47:43Z</time>
      </trkpt>
      <trkpt lat="45.30457" lon="1.42107">
        <ele>315</ele>
        <time>2011-07-15T14:47:46Z</time>
      </trkpt>
      <trkpt lat="45.30456" lon="1.42115">
        <ele>313</ele>
        <time>2011-07-15T14:47:50Z</time>
      </trkpt>
      <trkpt lat="45.30458" lon="1.4212">
        <ele>314</ele>
        <time>2011-07-15T14:47:54Z</time>
      </trkpt>
      <trkpt lat="45.30463" lon="1.42119">
        <ele>315</ele>
        <time>2011-07-15T14:48:00Z</time>
      </trkpt>
      <trkpt lat="45.30467" lon="1.42116">
        <ele>315</ele>
        <time>2011-07-15T14:48:09Z</time>
      </trkpt>
      <trkpt lat="45.30472" lon="1.42115">
        <ele>313</ele>
        <time>2011-07-15T14:48:17Z</time>
      </trkpt>
      <trkpt lat="45.30477" lon="1.42112">
        <ele>324</ele>
        <time>2011-07-15T14:48:24Z</time>
      </trkpt>
      <trkpt lat="45.30482" lon="1.4211">
        <ele>319</ele>
        <time>2011-07-15T14:48:31Z</time>
      </trkpt>
      <trkpt lat="45.30486" lon="1.42107">
        <ele>321</ele>
        <time>2011-07-15T14:48:34Z</time>
      </trkpt>
      <trkpt lat="45.3049" lon="1.42104">
        <ele>317</ele>
        <time>2011-07-15T14:48:37Z</time>
      </trkpt>
      <trkpt lat="45.30494" lon="1.42108">
        <ele>270</ele>
        <time>2011-07-15T14:49:05Z</time>
      </trkpt>
      <trkpt lat="45.30498" lon="1.42115">
        <ele>276</ele>
        <time>2011-07-15T14:49:07Z</time>
      </trkpt>
      <trkpt lat="45.305" lon="1.4212">
        <ele>284</ele>
        <time>2011-07-15T14:49:11Z</time>
      </trkpt>
      <trkpt lat="45.30506" lon="1.42119">
        <ele>289</ele>
        <time>2011-07-15T14:49:18Z</time>
      </trkpt>
      <trkpt lat="45.3051" lon="1.42116">
        <ele>290</ele>
        <time>2011-07-15T14:49:21Z</time>
      </trkpt>
      <trkpt lat="45.30513" lon="1.42111">
        <ele>263</ele>
        <time>2011-07-15T14:49:46Z</time>
      </trkpt>
      <trkpt lat="45.30517" lon="1.42108">
        <ele>255</ele>
        <time>2011-07-15T14:49:49Z</time>
      </trkpt>
      <trkpt lat="45.30518" lon="1.42115">
        <ele>260</ele>
        <time>2011-07-15T14:49:58Z</time>
      </trkpt>
      <trkpt lat="45.30523" lon="1.42113">
        <ele>267</ele>
        <time>2011-07-15T14:50:29Z</time>
      </trkpt>
      <trkpt lat="45.30528" lon="1.42113">
        <ele>276</ele>
        <time>2011-07-15T14:50:32Z</time>
      </trkpt>
      <trkpt lat="45.30533" lon="1.42114">
        <ele>284</ele>
        <time>2011-07-15T14:50:37Z</time>
      </trkpt>
      <trkpt lat="45.30537" lon="1.42118">
        <ele>287</ele>
        <time>2011-07-15T14:50:42Z</time>
      </trkpt>
      <trkpt lat="45.30543" lon="1.42115">
        <ele>297</ele>
        <time>2011-07-15T14:50:47Z</time>
      </trkpt>
      <trkpt lat="45.30548" lon="1.42112">
        <ele>297</ele>
        <time>2011-07-15T14:50:50Z</time>
      </trkpt>
      <trkpt lat="45.30553" lon="1.42109">
        <ele>305</ele>
        <time>2011-07-15T14:50:53Z</time>
      </trkpt>
      <trkpt lat="45.30559" lon="1.42108">
        <ele>304</ele>
        <time>2011-07-15T14:50:57Z</time>
      </trkpt>
      <trkpt lat="45.30564" lon="1.42107">
        <ele>306</ele>
        <time>2011-07-15T14:51:00Z</time>
      </trkpt>
      <trkpt lat="45.30569" lon="1.42105">
        <ele>306</ele>
        <time>2011-07-15T14:51:04Z</time>
      </trkpt>
      <trkpt lat="45.30574" lon="1.42102">
        <ele>295</ele>
        <time>2011-07-15T14:51:07Z</time>
      </trkpt>
      <trkpt lat="45.3058" lon="1.42104">
        <ele>296</ele>
        <time>2011-07-15T14:51:11Z</time>
      </trkpt>
      <trkpt lat="45.30585" lon="1.42107">
        <ele>297</ele>
        <time>2011-07-15T14:51:14Z</time>
      </trkpt>
      <trkpt lat="45.30589" lon="1.4211">
        <ele>306</ele>
        <time>2011-07-15T14:51:17Z</time>
      </trkpt>
      <trkpt lat="45.30589" lon="1.42117">
        <ele>315</ele>
        <time>2011-07-15T14:51:27Z</time>
      </trkpt>
      <trkpt lat="45.30588" lon="1.42125">
        <ele>305</ele>
        <time>2011-07-15T14:51:31Z</time>
      </trkpt>
      <trkpt lat="45.30588" lon="1.42131">
        <ele>312</ele>
        <time>2011-07-15T14:51:34Z</time>
      </trkpt>
      <trkpt lat="45.30583" lon="1.42133">
        <ele>285</ele>
        <time>2011-07-15T14:51:50Z</time>
      </trkpt>
      <trkpt lat="45.30585" lon="1.42126">
        <ele>308</ele>
        <time>2011-07-15T14:52:04Z</time>
      </trkpt>
      <trkpt lat="45.30589" lon="1.4212">
        <ele>310</ele>
        <time>2011-07-15T14:52:11Z</time>
      </trkpt>
      <trkpt lat="45.30593" lon="1.42113">
        <ele>312</ele>
        <time>2011-07-15T14:52:13Z</time>
      </trkpt>
      <trkpt lat="45.30599" lon="1.42102">
        <ele>310</ele>
        <time>2011-07-15T14:52:15Z</time>
      </trkpt>
      <trkpt lat="45.30602" lon="1.42096">
        <ele>314</ele>
        <time>2011-07-15T14:52:16Z</time>
      </trkpt>
      <trkpt lat="45.30608" lon="1.42088">
        <ele>315</ele>
        <time>2011-07-15T14:52:17Z</time>
      </trkpt>
      <trkpt lat="45.30614" lon="1.42082">
        <ele>319</ele>
        <time>2011-07-15T14:52:18Z</time>
      </trkpt>
      <trkpt lat="45.30622" lon="1.42076">
        <ele>318</ele>
        <time>2011-07-15T14:52:19Z</time>
      </trkpt>
      <trkpt lat="45.30629" lon="1.42072">
        <ele>319</ele>
        <time>2011-07-15T14:52:20Z</time>
      </trkpt>
      <trkpt lat="45.30637" lon="1.42067">
        <ele>318</ele>
        <time>2011-07-15T14:52:21Z</time>
      </trkpt>
      <trkpt lat="45.30644" lon="1.42063">
        <ele>322</ele>
        <time>2011-07-15T14:52:22Z</time>
      </trkpt>
      <trkpt lat="45.30652" lon="1.42058">
        <ele>320</ele>
        <time>2011-07-15T14:52:23Z</time>
      </trkpt>
      <trkpt lat="45.30661" lon="1.42053">
        <ele>319</ele>
        <time>2011-07-15T14:52:24Z</time>
      </trkpt>
      <trkpt lat="45.30669" lon="1.42048">
        <ele>320</ele>
        <time>2011-07-15T14:52:25Z</time>
      </trkpt>
      <trkpt lat="45.30678" lon="1.42043">
        <ele>321</ele>
        <time>2011-07-15T14:52:26Z</time>
      </trkpt>
      <trkpt lat="45.30686" lon="1.42039">
        <ele>321</ele>
        <time>2011-07-15T14:52:27Z</time>
      </trkpt>
      <trkpt lat="45.30695" lon="1.42035">
        <ele>324</ele>
        <time>2011-07-15T14:52:28Z</time>
      </trkpt>
      <trkpt lat="45.30703" lon="1.42034">
        <ele>326</ele>
        <time>2011-07-15T14:52:29Z</time>
      </trkpt>
      <trkpt lat="45.30711" lon="1.42032">
        <ele>330</ele>
        <time>2011-07-15T14:52:30Z</time>
      </trkpt>
      <trkpt lat="45.3072" lon="1.4203">
        <ele>329</ele>
        <time>2011-07-15T14:52:31Z</time>
      </trkpt>
      <trkpt lat="45.30729" lon="1.42027">
        <ele>329</ele>
        <time>2011-07-15T14:52:32Z</time>
      </trkpt>
      <trkpt lat="45.30736" lon="1.42026">
        <ele>329</ele>
        <time>2011-07-15T14:52:33Z</time>
      </trkpt>
      <trkpt lat="45.30742" lon="1.42027">
        <ele>330</ele>
        <time>2011-07-15T14:52:34Z</time>
      </trkpt>
      <trkpt lat="45.30748" lon="1.42029">
        <ele>334</ele>
        <time>2011-07-15T14:52:35Z</time>
      </trkpt>
      <trkpt lat="45.30753" lon="1.42031">
        <ele>334</ele>
        <time>2011-07-15T14:52:37Z</time>
      </trkpt>
      <trkpt lat="45.30767" lon="1.42034">
        <ele>332</ele>
        <time>2011-07-15T14:52:42Z</time>
      </trkpt>
      <trkpt lat="45.30767" lon="1.42034">
        <ele>332</ele>
        <time>2011-07-15T14:52:42Z</time>
      </trkpt>
      <trkpt lat="45.30767" lon="1.42034">
        <ele>332</ele>
        <time>2011-07-15T14:52:47Z</time>
      </trkpt>
      <trkpt lat="45.30777" lon="1.42035">
        <ele>334</ele>
        <time>2011-07-15T14:52:48Z</time>
      </trkpt>
      <trkpt lat="45.30777" lon="1.42035">
        <ele>334</ele>
        <time>2011-07-15T14:52:48Z</time>
      </trkpt>
      <trkpt lat="45.30777" lon="1.42035">
        <ele>334</ele>
        <time>2011-07-15T14:52:49Z</time>
      </trkpt>
      <trkpt lat="45.30782" lon="1.42036">
        <ele>333</ele>
        <time>2011-07-15T14:52:50Z</time>
      </trkpt>
      <trkpt lat="45.30782" lon="1.42036">
        <ele>333</ele>
        <time>2011-07-15T14:52:50Z</time>
      </trkpt>
      <trkpt lat="45.30782" lon="1.42036">
        <ele>333</ele>
        <time>2011-07-15T14:52:52Z</time>
      </trkpt>
      <trkpt lat="45.30789" lon="1.42037">
        <ele>335</ele>
        <time>2011-07-15T14:52:53Z</time>
      </trkpt>
      <trkpt lat="45.30789" lon="1.42037">
        <ele>335</ele>
        <time>2011-07-15T14:52:53Z</time>
      </trkpt>
      <trkpt lat="45.30789" lon="1.42037">
        <ele>335</ele>
        <time>2011-07-15T14:52:56Z</time>
      </trkpt>
      <trkpt lat="45.30796" lon="1.42038">
        <ele>337</ele>
        <time>2011-07-15T14:52:57Z</time>
      </trkpt>
      <trkpt lat="45.30796" lon="1.42038">
        <ele>337</ele>
        <time>2011-07-15T14:52:57Z</time>
      </trkpt>
      <trkpt lat="45.30796" lon="1.42038">
        <ele>337</ele>
        <time>2011-07-15T14:52:59Z</time>
      </trkpt>
      <trkpt lat="45.30809" lon="1.42046">
        <ele>336</ele>
        <time>2011-07-15T14:53:08Z</time>
      </trkpt>
      <trkpt lat="45.30809" lon="1.42046">
        <ele>336</ele>
        <time>2011-07-15T14:53:08Z</time>
      </trkpt>
      <trkpt lat="45.30809" lon="1.42046">
        <ele>336</ele>
        <time>2011-07-15T14:53:09Z</time>
      </trkpt>
      <trkpt lat="45.30817" lon="1.42051">
        <ele>328</ele>
        <time>2011-07-15T14:53:12Z</time>
      </trkpt>
      <trkpt lat="45.30822" lon="1.42053">
        <ele>329</ele>
        <time>2011-07-15T14:53:15Z</time>
      </trkpt>
      <trkpt lat="45.30827" lon="1.42054">
        <ele>329</ele>
        <time>2011-07-15T14:53:18Z</time>
      </trkpt>
      <trkpt lat="45.30832" lon="1.42055">
        <ele>328</ele>
        <time>2011-07-15T14:53:22Z</time>
      </trkpt>
      <trkpt lat="45.30832" lon="1.42055">
        <ele>328</ele>
        <time>2011-07-15T14:53:22Z</time>
      </trkpt>
      <trkpt lat="45.30832" lon="1.42055">
        <ele>328</ele>
        <time>2011-07-15T14:53:29Z</time>
      </trkpt>
      <trkpt lat="45.30842" lon="1.42062">
        <ele>323</ele>
        <time>2011-07-15T14:53:30Z</time>
      </trkpt>
      <trkpt lat="45.3085" lon="1.42068">
        <ele>324</ele>
        <time>2011-07-15T14:53:35Z</time>
      </trkpt>
      <trkpt lat="45.3085" lon="1.42068">
        <ele>324</ele>
        <time>2011-07-15T14:53:35Z</time>
      </trkpt>
      <trkpt lat="45.3085" lon="1.42068">
        <ele>324</ele>
        <time>2011-07-15T14:53:36Z</time>
      </trkpt>
      <trkpt lat="45.30863" lon="1.4207">
        <ele>324</ele>
        <time>2011-07-15T14:53:43Z</time>
      </trkpt>
      <trkpt lat="45.30863" lon="1.4207">
        <ele>324</ele>
        <time>2011-07-15T14:53:43Z</time>
      </trkpt>
      <trkpt lat="45.30863" lon="1.4207">
        <ele>324</ele>
        <time>2011-07-15T14:54:10Z</time>
      </trkpt>
      <trkpt lat="45.30869" lon="1.42076">
        <ele>313</ele>
        <time>2011-07-15T14:54:11Z</time>
      </trkpt>
      <trkpt lat="45.30869" lon="1.42076">
        <ele>313</ele>
        <time>2011-07-15T14:54:11Z</time>
      </trkpt>
      <trkpt lat="45.30869" lon="1.42076">
        <ele>313</ele>
        <time>2011-07-15T14:54:12Z</time>
      </trkpt>
      <trkpt lat="45.30876" lon="1.42082">
        <ele>322</ele>
        <time>2011-07-15T14:54:16Z</time>
      </trkpt>
      <trkpt lat="45.30876" lon="1.42082">
        <ele>322</ele>
        <time>2011-07-15T14:54:16Z</time>
      </trkpt>
      <trkpt lat="45.30876" lon="1.42082">
        <ele>322</ele>
        <time>2011-07-15T14:54:17Z</time>
      </trkpt>
      <trkpt lat="45.30881" lon="1.42084">
        <ele>330</ele>
        <time>2011-07-15T14:54:20Z</time>
      </trkpt>
      <trkpt lat="45.30881" lon="1.42084">
        <ele>330</ele>
        <time>2011-07-15T14:54:20Z</time>
      </trkpt>
      <trkpt lat="45.30881" lon="1.42084">
        <ele>330</ele>
        <time>2011-07-15T14:54:24Z</time>
      </trkpt>
      <trkpt lat="45.30886" lon="1.42087">
        <ele>328</ele>
        <time>2011-07-15T14:54:25Z</time>
      </trkpt>
      <trkpt lat="45.30886" lon="1.42087">
        <ele>328</ele>
        <time>2011-07-15T14:54:25Z</time>
      </trkpt>
      <trkpt lat="45.30886" lon="1.42087">
        <ele>328</ele>
        <time>2011-07-15T14:54:26Z</time>
      </trkpt>
      <trkpt lat="45.30891" lon="1.42088">
        <ele>328</ele>
        <time>2011-07-15T14:54:28Z</time>
      </trkpt>
      <trkpt lat="45.30896" lon="1.42088">
        <ele>333</ele>
        <time>2011-07-15T14:54:30Z</time>
      </trkpt>
      <trkpt lat="45.30905" lon="1.42089">
        <ele>333</ele>
        <time>2011-07-15T14:54:37Z</time>
      </trkpt>
      <trkpt lat="45.30905" lon="1.42089">
        <ele>333</ele>
        <time>2011-07-15T14:54:37Z</time>
      </trkpt>
      <trkpt lat="45.30905" lon="1.42089">
        <ele>333</ele>
        <time>2011-07-15T14:54:44Z</time>
      </trkpt>
      <trkpt lat="45.30915" lon="1.42091">
        <ele>329</ele>
        <time>2011-07-15T14:54:45Z</time>
      </trkpt>
      <trkpt lat="45.30915" lon="1.42091">
        <ele>329</ele>
        <time>2011-07-15T14:54:45Z</time>
      </trkpt>
      <trkpt lat="45.30915" lon="1.42091">
        <ele>329</ele>
        <time>2011-07-15T14:54:55Z</time>
      </trkpt>
      <trkpt lat="45.30924" lon="1.4209">
        <ele>325</ele>
        <time>2011-07-15T14:54:56Z</time>
      </trkpt>
      <trkpt lat="45.30924" lon="1.4209">
        <ele>325</ele>
        <time>2011-07-15T14:54:56Z</time>
      </trkpt>
      <trkpt lat="45.30924" lon="1.4209">
        <ele>325</ele>
        <time>2011-07-15T14:54:58Z</time>
      </trkpt>
      <trkpt lat="45.30934" lon="1.42086">
        <ele>334</ele>
        <time>2011-07-15T14:54:59Z</time>
      </trkpt>
      <trkpt lat="45.30934" lon="1.42086">
        <ele>334</ele>
        <time>2011-07-15T14:54:59Z</time>
      </trkpt>
      <trkpt lat="45.30934" lon="1.42086">
        <ele>334</ele>
        <time>2011-07-15T14:55:07Z</time>
      </trkpt>
      <trkpt lat="45.30944" lon="1.42084">
        <ele>325</ele>
        <time>2011-07-15T14:55:08Z</time>
      </trkpt>
      <trkpt lat="45.30944" lon="1.42084">
        <ele>325</ele>
        <time>2011-07-15T14:55:08Z</time>
      </trkpt>
      <trkpt lat="45.30944" lon="1.42084">
        <ele>325</ele>
        <time>2011-07-15T14:55:11Z</time>
      </trkpt>
      <trkpt lat="45.30952" lon="1.4208">
        <ele>327</ele>
        <time>2011-07-15T14:55:14Z</time>
      </trkpt>
      <trkpt lat="45.30952" lon="1.4208">
        <ele>327</ele>
        <time>2011-07-15T14:55:14Z</time>
      </trkpt>
      <trkpt lat="45.30952" lon="1.4208">
        <ele>327</ele>
        <time>2011-07-15T14:55:15Z</time>
      </trkpt>
      <trkpt lat="45.30956" lon="1.42078">
        <ele>325</ele>
        <time>2011-07-15T14:55:16Z</time>
      </trkpt>
      <trkpt lat="45.30956" lon="1.42078">
        <ele>325</ele>
        <time>2011-07-15T14:55:16Z</time>
      </trkpt>
      <trkpt lat="45.30956" lon="1.42078">
        <ele>325</ele>
        <time>2011-07-15T14:55:17Z</time>
      </trkpt>
      <trkpt lat="45.30963" lon="1.42074">
        <ele>325</ele>
        <time>2011-07-15T14:55:18Z</time>
      </trkpt>
      <trkpt lat="45.30967" lon="1.42072">
        <ele>328</ele>
        <time>2011-07-15T14:55:19Z</time>
      </trkpt>
      <trkpt lat="45.30975" lon="1.42068">
        <ele>323</ele>
        <time>2011-07-15T14:55:21Z</time>
      </trkpt>
      <trkpt lat="45.30983" lon="1.42065">
        <ele>328</ele>
        <time>2011-07-15T14:55:23Z</time>
      </trkpt>
      <trkpt lat="45.30987" lon="1.42063">
        <ele>329</ele>
        <time>2011-07-15T14:55:24Z</time>
      </trkpt>
      <trkpt lat="45.30995" lon="1.42059">
        <ele>332</ele>
        <time>2011-07-15T14:55:26Z</time>
      </trkpt>
      <trkpt lat="45.31" lon="1.42057">
        <ele>334</ele>
        <time>2011-07-15T14:55:27Z</time>
      </trkpt>
      <trkpt lat="45.3101" lon="1.4205">
        <ele>332</ele>
        <time>2011-07-15T14:55:29Z</time>
      </trkpt>
      <trkpt lat="45.31016" lon="1.42047">
        <ele>336</ele>
        <time>2011-07-15T14:55:30Z</time>
      </trkpt>
      <trkpt lat="45.31022" lon="1.42045">
        <ele>330</ele>
        <time>2011-07-15T14:55:31Z</time>
      </trkpt>
      <trkpt lat="45.3103" lon="1.42045">
        <ele>331</ele>
        <time>2011-07-15T14:55:33Z</time>
      </trkpt>
      <trkpt lat="45.31036" lon="1.42045">
        <ele>333</ele>
        <time>2011-07-15T14:55:34Z</time>
      </trkpt>
      <trkpt lat="45.31044" lon="1.42044">
        <ele>331</ele>
        <time>2011-07-15T14:55:35Z</time>
      </trkpt>
      <trkpt lat="45.31051" lon="1.42043">
        <ele>332</ele>
        <time>2011-07-15T14:55:36Z</time>
      </trkpt>
      <trkpt lat="45.31056" lon="1.42042">
        <ele>334</ele>
        <time>2011-07-15T14:55:37Z</time>
      </trkpt>
      <trkpt lat="45.31063" lon="1.42042">
        <ele>336</ele>
        <time>2011-07-15T14:55:38Z</time>
      </trkpt>
      <trkpt lat="45.31072" lon="1.42039">
        <ele>332</ele>
        <time>2011-07-15T14:55:39Z</time>
      </trkpt>
      <trkpt lat="45.31081" lon="1.42037">
        <ele>336</ele>
        <time>2011-07-15T14:55:40Z</time>
      </trkpt>
      <trkpt lat="45.3109" lon="1.42036">
        <ele>337</ele>
        <time>2011-07-15T14:55:41Z</time>
      </trkpt>
      <trkpt lat="45.31099" lon="1.42034">
        <ele>337</ele>
        <time>2011-07-15T14:55:42Z</time>
      </trkpt>
      <trkpt lat="45.31106" lon="1.42034">
        <ele>333</ele>
        <time>2011-07-15T14:55:43Z</time>
      </trkpt>
      <trkpt lat="45.31113" lon="1.42035">
        <ele>339</ele>
        <time>2011-07-15T14:55:44Z</time>
      </trkpt>
      <trkpt lat="45.3112" lon="1.42035">
        <ele>336</ele>
        <time>2011-07-15T14:55:45Z</time>
      </trkpt>
      <trkpt lat="45.31128" lon="1.42036">
        <ele>332</ele>
        <time>2011-07-15T14:55:46Z</time>
      </trkpt>
      <trkpt lat="45.31136" lon="1.42035">
        <ele>335</ele>
        <time>2011-07-15T14:55:47Z</time>
      </trkpt>
      <trkpt lat="45.31144" lon="1.42034">
        <ele>336</ele>
        <time>2011-07-15T14:55:48Z</time>
      </trkpt>
      <trkpt lat="45.31151" lon="1.42032">
        <ele>336</ele>
        <time>2011-07-15T14:55:49Z</time>
      </trkpt>
      <trkpt lat="45.31158" lon="1.4203">
        <ele>331</ele>
        <time>2011-07-15T14:55:50Z</time>
      </trkpt>
      <trkpt lat="45.31166" lon="1.42029">
        <ele>331</ele>
        <time>2011-07-15T14:55:51Z</time>
      </trkpt>
      <trkpt lat="45.31174" lon="1.42028">
        <ele>332</ele>
        <time>2011-07-15T14:55:52Z</time>
      </trkpt>
      <trkpt lat="45.31182" lon="1.42026">
        <ele>332</ele>
        <time>2011-07-15T14:55:53Z</time>
      </trkpt>
      <trkpt lat="45.31191" lon="1.42025">
        <ele>329</ele>
        <time>2011-07-15T14:55:54Z</time>
      </trkpt>
      <trkpt lat="45.312" lon="1.42025">
        <ele>334</ele>
        <time>2011-07-15T14:55:55Z</time>
      </trkpt>
      <trkpt lat="45.31208" lon="1.42026">
        <ele>335</ele>
        <time>2011-07-15T14:55:56Z</time>
      </trkpt>
      <trkpt lat="45.31215" lon="1.42028">
        <ele>336</ele>
        <time>2011-07-15T14:55:57Z</time>
      </trkpt>
      <trkpt lat="45.31223" lon="1.42028">
        <ele>331</ele>
        <time>2011-07-15T14:55:58Z</time>
      </trkpt>
      <trkpt lat="45.31231" lon="1.4203">
        <ele>331</ele>
        <time>2011-07-15T14:55:59Z</time>
      </trkpt>
      <trkpt lat="45.31236" lon="1.42033">
        <ele>332</ele>
        <time>2011-07-15T14:56:00Z</time>
      </trkpt>
      <trkpt lat="45.31245" lon="1.42046">
        <ele>334</ele>
        <time>2011-07-15T14:56:16Z</time>
      </trkpt>
      <trkpt lat="45.31245" lon="1.42046">
        <ele>334</ele>
        <time>2011-07-15T14:56:16Z</time>
      </trkpt>
      <trkpt lat="45.31245" lon="1.42046">
        <ele>334</ele>
        <time>2011-07-15T14:56:28Z</time>
      </trkpt>
      <trkpt lat="45.31246" lon="1.42061">
        <ele>331</ele>
        <time>2011-07-15T14:56:29Z</time>
      </trkpt>
      <trkpt lat="45.31246" lon="1.42061">
        <ele>331</ele>
        <time>2011-07-15T14:56:29Z</time>
      </trkpt>
      <trkpt lat="45.31246" lon="1.42061">
        <ele>331</ele>
        <time>2011-07-15T14:57:09Z</time>
      </trkpt>
      <trkpt lat="45.31246" lon="1.42076">
        <ele>339</ele>
        <time>2011-07-15T14:57:10Z</time>
      </trkpt>
      <trkpt lat="45.31246" lon="1.42076">
        <ele>339</ele>
        <time>2011-07-15T14:57:10Z</time>
      </trkpt>
      <trkpt lat="45.31246" lon="1.42076">
        <ele>339</ele>
        <time>2011-07-15T14:57:14Z</time>
      </trkpt>
      <trkpt lat="45.31247" lon="1.42092">
        <ele>336</ele>
        <time>2011-07-15T14:57:15Z</time>
      </trkpt>
      <trkpt lat="45.31247" lon="1.42092">
        <ele>336</ele>
        <time>2011-07-15T14:57:15Z</time>
      </trkpt>
      <trkpt lat="45.31247" lon="1.42092">
        <ele>336</ele>
        <time>2011-07-15T14:57:21Z</time>
      </trkpt>
      <trkpt lat="45.31249" lon="1.42108">
        <ele>341</ele>
        <time>2011-07-15T14:57:22Z</time>
      </trkpt>
      <trkpt lat="45.31249" lon="1.42108">
        <ele>341</ele>
        <time>2011-07-15T14:57:22Z</time>
      </trkpt>
      <trkpt lat="45.31249" lon="1.42108">
        <ele>341</ele>
        <time>2011-07-15T14:57:34Z</time>
      </trkpt>
      <trkpt lat="45.31249" lon="1.42123">
        <ele>346</ele>
        <time>2011-07-15T14:57:35Z</time>
      </trkpt>
      <trkpt lat="45.31249" lon="1.42123">
        <ele>346</ele>
        <time>2011-07-15T14:57:35Z</time>
      </trkpt>
      <trkpt lat="45.31249" lon="1.42123">
        <ele>346</ele>
        <time>2011-07-15T14:57:39Z</time>
      </trkpt>
      <trkpt lat="45.31249" lon="1.42138">
        <ele>356</ele>
        <time>2011-07-15T14:57:40Z</time>
      </trkpt>
      <trkpt lat="45.31249" lon="1.42138">
        <ele>356</ele>
        <time>2011-07-15T14:57:40Z</time>
      </trkpt>
      <trkpt lat="45.31249" lon="1.42138">
        <ele>356</ele>
        <time>2011-07-15T14:57:51Z</time>
      </trkpt>
      <trkpt lat="45.31248" lon="1.42153">
        <ele>351</ele>
        <time>2011-07-15T14:57:52Z</time>
      </trkpt>
      <trkpt lat="45.31248" lon="1.42153">
        <ele>351</ele>
        <time>2011-07-15T14:57:52Z</time>
      </trkpt>
      <trkpt lat="45.31248" lon="1.42153">
        <ele>351</ele>
        <time>2011-07-15T14:58:00Z</time>
      </trkpt>
      <trkpt lat="45.31246" lon="1.42167">
        <ele>344</ele>
        <time>2011-07-15T14:58:01Z</time>
      </trkpt>
      <trkpt lat="45.31246" lon="1.42167">
        <ele>344</ele>
        <time>2011-07-15T14:58:01Z</time>
      </trkpt>
      <trkpt lat="45.31246" lon="1.42167">
        <ele>344</ele>
        <time>2011-07-15T14:58:11Z</time>
      </trkpt>
      <trkpt lat="45.31244" lon="1.4218">
        <ele>356</ele>
        <time>2011-07-15T14:58:12Z</time>
      </trkpt>
      <trkpt lat="45.31244" lon="1.4218">
        <ele>356</ele>
        <time>2011-07-15T14:58:12Z</time>
      </trkpt>
      <trkpt lat="45.31244" lon="1.4218">
        <ele>356</ele>
        <time>2011-07-15T14:58:21Z</time>
      </trkpt>
      <trkpt lat="45.31238" lon="1.42198">
        <ele>359</ele>
        <time>2011-07-15T14:58:22Z</time>
      </trkpt>
      <trkpt lat="45.31238" lon="1.42198">
        <ele>359</ele>
        <time>2011-07-15T14:58:22Z</time>
      </trkpt>
      <trkpt lat="45.31238" lon="1.42198">
        <ele>359</ele>
        <time>2011-07-15T14:58:29Z</time>
      </trkpt>
      <trkpt lat="45.31232" lon="1.42208">
        <ele>358</ele>
        <time>2011-07-15T14:58:30Z</time>
      </trkpt>
      <trkpt lat="45.31232" lon="1.42208">
        <ele>358</ele>
        <time>2011-07-15T14:58:30Z</time>
      </trkpt>
      <trkpt lat="45.31232" lon="1.42208">
        <ele>358</ele>
        <time>2011-07-15T14:58:32Z</time>
      </trkpt>
      <trkpt lat="45.31229" lon="1.42221">
        <ele>359</ele>
        <time>2011-07-15T14:58:33Z</time>
      </trkpt>
      <trkpt lat="45.31229" lon="1.42221">
        <ele>359</ele>
        <time>2011-07-15T14:58:33Z</time>
      </trkpt>
      <trkpt lat="45.31229" lon="1.42221">
        <ele>359</ele>
        <time>2011-07-15T14:58:37Z</time>
      </trkpt>
      <trkpt lat="45.31229" lon="1.42235">
        <ele>362</ele>
        <time>2011-07-15T14:58:38Z</time>
      </trkpt>
      <trkpt lat="45.31229" lon="1.42235">
        <ele>362</ele>
        <time>2011-07-15T14:58:38Z</time>
      </trkpt>
      <trkpt lat="45.31229" lon="1.42235">
        <ele>362</ele>
        <time>2011-07-15T14:58:59Z</time>
      </trkpt>
      <trkpt lat="45.31228" lon="1.4226">
        <ele>360</ele>
        <time>2011-07-15T14:59:00Z</time>
      </trkpt>
      <trkpt lat="45.31228" lon="1.4226">
        <ele>360</ele>
        <time>2011-07-15T14:59:00Z</time>
      </trkpt>
      <trkpt lat="45.31228" lon="1.4226">
        <ele>360</ele>
        <time>2011-07-15T14:59:01Z</time>
      </trkpt>
      <trkpt lat="45.31225" lon="1.42274">
        <ele>361</ele>
        <time>2011-07-15T14:59:02Z</time>
      </trkpt>
      <trkpt lat="45.31225" lon="1.42274">
        <ele>361</ele>
        <time>2011-07-15T14:59:02Z</time>
      </trkpt>
      <trkpt lat="45.31225" lon="1.42274">
        <ele>361</ele>
        <time>2011-07-15T14:59:09Z</time>
      </trkpt>
      <trkpt lat="45.31217" lon="1.42287">
        <ele>363</ele>
        <time>2011-07-15T14:59:10Z</time>
      </trkpt>
      <trkpt lat="45.31217" lon="1.42287">
        <ele>363</ele>
        <time>2011-07-15T14:59:10Z</time>
      </trkpt>
      <trkpt lat="45.31217" lon="1.42287">
        <ele>363</ele>
        <time>2011-07-15T14:59:14Z</time>
      </trkpt>
      <trkpt lat="45.31211" lon="1.423">
        <ele>360</ele>
        <time>2011-07-15T14:59:15Z</time>
      </trkpt>
      <trkpt lat="45.31211" lon="1.423">
        <ele>360</ele>
        <time>2011-07-15T14:59:15Z</time>
      </trkpt>
      <trkpt lat="45.31211" lon="1.423">
        <ele>360</ele>
        <time>2011-07-15T14:59:53Z</time>
      </trkpt>
      <trkpt lat="45.31202" lon="1.42312">
        <ele>360</ele>
        <time>2011-07-15T14:59:54Z</time>
      </trkpt>
      <trkpt lat="45.31202" lon="1.42312">
        <ele>360</ele>
        <time>2011-07-15T14:59:54Z</time>
      </trkpt>
      <trkpt lat="45.31202" lon="1.42312">
        <ele>360</ele>
        <time>2011-07-15T14:59:55Z</time>
      </trkpt>
      <trkpt lat="45.31193" lon="1.42319">
        <ele>358</ele>
        <time>2011-07-15T14:59:56Z</time>
      </trkpt>
      <trkpt lat="45.31193" lon="1.42319">
        <ele>358</ele>
        <time>2011-07-15T14:59:56Z</time>
      </trkpt>
      <trkpt lat="45.31193" lon="1.42319">
        <ele>358</ele>
        <time>2011-07-15T15:00:00Z</time>
      </trkpt>
      <trkpt lat="45.31188" lon="1.42329">
        <ele>354</ele>
        <time>2011-07-15T15:00:01Z</time>
      </trkpt>
      <trkpt lat="45.31188" lon="1.42329">
        <ele>354</ele>
        <time>2011-07-15T15:00:01Z</time>
      </trkpt>
      <trkpt lat="45.31188" lon="1.42329">
        <ele>354</ele>
        <time>2011-07-15T15:00:09Z</time>
      </trkpt>
      <trkpt lat="45.31188" lon="1.42342">
        <ele>362</ele>
        <time>2011-07-15T15:00:10Z</time>
      </trkpt>
      <trkpt lat="45.31188" lon="1.42342">
        <ele>362</ele>
        <time>2011-07-15T15:00:10Z</time>
      </trkpt>
      <trkpt lat="45.31188" lon="1.42342">
        <ele>362</ele>
        <time>2011-07-15T15:00:11Z</time>
      </trkpt>
      <trkpt lat="45.31192" lon="1.42355">
        <ele>367</ele>
        <time>2011-07-15T15:00:12Z</time>
      </trkpt>
      <trkpt lat="45.31192" lon="1.42355">
        <ele>367</ele>
        <time>2011-07-15T15:00:12Z</time>
      </trkpt>
      <trkpt lat="45.31192" lon="1.42355">
        <ele>367</ele>
        <time>2011-07-15T15:00:26Z</time>
      </trkpt>
      <trkpt lat="45.31188" lon="1.42368">
        <ele>368</ele>
        <time>2011-07-15T15:00:27Z</time>
      </trkpt>
      <trkpt lat="45.31188" lon="1.42368">
        <ele>368</ele>
        <time>2011-07-15T15:00:27Z</time>
      </trkpt>
      <trkpt lat="45.31188" lon="1.42368">
        <ele>368</ele>
        <time>2011-07-15T15:00:35Z</time>
      </trkpt>
      <trkpt lat="45.31179" lon="1.42385">
        <ele>358</ele>
        <time>2011-07-15T15:00:36Z</time>
      </trkpt>
      <trkpt lat="45.31179" lon="1.42385">
        <ele>358</ele>
        <time>2011-07-15T15:00:36Z</time>
      </trkpt>
      <trkpt lat="45.31179" lon="1.42385">
        <ele>358</ele>
        <time>2011-07-15T15:00:45Z</time>
      </trkpt>
      <trkpt lat="45.31181" lon="1.42401">
        <ele>371</ele>
        <time>2011-07-15T15:00:46Z</time>
      </trkpt>
      <trkpt lat="45.31181" lon="1.42401">
        <ele>371</ele>
        <time>2011-07-15T15:00:46Z</time>
      </trkpt>
      <trkpt lat="45.31181" lon="1.42401">
        <ele>371</ele>
        <time>2011-07-15T15:00:56Z</time>
      </trkpt>
      <trkpt lat="45.31182" lon="1.42408">
        <ele>374</ele>
        <time>2011-07-15T15:01:04Z</time>
      </trkpt>
      <trkpt lat="45.31185" lon="1.42413">
        <ele>371</ele>
        <time>2011-07-15T15:01:07Z</time>
      </trkpt>
      <trkpt lat="45.31187" lon="1.42421">
        <ele>369</ele>
        <time>2011-07-15T15:01:09Z</time>
      </trkpt>
      <trkpt lat="45.31185" lon="1.42428">
        <ele>369</ele>
        <time>2011-07-15T15:01:11Z</time>
      </trkpt>
      <trkpt lat="45.31182" lon="1.42433">
        <ele>369</ele>
        <time>2011-07-15T15:01:14Z</time>
      </trkpt>
      <trkpt lat="45.31177" lon="1.42437">
        <ele>362</ele>
        <time>2011-07-15T15:01:18Z</time>
      </trkpt>
      <trkpt lat="45.31172" lon="1.42439">
        <ele>356</ele>
        <time>2011-07-15T15:01:23Z</time>
      </trkpt>
      <trkpt lat="45.31167" lon="1.42443">
        <ele>357</ele>
        <time>2011-07-15T15:01:28Z</time>
      </trkpt>
      <trkpt lat="45.31162" lon="1.42444">
        <ele>367</ele>
        <time>2011-07-15T15:01:33Z</time>
      </trkpt>
      <trkpt lat="45.31156" lon="1.42445">
        <ele>358</ele>
        <time>2011-07-15T15:01:36Z</time>
      </trkpt>
      <trkpt lat="45.31152" lon="1.42448">
        <ele>364</ele>
        <time>2011-07-15T15:01:41Z</time>
      </trkpt>
      <trkpt lat="45.31146" lon="1.4245">
        <ele>375</ele>
        <time>2011-07-15T15:01:44Z</time>
      </trkpt>
      <trkpt lat="45.31141" lon="1.42453">
        <ele>370</ele>
        <time>2011-07-15T15:01:48Z</time>
      </trkpt>
      <trkpt lat="45.31137" lon="1.42455">
        <ele>369</ele>
        <time>2011-07-15T15:01:52Z</time>
      </trkpt>
      <trkpt lat="45.31132" lon="1.42457">
        <ele>372</ele>
        <time>2011-07-15T15:01:57Z</time>
      </trkpt>
      <trkpt lat="45.31127" lon="1.4246">
        <ele>378</ele>
        <time>2011-07-15T15:02:00Z</time>
      </trkpt>
      <trkpt lat="45.31122" lon="1.42462">
        <ele>375</ele>
        <time>2011-07-15T15:02:03Z</time>
      </trkpt>
      <trkpt lat="45.31116" lon="1.42467">
        <ele>381</ele>
        <time>2011-07-15T15:02:08Z</time>
      </trkpt>
      <trkpt lat="45.31112" lon="1.4247">
        <ele>378</ele>
        <time>2011-07-15T15:02:11Z</time>
      </trkpt>
      <trkpt lat="45.31107" lon="1.42474">
        <ele>378</ele>
        <time>2011-07-15T15:02:16Z</time>
      </trkpt>
      <trkpt lat="45.31105" lon="1.4248">
        <ele>382</ele>
        <time>2011-07-15T15:02:20Z</time>
      </trkpt>
      <trkpt lat="45.31105" lon="1.42487">
        <ele>384</ele>
        <time>2011-07-15T15:02:25Z</time>
      </trkpt>
      <trkpt lat="45.31106" lon="1.42494">
        <ele>384</ele>
        <time>2011-07-15T15:02:30Z</time>
      </trkpt>
      <trkpt lat="45.31106" lon="1.42501">
        <ele>389</ele>
        <time>2011-07-15T15:02:34Z</time>
      </trkpt>
      <trkpt lat="45.31106" lon="1.42508">
        <ele>383</ele>
        <time>2011-07-15T15:02:38Z</time>
      </trkpt>
      <trkpt lat="45.31105" lon="1.42515">
        <ele>391</ele>
        <time>2011-07-15T15:02:43Z</time>
      </trkpt>
      <trkpt lat="45.31106" lon="1.42522">
        <ele>389</ele>
        <time>2011-07-15T15:02:47Z</time>
      </trkpt>
      <trkpt lat="45.31106" lon="1.42529">
        <ele>389</ele>
        <time>2011-07-15T15:02:51Z</time>
      </trkpt>
      <trkpt lat="45.31108" lon="1.42536">
        <ele>389</ele>
        <time>2011-07-15T15:02:55Z</time>
      </trkpt>
      <trkpt lat="45.3111" lon="1.42544">
        <ele>382</ele>
        <time>2011-07-15T15:02:59Z</time>
      </trkpt>
      <trkpt lat="45.31111" lon="1.42552">
        <ele>386</ele>
        <time>2011-07-15T15:03:03Z</time>
      </trkpt>
      <trkpt lat="45.31114" lon="1.4256">
        <ele>382</ele>
        <time>2011-07-15T15:03:07Z</time>
      </trkpt>
      <trkpt lat="45.31116" lon="1.42567">
        <ele>385</ele>
        <time>2011-07-15T15:03:12Z</time>
      </trkpt>
      <trkpt lat="45.31117" lon="1.42575">
        <ele>383</ele>
        <time>2011-07-15T15:03:16Z</time>
      </trkpt>
      <trkpt lat="45.31118" lon="1.42582">
        <ele>387</ele>
        <time>2011-07-15T15:03:19Z</time>
      </trkpt>
      <trkpt lat="45.31118" lon="1.42589">
        <ele>386</ele>
        <time>2011-07-15T15:03:23Z</time>
      </trkpt>
      <trkpt lat="45.31118" lon="1.42595">
        <ele>387</ele>
        <time>2011-07-15T15:03:27Z</time>
      </trkpt>
      <trkpt lat="45.31114" lon="1.42601">
        <ele>389</ele>
        <time>2011-07-15T15:03:31Z</time>
      </trkpt>
      <trkpt lat="45.31111" lon="1.42606">
        <ele>394</ele>
        <time>2011-07-15T15:03:39Z</time>
      </trkpt>
      <trkpt lat="45.31106" lon="1.4261">
        <ele>394</ele>
        <time>2011-07-15T15:03:43Z</time>
      </trkpt>
      <trkpt lat="45.31102" lon="1.42614">
        <ele>393</ele>
        <time>2011-07-15T15:03:46Z</time>
      </trkpt>
      <trkpt lat="45.31098" lon="1.42618">
        <ele>394</ele>
        <time>2011-07-15T15:03:50Z</time>
      </trkpt>
      <trkpt lat="45.31093" lon="1.42622">
        <ele>398</ele>
        <time>2011-07-15T15:03:54Z</time>
      </trkpt>
      <trkpt lat="45.31092" lon="1.42628">
        <ele>389</ele>
        <time>2011-07-15T15:04:13Z</time>
      </trkpt>
      <trkpt lat="45.31091" lon="1.42635">
        <ele>389</ele>
        <time>2011-07-15T15:04:17Z</time>
      </trkpt>
      <trkpt lat="45.31088" lon="1.4264">
        <ele>391</ele>
        <time>2011-07-15T15:04:19Z</time>
      </trkpt>
      <trkpt lat="45.31083" lon="1.42646">
        <ele>392</ele>
        <time>2011-07-15T15:04:22Z</time>
      </trkpt>
      <trkpt lat="45.31079" lon="1.42652">
        <ele>396</ele>
        <time>2011-07-15T15:04:25Z</time>
      </trkpt>
      <trkpt lat="45.31076" lon="1.42659">
        <ele>396</ele>
        <time>2011-07-15T15:04:28Z</time>
      </trkpt>
      <trkpt lat="45.31073" lon="1.42665">
        <ele>392</ele>
        <time>2011-07-15T15:04:30Z</time>
      </trkpt>
      <trkpt lat="45.31068" lon="1.4267">
        <ele>389</ele>
        <time>2011-07-15T15:04:33Z</time>
      </trkpt>
      <trkpt lat="45.31063" lon="1.42674">
        <ele>393</ele>
        <time>2011-07-15T15:04:36Z</time>
      </trkpt>
      <trkpt lat="45.31058" lon="1.42674">
        <ele>384</ele>
        <time>2011-07-15T15:04:39Z</time>
      </trkpt>
      <trkpt lat="45.31053" lon="1.42677">
        <ele>388</ele>
        <time>2011-07-15T15:04:41Z</time>
      </trkpt>
      <trkpt lat="45.31049" lon="1.4268">
        <ele>385</ele>
        <time>2011-07-15T15:04:44Z</time>
      </trkpt>
      <trkpt lat="45.31045" lon="1.42684">
        <ele>388</ele>
        <time>2011-07-15T15:04:47Z</time>
      </trkpt>
      <trkpt lat="45.31039" lon="1.42686">
        <ele>394</ele>
        <time>2011-07-15T15:04:50Z</time>
      </trkpt>
      <trkpt lat="45.31033" lon="1.42689">
        <ele>393</ele>
        <time>2011-07-15T15:04:53Z</time>
      </trkpt>
      <trkpt lat="45.31028" lon="1.42692">
        <ele>391</ele>
        <time>2011-07-15T15:04:57Z</time>
      </trkpt>
      <trkpt lat="45.31023" lon="1.42696">
        <ele>391</ele>
        <time>2011-07-15T15:05:00Z</time>
      </trkpt>
      <trkpt lat="45.31019" lon="1.42699">
        <ele>389</ele>
        <time>2011-07-15T15:05:04Z</time>
      </trkpt>
      <trkpt lat="45.31013" lon="1.42702">
        <ele>393</ele>
        <time>2011-07-15T15:05:08Z</time>
      </trkpt>
      <trkpt lat="45.31008" lon="1.42706">
        <ele>395</ele>
        <time>2011-07-15T15:05:12Z</time>
      </trkpt>
      <trkpt lat="45.31003" lon="1.4271">
        <ele>397</ele>
        <time>2011-07-15T15:05:15Z</time>
      </trkpt>
      <trkpt lat="45.30999" lon="1.42712">
        <ele>396</ele>
        <time>2011-07-15T15:05:17Z</time>
      </trkpt>
      <trkpt lat="45.30994" lon="1.42716">
        <ele>398</ele>
        <time>2011-07-15T15:05:20Z</time>
      </trkpt>
      <trkpt lat="45.30988" lon="1.4272">
        <ele>399</ele>
        <time>2011-07-15T15:05:23Z</time>
      </trkpt>
      <trkpt lat="45.30983" lon="1.42724">
        <ele>397</ele>
        <time>2011-07-15T15:05:26Z</time>
      </trkpt>
      <trkpt lat="45.30977" lon="1.42729">
        <ele>398</ele>
        <time>2011-07-15T15:05:30Z</time>
      </trkpt>
      <trkpt lat="45.30973" lon="1.42734">
        <ele>398</ele>
        <time>2011-07-15T15:05:33Z</time>
      </trkpt>
      <trkpt lat="45.30968" lon="1.42738">
        <ele>400</ele>
        <time>2011-07-15T15:05:36Z</time>
      </trkpt>
      <trkpt lat="45.30964" lon="1.4274">
        <ele>399</ele>
        <time>2011-07-15T15:05:39Z</time>
      </trkpt>
      <trkpt lat="45.30959" lon="1.42743">
        <ele>404</ele>
        <time>2011-07-15T15:05:42Z</time>
      </trkpt>
      <trkpt lat="45.30954" lon="1.42748">
        <ele>402</ele>
        <time>2011-07-15T15:05:45Z</time>
      </trkpt>
      <trkpt lat="45.30949" lon="1.42751">
        <ele>407</ele>
        <time>2011-07-15T15:05:48Z</time>
      </trkpt>
      <trkpt lat="45.30944" lon="1.42753">
        <ele>404</ele>
        <time>2011-07-15T15:05:51Z</time>
      </trkpt>
      <trkpt lat="45.30939" lon="1.42756">
        <ele>401</ele>
        <time>2011-07-15T15:05:54Z</time>
      </trkpt>
      <trkpt lat="45.30934" lon="1.42761">
        <ele>405</ele>
        <time>2011-07-15T15:05:57Z</time>
      </trkpt>
      <trkpt lat="45.30929" lon="1.42766">
        <ele>402</ele>
        <time>2011-07-15T15:06:01Z</time>
      </trkpt>
      <trkpt lat="45.30925" lon="1.4277">
        <ele>401</ele>
        <time>2011-07-15T15:06:03Z</time>
      </trkpt>
      <trkpt lat="45.30919" lon="1.42773">
        <ele>397</ele>
        <time>2011-07-15T15:06:07Z</time>
      </trkpt>
      <trkpt lat="45.30914" lon="1.42775">
        <ele>398</ele>
        <time>2011-07-15T15:06:12Z</time>
      </trkpt>
      <trkpt lat="45.30909" lon="1.42778">
        <ele>397</ele>
        <time>2011-07-15T15:06:15Z</time>
      </trkpt>
      <trkpt lat="45.30906" lon="1.42783">
        <ele>401</ele>
        <time>2011-07-15T15:06:19Z</time>
      </trkpt>
      <trkpt lat="45.30903" lon="1.42788">
        <ele>403</ele>
        <time>2011-07-15T15:06:30Z</time>
      </trkpt>
      <trkpt lat="45.30899" lon="1.42792">
        <ele>407</ele>
        <time>2011-07-15T15:06:33Z</time>
      </trkpt>
      <trkpt lat="45.30894" lon="1.42796">
        <ele>406</ele>
        <time>2011-07-15T15:06:38Z</time>
      </trkpt>
      <trkpt lat="45.3089" lon="1.42801">
        <ele>405</ele>
        <time>2011-07-15T15:06:42Z</time>
      </trkpt>
      <trkpt lat="45.30887" lon="1.42806">
        <ele>402</ele>
        <time>2011-07-15T15:06:45Z</time>
      </trkpt>
      <trkpt lat="45.30882" lon="1.42811">
        <ele>403</ele>
        <time>2011-07-15T15:06:48Z</time>
      </trkpt>
      <trkpt lat="45.3088" lon="1.42816">
        <ele>398</ele>
        <time>2011-07-15T15:06:51Z</time>
      </trkpt>
      <trkpt lat="45.30877" lon="1.42823">
        <ele>406</ele>
        <time>2011-07-15T15:06:54Z</time>
      </trkpt>
      <trkpt lat="45.30878" lon="1.42831">
        <ele>410</ele>
        <time>2011-07-15T15:06:57Z</time>
      </trkpt>
      <trkpt lat="45.30878" lon="1.42838">
        <ele>408</ele>
        <time>2011-07-15T15:07:00Z</time>
      </trkpt>
      <trkpt lat="45.30874" lon="1.42845">
        <ele>408</ele>
        <time>2011-07-15T15:07:02Z</time>
      </trkpt>
      <trkpt lat="45.30871" lon="1.42858">
        <ele>409</ele>
        <time>2011-07-15T15:07:04Z</time>
      </trkpt>
      <trkpt lat="45.3087" lon="1.42868">
        <ele>409</ele>
        <time>2011-07-15T15:07:05Z</time>
      </trkpt>
      <trkpt lat="45.30869" lon="1.42877">
        <ele>408</ele>
        <time>2011-07-15T15:07:06Z</time>
      </trkpt>
      <trkpt lat="45.30868" lon="1.42887">
        <ele>410</ele>
        <time>2011-07-15T15:07:07Z</time>
      </trkpt>
      <trkpt lat="45.30868" lon="1.42897">
        <ele>409</ele>
        <time>2011-07-15T15:07:08Z</time>
      </trkpt>
      <trkpt lat="45.30869" lon="1.42908">
        <ele>408</ele>
        <time>2011-07-15T15:07:09Z</time>
      </trkpt>
      <trkpt lat="45.30869" lon="1.4292">
        <ele>409</ele>
        <time>2011-07-15T15:07:11Z</time>
      </trkpt>
      <trkpt lat="45.30869" lon="1.42927">
        <ele>408</ele>
        <time>2011-07-15T15:07:13Z</time>
      </trkpt>
      <trkpt lat="45.30874" lon="1.42929">
        <ele>408</ele>
        <time>2011-07-15T15:07:15Z</time>
      </trkpt>
      <trkpt lat="45.30882" lon="1.4293">
        <ele>406</ele>
        <time>2011-07-15T15:07:17Z</time>
      </trkpt>
      <trkpt lat="45.30891" lon="1.42929">
        <ele>394</ele>
        <time>2011-07-15T15:07:19Z</time>
      </trkpt>
      <trkpt lat="45.30898" lon="1.42928">
        <ele>401</ele>
        <time>2011-07-15T15:07:20Z</time>
      </trkpt>
      <trkpt lat="45.30904" lon="1.42929">
        <ele>405</ele>
        <time>2011-07-15T15:07:21Z</time>
      </trkpt>
      <trkpt lat="45.30911" lon="1.4293">
        <ele>402</ele>
        <time>2011-07-15T15:07:22Z</time>
      </trkpt>
      <trkpt lat="45.30917" lon="1.42928">
        <ele>395</ele>
        <time>2011-07-15T15:07:24Z</time>
      </trkpt>
      <trkpt lat="45.30922" lon="1.42921">
        <ele>398</ele>
        <time>2011-07-15T15:07:26Z</time>
      </trkpt>
      <trkpt lat="45.30925" lon="1.42914">
        <ele>398</ele>
        <time>2011-07-15T15:07:28Z</time>
      </trkpt>
      <trkpt lat="45.30936" lon="1.42888">
        <ele>403</ele>
        <time>2011-07-15T15:07:38Z</time>
      </trkpt>
      <trkpt lat="45.3094" lon="1.42881">
        <ele>403</ele>
        <time>2011-07-15T15:07:40Z</time>
      </trkpt>
      <trkpt lat="45.30944" lon="1.42875">
        <ele>398</ele>
        <time>2011-07-15T15:07:42Z</time>
      </trkpt>
      <trkpt lat="45.30948" lon="1.42869">
        <ele>402</ele>
        <time>2011-07-15T15:07:44Z</time>
      </trkpt>
      <trkpt lat="45.30955" lon="1.42859">
        <ele>405</ele>
        <time>2011-07-15T15:07:46Z</time>
      </trkpt>
      <trkpt lat="45.30961" lon="1.42852">
        <ele>399</ele>
        <time>2011-07-15T15:07:48Z</time>
      </trkpt>
      <trkpt lat="45.3097" lon="1.42846">
        <ele>398</ele>
        <time>2011-07-15T15:07:50Z</time>
      </trkpt>
      <trkpt lat="45.30974" lon="1.42842">
        <ele>397</ele>
        <time>2011-07-15T15:07:51Z</time>
      </trkpt>
      <trkpt lat="45.30979" lon="1.42839">
        <ele>397</ele>
        <time>2011-07-15T15:07:52Z</time>
      </trkpt>
      <trkpt lat="45.30985" lon="1.42835">
        <ele>397</ele>
        <time>2011-07-15T15:07:53Z</time>
      </trkpt>
      <trkpt lat="45.30992" lon="1.4283">
        <ele>394</ele>
        <time>2011-07-15T15:07:54Z</time>
      </trkpt>
      <trkpt lat="45.30999" lon="1.42826">
        <ele>396</ele>
        <time>2011-07-15T15:07:55Z</time>
      </trkpt>
      <trkpt lat="45.31005" lon="1.42823">
        <ele>397</ele>
        <time>2011-07-15T15:07:56Z</time>
      </trkpt>
      <trkpt lat="45.31011" lon="1.4282">
        <ele>393</ele>
        <time>2011-07-15T15:07:57Z</time>
      </trkpt>
      <trkpt lat="45.31017" lon="1.42816">
        <ele>392</ele>
        <time>2011-07-15T15:07:59Z</time>
      </trkpt>
      <trkpt lat="45.31022" lon="1.42811">
        <ele>393</ele>
        <time>2011-07-15T15:08:01Z</time>
      </trkpt>
      <trkpt lat="45.31027" lon="1.42806">
        <ele>386</ele>
        <time>2011-07-15T15:08:03Z</time>
      </trkpt>
      <trkpt lat="45.31032" lon="1.428">
        <ele>386</ele>
        <time>2011-07-15T15:08:05Z</time>
      </trkpt>
      <trkpt lat="45.31038" lon="1.42792">
        <ele>382</ele>
        <time>2011-07-15T15:08:07Z</time>
      </trkpt>
      <trkpt lat="45.31044" lon="1.42788">
        <ele>377</ele>
        <time>2011-07-15T15:08:09Z</time>
      </trkpt>
      <trkpt lat="45.31049" lon="1.42784">
        <ele>385</ele>
        <time>2011-07-15T15:08:11Z</time>
      </trkpt>
      <trkpt lat="45.31053" lon="1.42782">
        <ele>380</ele>
        <time>2011-07-15T15:08:17Z</time>
      </trkpt>
      <trkpt lat="45.31058" lon="1.42778">
        <ele>384</ele>
        <time>2011-07-15T15:08:22Z</time>
      </trkpt>
      <trkpt lat="45.31059" lon="1.4277">
        <ele>391</ele>
        <time>2011-07-15T15:08:58Z</time>
      </trkpt>
      <trkpt lat="45.31061" lon="1.42763">
        <ele>393</ele>
        <time>2011-07-15T15:09:03Z</time>
      </trkpt>
      <trkpt lat="45.31067" lon="1.42761">
        <ele>397</ele>
        <time>2011-07-15T15:09:10Z</time>
      </trkpt>
      <trkpt lat="45.31073" lon="1.42761">
        <ele>402</ele>
        <time>2011-07-15T15:09:13Z</time>
      </trkpt>
      <trkpt lat="45.31078" lon="1.42759">
        <ele>407</ele>
        <time>2011-07-15T15:10:02Z</time>
      </trkpt>
      <trkpt lat="45.31084" lon="1.42763">
        <ele>403</ele>
        <time>2011-07-15T15:10:05Z</time>
      </trkpt>
      <trkpt lat="45.3109" lon="1.42766">
        <ele>400</ele>
        <time>2011-07-15T15:10:08Z</time>
      </trkpt>
      <trkpt lat="45.31097" lon="1.42768">
        <ele>398</ele>
        <time>2011-07-15T15:10:11Z</time>
      </trkpt>
      <trkpt lat="45.31105" lon="1.42766">
        <ele>397</ele>
        <time>2011-07-15T15:10:13Z</time>
      </trkpt>
      <trkpt lat="45.3111" lon="1.42764">
        <ele>395</ele>
        <time>2011-07-15T15:10:14Z</time>
      </trkpt>
      <trkpt lat="45.31116" lon="1.4276">
        <ele>393</ele>
        <time>2011-07-15T15:10:15Z</time>
      </trkpt>
      <trkpt lat="45.31122" lon="1.42758">
        <ele>393</ele>
        <time>2011-07-15T15:10:16Z</time>
      </trkpt>
      <trkpt lat="45.31128" lon="1.42754">
        <ele>388</ele>
        <time>2011-07-15T15:10:17Z</time>
      </trkpt>
      <trkpt lat="45.31137" lon="1.42748">
        <ele>391</ele>
        <time>2011-07-15T15:10:18Z</time>
      </trkpt>
      <trkpt lat="45.31145" lon="1.42743">
        <ele>391</ele>
        <time>2011-07-15T15:10:19Z</time>
      </trkpt>
      <trkpt lat="45.31152" lon="1.42739">
        <ele>389</ele>
        <time>2011-07-15T15:10:20Z</time>
      </trkpt>
      <trkpt lat="45.31161" lon="1.42733">
        <ele>390</ele>
        <time>2011-07-15T15:10:21Z</time>
      </trkpt>
      <trkpt lat="45.3117" lon="1.42727">
        <ele>391</ele>
        <time>2011-07-15T15:10:22Z</time>
      </trkpt>
      <trkpt lat="45.31179" lon="1.42721">
        <ele>391</ele>
        <time>2011-07-15T15:10:23Z</time>
      </trkpt>
      <trkpt lat="45.31188" lon="1.42714">
        <ele>387</ele>
        <time>2011-07-15T15:10:24Z</time>
      </trkpt>
      <trkpt lat="45.31197" lon="1.42708">
        <ele>387</ele>
        <time>2011-07-15T15:10:25Z</time>
      </trkpt>
      <trkpt lat="45.31207" lon="1.42701">
        <ele>383</ele>
        <time>2011-07-15T15:10:26Z</time>
      </trkpt>
      <trkpt lat="45.31215" lon="1.42694">
        <ele>382</ele>
        <time>2011-07-15T15:10:27Z</time>
      </trkpt>
      <trkpt lat="45.31225" lon="1.42686">
        <ele>384</ele>
        <time>2011-07-15T15:10:28Z</time>
      </trkpt>
      <trkpt lat="45.31232" lon="1.42678">
        <ele>381</ele>
        <time>2011-07-15T15:10:29Z</time>
      </trkpt>
      <trkpt lat="45.31236" lon="1.42668">
        <ele>382</ele>
        <time>2011-07-15T15:10:30Z</time>
      </trkpt>
      <trkpt lat="45.31236" lon="1.42668">
        <ele>382</ele>
        <time>2011-07-15T15:10:30Z</time>
      </trkpt>
      <trkpt lat="45.31236" lon="1.42668">
        <ele>382</ele>
        <time>2011-07-15T15:10:31Z</time>
      </trkpt>
      <trkpt lat="45.3124" lon="1.42661">
        <ele>377</ele>
        <time>2011-07-15T15:10:32Z</time>
      </trkpt>
      <trkpt lat="45.31244" lon="1.42653">
        <ele>365</ele>
        <time>2011-07-15T15:10:33Z</time>
      </trkpt>
      <trkpt lat="45.31248" lon="1.42645">
        <ele>366</ele>
        <time>2011-07-15T15:10:34Z</time>
      </trkpt>
      <trkpt lat="45.31248" lon="1.42645">
        <ele>366</ele>
        <time>2011-07-15T15:10:34Z</time>
      </trkpt>
      <trkpt lat="45.31248" lon="1.42645">
        <ele>366</ele>
        <time>2011-07-15T15:10:44Z</time>
      </trkpt>
      <trkpt lat="45.31246" lon="1.4263">
        <ele>359</ele>
        <time>2011-07-15T15:10:45Z</time>
      </trkpt>
      <trkpt lat="45.31246" lon="1.4263">
        <ele>359</ele>
        <time>2011-07-15T15:10:45Z</time>
      </trkpt>
      <trkpt lat="45.31246" lon="1.4263">
        <ele>359</ele>
        <time>2011-07-15T15:10:53Z</time>
      </trkpt>
      <trkpt lat="45.31242" lon="1.42643">
        <ele>345</ele>
        <time>2011-07-15T15:10:54Z</time>
      </trkpt>
      <trkpt lat="45.31242" lon="1.42651">
        <ele>346</ele>
        <time>2011-07-15T15:10:55Z</time>
      </trkpt>
      <trkpt lat="45.3124" lon="1.42659">
        <ele>348</ele>
        <time>2011-07-15T15:10:56Z</time>
      </trkpt>
      <trkpt lat="45.31239" lon="1.42669">
        <ele>350</ele>
        <time>2011-07-15T15:10:57Z</time>
      </trkpt>
      <trkpt lat="45.31237" lon="1.42678">
        <ele>349</ele>
        <time>2011-07-15T15:10:58Z</time>
      </trkpt>
      <trkpt lat="45.31237" lon="1.42678">
        <ele>349</ele>
        <time>2011-07-15T15:10:58Z</time>
      </trkpt>
      <trkpt lat="45.31237" lon="1.42678">
        <ele>349</ele>
        <time>2011-07-15T15:11:02Z</time>
      </trkpt>
      <trkpt lat="45.31239" lon="1.42691">
        <ele>357</ele>
        <time>2011-07-15T15:11:03Z</time>
      </trkpt>
      <trkpt lat="45.31239" lon="1.42691">
        <ele>357</ele>
        <time>2011-07-15T15:11:03Z</time>
      </trkpt>
      <trkpt lat="45.31239" lon="1.42691">
        <ele>357</ele>
        <time>2011-07-15T15:11:08Z</time>
      </trkpt>
      <trkpt lat="45.3125" lon="1.42696">
        <ele>378</ele>
        <time>2011-07-15T15:11:09Z</time>
      </trkpt>
      <trkpt lat="45.31258" lon="1.42699">
        <ele>382</ele>
        <time>2011-07-15T15:11:11Z</time>
      </trkpt>
      <trkpt lat="45.31262" lon="1.42701">
        <ele>382</ele>
        <time>2011-07-15T15:11:12Z</time>
      </trkpt>
      <trkpt lat="45.31267" lon="1.42702">
        <ele>384</ele>
        <time>2011-07-15T15:11:13Z</time>
      </trkpt>
      <trkpt lat="45.31271" lon="1.42704">
        <ele>384</ele>
        <time>2011-07-15T15:11:14Z</time>
      </trkpt>
      <trkpt lat="45.31276" lon="1.42706">
        <ele>382</ele>
        <time>2011-07-15T15:11:15Z</time>
      </trkpt>
      <trkpt lat="45.31281" lon="1.4271">
        <ele>383</ele>
        <time>2011-07-15T15:11:16Z</time>
      </trkpt>
      <trkpt lat="45.31288" lon="1.42716">
        <ele>386</ele>
        <time>2011-07-15T15:11:17Z</time>
      </trkpt>
      <trkpt lat="45.31292" lon="1.42721">
        <ele>389</ele>
        <time>2011-07-15T15:11:18Z</time>
      </trkpt>
      <trkpt lat="45.313" lon="1.42731">
        <ele>389</ele>
        <time>2011-07-15T15:11:20Z</time>
      </trkpt>
      <trkpt lat="45.31304" lon="1.42737">
        <ele>387</ele>
        <time>2011-07-15T15:11:21Z</time>
      </trkpt>
      <trkpt lat="45.31308" lon="1.42746">
        <ele>386</ele>
        <time>2011-07-15T15:11:22Z</time>
      </trkpt>
      <trkpt lat="45.31313" lon="1.42754">
        <ele>385</ele>
        <time>2011-07-15T15:11:23Z</time>
      </trkpt>
      <trkpt lat="45.31316" lon="1.42761">
        <ele>385</ele>
        <time>2011-07-15T15:11:24Z</time>
      </trkpt>
      <trkpt lat="45.31318" lon="1.42769">
        <ele>381</ele>
        <time>2011-07-15T15:11:25Z</time>
      </trkpt>
      <trkpt lat="45.31323" lon="1.4278">
        <ele>378</ele>
        <time>2011-07-15T15:11:26Z</time>
      </trkpt>
      <trkpt lat="45.31328" lon="1.42791">
        <ele>380</ele>
        <time>2011-07-15T15:11:27Z</time>
      </trkpt>
      <trkpt lat="45.31333" lon="1.42804">
        <ele>380</ele>
        <time>2011-07-15T15:11:28Z</time>
      </trkpt>
      <trkpt lat="45.31337" lon="1.42815">
        <ele>385</ele>
        <time>2011-07-15T15:11:29Z</time>
      </trkpt>
      <trkpt lat="45.31341" lon="1.42827">
        <ele>383</ele>
        <time>2011-07-15T15:11:30Z</time>
      </trkpt>
      <trkpt lat="45.31345" lon="1.42836">
        <ele>383</ele>
        <time>2011-07-15T15:11:31Z</time>
      </trkpt>
      <trkpt lat="45.31348" lon="1.42841">
        <ele>384</ele>
        <time>2011-07-15T15:11:32Z</time>
      </trkpt>
      <trkpt lat="45.31352" lon="1.42851">
        <ele>381</ele>
        <time>2011-07-15T15:11:33Z</time>
      </trkpt>
      <trkpt lat="45.31357" lon="1.42861">
        <ele>374</ele>
        <time>2011-07-15T15:11:34Z</time>
      </trkpt>
      <trkpt lat="45.31364" lon="1.42871">
        <ele>371</ele>
        <time>2011-07-15T15:11:35Z</time>
      </trkpt>
      <trkpt lat="45.31369" lon="1.42879">
        <ele>369</ele>
        <time>2011-07-15T15:11:36Z</time>
      </trkpt>
      <trkpt lat="45.31369" lon="1.42879">
        <ele>369</ele>
        <time>2011-07-15T15:11:36Z</time>
      </trkpt>
      <trkpt lat="45.31369" lon="1.42879">
        <ele>369</ele>
        <time>2011-07-15T15:11:48Z</time>
      </trkpt>
      <trkpt lat="45.3137" lon="1.42897">
        <ele>328</ele>
        <time>2011-07-15T15:11:49Z</time>
      </trkpt>
      <trkpt lat="45.3137" lon="1.42897">
        <ele>328</ele>
        <time>2011-07-15T15:11:49Z</time>
      </trkpt>
      <trkpt lat="45.3137" lon="1.42897">
        <ele>328</ele>
        <time>2011-07-15T15:11:50Z</time>
      </trkpt>
      <trkpt lat="45.31367" lon="1.42905">
        <ele>321</ele>
        <time>2011-07-15T15:11:51Z</time>
      </trkpt>
      <trkpt lat="45.31367" lon="1.42905">
        <ele>321</ele>
        <time>2011-07-15T15:11:51Z</time>
      </trkpt>
      <trkpt lat="45.31367" lon="1.42905">
        <ele>321</ele>
        <time>2011-07-15T15:11:52Z</time>
      </trkpt>
      <trkpt lat="45.31367" lon="1.42912">
        <ele>322</ele>
        <time>2011-07-15T15:11:53Z</time>
      </trkpt>
      <trkpt lat="45.31367" lon="1.42912">
        <ele>322</ele>
        <time>2011-07-15T15:11:53Z</time>
      </trkpt>
      <trkpt lat="45.31367" lon="1.42912">
        <ele>322</ele>
        <time>2011-07-15T15:11:56Z</time>
      </trkpt>
      <trkpt lat="45.3137" lon="1.42925">
        <ele>315</ele>
        <time>2011-07-15T15:11:57Z</time>
      </trkpt>
      <trkpt lat="45.3137" lon="1.42925">
        <ele>315</ele>
        <time>2011-07-15T15:11:57Z</time>
      </trkpt>
      <trkpt lat="45.3137" lon="1.42925">
        <ele>315</ele>
        <time>2011-07-15T15:12:06Z</time>
      </trkpt>
      <trkpt lat="45.31366" lon="1.42939">
        <ele>309</ele>
        <time>2011-07-15T15:12:07Z</time>
      </trkpt>
      <trkpt lat="45.31366" lon="1.42939">
        <ele>309</ele>
        <time>2011-07-15T15:12:07Z</time>
      </trkpt>
      <trkpt lat="45.31366" lon="1.42939">
        <ele>309</ele>
        <time>2011-07-15T15:12:09Z</time>
      </trkpt>
      <trkpt lat="45.31363" lon="1.42952">
        <ele>316</ele>
        <time>2011-07-15T15:12:10Z</time>
      </trkpt>
      <trkpt lat="45.31362" lon="1.42958">
        <ele>321</ele>
        <time>2011-07-15T15:12:11Z</time>
      </trkpt>
      <trkpt lat="45.3136" lon="1.42966">
        <ele>319</ele>
        <time>2011-07-15T15:12:12Z</time>
      </trkpt>
      <trkpt lat="45.31359" lon="1.42973">
        <ele>320</ele>
        <time>2011-07-15T15:12:13Z</time>
      </trkpt>
      <trkpt lat="45.31358" lon="1.42979">
        <ele>329</ele>
        <time>2011-07-15T15:12:14Z</time>
      </trkpt>
      <trkpt lat="45.31357" lon="1.42987">
        <ele>332</ele>
        <time>2011-07-15T15:12:15Z</time>
      </trkpt>
      <trkpt lat="45.31358" lon="1.42996">
        <ele>339</ele>
        <time>2011-07-15T15:12:16Z</time>
      </trkpt>
      <trkpt lat="45.31359" lon="1.43005">
        <ele>341</ele>
        <time>2011-07-15T15:12:17Z</time>
      </trkpt>
      <trkpt lat="45.3136" lon="1.43012">
        <ele>346</ele>
        <time>2011-07-15T15:12:18Z</time>
      </trkpt>
      <trkpt lat="45.31364" lon="1.43024">
        <ele>355</ele>
        <time>2011-07-15T15:12:20Z</time>
      </trkpt>
      <trkpt lat="45.31364" lon="1.43024">
        <ele>355</ele>
        <time>2011-07-15T15:12:20Z</time>
      </trkpt>
      <trkpt lat="45.31364" lon="1.43024">
        <ele>355</ele>
        <time>2011-07-15T15:12:27Z</time>
      </trkpt>
      <trkpt lat="45.31374" lon="1.43029">
        <ele>373</ele>
        <time>2011-07-15T15:12:28Z</time>
      </trkpt>
      <trkpt lat="45.31374" lon="1.43029">
        <ele>373</ele>
        <time>2011-07-15T15:12:28Z</time>
      </trkpt>
      <trkpt lat="45.31374" lon="1.43029">
        <ele>373</ele>
        <time>2011-07-15T15:13:15Z</time>
      </trkpt>
      <trkpt lat="45.31384" lon="1.43022">
        <ele>407</ele>
        <time>2011-07-15T15:13:16Z</time>
      </trkpt>
      <trkpt lat="45.31384" lon="1.43022">
        <ele>407</ele>
        <time>2011-07-15T15:13:16Z</time>
      </trkpt>
      <trkpt lat="45.31384" lon="1.43022">
        <ele>407</ele>
        <time>2011-07-15T15:13:17Z</time>
      </trkpt>
      <trkpt lat="45.31396" lon="1.43013">
        <ele>406</ele>
        <time>2011-07-15T15:13:18Z</time>
      </trkpt>
      <trkpt lat="45.31396" lon="1.43013">
        <ele>406</ele>
        <time>2011-07-15T15:13:18Z</time>
      </trkpt>
      <trkpt lat="45.31396" lon="1.43013">
        <ele>406</ele>
        <time>2011-07-15T15:13:20Z</time>
      </trkpt>
      <trkpt lat="45.31408" lon="1.43004">
        <ele>404</ele>
        <time>2011-07-15T15:13:21Z</time>
      </trkpt>
      <trkpt lat="45.31411" lon="1.42998">
        <ele>398</ele>
        <time>2011-07-15T15:13:22Z</time>
      </trkpt>
      <trkpt lat="45.31411" lon="1.42998">
        <ele>398</ele>
        <time>2011-07-15T15:13:22Z</time>
      </trkpt>
      <trkpt lat="45.31411" lon="1.42998">
        <ele>398</ele>
        <time>2011-07-15T15:13:27Z</time>
      </trkpt>
      <trkpt lat="45.31416" lon="1.42994">
        <ele>382</ele>
        <time>2011-07-15T15:13:28Z</time>
      </trkpt>
      <trkpt lat="45.31416" lon="1.42994">
        <ele>382</ele>
        <time>2011-07-15T15:13:28Z</time>
      </trkpt>
      <trkpt lat="45.31416" lon="1.42994">
        <ele>382</ele>
        <time>2011-07-15T15:13:30Z</time>
      </trkpt>
      <trkpt lat="45.31418" lon="1.4298">
        <ele>383</ele>
        <time>2011-07-15T15:13:31Z</time>
      </trkpt>
      <trkpt lat="45.31418" lon="1.4298">
        <ele>383</ele>
        <time>2011-07-15T15:13:31Z</time>
      </trkpt>
      <trkpt lat="45.31418" lon="1.4298">
        <ele>383</ele>
        <time>2011-07-15T15:13:32Z</time>
      </trkpt>
      <trkpt lat="45.31423" lon="1.42966">
        <ele>380</ele>
        <time>2011-07-15T15:13:33Z</time>
      </trkpt>
      <trkpt lat="45.31427" lon="1.42961">
        <ele>378</ele>
        <time>2011-07-15T15:13:34Z</time>
      </trkpt>
      <trkpt lat="45.31431" lon="1.42955">
        <ele>376</ele>
        <time>2011-07-15T15:13:35Z</time>
      </trkpt>
      <trkpt lat="45.31435" lon="1.42949">
        <ele>377</ele>
        <time>2011-07-15T15:13:36Z</time>
      </trkpt>
      <trkpt lat="45.31439" lon="1.42943">
        <ele>382</ele>
        <time>2011-07-15T15:13:37Z</time>
      </trkpt>
      <trkpt lat="45.31439" lon="1.42943">
        <ele>382</ele>
        <time>2011-07-15T15:13:37Z</time>
      </trkpt>
      <trkpt lat="45.31439" lon="1.42943">
        <ele>382</ele>
        <time>2011-07-15T15:13:38Z</time>
      </trkpt>
      <trkpt lat="45.31446" lon="1.42934">
        <ele>377</ele>
        <time>2011-07-15T15:13:39Z</time>
      </trkpt>
      <trkpt lat="45.31451" lon="1.4293">
        <ele>372</ele>
        <time>2011-07-15T15:13:40Z</time>
      </trkpt>
      <trkpt lat="45.31455" lon="1.42926">
        <ele>377</ele>
        <time>2011-07-15T15:13:41Z</time>
      </trkpt>
      <trkpt lat="45.31459" lon="1.42923">
        <ele>383</ele>
        <time>2011-07-15T15:13:42Z</time>
      </trkpt>
      <trkpt lat="45.31464" lon="1.4292">
        <ele>381</ele>
        <time>2011-07-15T15:13:43Z</time>
      </trkpt>
      <trkpt lat="45.31472" lon="1.42916">
        <ele>369</ele>
        <time>2011-07-15T15:13:45Z</time>
      </trkpt>
      <trkpt lat="45.31477" lon="1.42913">
        <ele>369</ele>
        <time>2011-07-15T15:13:46Z</time>
      </trkpt>
      <trkpt lat="45.31477" lon="1.42913">
        <ele>369</ele>
        <time>2011-07-15T15:13:46Z</time>
      </trkpt>
      <trkpt lat="45.31477" lon="1.42913">
        <ele>369</ele>
        <time>2011-07-15T15:13:57Z</time>
      </trkpt>
      <trkpt lat="45.31494" lon="1.42913">
        <ele>375</ele>
        <time>2011-07-15T15:13:58Z</time>
      </trkpt>
      <trkpt lat="45.31505" lon="1.42914">
        <ele>373</ele>
        <time>2011-07-15T15:13:59Z</time>
      </trkpt>
      <trkpt lat="45.31514" lon="1.42914">
        <ele>372</ele>
        <time>2011-07-15T15:14:00Z</time>
      </trkpt>
      <trkpt lat="45.31526" lon="1.42912">
        <ele>377</ele>
        <time>2011-07-15T15:14:01Z</time>
      </trkpt>
      <trkpt lat="45.31534" lon="1.4291">
        <ele>371</ele>
        <time>2011-07-15T15:14:02Z</time>
      </trkpt>
      <trkpt lat="45.31541" lon="1.42909">
        <ele>372</ele>
        <time>2011-07-15T15:14:03Z</time>
      </trkpt>
      <trkpt lat="45.31541" lon="1.42909">
        <ele>372</ele>
        <time>2011-07-15T15:14:03Z</time>
      </trkpt>
      <trkpt lat="45.31541" lon="1.42909">
        <ele>372</ele>
        <time>2011-07-15T15:14:04Z</time>
      </trkpt>
      <trkpt lat="45.31552" lon="1.42907">
        <ele>375</ele>
        <time>2011-07-15T15:14:05Z</time>
      </trkpt>
      <trkpt lat="45.31557" lon="1.42906">
        <ele>378</ele>
        <time>2011-07-15T15:14:06Z</time>
      </trkpt>
      <trkpt lat="45.31557" lon="1.42906">
        <ele>378</ele>
        <time>2011-07-15T15:14:06Z</time>
      </trkpt>
      <trkpt lat="45.31557" lon="1.42906">
        <ele>378</ele>
        <time>2011-07-15T15:14:09Z</time>
      </trkpt>
      <trkpt lat="45.31567" lon="1.42907">
        <ele>374</ele>
        <time>2011-07-15T15:14:10Z</time>
      </trkpt>
      <trkpt lat="45.31567" lon="1.42907">
        <ele>374</ele>
        <time>2011-07-15T15:14:10Z</time>
      </trkpt>
      <trkpt lat="45.31567" lon="1.42907">
        <ele>374</ele>
        <time>2011-07-15T15:14:19Z</time>
      </trkpt>
      <trkpt lat="45.31582" lon="1.42902">
        <ele>366</ele>
        <time>2011-07-15T15:14:20Z</time>
      </trkpt>
      <trkpt lat="45.31582" lon="1.42902">
        <ele>366</ele>
        <time>2011-07-15T15:14:20Z</time>
      </trkpt>
      <trkpt lat="45.31582" lon="1.42902">
        <ele>366</ele>
        <time>2011-07-15T15:14:23Z</time>
      </trkpt>
      <trkpt lat="45.31601" lon="1.42891">
        <ele>361</ele>
        <time>2011-07-15T15:14:24Z</time>
      </trkpt>
      <trkpt lat="45.3161" lon="1.42886">
        <ele>364</ele>
        <time>2011-07-15T15:14:25Z</time>
      </trkpt>
      <trkpt lat="45.31619" lon="1.4288">
        <ele>368</ele>
        <time>2011-07-15T15:14:26Z</time>
      </trkpt>
      <trkpt lat="45.31619" lon="1.4288">
        <ele>368</ele>
        <time>2011-07-15T15:14:26Z</time>
      </trkpt>
      <trkpt lat="45.31619" lon="1.4288">
        <ele>368</ele>
        <time>2011-07-15T15:14:27Z</time>
      </trkpt>
      <trkpt lat="45.31631" lon="1.42871">
        <ele>365</ele>
        <time>2011-07-15T15:14:28Z</time>
      </trkpt>
      <trkpt lat="45.31635" lon="1.42867">
        <ele>366</ele>
        <time>2011-07-15T15:14:29Z</time>
      </trkpt>
      <trkpt lat="45.31635" lon="1.42867">
        <ele>366</ele>
        <time>2011-07-15T15:14:29Z</time>
      </trkpt>
      <trkpt lat="45.31635" lon="1.42867">
        <ele>366</ele>
        <time>2011-07-15T15:16:01Z</time>
      </trkpt>
      <trkpt lat="45.31645" lon="1.42868">
        <ele>319</ele>
        <time>2011-07-15T15:16:02Z</time>
      </trkpt>
      <trkpt lat="45.31645" lon="1.42868">
        <ele>319</ele>
        <time>2011-07-15T15:16:02Z</time>
      </trkpt>
      <trkpt lat="45.31645" lon="1.42868">
        <ele>319</ele>
        <time>2011-07-15T15:16:12Z</time>
      </trkpt>
      <trkpt lat="45.31654" lon="1.4287">
        <ele>306</ele>
        <time>2011-07-15T15:16:13Z</time>
      </trkpt>
      <trkpt lat="45.31654" lon="1.4287">
        <ele>306</ele>
        <time>2011-07-15T15:16:13Z</time>
      </trkpt>
      <trkpt lat="45.31654" lon="1.4287">
        <ele>306</ele>
        <time>2011-07-15T15:16:17Z</time>
      </trkpt>
      <trkpt lat="45.31665" lon="1.42884">
        <ele>320</ele>
        <time>2011-07-15T15:16:18Z</time>
      </trkpt>
      <trkpt lat="45.31673" lon="1.42892">
        <ele>321</ele>
        <time>2011-07-15T15:16:19Z</time>
      </trkpt>
      <trkpt lat="45.31673" lon="1.42892">
        <ele>321</ele>
        <time>2011-07-15T15:16:19Z</time>
      </trkpt>
      <trkpt lat="45.31673" lon="1.42892">
        <ele>321</ele>
        <time>2011-07-15T15:16:30Z</time>
      </trkpt>
      <trkpt lat="45.31679" lon="1.429">
        <ele>316</ele>
        <time>2011-07-15T15:16:31Z</time>
      </trkpt>
      <trkpt lat="45.31684" lon="1.42896">
        <ele>337</ele>
        <time>2011-07-15T15:16:57Z</time>
      </trkpt>
      <trkpt lat="45.31689" lon="1.42893">
        <ele>340</ele>
        <time>2011-07-15T15:17:01Z</time>
      </trkpt>
      <trkpt lat="45.31694" lon="1.4289">
        <ele>340</ele>
        <time>2011-07-15T15:17:02Z</time>
      </trkpt>
      <trkpt lat="45.31699" lon="1.42886">
        <ele>345</ele>
        <time>2011-07-15T15:17:04Z</time>
      </trkpt>
      <trkpt lat="45.31703" lon="1.4288">
        <ele>345</ele>
        <time>2011-07-15T15:17:07Z</time>
      </trkpt>
      <trkpt lat="45.31706" lon="1.42875">
        <ele>347</ele>
        <time>2011-07-15T15:17:09Z</time>
      </trkpt>
      <trkpt lat="45.3171" lon="1.42876">
        <ele>340</ele>
        <time>2011-07-15T15:17:13Z</time>
      </trkpt>
      <trkpt lat="45.31712" lon="1.42884">
        <ele>341</ele>
        <time>2011-07-15T15:17:17Z</time>
      </trkpt>
      <trkpt lat="45.3171" lon="1.42891">
        <ele>331</ele>
        <time>2011-07-15T15:17:20Z</time>
      </trkpt>
      <trkpt lat="45.31707" lon="1.42896">
        <ele>334</ele>
        <time>2011-07-15T15:17:23Z</time>
      </trkpt>
      <trkpt lat="45.31702" lon="1.429">
        <ele>346</ele>
        <time>2011-07-15T15:17:26Z</time>
      </trkpt>
      <trkpt lat="45.31697" lon="1.42905">
        <ele>338</ele>
        <time>2011-07-15T15:17:29Z</time>
      </trkpt>
      <trkpt lat="45.31693" lon="1.4291">
        <ele>340</ele>
        <time>2011-07-15T15:17:33Z</time>
      </trkpt>
      <trkpt lat="45.3169" lon="1.42916">
        <ele>336</ele>
        <time>2011-07-15T15:17:37Z</time>
      </trkpt>
      <trkpt lat="45.31689" lon="1.42922">
        <ele>336</ele>
        <time>2011-07-15T15:17:40Z</time>
      </trkpt>
      <trkpt lat="45.31688" lon="1.42929">
        <ele>340</ele>
        <time>2011-07-15T15:17:43Z</time>
      </trkpt>
      <trkpt lat="45.31686" lon="1.42936">
        <ele>333</ele>
        <time>2011-07-15T15:17:48Z</time>
      </trkpt>
      <trkpt lat="45.31683" lon="1.42943">
        <ele>336</ele>
        <time>2011-07-15T15:17:52Z</time>
      </trkpt>
      <trkpt lat="45.31682" lon="1.4295">
        <ele>331</ele>
        <time>2011-07-15T15:17:55Z</time>
      </trkpt>
      <trkpt lat="45.31679" lon="1.42956">
        <ele>333</ele>
        <time>2011-07-15T15:18:00Z</time>
      </trkpt>
      <trkpt lat="45.31679" lon="1.42963">
        <ele>316</ele>
        <time>2011-07-15T15:18:05Z</time>
      </trkpt>
      <trkpt lat="45.3168" lon="1.42969">
        <ele>321</ele>
        <time>2011-07-15T15:18:10Z</time>
      </trkpt>
      <trkpt lat="45.31683" lon="1.42964">
        <ele>329</ele>
        <time>2011-07-15T15:18:21Z</time>
      </trkpt>
      <trkpt lat="45.31686" lon="1.42958">
        <ele>330</ele>
        <time>2011-07-15T15:18:28Z</time>
      </trkpt>
      <trkpt lat="45.31691" lon="1.42958">
        <ele>325</ele>
        <time>2011-07-15T15:18:35Z</time>
      </trkpt>
      <trkpt lat="45.31696" lon="1.42958">
        <ele>330</ele>
        <time>2011-07-15T15:18:41Z</time>
      </trkpt>
      <trkpt lat="45.31701" lon="1.4296">
        <ele>328</ele>
        <time>2011-07-15T15:18:45Z</time>
      </trkpt>
      <trkpt lat="45.31706" lon="1.42962">
        <ele>322</ele>
        <time>2011-07-15T15:18:49Z</time>
      </trkpt>
      <trkpt lat="45.31712" lon="1.42962">
        <ele>312</ele>
        <time>2011-07-15T15:18:52Z</time>
      </trkpt>
      <trkpt lat="45.31719" lon="1.4296">
        <ele>307</ele>
        <time>2011-07-15T15:18:54Z</time>
      </trkpt>
      <trkpt lat="45.31724" lon="1.42959">
        <ele>307</ele>
        <time>2011-07-15T15:18:55Z</time>
      </trkpt>
      <trkpt lat="45.31729" lon="1.42958">
        <ele>305</ele>
        <time>2011-07-15T15:18:58Z</time>
      </trkpt>
      <trkpt lat="45.31733" lon="1.42957">
        <ele>299</ele>
        <time>2011-07-15T15:19:00Z</time>
      </trkpt>
      <trkpt lat="45.31736" lon="1.42962">
        <ele>287</ele>
        <time>2011-07-15T15:19:06Z</time>
      </trkpt>
      <trkpt lat="45.31733" lon="1.42968">
        <ele>286</ele>
        <time>2011-07-15T15:19:17Z</time>
      </trkpt>
      <trkpt lat="45.31731" lon="1.42975">
        <ele>296</ele>
        <time>2011-07-15T15:19:23Z</time>
      </trkpt>
      <trkpt lat="45.31728" lon="1.42982">
        <ele>297</ele>
        <time>2011-07-15T15:19:27Z</time>
      </trkpt>
      <trkpt lat="45.31726" lon="1.42989">
        <ele>300</ele>
        <time>2011-07-15T15:19:33Z</time>
      </trkpt>
      <trkpt lat="45.31723" lon="1.42994">
        <ele>305</ele>
        <time>2011-07-15T15:19:39Z</time>
      </trkpt>
      <trkpt lat="45.31719" lon="1.42999">
        <ele>312</ele>
        <time>2011-07-15T15:19:56Z</time>
      </trkpt>
      <trkpt lat="45.31717" lon="1.43005">
        <ele>311</ele>
        <time>2011-07-15T15:20:10Z</time>
      </trkpt>
      <trkpt lat="45.31714" lon="1.4301">
        <ele>312</ele>
        <time>2011-07-15T15:20:16Z</time>
      </trkpt>
      <trkpt lat="45.3171" lon="1.43014">
        <ele>308</ele>
        <time>2011-07-15T15:20:23Z</time>
      </trkpt>
      <trkpt lat="45.31706" lon="1.43019">
        <ele>310</ele>
        <time>2011-07-15T15:20:28Z</time>
      </trkpt>
      <trkpt lat="45.31703" lon="1.43024">
        <ele>313</ele>
        <time>2011-07-15T15:20:32Z</time>
      </trkpt>
      <trkpt lat="45.31699" lon="1.43028">
        <ele>309</ele>
        <time>2011-07-15T15:20:36Z</time>
      </trkpt>
      <trkpt lat="45.31696" lon="1.43034">
        <ele>308</ele>
        <time>2011-07-15T15:20:40Z</time>
      </trkpt>
      <trkpt lat="45.31693" lon="1.43038">
        <ele>310</ele>
        <time>2011-07-15T15:20:45Z</time>
      </trkpt>
      <trkpt lat="45.31689" lon="1.43042">
        <ele>319</ele>
        <time>2011-07-15T15:20:50Z</time>
      </trkpt>
      <trkpt lat="45.31685" lon="1.43048">
        <ele>326</ele>
        <time>2011-07-15T15:20:53Z</time>
      </trkpt>
      <trkpt lat="45.3168" lon="1.4305">
        <ele>330</ele>
        <time>2011-07-15T15:20:56Z</time>
      </trkpt>
      <trkpt lat="45.31676" lon="1.43054">
        <ele>343</ele>
        <time>2011-07-15T15:21:01Z</time>
      </trkpt>
      <trkpt lat="45.31673" lon="1.4306">
        <ele>353</ele>
        <time>2011-07-15T15:21:08Z</time>
      </trkpt>
      <trkpt lat="45.31669" lon="1.43064">
        <ele>354</ele>
        <time>2011-07-15T15:21:13Z</time>
      </trkpt>
      <trkpt lat="45.31665" lon="1.43067">
        <ele>363</ele>
        <time>2011-07-15T15:21:18Z</time>
      </trkpt>
      <trkpt lat="45.3166" lon="1.4307">
        <ele>369</ele>
        <time>2011-07-15T15:21:22Z</time>
      </trkpt>
      <trkpt lat="45.31656" lon="1.43076">
        <ele>374</ele>
        <time>2011-07-15T15:21:27Z</time>
      </trkpt>
      <trkpt lat="45.31651" lon="1.4308">
        <ele>378</ele>
        <time>2011-07-15T15:21:31Z</time>
      </trkpt>
      <trkpt lat="45.31646" lon="1.43083">
        <ele>380</ele>
        <time>2011-07-15T15:21:35Z</time>
      </trkpt>
      <trkpt lat="45.31641" lon="1.43085">
        <ele>387</ele>
        <time>2011-07-15T15:21:40Z</time>
      </trkpt>
      <trkpt lat="45.31637" lon="1.43088">
        <ele>384</ele>
        <time>2011-07-15T15:21:44Z</time>
      </trkpt>
      <trkpt lat="45.31632" lon="1.4309">
        <ele>388</ele>
        <time>2011-07-15T15:21:49Z</time>
      </trkpt>
      <trkpt lat="45.31626" lon="1.43092">
        <ele>380</ele>
        <time>2011-07-15T15:21:53Z</time>
      </trkpt>
      <trkpt lat="45.3162" lon="1.43094">
        <ele>381</ele>
        <time>2011-07-15T15:21:56Z</time>
      </trkpt>
      <trkpt lat="45.31615" lon="1.43099">
        <ele>385</ele>
        <time>2011-07-15T15:22:00Z</time>
      </trkpt>
      <trkpt lat="45.31611" lon="1.43102">
        <ele>382</ele>
        <time>2011-07-15T15:22:03Z</time>
      </trkpt>
      <trkpt lat="45.31606" lon="1.43104">
        <ele>377</ele>
        <time>2011-07-15T15:22:07Z</time>
      </trkpt>
      <trkpt lat="45.31602" lon="1.43106">
        <ele>381</ele>
        <time>2011-07-15T15:22:13Z</time>
      </trkpt>
      <trkpt lat="45.31596" lon="1.43108">
        <ele>381</ele>
        <time>2011-07-15T15:22:18Z</time>
      </trkpt>
      <trkpt lat="45.31591" lon="1.4311">
        <ele>384</ele>
        <time>2011-07-15T15:22:24Z</time>
      </trkpt>
      <trkpt lat="45.31587" lon="1.43113">
        <ele>386</ele>
        <time>2011-07-15T15:22:29Z</time>
      </trkpt>
      <trkpt lat="45.31583" lon="1.43117">
        <ele>386</ele>
        <time>2011-07-15T15:22:33Z</time>
      </trkpt>
      <trkpt lat="45.3158" lon="1.43123">
        <ele>389</ele>
        <time>2011-07-15T15:22:38Z</time>
      </trkpt>
      <trkpt lat="45.31577" lon="1.43129">
        <ele>389</ele>
        <time>2011-07-15T15:22:41Z</time>
      </trkpt>
      <trkpt lat="45.31576" lon="1.43135">
        <ele>386</ele>
        <time>2011-07-15T15:22:45Z</time>
      </trkpt>
      <trkpt lat="45.3157" lon="1.43137">
        <ele>382</ele>
        <time>2011-07-15T15:22:50Z</time>
      </trkpt>
      <trkpt lat="45.31565" lon="1.43137">
        <ele>388</ele>
        <time>2011-07-15T15:22:53Z</time>
      </trkpt>
      <trkpt lat="45.3156" lon="1.43138">
        <ele>390</ele>
        <time>2011-07-15T15:22:55Z</time>
      </trkpt>
      <trkpt lat="45.31556" lon="1.43142">
        <ele>391</ele>
        <time>2011-07-15T15:23:01Z</time>
      </trkpt>
      <trkpt lat="45.31552" lon="1.43148">
        <ele>390</ele>
        <time>2011-07-15T15:23:06Z</time>
      </trkpt>
      <trkpt lat="45.31548" lon="1.43151">
        <ele>389</ele>
        <time>2011-07-15T15:23:14Z</time>
      </trkpt>
      <trkpt lat="45.31543" lon="1.43148">
        <ele>389</ele>
        <time>2011-07-15T15:23:22Z</time>
      </trkpt>
      <trkpt lat="45.3154" lon="1.43145">
        <ele>393</ele>
        <time>2011-07-15T15:23:29Z</time>
      </trkpt>
      <trkpt lat="45.31536" lon="1.43142">
        <ele>395</ele>
        <time>2011-07-15T15:23:38Z</time>
      </trkpt>
      <trkpt lat="45.31532" lon="1.43146">
        <ele>401</ele>
        <time>2011-07-15T15:23:48Z</time>
      </trkpt>
      <trkpt lat="45.31537" lon="1.4315">
        <ele>398</ele>
        <time>2011-07-15T15:24:14Z</time>
      </trkpt>
      <trkpt lat="45.31542" lon="1.43148">
        <ele>396</ele>
        <time>2011-07-15T15:24:16Z</time>
      </trkpt>
      <trkpt lat="45.31546" lon="1.43149">
        <ele>399</ele>
        <time>2011-07-15T15:24:23Z</time>
      </trkpt>
      <trkpt lat="45.31548" lon="1.43155">
        <ele>384</ele>
        <time>2011-07-15T15:24:58Z</time>
      </trkpt>
      <trkpt lat="45.31553" lon="1.43158">
        <ele>387</ele>
        <time>2011-07-15T15:25:02Z</time>
      </trkpt>
      <trkpt lat="45.31546" lon="1.43163">
        <ele>374</ele>
        <time>2011-07-15T15:25:11Z</time>
      </trkpt>
      <trkpt lat="45.3154" lon="1.43163">
        <ele>373</ele>
        <time>2011-07-15T15:25:13Z</time>
      </trkpt>
      <trkpt lat="45.31535" lon="1.43162">
        <ele>376</ele>
        <time>2011-07-15T15:25:17Z</time>
      </trkpt>
      <trkpt lat="45.3153" lon="1.43161">
        <ele>377</ele>
        <time>2011-07-15T15:25:22Z</time>
      </trkpt>
      <trkpt lat="45.31525" lon="1.4316">
        <ele>379</ele>
        <time>2011-07-15T15:25:26Z</time>
      </trkpt>
      <trkpt lat="45.3152" lon="1.43158">
        <ele>386</ele>
        <time>2011-07-15T15:25:29Z</time>
      </trkpt>
      <trkpt lat="45.31515" lon="1.43157">
        <ele>390</ele>
        <time>2011-07-15T15:25:33Z</time>
      </trkpt>
      <trkpt lat="45.31509" lon="1.43157">
        <ele>392</ele>
        <time>2011-07-15T15:25:37Z</time>
      </trkpt>
      <trkpt lat="45.31504" lon="1.43154">
        <ele>392</ele>
        <time>2011-07-15T15:25:41Z</time>
      </trkpt>
      <trkpt lat="45.315" lon="1.43153">
        <ele>393</ele>
        <time>2011-07-15T15:25:45Z</time>
      </trkpt>
      <trkpt lat="45.31494" lon="1.43155">
        <ele>393</ele>
        <time>2011-07-15T15:25:49Z</time>
      </trkpt>
      <trkpt lat="45.31488" lon="1.43158">
        <ele>390</ele>
        <time>2011-07-15T15:25:53Z</time>
      </trkpt>
      <trkpt lat="45.31484" lon="1.43159">
        <ele>397</ele>
        <time>2011-07-15T15:25:56Z</time>
      </trkpt>
      <trkpt lat="45.31478" lon="1.4316">
        <ele>392</ele>
        <time>2011-07-15T15:26:02Z</time>
      </trkpt>
      <trkpt lat="45.31473" lon="1.43163">
        <ele>395</ele>
        <time>2011-07-15T15:26:07Z</time>
      </trkpt>
      <trkpt lat="45.31468" lon="1.43166">
        <ele>395</ele>
        <time>2011-07-15T15:26:10Z</time>
      </trkpt>
      <trkpt lat="45.31462" lon="1.43169">
        <ele>394</ele>
        <time>2011-07-15T15:26:14Z</time>
      </trkpt>
      <trkpt lat="45.31457" lon="1.43173">
        <ele>391</ele>
        <time>2011-07-15T15:26:18Z</time>
      </trkpt>
      <trkpt lat="45.31453" lon="1.43176">
        <ele>390</ele>
        <time>2011-07-15T15:26:23Z</time>
      </trkpt>
      <trkpt lat="45.31448" lon="1.43176">
        <ele>384</ele>
        <time>2011-07-15T15:26:27Z</time>
      </trkpt>
      <trkpt lat="45.31443" lon="1.43177">
        <ele>388</ele>
        <time>2011-07-15T15:26:30Z</time>
      </trkpt>
      <trkpt lat="45.31438" lon="1.43176">
        <ele>389</ele>
        <time>2011-07-15T15:26:33Z</time>
      </trkpt>
      <trkpt lat="45.31432" lon="1.43178">
        <ele>392</ele>
        <time>2011-07-15T15:26:36Z</time>
      </trkpt>
      <trkpt lat="45.31427" lon="1.43179">
        <ele>391</ele>
        <time>2011-07-15T15:26:39Z</time>
      </trkpt>
      <trkpt lat="45.31422" lon="1.4318">
        <ele>389</ele>
        <time>2011-07-15T15:26:42Z</time>
      </trkpt>
      <trkpt lat="45.31417" lon="1.43182">
        <ele>392</ele>
        <time>2011-07-15T15:26:44Z</time>
      </trkpt>
      <trkpt lat="45.3141" lon="1.43184">
        <ele>391</ele>
        <time>2011-07-15T15:26:47Z</time>
      </trkpt>
      <trkpt lat="45.31406" lon="1.43186">
        <ele>386</ele>
        <time>2011-07-15T15:26:49Z</time>
      </trkpt>
      <trkpt lat="45.314" lon="1.43188">
        <ele>387</ele>
        <time>2011-07-15T15:26:51Z</time>
      </trkpt>
      <trkpt lat="45.31394" lon="1.43192">
        <ele>385</ele>
        <time>2011-07-15T15:26:53Z</time>
      </trkpt>
      <trkpt lat="45.31389" lon="1.43198">
        <ele>390</ele>
        <time>2011-07-15T15:26:56Z</time>
      </trkpt>
      <trkpt lat="45.31384" lon="1.43202">
        <ele>383</ele>
        <time>2011-07-15T15:26:59Z</time>
      </trkpt>
      <trkpt lat="45.31378" lon="1.43206">
        <ele>387</ele>
        <time>2011-07-15T15:27:02Z</time>
      </trkpt>
      <trkpt lat="45.31373" lon="1.43208">
        <ele>395</ele>
        <time>2011-07-15T15:27:05Z</time>
      </trkpt>
      <trkpt lat="45.31369" lon="1.43211">
        <ele>396</ele>
        <time>2011-07-15T15:27:08Z</time>
      </trkpt>
      <trkpt lat="45.31365" lon="1.43215">
        <ele>400</ele>
        <time>2011-07-15T15:27:11Z</time>
      </trkpt>
      <trkpt lat="45.31361" lon="1.4322">
        <ele>399</ele>
        <time>2011-07-15T15:27:18Z</time>
      </trkpt>
      <trkpt lat="45.31354" lon="1.43221">
        <ele>396</ele>
        <time>2011-07-15T15:27:23Z</time>
      </trkpt>
      <trkpt lat="45.31348" lon="1.43224">
        <ele>397</ele>
        <time>2011-07-15T15:27:26Z</time>
      </trkpt>
      <trkpt lat="45.31342" lon="1.43228">
        <ele>391</ele>
        <time>2011-07-15T15:27:28Z</time>
      </trkpt>
      <trkpt lat="45.31337" lon="1.43233">
        <ele>390</ele>
        <time>2011-07-15T15:27:30Z</time>
      </trkpt>
      <trkpt lat="45.31334" lon="1.43238">
        <ele>395</ele>
        <time>2011-07-15T15:27:32Z</time>
      </trkpt>
      <trkpt lat="45.3133" lon="1.43243">
        <ele>396</ele>
        <time>2011-07-15T15:27:34Z</time>
      </trkpt>
      <trkpt lat="45.31326" lon="1.43249">
        <ele>398</ele>
        <time>2011-07-15T15:27:37Z</time>
      </trkpt>
      <trkpt lat="45.31322" lon="1.43255">
        <ele>397</ele>
        <time>2011-07-15T15:27:41Z</time>
      </trkpt>
      <trkpt lat="45.31318" lon="1.43262">
        <ele>400</ele>
        <time>2011-07-15T15:27:44Z</time>
      </trkpt>
      <trkpt lat="45.31313" lon="1.43267">
        <ele>398</ele>
        <time>2011-07-15T15:27:47Z</time>
      </trkpt>
      <trkpt lat="45.31309" lon="1.43272">
        <ele>399</ele>
        <time>2011-07-15T15:27:51Z</time>
      </trkpt>
      <trkpt lat="45.31305" lon="1.43277">
        <ele>396</ele>
        <time>2011-07-15T15:27:55Z</time>
      </trkpt>
      <trkpt lat="45.313" lon="1.4328">
        <ele>401</ele>
        <time>2011-07-15T15:27:58Z</time>
      </trkpt>
      <trkpt lat="45.31295" lon="1.4328">
        <ele>400</ele>
        <time>2011-07-15T15:28:01Z</time>
      </trkpt>
      <trkpt lat="45.31291" lon="1.4328">
        <ele>404</ele>
        <time>2011-07-15T15:28:04Z</time>
      </trkpt>
      <trkpt lat="45.31285" lon="1.43279">
        <ele>404</ele>
        <time>2011-07-15T15:28:07Z</time>
      </trkpt>
      <trkpt lat="45.3128" lon="1.43279">
        <ele>405</ele>
        <time>2011-07-15T15:28:10Z</time>
      </trkpt>
      <trkpt lat="45.31274" lon="1.4328">
        <ele>398</ele>
        <time>2011-07-15T15:28:13Z</time>
      </trkpt>
      <trkpt lat="45.31268" lon="1.43279">
        <ele>401</ele>
        <time>2011-07-15T15:28:16Z</time>
      </trkpt>
      <trkpt lat="45.31264" lon="1.43275">
        <ele>397</ele>
        <time>2011-07-15T15:28:19Z</time>
      </trkpt>
      <trkpt lat="45.31258" lon="1.43276">
        <ele>398</ele>
        <time>2011-07-15T15:28:25Z</time>
      </trkpt>
      <trkpt lat="45.31253" lon="1.43275">
        <ele>401</ele>
        <time>2011-07-15T15:28:30Z</time>
      </trkpt>
      <trkpt lat="45.31249" lon="1.43281">
        <ele>397</ele>
        <time>2011-07-15T15:28:36Z</time>
      </trkpt>
      <trkpt lat="45.31244" lon="1.43281">
        <ele>397</ele>
        <time>2011-07-15T15:28:41Z</time>
      </trkpt>
      <trkpt lat="45.31239" lon="1.43281">
        <ele>397</ele>
        <time>2011-07-15T15:28:44Z</time>
      </trkpt>
      <trkpt lat="45.31234" lon="1.43282">
        <ele>399</ele>
        <time>2011-07-15T15:28:48Z</time>
      </trkpt>
      <trkpt lat="45.31229" lon="1.43282">
        <ele>398</ele>
        <time>2011-07-15T15:28:52Z</time>
      </trkpt>
      <trkpt lat="45.31224" lon="1.43281">
        <ele>399</ele>
        <time>2011-07-15T15:28:55Z</time>
      </trkpt>
      <trkpt lat="45.31219" lon="1.4328">
        <ele>399</ele>
        <time>2011-07-15T15:28:58Z</time>
      </trkpt>
      <trkpt lat="45.31214" lon="1.43282">
        <ele>399</ele>
        <time>2011-07-15T15:29:02Z</time>
      </trkpt>
      <trkpt lat="45.3121" lon="1.43284">
        <ele>401</ele>
        <time>2011-07-15T15:29:06Z</time>
      </trkpt>
      <trkpt lat="45.31205" lon="1.43284">
        <ele>404</ele>
        <time>2011-07-15T15:29:10Z</time>
      </trkpt>
      <trkpt lat="45.312" lon="1.43285">
        <ele>402</ele>
        <time>2011-07-15T15:29:13Z</time>
      </trkpt>
      <trkpt lat="45.31195" lon="1.43286">
        <ele>403</ele>
        <time>2011-07-15T15:29:17Z</time>
      </trkpt>
      <trkpt lat="45.31189" lon="1.43286">
        <ele>402</ele>
        <time>2011-07-15T15:29:21Z</time>
      </trkpt>
      <trkpt lat="45.31185" lon="1.43287">
        <ele>403</ele>
        <time>2011-07-15T15:29:23Z</time>
      </trkpt>
      <trkpt lat="45.31178" lon="1.43287">
        <ele>400</ele>
        <time>2011-07-15T15:29:26Z</time>
      </trkpt>
      <trkpt lat="45.31173" lon="1.43287">
        <ele>399</ele>
        <time>2011-07-15T15:29:29Z</time>
      </trkpt>
      <trkpt lat="45.31168" lon="1.43288">
        <ele>399</ele>
        <time>2011-07-15T15:29:32Z</time>
      </trkpt>
      <trkpt lat="45.31163" lon="1.43292">
        <ele>400</ele>
        <time>2011-07-15T15:29:36Z</time>
      </trkpt>
      <trkpt lat="45.31159" lon="1.43296">
        <ele>401</ele>
        <time>2011-07-15T15:29:39Z</time>
      </trkpt>
      <trkpt lat="45.31155" lon="1.433">
        <ele>397</ele>
        <time>2011-07-15T15:29:42Z</time>
      </trkpt>
      <trkpt lat="45.3116" lon="1.43303">
        <ele>401</ele>
        <time>2011-07-15T15:29:50Z</time>
      </trkpt>
      <trkpt lat="45.31166" lon="1.43304">
        <ele>398</ele>
        <time>2011-07-15T15:29:54Z</time>
      </trkpt>
      <trkpt lat="45.3117" lon="1.43306">
        <ele>399</ele>
        <time>2011-07-15T15:29:57Z</time>
      </trkpt>
      <trkpt lat="45.31175" lon="1.43308">
        <ele>404</ele>
        <time>2011-07-15T15:30:01Z</time>
      </trkpt>
      <trkpt lat="45.3118" lon="1.43311">
        <ele>399</ele>
        <time>2011-07-15T15:30:05Z</time>
      </trkpt>
      <trkpt lat="45.31185" lon="1.43314">
        <ele>402</ele>
        <time>2011-07-15T15:30:08Z</time>
      </trkpt>
      <trkpt lat="45.3119" lon="1.43316">
        <ele>402</ele>
        <time>2011-07-15T15:30:11Z</time>
      </trkpt>
      <trkpt lat="45.31195" lon="1.43315">
        <ele>403</ele>
        <time>2011-07-15T15:30:15Z</time>
      </trkpt>
      <trkpt lat="45.312" lon="1.43317">
        <ele>405</ele>
        <time>2011-07-15T15:30:17Z</time>
      </trkpt>
      <trkpt lat="45.31205" lon="1.43318">
        <ele>403</ele>
        <time>2011-07-15T15:30:20Z</time>
      </trkpt>
      <trkpt lat="45.3121" lon="1.4332">
        <ele>400</ele>
        <time>2011-07-15T15:30:24Z</time>
      </trkpt>
      <trkpt lat="45.31215" lon="1.43324">
        <ele>405</ele>
        <time>2011-07-15T15:30:26Z</time>
      </trkpt>
      <trkpt lat="45.31211" lon="1.43328">
        <ele>410</ele>
        <time>2011-07-15T15:30:37Z</time>
      </trkpt>
      <trkpt lat="45.31207" lon="1.43332">
        <ele>407</ele>
        <time>2011-07-15T15:30:52Z</time>
      </trkpt>
      <trkpt lat="45.31204" lon="1.43336">
        <ele>407</ele>
        <time>2011-07-15T15:30:58Z</time>
      </trkpt>
      <trkpt lat="45.31199" lon="1.43337">
        <ele>407</ele>
        <time>2011-07-15T15:31:05Z</time>
      </trkpt>
      <trkpt lat="45.31194" lon="1.43336">
        <ele>406</ele>
        <time>2011-07-15T15:31:11Z</time>
      </trkpt>
      <trkpt lat="45.31188" lon="1.43339">
        <ele>407</ele>
        <time>2011-07-15T15:31:16Z</time>
      </trkpt>
      <trkpt lat="45.31183" lon="1.43342">
        <ele>402</ele>
        <time>2011-07-15T15:31:20Z</time>
      </trkpt>
      <trkpt lat="45.31179" lon="1.43345">
        <ele>401</ele>
        <time>2011-07-15T15:31:22Z</time>
      </trkpt>
      <trkpt lat="45.31175" lon="1.43348">
        <ele>401</ele>
        <time>2011-07-15T15:31:24Z</time>
      </trkpt>
      <trkpt lat="45.3117" lon="1.43352">
        <ele>403</ele>
        <time>2011-07-15T15:31:26Z</time>
      </trkpt>
      <trkpt lat="45.31166" lon="1.43355">
        <ele>405</ele>
        <time>2011-07-15T15:31:28Z</time>
      </trkpt>
      <trkpt lat="45.3116" lon="1.43359">
        <ele>403</ele>
        <time>2011-07-15T15:31:30Z</time>
      </trkpt>
      <trkpt lat="45.31155" lon="1.43362">
        <ele>405</ele>
        <time>2011-07-15T15:31:32Z</time>
      </trkpt>
      <trkpt lat="45.3115" lon="1.43364">
        <ele>404</ele>
        <time>2011-07-15T15:31:35Z</time>
      </trkpt>
      <trkpt lat="45.31144" lon="1.43367">
        <ele>407</ele>
        <time>2011-07-15T15:31:37Z</time>
      </trkpt>
      <trkpt lat="45.31139" lon="1.4337">
        <ele>409</ele>
        <time>2011-07-15T15:31:39Z</time>
      </trkpt>
      <trkpt lat="45.31134" lon="1.43373">
        <ele>409</ele>
        <time>2011-07-15T15:31:42Z</time>
      </trkpt>
      <trkpt lat="45.31129" lon="1.43377">
        <ele>404</ele>
        <time>2011-07-15T15:31:45Z</time>
      </trkpt>
      <trkpt lat="45.31125" lon="1.43379">
        <ele>404</ele>
        <time>2011-07-15T15:31:49Z</time>
      </trkpt>
      <trkpt lat="45.31119" lon="1.43382">
        <ele>403</ele>
        <time>2011-07-15T15:31:51Z</time>
      </trkpt>
      <trkpt lat="45.31114" lon="1.43386">
        <ele>401</ele>
        <time>2011-07-15T15:31:54Z</time>
      </trkpt>
      <trkpt lat="45.3111" lon="1.4339">
        <ele>398</ele>
        <time>2011-07-15T15:31:57Z</time>
      </trkpt>
      <trkpt lat="45.31105" lon="1.43394">
        <ele>400</ele>
        <time>2011-07-15T15:32:01Z</time>
      </trkpt>
      <trkpt lat="45.31099" lon="1.43397">
        <ele>397</ele>
        <time>2011-07-15T15:32:04Z</time>
      </trkpt>
      <trkpt lat="45.31093" lon="1.434">
        <ele>397</ele>
        <time>2011-07-15T15:32:07Z</time>
      </trkpt>
      <trkpt lat="45.31089" lon="1.43403">
        <ele>395</ele>
        <time>2011-07-15T15:32:09Z</time>
      </trkpt>
      <trkpt lat="45.31084" lon="1.43406">
        <ele>396</ele>
        <time>2011-07-15T15:32:11Z</time>
      </trkpt>
      <trkpt lat="45.3108" lon="1.43411">
        <ele>395</ele>
        <time>2011-07-15T15:32:14Z</time>
      </trkpt>
      <trkpt lat="45.31075" lon="1.43418">
        <ele>398</ele>
        <time>2011-07-15T15:32:16Z</time>
      </trkpt>
      <trkpt lat="45.31072" lon="1.43424">
        <ele>400</ele>
        <time>2011-07-15T15:32:18Z</time>
      </trkpt>
      <trkpt lat="45.31068" lon="1.43432">
        <ele>399</ele>
        <time>2011-07-15T15:32:21Z</time>
      </trkpt>
      <trkpt lat="45.31063" lon="1.43439">
        <ele>399</ele>
        <time>2011-07-15T15:32:23Z</time>
      </trkpt>
      <trkpt lat="45.3106" lon="1.43445">
        <ele>397</ele>
        <time>2011-07-15T15:32:25Z</time>
      </trkpt>
      <trkpt lat="45.31053" lon="1.43445">
        <ele>399</ele>
        <time>2011-07-15T15:32:28Z</time>
      </trkpt>
      <trkpt lat="45.31049" lon="1.43442">
        <ele>399</ele>
        <time>2011-07-15T15:32:30Z</time>
      </trkpt>
      <trkpt lat="45.31044" lon="1.43437">
        <ele>398</ele>
        <time>2011-07-15T15:32:32Z</time>
      </trkpt>
      <trkpt lat="45.3104" lon="1.43431">
        <ele>397</ele>
        <time>2011-07-15T15:32:34Z</time>
      </trkpt>
      <trkpt lat="45.31037" lon="1.43424">
        <ele>394</ele>
        <time>2011-07-15T15:32:36Z</time>
      </trkpt>
      <trkpt lat="45.31035" lon="1.43419">
        <ele>397</ele>
        <time>2011-07-15T15:32:38Z</time>
      </trkpt>
      <trkpt lat="45.31031" lon="1.43413">
        <ele>396</ele>
        <time>2011-07-15T15:32:41Z</time>
      </trkpt>
      <trkpt lat="45.31028" lon="1.43407">
        <ele>400</ele>
        <time>2011-07-15T15:32:44Z</time>
      </trkpt>
      <trkpt lat="45.31025" lon="1.43401">
        <ele>403</ele>
        <time>2011-07-15T15:32:47Z</time>
      </trkpt>
      <trkpt lat="45.31021" lon="1.43396">
        <ele>400</ele>
        <time>2011-07-15T15:32:50Z</time>
      </trkpt>
      <trkpt lat="45.31016" lon="1.43395">
        <ele>401</ele>
        <time>2011-07-15T15:32:51Z</time>
      </trkpt>
      <trkpt lat="45.3101" lon="1.43395">
        <ele>397</ele>
        <time>2011-07-15T15:32:52Z</time>
      </trkpt>
      <trkpt lat="45.31005" lon="1.43394">
        <ele>396</ele>
        <time>2011-07-15T15:32:53Z</time>
      </trkpt>
      <trkpt lat="45.31" lon="1.43394">
        <ele>398</ele>
        <time>2011-07-15T15:32:54Z</time>
      </trkpt>
      <trkpt lat="45.30995" lon="1.43394">
        <ele>397</ele>
        <time>2011-07-15T15:32:55Z</time>
      </trkpt>
      <trkpt lat="45.30989" lon="1.43391">
        <ele>401</ele>
        <time>2011-07-15T15:32:57Z</time>
      </trkpt>
      <trkpt lat="45.30982" lon="1.43389">
        <ele>403</ele>
        <time>2011-07-15T15:32:59Z</time>
      </trkpt>
      <trkpt lat="45.30974" lon="1.43386">
        <ele>400</ele>
        <time>2011-07-15T15:33:01Z</time>
      </trkpt>
      <trkpt lat="45.3097" lon="1.43383">
        <ele>405</ele>
        <time>2011-07-15T15:33:02Z</time>
      </trkpt>
      <trkpt lat="45.3096" lon="1.43375">
        <ele>394</ele>
        <time>2011-07-15T15:33:04Z</time>
      </trkpt>
      <trkpt lat="45.30954" lon="1.4337">
        <ele>388</ele>
        <time>2011-07-15T15:33:05Z</time>
      </trkpt>
      <trkpt lat="45.30948" lon="1.43366">
        <ele>390</ele>
        <time>2011-07-15T15:33:06Z</time>
      </trkpt>
      <trkpt lat="45.30943" lon="1.43362">
        <ele>388</ele>
        <time>2011-07-15T15:33:07Z</time>
      </trkpt>
      <trkpt lat="45.30938" lon="1.43358">
        <ele>390</ele>
        <time>2011-07-15T15:33:08Z</time>
      </trkpt>
      <trkpt lat="45.30931" lon="1.43352">
        <ele>391</ele>
        <time>2011-07-15T15:33:10Z</time>
      </trkpt>
      <trkpt lat="45.30922" lon="1.4335">
        <ele>393</ele>
        <time>2011-07-15T15:33:12Z</time>
      </trkpt>
      <trkpt lat="45.30914" lon="1.43351">
        <ele>395</ele>
        <time>2011-07-15T15:33:14Z</time>
      </trkpt>
      <trkpt lat="45.30905" lon="1.43353">
        <ele>398</ele>
        <time>2011-07-15T15:33:16Z</time>
      </trkpt>
      <trkpt lat="45.30899" lon="1.43357">
        <ele>406</ele>
        <time>2011-07-15T15:33:18Z</time>
      </trkpt>
      <trkpt lat="45.30894" lon="1.43361">
        <ele>405</ele>
        <time>2011-07-15T15:33:20Z</time>
      </trkpt>
      <trkpt lat="45.30889" lon="1.43364">
        <ele>402</ele>
        <time>2011-07-15T15:33:22Z</time>
      </trkpt>
      <trkpt lat="45.30884" lon="1.43366">
        <ele>400</ele>
        <time>2011-07-15T15:33:24Z</time>
      </trkpt>
      <trkpt lat="45.3088" lon="1.43368">
        <ele>401</ele>
        <time>2011-07-15T15:33:26Z</time>
      </trkpt>
      <trkpt lat="45.30874" lon="1.43371">
        <ele>401</ele>
        <time>2011-07-15T15:33:29Z</time>
      </trkpt>
      <trkpt lat="45.30867" lon="1.43372">
        <ele>402</ele>
        <time>2011-07-15T15:33:32Z</time>
      </trkpt>
      <trkpt lat="45.30862" lon="1.43374">
        <ele>402</ele>
        <time>2011-07-15T15:33:34Z</time>
      </trkpt>
      <trkpt lat="45.30855" lon="1.43376">
        <ele>403</ele>
        <time>2011-07-15T15:33:36Z</time>
      </trkpt>
      <trkpt lat="45.3085" lon="1.43377">
        <ele>403</ele>
        <time>2011-07-15T15:33:38Z</time>
      </trkpt>
      <trkpt lat="45.30845" lon="1.43378">
        <ele>406</ele>
        <time>2011-07-15T15:33:41Z</time>
      </trkpt>
      <trkpt lat="45.3084" lon="1.4338">
        <ele>404</ele>
        <time>2011-07-15T15:33:45Z</time>
      </trkpt>
      <trkpt lat="45.30835" lon="1.43381">
        <ele>407</ele>
        <time>2011-07-15T15:33:49Z</time>
      </trkpt>
      <trkpt lat="45.30829" lon="1.43382">
        <ele>406</ele>
        <time>2011-07-15T15:33:52Z</time>
      </trkpt>
      <trkpt lat="45.30824" lon="1.43383">
        <ele>408</ele>
        <time>2011-07-15T15:33:55Z</time>
      </trkpt>
      <trkpt lat="45.30818" lon="1.43386">
        <ele>409</ele>
        <time>2011-07-15T15:33:58Z</time>
      </trkpt>
      <trkpt lat="45.30814" lon="1.43394">
        <ele>406</ele>
        <time>2011-07-15T15:34:00Z</time>
      </trkpt>
      <trkpt lat="45.30813" lon="1.43404">
        <ele>408</ele>
        <time>2011-07-15T15:34:02Z</time>
      </trkpt>
      <trkpt lat="45.30815" lon="1.43415">
        <ele>409</ele>
        <time>2011-07-15T15:34:04Z</time>
      </trkpt>
      <trkpt lat="45.30817" lon="1.43426">
        <ele>410</ele>
        <time>2011-07-15T15:34:06Z</time>
      </trkpt>
      <trkpt lat="45.30818" lon="1.43435">
        <ele>410</ele>
        <time>2011-07-15T15:34:08Z</time>
      </trkpt>
      <trkpt lat="45.3082" lon="1.43444">
        <ele>409</ele>
        <time>2011-07-15T15:34:10Z</time>
      </trkpt>
      <trkpt lat="45.30823" lon="1.43452">
        <ele>409</ele>
        <time>2011-07-15T15:34:12Z</time>
      </trkpt>
      <trkpt lat="45.30826" lon="1.43461">
        <ele>410</ele>
        <time>2011-07-15T15:34:14Z</time>
      </trkpt>
      <trkpt lat="45.3083" lon="1.43469">
        <ele>408</ele>
        <time>2011-07-15T15:34:16Z</time>
      </trkpt>
      <trkpt lat="45.30833" lon="1.43476">
        <ele>406</ele>
        <time>2011-07-15T15:34:18Z</time>
      </trkpt>
      <trkpt lat="45.30836" lon="1.43483">
        <ele>401</ele>
        <time>2011-07-15T15:34:21Z</time>
      </trkpt>
      <trkpt lat="45.30839" lon="1.43488">
        <ele>400</ele>
        <time>2011-07-15T15:34:23Z</time>
      </trkpt>
      <trkpt lat="45.30843" lon="1.43493">
        <ele>400</ele>
        <time>2011-07-15T15:34:25Z</time>
      </trkpt>
      <trkpt lat="45.30846" lon="1.43499">
        <ele>401</ele>
        <time>2011-07-15T15:34:27Z</time>
      </trkpt>
      <trkpt lat="45.30851" lon="1.43507">
        <ele>400</ele>
        <time>2011-07-15T15:34:29Z</time>
      </trkpt>
      <trkpt lat="45.30854" lon="1.43514">
        <ele>400</ele>
        <time>2011-07-15T15:34:31Z</time>
      </trkpt>
      <trkpt lat="45.30856" lon="1.43521">
        <ele>400</ele>
        <time>2011-07-15T15:34:33Z</time>
      </trkpt>
      <trkpt lat="45.30861" lon="1.43528">
        <ele>404</ele>
        <time>2011-07-15T15:34:35Z</time>
      </trkpt>
      <trkpt lat="45.30865" lon="1.43534">
        <ele>404</ele>
        <time>2011-07-15T15:34:37Z</time>
      </trkpt>
      <trkpt lat="45.30868" lon="1.43538">
        <ele>406</ele>
        <time>2011-07-15T15:34:39Z</time>
      </trkpt>
      <trkpt lat="45.30873" lon="1.43544">
        <ele>406</ele>
        <time>2011-07-15T15:34:41Z</time>
      </trkpt>
      <trkpt lat="45.30878" lon="1.43552">
        <ele>403</ele>
        <time>2011-07-15T15:34:43Z</time>
      </trkpt>
      <trkpt lat="45.30882" lon="1.43559">
        <ele>405</ele>
        <time>2011-07-15T15:34:45Z</time>
      </trkpt>
      <trkpt lat="45.30886" lon="1.43567">
        <ele>405</ele>
        <time>2011-07-15T15:34:47Z</time>
      </trkpt>
      <trkpt lat="45.30889" lon="1.43573">
        <ele>406</ele>
        <time>2011-07-15T15:34:49Z</time>
      </trkpt>
      <trkpt lat="45.30893" lon="1.43582">
        <ele>410</ele>
        <time>2011-07-15T15:34:51Z</time>
      </trkpt>
      <trkpt lat="45.30897" lon="1.43589">
        <ele>411</ele>
        <time>2011-07-15T15:34:53Z</time>
      </trkpt>
      <trkpt lat="45.30901" lon="1.43595">
        <ele>412</ele>
        <time>2011-07-15T15:34:55Z</time>
      </trkpt>
      <trkpt lat="45.30904" lon="1.43602">
        <ele>412</ele>
        <time>2011-07-15T15:34:57Z</time>
      </trkpt>
      <trkpt lat="45.30906" lon="1.43609">
        <ele>414</ele>
        <time>2011-07-15T15:35:00Z</time>
      </trkpt>
      <trkpt lat="45.30908" lon="1.43615">
        <ele>414</ele>
        <time>2011-07-15T15:35:02Z</time>
      </trkpt>
      <trkpt lat="45.3091" lon="1.43624">
        <ele>414</ele>
        <time>2011-07-15T15:35:05Z</time>
      </trkpt>
      <trkpt lat="45.30912" lon="1.43634">
        <ele>413</ele>
        <time>2011-07-15T15:35:08Z</time>
      </trkpt>
      <trkpt lat="45.30913" lon="1.4364">
        <ele>411</ele>
        <time>2011-07-15T15:35:10Z</time>
      </trkpt>
      <trkpt lat="45.30916" lon="1.43647">
        <ele>411</ele>
        <time>2011-07-15T15:35:12Z</time>
      </trkpt>
      <trkpt lat="45.30918" lon="1.43653">
        <ele>411</ele>
        <time>2011-07-15T15:35:14Z</time>
      </trkpt>
      <trkpt lat="45.3092" lon="1.43659">
        <ele>411</ele>
        <time>2011-07-15T15:35:16Z</time>
      </trkpt>
      <trkpt lat="45.30922" lon="1.43665">
        <ele>411</ele>
        <time>2011-07-15T15:35:18Z</time>
      </trkpt>
      <trkpt lat="45.30924" lon="1.43671">
        <ele>413</ele>
        <time>2011-07-15T15:35:20Z</time>
      </trkpt>
      <trkpt lat="45.30926" lon="1.43677">
        <ele>415</ele>
        <time>2011-07-15T15:35:22Z</time>
      </trkpt>
      <trkpt lat="45.30931" lon="1.43686">
        <ele>418</ele>
        <time>2011-07-15T15:35:24Z</time>
      </trkpt>
      <trkpt lat="45.30934" lon="1.43694">
        <ele>416</ele>
        <time>2011-07-15T15:35:26Z</time>
      </trkpt>
      <trkpt lat="45.30938" lon="1.437">
        <ele>412</ele>
        <time>2011-07-15T15:35:28Z</time>
      </trkpt>
      <trkpt lat="45.30942" lon="1.43707">
        <ele>410</ele>
        <time>2011-07-15T15:35:30Z</time>
      </trkpt>
      <trkpt lat="45.30944" lon="1.43714">
        <ele>410</ele>
        <time>2011-07-15T15:35:32Z</time>
      </trkpt>
      <trkpt lat="45.30947" lon="1.43723">
        <ele>414</ele>
        <time>2011-07-15T15:35:34Z</time>
      </trkpt>
      <trkpt lat="45.30949" lon="1.43732">
        <ele>412</ele>
        <time>2011-07-15T15:35:36Z</time>
      </trkpt>
      <trkpt lat="45.30952" lon="1.4374">
        <ele>411</ele>
        <time>2011-07-15T15:35:38Z</time>
      </trkpt>
      <trkpt lat="45.30956" lon="1.43746">
        <ele>410</ele>
        <time>2011-07-15T15:35:40Z</time>
      </trkpt>
      <trkpt lat="45.30959" lon="1.43753">
        <ele>411</ele>
        <time>2011-07-15T15:35:42Z</time>
      </trkpt>
      <trkpt lat="45.30962" lon="1.43759">
        <ele>413</ele>
        <time>2011-07-15T15:35:44Z</time>
      </trkpt>
      <trkpt lat="45.30966" lon="1.43767">
        <ele>410</ele>
        <time>2011-07-15T15:35:46Z</time>
      </trkpt>
      <trkpt lat="45.30972" lon="1.43776">
        <ele>411</ele>
        <time>2011-07-15T15:35:48Z</time>
      </trkpt>
      <trkpt lat="45.30976" lon="1.43781">
        <ele>411</ele>
        <time>2011-07-15T15:35:50Z</time>
      </trkpt>
      <trkpt lat="45.3098" lon="1.43787">
        <ele>412</ele>
        <time>2011-07-15T15:35:52Z</time>
      </trkpt>
      <trkpt lat="45.30986" lon="1.43793">
        <ele>413</ele>
        <time>2011-07-15T15:35:54Z</time>
      </trkpt>
      <trkpt lat="45.30992" lon="1.438">
        <ele>413</ele>
        <time>2011-07-15T15:35:56Z</time>
      </trkpt>
      <trkpt lat="45.30998" lon="1.43808">
        <ele>416</ele>
        <time>2011-07-15T15:35:58Z</time>
      </trkpt>
      <trkpt lat="45.31003" lon="1.43812">
        <ele>417</ele>
        <time>2011-07-15T15:36:00Z</time>
      </trkpt>
      <trkpt lat="45.31008" lon="1.43816">
        <ele>420</ele>
        <time>2011-07-15T15:36:02Z</time>
      </trkpt>
      <trkpt lat="45.31011" lon="1.4382">
        <ele>419</ele>
        <time>2011-07-15T15:36:04Z</time>
      </trkpt>
      <trkpt lat="45.31016" lon="1.43825">
        <ele>420</ele>
        <time>2011-07-15T15:36:06Z</time>
      </trkpt>
      <trkpt lat="45.31021" lon="1.4383">
        <ele>422</ele>
        <time>2011-07-15T15:36:08Z</time>
      </trkpt>
      <trkpt lat="45.31026" lon="1.43834">
        <ele>421</ele>
        <time>2011-07-15T15:36:10Z</time>
      </trkpt>
      <trkpt lat="45.31032" lon="1.4384">
        <ele>422</ele>
        <time>2011-07-15T15:36:12Z</time>
      </trkpt>
      <trkpt lat="45.31037" lon="1.43845">
        <ele>419</ele>
        <time>2011-07-15T15:36:14Z</time>
      </trkpt>
      <trkpt lat="45.3104" lon="1.4385">
        <ele>421</ele>
        <time>2011-07-15T15:36:16Z</time>
      </trkpt>
      <trkpt lat="45.31045" lon="1.43854">
        <ele>418</ele>
        <time>2011-07-15T15:36:18Z</time>
      </trkpt>
      <trkpt lat="45.3105" lon="1.43859">
        <ele>418</ele>
        <time>2011-07-15T15:36:20Z</time>
      </trkpt>
      <trkpt lat="45.31055" lon="1.43864">
        <ele>415</ele>
        <time>2011-07-15T15:36:22Z</time>
      </trkpt>
      <trkpt lat="45.31059" lon="1.43867">
        <ele>413</ele>
        <time>2011-07-15T15:36:24Z</time>
      </trkpt>
      <trkpt lat="45.31064" lon="1.43867">
        <ele>412</ele>
        <time>2011-07-15T15:36:26Z</time>
      </trkpt>
      <trkpt lat="45.31069" lon="1.43864">
        <ele>419</ele>
        <time>2011-07-15T15:36:28Z</time>
      </trkpt>
      <trkpt lat="45.31071" lon="1.43857">
        <ele>418</ele>
        <time>2011-07-15T15:36:30Z</time>
      </trkpt>
      <trkpt lat="45.31074" lon="1.4385">
        <ele>418</ele>
        <time>2011-07-15T15:36:32Z</time>
      </trkpt>
      <trkpt lat="45.31076" lon="1.43844">
        <ele>420</ele>
        <time>2011-07-15T15:36:34Z</time>
      </trkpt>
      <trkpt lat="45.31078" lon="1.43838">
        <ele>421</ele>
        <time>2011-07-15T15:36:36Z</time>
      </trkpt>
      <trkpt lat="45.3108" lon="1.43828">
        <ele>419</ele>
        <time>2011-07-15T15:36:38Z</time>
      </trkpt>
      <trkpt lat="45.31082" lon="1.43819">
        <ele>421</ele>
        <time>2011-07-15T15:36:40Z</time>
      </trkpt>
      <trkpt lat="45.31083" lon="1.4381">
        <ele>423</ele>
        <time>2011-07-15T15:36:42Z</time>
      </trkpt>
      <trkpt lat="45.31085" lon="1.43802">
        <ele>423</ele>
        <time>2011-07-15T15:36:44Z</time>
      </trkpt>
      <trkpt lat="45.31087" lon="1.43793">
        <ele>423</ele>
        <time>2011-07-15T15:36:46Z</time>
      </trkpt>
      <trkpt lat="45.3109" lon="1.43784">
        <ele>420</ele>
        <time>2011-07-15T15:36:48Z</time>
      </trkpt>
      <trkpt lat="45.31092" lon="1.43774">
        <ele>420</ele>
        <time>2011-07-15T15:36:50Z</time>
      </trkpt>
      <trkpt lat="45.31095" lon="1.43765">
        <ele>420</ele>
        <time>2011-07-15T15:36:52Z</time>
      </trkpt>
      <trkpt lat="45.31098" lon="1.43753">
        <ele>423</ele>
        <time>2011-07-15T15:36:54Z</time>
      </trkpt>
      <trkpt lat="45.31099" lon="1.43747">
        <ele>423</ele>
        <time>2011-07-15T15:36:55Z</time>
      </trkpt>
      <trkpt lat="45.31101" lon="1.4374">
        <ele>422</ele>
        <time>2011-07-15T15:36:56Z</time>
      </trkpt>
      <trkpt lat="45.31103" lon="1.43731">
        <ele>424</ele>
        <time>2011-07-15T15:36:58Z</time>
      </trkpt>
      <trkpt lat="45.31107" lon="1.43719">
        <ele>422</ele>
        <time>2011-07-15T15:37:00Z</time>
      </trkpt>
      <trkpt lat="45.31109" lon="1.43713">
        <ele>421</ele>
        <time>2011-07-15T15:37:01Z</time>
      </trkpt>
      <trkpt lat="45.31112" lon="1.43701">
        <ele>418</ele>
        <time>2011-07-15T15:37:03Z</time>
      </trkpt>
      <trkpt lat="45.31114" lon="1.43695">
        <ele>417</ele>
        <time>2011-07-15T15:37:04Z</time>
      </trkpt>
      <trkpt lat="45.31116" lon="1.43684">
        <ele>421</ele>
        <time>2011-07-15T15:37:06Z</time>
      </trkpt>
      <trkpt lat="45.31119" lon="1.43673">
        <ele>420</ele>
        <time>2011-07-15T15:37:08Z</time>
      </trkpt>
      <trkpt lat="45.31123" lon="1.43662">
        <ele>420</ele>
        <time>2011-07-15T15:37:10Z</time>
      </trkpt>
      <trkpt lat="45.31127" lon="1.43652">
        <ele>421</ele>
        <time>2011-07-15T15:37:12Z</time>
      </trkpt>
      <trkpt lat="45.3113" lon="1.43642">
        <ele>420</ele>
        <time>2011-07-15T15:37:14Z</time>
      </trkpt>
      <trkpt lat="45.31135" lon="1.43632">
        <ele>416</ele>
        <time>2011-07-15T15:37:16Z</time>
      </trkpt>
      <trkpt lat="45.31139" lon="1.43622">
        <ele>419</ele>
        <time>2011-07-15T15:37:18Z</time>
      </trkpt>
      <trkpt lat="45.31142" lon="1.43612">
        <ele>421</ele>
        <time>2011-07-15T15:37:20Z</time>
      </trkpt>
      <trkpt lat="45.31145" lon="1.43603">
        <ele>419</ele>
        <time>2011-07-15T15:37:22Z</time>
      </trkpt>
      <trkpt lat="45.31149" lon="1.43591">
        <ele>421</ele>
        <time>2011-07-15T15:37:24Z</time>
      </trkpt>
      <trkpt lat="45.31151" lon="1.43584">
        <ele>424</ele>
        <time>2011-07-15T15:37:25Z</time>
      </trkpt>
      <trkpt lat="45.31154" lon="1.43572">
        <ele>421</ele>
        <time>2011-07-15T15:37:27Z</time>
      </trkpt>
      <trkpt lat="45.31159" lon="1.43561">
        <ele>422</ele>
        <time>2011-07-15T15:37:29Z</time>
      </trkpt>
      <trkpt lat="45.31163" lon="1.43555">
        <ele>420</ele>
        <time>2011-07-15T15:37:30Z</time>
      </trkpt>
      <trkpt lat="45.31166" lon="1.4355">
        <ele>419</ele>
        <time>2011-07-15T15:37:31Z</time>
      </trkpt>
      <trkpt lat="45.31172" lon="1.43542">
        <ele>419</ele>
        <time>2011-07-15T15:37:33Z</time>
      </trkpt>
      <trkpt lat="45.31176" lon="1.43538">
        <ele>419</ele>
        <time>2011-07-15T15:37:34Z</time>
      </trkpt>
      <trkpt lat="45.3118" lon="1.43534">
        <ele>419</ele>
        <time>2011-07-15T15:37:35Z</time>
      </trkpt>
      <trkpt lat="45.31184" lon="1.43531">
        <ele>420</ele>
        <time>2011-07-15T15:37:36Z</time>
      </trkpt>
      <trkpt lat="45.31192" lon="1.43527">
        <ele>420</ele>
        <time>2011-07-15T15:37:38Z</time>
      </trkpt>
      <trkpt lat="45.312" lon="1.43524">
        <ele>416</ele>
        <time>2011-07-15T15:37:40Z</time>
      </trkpt>
      <trkpt lat="45.31208" lon="1.43523">
        <ele>418</ele>
        <time>2011-07-15T15:37:42Z</time>
      </trkpt>
      <trkpt lat="45.31216" lon="1.43522">
        <ele>417</ele>
        <time>2011-07-15T15:37:44Z</time>
      </trkpt>
      <trkpt lat="45.3122" lon="1.43522">
        <ele>418</ele>
        <time>2011-07-15T15:37:45Z</time>
      </trkpt>
      <trkpt lat="45.31228" lon="1.43522">
        <ele>417</ele>
        <time>2011-07-15T15:37:47Z</time>
      </trkpt>
      <trkpt lat="45.31237" lon="1.43521">
        <ele>419</ele>
        <time>2011-07-15T15:37:49Z</time>
      </trkpt>
      <trkpt lat="45.31245" lon="1.43521">
        <ele>420</ele>
        <time>2011-07-15T15:37:51Z</time>
      </trkpt>
      <trkpt lat="45.31249" lon="1.43521">
        <ele>421</ele>
        <time>2011-07-15T15:37:52Z</time>
      </trkpt>
      <trkpt lat="45.31254" lon="1.43521">
        <ele>422</ele>
        <time>2011-07-15T15:37:53Z</time>
      </trkpt>
      <trkpt lat="45.31263" lon="1.43522">
        <ele>423</ele>
        <time>2011-07-15T15:37:55Z</time>
      </trkpt>
      <trkpt lat="45.31271" lon="1.43525">
        <ele>420</ele>
        <time>2011-07-15T15:37:57Z</time>
      </trkpt>
      <trkpt lat="45.3128" lon="1.43526">
        <ele>419</ele>
        <time>2011-07-15T15:37:59Z</time>
      </trkpt>
      <trkpt lat="45.31288" lon="1.43528">
        <ele>416</ele>
        <time>2011-07-15T15:38:01Z</time>
      </trkpt>
      <trkpt lat="45.31294" lon="1.43529">
        <ele>416</ele>
        <time>2011-07-15T15:38:02Z</time>
      </trkpt>
      <trkpt lat="45.31298" lon="1.43529">
        <ele>416</ele>
        <time>2011-07-15T15:38:03Z</time>
      </trkpt>
      <trkpt lat="45.31307" lon="1.43527">
        <ele>415</ele>
        <time>2011-07-15T15:38:05Z</time>
      </trkpt>
      <trkpt lat="45.31315" lon="1.43521">
        <ele>411</ele>
        <time>2011-07-15T15:38:07Z</time>
      </trkpt>
      <trkpt lat="45.3132" lon="1.43516">
        <ele>412</ele>
        <time>2011-07-15T15:38:09Z</time>
      </trkpt>
      <trkpt lat="45.31326" lon="1.4351">
        <ele>411</ele>
        <time>2011-07-15T15:38:11Z</time>
      </trkpt>
      <trkpt lat="45.31333" lon="1.43505">
        <ele>414</ele>
        <time>2011-07-15T15:38:13Z</time>
      </trkpt>
      <trkpt lat="45.31339" lon="1.43499">
        <ele>415</ele>
        <time>2011-07-15T15:38:15Z</time>
      </trkpt>
      <trkpt lat="45.31343" lon="1.43495">
        <ele>416</ele>
        <time>2011-07-15T15:38:16Z</time>
      </trkpt>
      <trkpt lat="45.31347" lon="1.4349">
        <ele>414</ele>
        <time>2011-07-15T15:38:17Z</time>
      </trkpt>
      <trkpt lat="45.31354" lon="1.43483">
        <ele>415</ele>
        <time>2011-07-15T15:38:19Z</time>
      </trkpt>
      <trkpt lat="45.31359" lon="1.43477">
        <ele>415</ele>
        <time>2011-07-15T15:38:21Z</time>
      </trkpt>
      <trkpt lat="45.31364" lon="1.43472">
        <ele>414</ele>
        <time>2011-07-15T15:38:23Z</time>
      </trkpt>
      <trkpt lat="45.3137" lon="1.43468">
        <ele>410</ele>
        <time>2011-07-15T15:38:25Z</time>
      </trkpt>
      <trkpt lat="45.31375" lon="1.43462">
        <ele>411</ele>
        <time>2011-07-15T15:38:27Z</time>
      </trkpt>
      <trkpt lat="45.31379" lon="1.43457">
        <ele>415</ele>
        <time>2011-07-15T15:38:29Z</time>
      </trkpt>
      <trkpt lat="45.31385" lon="1.43449">
        <ele>409</ele>
        <time>2011-07-15T15:38:31Z</time>
      </trkpt>
      <trkpt lat="45.3139" lon="1.43443">
        <ele>413</ele>
        <time>2011-07-15T15:38:33Z</time>
      </trkpt>
      <trkpt lat="45.31394" lon="1.43436">
        <ele>417</ele>
        <time>2011-07-15T15:38:35Z</time>
      </trkpt>
      <trkpt lat="45.31398" lon="1.43431">
        <ele>416</ele>
        <time>2011-07-15T15:38:37Z</time>
      </trkpt>
      <trkpt lat="45.31403" lon="1.43426">
        <ele>417</ele>
        <time>2011-07-15T15:38:39Z</time>
      </trkpt>
      <trkpt lat="45.31406" lon="1.43421">
        <ele>417</ele>
        <time>2011-07-15T15:38:41Z</time>
      </trkpt>
      <trkpt lat="45.3141" lon="1.43417">
        <ele>417</ele>
        <time>2011-07-15T15:38:43Z</time>
      </trkpt>
      <trkpt lat="45.31414" lon="1.43412">
        <ele>419</ele>
        <time>2011-07-15T15:38:45Z</time>
      </trkpt>
      <trkpt lat="45.31419" lon="1.43406">
        <ele>422</ele>
        <time>2011-07-15T15:38:47Z</time>
      </trkpt>
      <trkpt lat="45.31425" lon="1.43399">
        <ele>417</ele>
        <time>2011-07-15T15:38:49Z</time>
      </trkpt>
      <trkpt lat="45.31429" lon="1.43394">
        <ele>417</ele>
        <time>2011-07-15T15:38:50Z</time>
      </trkpt>
      <trkpt lat="45.31434" lon="1.4339">
        <ele>415</ele>
        <time>2011-07-15T15:38:51Z</time>
      </trkpt>
      <trkpt lat="45.31439" lon="1.43386">
        <ele>417</ele>
        <time>2011-07-15T15:38:52Z</time>
      </trkpt>
      <trkpt lat="45.31445" lon="1.4338">
        <ele>421</ele>
        <time>2011-07-15T15:38:54Z</time>
      </trkpt>
      <trkpt lat="45.31452" lon="1.43371">
        <ele>429</ele>
        <time>2011-07-15T15:38:56Z</time>
      </trkpt>
      <trkpt lat="45.31456" lon="1.43361">
        <ele>428</ele>
        <time>2011-07-15T15:38:58Z</time>
      </trkpt>
      <trkpt lat="45.3146" lon="1.43351">
        <ele>428</ele>
        <time>2011-07-15T15:39:00Z</time>
      </trkpt>
      <trkpt lat="45.31464" lon="1.43342">
        <ele>430</ele>
        <time>2011-07-15T15:39:02Z</time>
      </trkpt>
      <trkpt lat="45.31469" lon="1.43333">
        <ele>428</ele>
        <time>2011-07-15T15:39:04Z</time>
      </trkpt>
      <trkpt lat="45.31472" lon="1.43324">
        <ele>424</ele>
        <time>2011-07-15T15:39:06Z</time>
      </trkpt>
      <trkpt lat="45.31476" lon="1.4332">
        <ele>423</ele>
        <time>2011-07-15T15:39:07Z</time>
      </trkpt>
      <trkpt lat="45.31481" lon="1.43315">
        <ele>419</ele>
        <time>2011-07-15T15:39:08Z</time>
      </trkpt>
      <trkpt lat="45.31486" lon="1.43309">
        <ele>422</ele>
        <time>2011-07-15T15:39:10Z</time>
      </trkpt>
      <trkpt lat="45.31493" lon="1.43308">
        <ele>420</ele>
        <time>2011-07-15T15:39:12Z</time>
      </trkpt>
      <trkpt lat="45.31498" lon="1.43308">
        <ele>419</ele>
        <time>2011-07-15T15:39:13Z</time>
      </trkpt>
      <trkpt lat="45.31506" lon="1.43309">
        <ele>417</ele>
        <time>2011-07-15T15:39:15Z</time>
      </trkpt>
      <trkpt lat="45.31512" lon="1.4331">
        <ele>419</ele>
        <time>2011-07-15T15:39:17Z</time>
      </trkpt>
      <trkpt lat="45.31518" lon="1.43311">
        <ele>419</ele>
        <time>2011-07-15T15:39:19Z</time>
      </trkpt>
      <trkpt lat="45.31524" lon="1.43313">
        <ele>422</ele>
        <time>2011-07-15T15:39:21Z</time>
      </trkpt>
      <trkpt lat="45.3153" lon="1.43315">
        <ele>420</ele>
        <time>2011-07-15T15:39:23Z</time>
      </trkpt>
      <trkpt lat="45.31536" lon="1.43317">
        <ele>420</ele>
        <time>2011-07-15T15:39:25Z</time>
      </trkpt>
      <trkpt lat="45.31543" lon="1.43319">
        <ele>423</ele>
        <time>2011-07-15T15:39:27Z</time>
      </trkpt>
      <trkpt lat="45.31549" lon="1.43321">
        <ele>419</ele>
        <time>2011-07-15T15:39:29Z</time>
      </trkpt>
      <trkpt lat="45.31557" lon="1.43322">
        <ele>419</ele>
        <time>2011-07-15T15:39:31Z</time>
      </trkpt>
      <trkpt lat="45.31565" lon="1.43325">
        <ele>420</ele>
        <time>2011-07-15T15:39:33Z</time>
      </trkpt>
      <trkpt lat="45.31574" lon="1.43325">
        <ele>411</ele>
        <time>2011-07-15T15:39:35Z</time>
      </trkpt>
      <trkpt lat="45.31579" lon="1.43326">
        <ele>402</ele>
        <time>2011-07-15T15:39:36Z</time>
      </trkpt>
      <trkpt lat="45.31586" lon="1.43329">
        <ele>399</ele>
        <time>2011-07-15T15:39:37Z</time>
      </trkpt>
      <trkpt lat="45.31591" lon="1.43331">
        <ele>392</ele>
        <time>2011-07-15T15:39:38Z</time>
      </trkpt>
      <trkpt lat="45.31596" lon="1.43333">
        <ele>389</ele>
        <time>2011-07-15T15:39:39Z</time>
      </trkpt>
      <trkpt lat="45.31601" lon="1.43336">
        <ele>388</ele>
        <time>2011-07-15T15:39:40Z</time>
      </trkpt>
      <trkpt lat="45.31607" lon="1.43339">
        <ele>384</ele>
        <time>2011-07-15T15:39:41Z</time>
      </trkpt>
      <trkpt lat="45.31611" lon="1.43343">
        <ele>384</ele>
        <time>2011-07-15T15:39:42Z</time>
      </trkpt>
      <trkpt lat="45.31619" lon="1.4335">
        <ele>382</ele>
        <time>2011-07-15T15:39:44Z</time>
      </trkpt>
      <trkpt lat="45.31623" lon="1.43356">
        <ele>384</ele>
        <time>2011-07-15T15:39:45Z</time>
      </trkpt>
      <trkpt lat="45.31628" lon="1.43361">
        <ele>383</ele>
        <time>2011-07-15T15:39:46Z</time>
      </trkpt>
      <trkpt lat="45.31632" lon="1.4337">
        <ele>387</ele>
        <time>2011-07-15T15:39:47Z</time>
      </trkpt>
      <trkpt lat="45.31634" lon="1.43379">
        <ele>389</ele>
        <time>2011-07-15T15:39:48Z</time>
      </trkpt>
      <trkpt lat="45.31636" lon="1.43387">
        <ele>391</ele>
        <time>2011-07-15T15:39:49Z</time>
      </trkpt>
      <trkpt lat="45.31638" lon="1.43395">
        <ele>393</ele>
        <time>2011-07-15T15:39:50Z</time>
      </trkpt>
      <trkpt lat="45.3164" lon="1.43405">
        <ele>394</ele>
        <time>2011-07-15T15:39:51Z</time>
      </trkpt>
      <trkpt lat="45.31642" lon="1.43411">
        <ele>393</ele>
        <time>2011-07-15T15:39:52Z</time>
      </trkpt>
      <trkpt lat="45.31643" lon="1.43417">
        <ele>396</ele>
        <time>2011-07-15T15:39:53Z</time>
      </trkpt>
      <trkpt lat="45.31644" lon="1.43424">
        <ele>395</ele>
        <time>2011-07-15T15:39:54Z</time>
      </trkpt>
      <trkpt lat="45.31645" lon="1.43433">
        <ele>395</ele>
        <time>2011-07-15T15:39:56Z</time>
      </trkpt>
      <trkpt lat="45.3165" lon="1.43435">
        <ele>399</ele>
        <time>2011-07-15T15:39:58Z</time>
      </trkpt>
      <trkpt lat="45.31656" lon="1.43435">
        <ele>391</ele>
        <time>2011-07-15T15:40:03Z</time>
      </trkpt>
      <trkpt lat="45.31661" lon="1.43435">
        <ele>396</ele>
        <time>2011-07-15T15:40:06Z</time>
      </trkpt>
      <trkpt lat="45.31666" lon="1.43436">
        <ele>391</ele>
        <time>2011-07-15T15:40:09Z</time>
      </trkpt>
      <trkpt lat="45.3167" lon="1.43439">
        <ele>384</ele>
        <time>2011-07-15T15:40:12Z</time>
      </trkpt>
      <trkpt lat="45.31673" lon="1.43444">
        <ele>387</ele>
        <time>2011-07-15T15:40:23Z</time>
      </trkpt>
      <trkpt lat="45.31674" lon="1.43437">
        <ele>393</ele>
        <time>2011-07-15T15:40:33Z</time>
      </trkpt>
      <trkpt lat="45.31676" lon="1.4343">
        <ele>391</ele>
        <time>2011-07-15T15:40:36Z</time>
      </trkpt>
      <trkpt lat="45.31679" lon="1.43424">
        <ele>390</ele>
        <time>2011-07-15T15:40:41Z</time>
      </trkpt>
      <trkpt lat="45.31676" lon="1.43419">
        <ele>391</ele>
        <time>2011-07-15T15:41:15Z</time>
      </trkpt>
      <trkpt lat="45.31672" lon="1.43424">
        <ele>387</ele>
        <time>2011-07-15T15:41:28Z</time>
      </trkpt>
      <trkpt lat="45.31669" lon="1.43429">
        <ele>386</ele>
        <time>2011-07-15T15:41:31Z</time>
      </trkpt>
      <trkpt lat="45.31662" lon="1.43444">
        <ele>400</ele>
        <time>2011-07-15T15:41:40Z</time>
      </trkpt>
      <trkpt lat="45.31659" lon="1.43449">
        <ele>401</ele>
        <time>2011-07-15T15:41:45Z</time>
      </trkpt>
      <trkpt lat="45.31655" lon="1.43454">
        <ele>409</ele>
        <time>2011-07-15T15:41:50Z</time>
      </trkpt>
      <trkpt lat="45.3165" lon="1.43456">
        <ele>401</ele>
        <time>2011-07-15T15:41:56Z</time>
      </trkpt>
      <trkpt lat="45.31646" lon="1.43453">
        <ele>400</ele>
        <time>2011-07-15T15:42:02Z</time>
      </trkpt>
      <trkpt lat="45.31648" lon="1.43448">
        <ele>397</ele>
        <time>2011-07-15T15:42:06Z</time>
      </trkpt>
      <trkpt lat="45.31652" lon="1.43441">
        <ele>398</ele>
        <time>2011-07-15T15:42:08Z</time>
      </trkpt>
      <trkpt lat="45.31656" lon="1.43436">
        <ele>394</ele>
        <time>2011-07-15T15:42:10Z</time>
      </trkpt>
      <trkpt lat="45.31659" lon="1.43432">
        <ele>395</ele>
        <time>2011-07-15T15:42:12Z</time>
      </trkpt>
      <trkpt lat="45.31664" lon="1.43429">
        <ele>401</ele>
        <time>2011-07-15T15:42:15Z</time>
      </trkpt>
      <trkpt lat="45.3167" lon="1.4343">
        <ele>402</ele>
        <time>2011-07-15T15:42:19Z</time>
      </trkpt>
      <trkpt lat="45.31674" lon="1.43435">
        <ele>393</ele>
        <time>2011-07-15T15:42:21Z</time>
      </trkpt>
      <trkpt lat="45.31675" lon="1.43442">
        <ele>387</ele>
        <time>2011-07-15T15:42:24Z</time>
      </trkpt>
      <trkpt lat="45.31675" lon="1.43448">
        <ele>388</ele>
        <time>2011-07-15T15:42:27Z</time>
      </trkpt>
      <trkpt lat="45.31677" lon="1.43456">
        <ele>385</ele>
        <time>2011-07-15T15:42:30Z</time>
      </trkpt>
      <trkpt lat="45.31681" lon="1.43457">
        <ele>389</ele>
        <time>2011-07-15T15:42:36Z</time>
      </trkpt>
      <trkpt lat="45.31685" lon="1.43453">
        <ele>383</ele>
        <time>2011-07-15T15:42:40Z</time>
      </trkpt>
      <trkpt lat="45.31688" lon="1.43447">
        <ele>384</ele>
        <time>2011-07-15T15:42:43Z</time>
      </trkpt>
      <trkpt lat="45.31691" lon="1.43442">
        <ele>387</ele>
        <time>2011-07-15T15:42:46Z</time>
      </trkpt>
      <trkpt lat="45.31695" lon="1.43437">
        <ele>388</ele>
        <time>2011-07-15T15:42:50Z</time>
      </trkpt>
      <trkpt lat="45.31698" lon="1.43432">
        <ele>389</ele>
        <time>2011-07-15T15:42:54Z</time>
      </trkpt>
      <trkpt lat="45.317" lon="1.43426">
        <ele>393</ele>
        <time>2011-07-15T15:43:01Z</time>
      </trkpt>
      <trkpt lat="45.31704" lon="1.43421">
        <ele>391</ele>
        <time>2011-07-15T15:43:06Z</time>
      </trkpt>
      <trkpt lat="45.31709" lon="1.4342">
        <ele>387</ele>
        <time>2011-07-15T15:43:13Z</time>
      </trkpt>
      <trkpt lat="45.31715" lon="1.4342">
        <ele>388</ele>
        <time>2011-07-15T15:43:19Z</time>
      </trkpt>
      <trkpt lat="45.3172" lon="1.43423">
        <ele>394</ele>
        <time>2011-07-15T15:43:23Z</time>
      </trkpt>
      <trkpt lat="45.31724" lon="1.43428">
        <ele>396</ele>
        <time>2011-07-15T15:43:28Z</time>
      </trkpt>
      <trkpt lat="45.31727" lon="1.43434">
        <ele>401</ele>
        <time>2011-07-15T15:43:33Z</time>
      </trkpt>
      <trkpt lat="45.3173" lon="1.43438">
        <ele>405</ele>
        <time>2011-07-15T15:43:39Z</time>
      </trkpt>
      <trkpt lat="45.31735" lon="1.43439">
        <ele>403</ele>
        <time>2011-07-15T15:43:46Z</time>
      </trkpt>
      <trkpt lat="45.31733" lon="1.43448">
        <ele>394</ele>
        <time>2011-07-15T15:43:53Z</time>
      </trkpt>
      <trkpt lat="45.31726" lon="1.43448">
        <ele>405</ele>
        <time>2011-07-15T15:44:07Z</time>
      </trkpt>
      <trkpt lat="45.31722" lon="1.43452">
        <ele>405</ele>
        <time>2011-07-15T15:44:11Z</time>
      </trkpt>
      <trkpt lat="45.31718" lon="1.43457">
        <ele>406</ele>
        <time>2011-07-15T15:44:17Z</time>
      </trkpt>
      <trkpt lat="45.31714" lon="1.43459">
        <ele>410</ele>
        <time>2011-07-15T15:44:23Z</time>
      </trkpt>
      <trkpt lat="45.3171" lon="1.43462">
        <ele>413</ele>
        <time>2011-07-15T15:45:28Z</time>
      </trkpt>
      <trkpt lat="45.31707" lon="1.43468">
        <ele>419</ele>
        <time>2011-07-15T15:45:34Z</time>
      </trkpt>
      <trkpt lat="45.31704" lon="1.43474">
        <ele>408</ele>
        <time>2011-07-15T15:45:38Z</time>
      </trkpt>
      <trkpt lat="45.31701" lon="1.43479">
        <ele>403</ele>
        <time>2011-07-15T15:45:41Z</time>
      </trkpt>
      <trkpt lat="45.31702" lon="1.43486">
        <ele>397</ele>
        <time>2011-07-15T15:45:43Z</time>
      </trkpt>
      <trkpt lat="45.31704" lon="1.43492">
        <ele>397</ele>
        <time>2011-07-15T15:45:44Z</time>
      </trkpt>
      <trkpt lat="45.31706" lon="1.43499">
        <ele>391</ele>
        <time>2011-07-15T15:45:55Z</time>
      </trkpt>
      <trkpt lat="45.31702" lon="1.43502">
        <ele>406</ele>
        <time>2011-07-15T15:46:32Z</time>
      </trkpt>
      <trkpt lat="45.31698" lon="1.43506">
        <ele>407</ele>
        <time>2011-07-15T15:46:40Z</time>
      </trkpt>
      <trkpt lat="45.31692" lon="1.43505">
        <ele>407</ele>
        <time>2011-07-15T15:46:46Z</time>
      </trkpt>
      <trkpt lat="45.31807" lon="1.43531">
        <ele>419</ele>
        <time>2011-07-15T15:50:14Z</time>
      </trkpt>
      <trkpt lat="45.31816" lon="1.43539">
        <ele>420</ele>
        <time>2011-07-15T15:50:18Z</time>
      </trkpt>
      <trkpt lat="45.3182" lon="1.43548">
        <ele>420</ele>
        <time>2011-07-15T15:50:19Z</time>
      </trkpt>
      <trkpt lat="45.31816" lon="1.43553">
        <ele>414</ele>
        <time>2011-07-15T15:50:23Z</time>
      </trkpt>
      <trkpt lat="45.31811" lon="1.43556">
        <ele>404</ele>
        <time>2011-07-15T15:50:26Z</time>
      </trkpt>
      <trkpt lat="45.31806" lon="1.43555">
        <ele>389</ele>
        <time>2011-07-15T15:50:31Z</time>
      </trkpt>
      <trkpt lat="45.318" lon="1.4355">
        <ele>377</ele>
        <time>2011-07-15T15:50:35Z</time>
      </trkpt>
      <trkpt lat="45.31793" lon="1.4355">
        <ele>375</ele>
        <time>2011-07-15T15:50:43Z</time>
      </trkpt>
      <trkpt lat="45.31788" lon="1.4355">
        <ele>379</ele>
        <time>2011-07-15T15:50:47Z</time>
      </trkpt>
      <trkpt lat="45.3179" lon="1.43544">
        <ele>379</ele>
        <time>2011-07-15T15:50:52Z</time>
      </trkpt>
      <trkpt lat="45.31795" lon="1.4354">
        <ele>375</ele>
        <time>2011-07-15T15:50:55Z</time>
      </trkpt>
      <trkpt lat="45.318" lon="1.43535">
        <ele>378</ele>
        <time>2011-07-15T15:50:58Z</time>
      </trkpt>
      <trkpt lat="45.31804" lon="1.4353">
        <ele>380</ele>
        <time>2011-07-15T15:51:01Z</time>
      </trkpt>
      <trkpt lat="45.31809" lon="1.43525">
        <ele>382</ele>
        <time>2011-07-15T15:51:05Z</time>
      </trkpt>
      <trkpt lat="45.31814" lon="1.43524">
        <ele>381</ele>
        <time>2011-07-15T15:51:10Z</time>
      </trkpt>
      <trkpt lat="45.31815" lon="1.4353">
        <ele>380</ele>
        <time>2011-07-15T15:51:15Z</time>
      </trkpt>
      <trkpt lat="45.31819" lon="1.43535">
        <ele>378</ele>
        <time>2011-07-15T15:51:20Z</time>
      </trkpt>
      <trkpt lat="45.31823" lon="1.43538">
        <ele>376</ele>
        <time>2011-07-15T15:51:23Z</time>
      </trkpt>
      <trkpt lat="45.31828" lon="1.43541">
        <ele>375</ele>
        <time>2011-07-15T15:51:27Z</time>
      </trkpt>
      <trkpt lat="45.31833" lon="1.43539">
        <ele>385</ele>
        <time>2011-07-15T15:51:36Z</time>
      </trkpt>
      <trkpt lat="45.31838" lon="1.43536">
        <ele>388</ele>
        <time>2011-07-15T15:51:49Z</time>
      </trkpt>
      <trkpt lat="45.31842" lon="1.43538">
        <ele>391</ele>
        <time>2011-07-15T15:51:54Z</time>
      </trkpt>
      <trkpt lat="45.31846" lon="1.43543">
        <ele>389</ele>
        <time>2011-07-15T15:52:00Z</time>
      </trkpt>
      <trkpt lat="45.3185" lon="1.43546">
        <ele>388</ele>
        <time>2011-07-15T15:52:03Z</time>
      </trkpt>
      <trkpt lat="45.31855" lon="1.43545">
        <ele>384</ele>
        <time>2011-07-15T15:52:22Z</time>
      </trkpt>
      <trkpt lat="45.3186" lon="1.43543">
        <ele>387</ele>
        <time>2011-07-15T15:52:26Z</time>
      </trkpt>
      <trkpt lat="45.31864" lon="1.43544">
        <ele>397</ele>
        <time>2011-07-15T15:53:40Z</time>
      </trkpt>
      <trkpt lat="45.31869" lon="1.43546">
        <ele>395</ele>
        <time>2011-07-15T15:53:48Z</time>
      </trkpt>
      <trkpt lat="45.31874" lon="1.43544">
        <ele>394</ele>
        <time>2011-07-15T15:53:54Z</time>
      </trkpt>
      <trkpt lat="45.31878" lon="1.43545">
        <ele>396</ele>
        <time>2011-07-15T15:54:00Z</time>
      </trkpt>
      <trkpt lat="45.31884" lon="1.43544">
        <ele>396</ele>
        <time>2011-07-15T15:54:06Z</time>
      </trkpt>
      <trkpt lat="45.31889" lon="1.43547">
        <ele>398</ele>
        <time>2011-07-15T15:54:11Z</time>
      </trkpt>
      <trkpt lat="45.31894" lon="1.43549">
        <ele>396</ele>
        <time>2011-07-15T15:54:15Z</time>
      </trkpt>
      <trkpt lat="45.31899" lon="1.43552">
        <ele>395</ele>
        <time>2011-07-15T15:54:21Z</time>
      </trkpt>
      <trkpt lat="45.31904" lon="1.43554">
        <ele>399</ele>
        <time>2011-07-15T15:54:25Z</time>
      </trkpt>
      <trkpt lat="45.31909" lon="1.43558">
        <ele>400</ele>
        <time>2011-07-15T15:54:30Z</time>
      </trkpt>
      <trkpt lat="45.31914" lon="1.4356">
        <ele>400</ele>
        <time>2011-07-15T15:54:34Z</time>
      </trkpt>
      <trkpt lat="45.31918" lon="1.43562">
        <ele>397</ele>
        <time>2011-07-15T15:54:38Z</time>
      </trkpt>
      <trkpt lat="45.31923" lon="1.43565">
        <ele>401</ele>
        <time>2011-07-15T15:54:43Z</time>
      </trkpt>
      <trkpt lat="45.31929" lon="1.43567">
        <ele>403</ele>
        <time>2011-07-15T15:54:46Z</time>
      </trkpt>
      <trkpt lat="45.31933" lon="1.4357">
        <ele>403</ele>
        <time>2011-07-15T15:54:49Z</time>
      </trkpt>
      <trkpt lat="45.31938" lon="1.43571">
        <ele>402</ele>
        <time>2011-07-15T15:54:54Z</time>
      </trkpt>
      <trkpt lat="45.31942" lon="1.43573">
        <ele>403</ele>
        <time>2011-07-15T15:54:59Z</time>
      </trkpt>
      <trkpt lat="45.31947" lon="1.43574">
        <ele>402</ele>
        <time>2011-07-15T15:55:04Z</time>
      </trkpt>
      <trkpt lat="45.31953" lon="1.43576">
        <ele>402</ele>
        <time>2011-07-15T15:55:08Z</time>
      </trkpt>
      <trkpt lat="45.31958" lon="1.43574">
        <ele>402</ele>
        <time>2011-07-15T15:55:12Z</time>
      </trkpt>
      <trkpt lat="45.31963" lon="1.43575">
        <ele>407</ele>
        <time>2011-07-15T15:55:16Z</time>
      </trkpt>
      <trkpt lat="45.31967" lon="1.43578">
        <ele>411</ele>
        <time>2011-07-15T15:55:20Z</time>
      </trkpt>
      <trkpt lat="45.31973" lon="1.4358">
        <ele>410</ele>
        <time>2011-07-15T15:55:24Z</time>
      </trkpt>
      <trkpt lat="45.31977" lon="1.43582">
        <ele>412</ele>
        <time>2011-07-15T15:55:28Z</time>
      </trkpt>
      <trkpt lat="45.31982" lon="1.43584">
        <ele>409</ele>
        <time>2011-07-15T15:55:31Z</time>
      </trkpt>
      <trkpt lat="45.31987" lon="1.43586">
        <ele>412</ele>
        <time>2011-07-15T15:55:35Z</time>
      </trkpt>
      <trkpt lat="45.31992" lon="1.43586">
        <ele>412</ele>
        <time>2011-07-15T15:55:39Z</time>
      </trkpt>
      <trkpt lat="45.31997" lon="1.43587">
        <ele>417</ele>
        <time>2011-07-15T15:55:43Z</time>
      </trkpt>
      <trkpt lat="45.32001" lon="1.43589">
        <ele>418</ele>
        <time>2011-07-15T15:55:47Z</time>
      </trkpt>
      <trkpt lat="45.32005" lon="1.43593">
        <ele>418</ele>
        <time>2011-07-15T15:55:50Z</time>
      </trkpt>
      <trkpt lat="45.32007" lon="1.436">
        <ele>417</ele>
        <time>2011-07-15T15:55:53Z</time>
      </trkpt>
      <trkpt lat="45.32011" lon="1.43605">
        <ele>412</ele>
        <time>2011-07-15T15:55:56Z</time>
      </trkpt>
      <trkpt lat="45.32015" lon="1.43601">
        <ele>411</ele>
        <time>2011-07-15T15:56:03Z</time>
      </trkpt>
      <trkpt lat="45.32016" lon="1.43594">
        <ele>409</ele>
        <time>2011-07-15T15:56:07Z</time>
      </trkpt>
      <trkpt lat="45.32016" lon="1.43587">
        <ele>411</ele>
        <time>2011-07-15T15:56:10Z</time>
      </trkpt>
      <trkpt lat="45.32018" lon="1.43579">
        <ele>408</ele>
        <time>2011-07-15T15:56:14Z</time>
      </trkpt>
      <trkpt lat="45.32018" lon="1.43572">
        <ele>412</ele>
        <time>2011-07-15T15:56:17Z</time>
      </trkpt>
      <trkpt lat="45.32018" lon="1.43564">
        <ele>410</ele>
        <time>2011-07-15T15:56:20Z</time>
      </trkpt>
      <trkpt lat="45.32019" lon="1.43555">
        <ele>408</ele>
        <time>2011-07-15T15:56:23Z</time>
      </trkpt>
      <trkpt lat="45.32019" lon="1.43546">
        <ele>414</ele>
        <time>2011-07-15T15:56:26Z</time>
      </trkpt>
      <trkpt lat="45.32019" lon="1.4354">
        <ele>416</ele>
        <time>2011-07-15T15:56:29Z</time>
      </trkpt>
      <trkpt lat="45.32018" lon="1.43532">
        <ele>414</ele>
        <time>2011-07-15T15:56:33Z</time>
      </trkpt>
      <trkpt lat="45.32021" lon="1.43525">
        <ele>414</ele>
        <time>2011-07-15T15:56:36Z</time>
      </trkpt>
      <trkpt lat="45.32023" lon="1.43519">
        <ele>411</ele>
        <time>2011-07-15T15:56:38Z</time>
      </trkpt>
      <trkpt lat="45.32024" lon="1.43512">
        <ele>413</ele>
        <time>2011-07-15T15:56:41Z</time>
      </trkpt>
      <trkpt lat="45.32025" lon="1.43505">
        <ele>413</ele>
        <time>2011-07-15T15:56:45Z</time>
      </trkpt>
      <trkpt lat="45.32027" lon="1.43497">
        <ele>414</ele>
        <time>2011-07-15T15:56:52Z</time>
      </trkpt>
      <trkpt lat="45.32027" lon="1.4349">
        <ele>413</ele>
        <time>2011-07-15T15:56:55Z</time>
      </trkpt>
      <trkpt lat="45.32028" lon="1.43483">
        <ele>415</ele>
        <time>2011-07-15T15:56:59Z</time>
      </trkpt>
      <trkpt lat="45.32029" lon="1.43476">
        <ele>412</ele>
        <time>2011-07-15T15:57:02Z</time>
      </trkpt>
      <trkpt lat="45.32031" lon="1.43468">
        <ele>410</ele>
        <time>2011-07-15T15:57:05Z</time>
      </trkpt>
      <trkpt lat="45.32032" lon="1.4346">
        <ele>409</ele>
        <time>2011-07-15T15:57:07Z</time>
      </trkpt>
      <trkpt lat="45.32033" lon="1.43453">
        <ele>411</ele>
        <time>2011-07-15T15:57:09Z</time>
      </trkpt>
      <trkpt lat="45.32035" lon="1.43446">
        <ele>415</ele>
        <time>2011-07-15T15:57:11Z</time>
      </trkpt>
      <trkpt lat="45.32037" lon="1.4344">
        <ele>415</ele>
        <time>2011-07-15T15:57:13Z</time>
      </trkpt>
      <trkpt lat="45.32038" lon="1.43433">
        <ele>415</ele>
        <time>2011-07-15T15:57:15Z</time>
      </trkpt>
      <trkpt lat="45.3204" lon="1.43427">
        <ele>418</ele>
        <time>2011-07-15T15:57:17Z</time>
      </trkpt>
      <trkpt lat="45.32042" lon="1.4342">
        <ele>418</ele>
        <time>2011-07-15T15:57:19Z</time>
      </trkpt>
      <trkpt lat="45.32045" lon="1.43414">
        <ele>412</ele>
        <time>2011-07-15T15:57:21Z</time>
      </trkpt>
      <trkpt lat="45.32049" lon="1.43413">
        <ele>407</ele>
        <time>2011-07-15T15:57:47Z</time>
      </trkpt>
      <trkpt lat="45.32052" lon="1.43408">
        <ele>408</ele>
        <time>2011-07-15T15:58:53Z</time>
      </trkpt>
      <trkpt lat="45.32057" lon="1.43412">
        <ele>409</ele>
        <time>2011-07-15T15:59:06Z</time>
      </trkpt>
      <trkpt lat="45.32062" lon="1.43417">
        <ele>408</ele>
        <time>2011-07-15T15:59:10Z</time>
      </trkpt>
      <trkpt lat="45.32067" lon="1.43419">
        <ele>409</ele>
        <time>2011-07-15T15:59:13Z</time>
      </trkpt>
      <trkpt lat="45.32072" lon="1.43424">
        <ele>409</ele>
        <time>2011-07-15T15:59:17Z</time>
      </trkpt>
      <trkpt lat="45.32078" lon="1.43427">
        <ele>412</ele>
        <time>2011-07-15T15:59:20Z</time>
      </trkpt>
      <trkpt lat="45.32084" lon="1.4343">
        <ele>414</ele>
        <time>2011-07-15T15:59:23Z</time>
      </trkpt>
      <trkpt lat="45.3209" lon="1.43433">
        <ele>414</ele>
        <time>2011-07-15T15:59:27Z</time>
      </trkpt>
      <trkpt lat="45.32094" lon="1.43436">
        <ele>411</ele>
        <time>2011-07-15T15:59:30Z</time>
      </trkpt>
      <trkpt lat="45.32097" lon="1.43441">
        <ele>411</ele>
        <time>2011-07-15T15:59:33Z</time>
      </trkpt>
      <trkpt lat="45.32101" lon="1.43446">
        <ele>410</ele>
        <time>2011-07-15T15:59:36Z</time>
      </trkpt>
      <trkpt lat="45.32104" lon="1.43452">
        <ele>409</ele>
        <time>2011-07-15T15:59:39Z</time>
      </trkpt>
      <trkpt lat="45.32109" lon="1.43457">
        <ele>406</ele>
        <time>2011-07-15T15:59:42Z</time>
      </trkpt>
      <trkpt lat="45.32112" lon="1.43462">
        <ele>408</ele>
        <time>2011-07-15T15:59:44Z</time>
      </trkpt>
      <trkpt lat="45.32116" lon="1.43467">
        <ele>408</ele>
        <time>2011-07-15T15:59:46Z</time>
      </trkpt>
      <trkpt lat="45.32119" lon="1.43472">
        <ele>408</ele>
        <time>2011-07-15T15:59:48Z</time>
      </trkpt>
      <trkpt lat="45.32124" lon="1.43477">
        <ele>408</ele>
        <time>2011-07-15T15:59:50Z</time>
      </trkpt>
      <trkpt lat="45.32127" lon="1.43482">
        <ele>406</ele>
        <time>2011-07-15T15:59:52Z</time>
      </trkpt>
      <trkpt lat="45.32132" lon="1.43487">
        <ele>402</ele>
        <time>2011-07-15T15:59:54Z</time>
      </trkpt>
      <trkpt lat="45.32137" lon="1.43491">
        <ele>402</ele>
        <time>2011-07-15T15:59:56Z</time>
      </trkpt>
      <trkpt lat="45.3214" lon="1.43495">
        <ele>403</ele>
        <time>2011-07-15T15:59:58Z</time>
      </trkpt>
      <trkpt lat="45.3214" lon="1.43501">
        <ele>407</ele>
        <time>2011-07-15T16:00:03Z</time>
      </trkpt>
      <trkpt lat="45.32138" lon="1.4351">
        <ele>409</ele>
        <time>2011-07-15T16:00:06Z</time>
      </trkpt>
      <trkpt lat="45.32138" lon="1.43519">
        <ele>407</ele>
        <time>2011-07-15T16:00:09Z</time>
      </trkpt>
      <trkpt lat="45.32136" lon="1.43526">
        <ele>409</ele>
        <time>2011-07-15T16:00:12Z</time>
      </trkpt>
      <trkpt lat="45.32135" lon="1.43533">
        <ele>407</ele>
        <time>2011-07-15T16:00:16Z</time>
      </trkpt>
      <trkpt lat="45.32133" lon="1.43541">
        <ele>406</ele>
        <time>2011-07-15T16:00:20Z</time>
      </trkpt>
      <trkpt lat="45.32131" lon="1.43548">
        <ele>407</ele>
        <time>2011-07-15T16:00:24Z</time>
      </trkpt>
      <trkpt lat="45.3213" lon="1.43555">
        <ele>410</ele>
        <time>2011-07-15T16:00:27Z</time>
      </trkpt>
      <trkpt lat="45.32128" lon="1.43563">
        <ele>410</ele>
        <time>2011-07-15T16:00:30Z</time>
      </trkpt>
      <trkpt lat="45.32126" lon="1.4357">
        <ele>408</ele>
        <time>2011-07-15T16:00:33Z</time>
      </trkpt>
      <trkpt lat="45.32123" lon="1.43576">
        <ele>410</ele>
        <time>2011-07-15T16:00:36Z</time>
      </trkpt>
      <trkpt lat="45.32121" lon="1.43583">
        <ele>409</ele>
        <time>2011-07-15T16:00:40Z</time>
      </trkpt>
      <trkpt lat="45.3212" lon="1.4359">
        <ele>409</ele>
        <time>2011-07-15T16:00:44Z</time>
      </trkpt>
      <trkpt lat="45.32118" lon="1.43597">
        <ele>409</ele>
        <time>2011-07-15T16:00:47Z</time>
      </trkpt>
      <trkpt lat="45.32116" lon="1.43603">
        <ele>409</ele>
        <time>2011-07-15T16:00:50Z</time>
      </trkpt>
      <trkpt lat="45.32115" lon="1.4361">
        <ele>407</ele>
        <time>2011-07-15T16:00:53Z</time>
      </trkpt>
      <trkpt lat="45.32113" lon="1.43618">
        <ele>411</ele>
        <time>2011-07-15T16:00:57Z</time>
      </trkpt>
      <trkpt lat="45.32112" lon="1.43625">
        <ele>410</ele>
        <time>2011-07-15T16:01:00Z</time>
      </trkpt>
      <trkpt lat="45.3211" lon="1.43632">
        <ele>409</ele>
        <time>2011-07-15T16:01:04Z</time>
      </trkpt>
      <trkpt lat="45.32108" lon="1.43639">
        <ele>407</ele>
        <time>2011-07-15T16:01:07Z</time>
      </trkpt>
      <trkpt lat="45.32106" lon="1.43646">
        <ele>414</ele>
        <time>2011-07-15T16:01:10Z</time>
      </trkpt>
      <trkpt lat="45.32105" lon="1.43653">
        <ele>413</ele>
        <time>2011-07-15T16:01:13Z</time>
      </trkpt>
      <trkpt lat="45.32104" lon="1.43659">
        <ele>413</ele>
        <time>2011-07-15T16:01:16Z</time>
      </trkpt>
      <trkpt lat="45.32102" lon="1.43666">
        <ele>413</ele>
        <time>2011-07-15T16:01:20Z</time>
      </trkpt>
      <trkpt lat="45.32099" lon="1.43674">
        <ele>412</ele>
        <time>2011-07-15T16:01:25Z</time>
      </trkpt>
      <trkpt lat="45.32098" lon="1.4368">
        <ele>411</ele>
        <time>2011-07-15T16:01:30Z</time>
      </trkpt>
      <trkpt lat="45.32094" lon="1.43685">
        <ele>411</ele>
        <time>2011-07-15T16:01:35Z</time>
      </trkpt>
      <trkpt lat="45.32088" lon="1.43685">
        <ele>411</ele>
        <time>2011-07-15T16:01:40Z</time>
      </trkpt>
      <trkpt lat="45.32084" lon="1.43684">
        <ele>413</ele>
        <time>2011-07-15T16:01:46Z</time>
      </trkpt>
      <trkpt lat="45.32079" lon="1.43683">
        <ele>415</ele>
        <time>2011-07-15T16:01:49Z</time>
      </trkpt>
      <trkpt lat="45.32074" lon="1.43681">
        <ele>415</ele>
        <time>2011-07-15T16:01:52Z</time>
      </trkpt>
      <trkpt lat="45.32069" lon="1.4368">
        <ele>417</ele>
        <time>2011-07-15T16:01:55Z</time>
      </trkpt>
      <trkpt lat="45.32064" lon="1.43678">
        <ele>417</ele>
        <time>2011-07-15T16:02:00Z</time>
      </trkpt>
      <trkpt lat="45.3206" lon="1.43675">
        <ele>418</ele>
        <time>2011-07-15T16:02:04Z</time>
      </trkpt>
      <trkpt lat="45.32056" lon="1.4367">
        <ele>418</ele>
        <time>2011-07-15T16:02:07Z</time>
      </trkpt>
      <trkpt lat="45.32051" lon="1.43668">
        <ele>418</ele>
        <time>2011-07-15T16:02:10Z</time>
      </trkpt>
      <trkpt lat="45.32046" lon="1.43667">
        <ele>418</ele>
        <time>2011-07-15T16:02:13Z</time>
      </trkpt>
      <trkpt lat="45.32042" lon="1.43669">
        <ele>417</ele>
        <time>2011-07-15T16:02:16Z</time>
      </trkpt>
      <trkpt lat="45.32037" lon="1.43673">
        <ele>419</ele>
        <time>2011-07-15T16:02:20Z</time>
      </trkpt>
      <trkpt lat="45.32034" lon="1.4368">
        <ele>419</ele>
        <time>2011-07-15T16:02:25Z</time>
      </trkpt>
      <trkpt lat="45.32031" lon="1.43686">
        <ele>420</ele>
        <time>2011-07-15T16:02:30Z</time>
      </trkpt>
      <trkpt lat="45.3203" lon="1.43695">
        <ele>419</ele>
        <time>2011-07-15T16:02:33Z</time>
      </trkpt>
      <trkpt lat="45.3203" lon="1.43703">
        <ele>420</ele>
        <time>2011-07-15T16:02:36Z</time>
      </trkpt>
      <trkpt lat="45.32028" lon="1.43712">
        <ele>420</ele>
        <time>2011-07-15T16:02:38Z</time>
      </trkpt>
      <trkpt lat="45.32028" lon="1.43718">
        <ele>421</ele>
        <time>2011-07-15T16:02:40Z</time>
      </trkpt>
      <trkpt lat="45.32027" lon="1.43727">
        <ele>421</ele>
        <time>2011-07-15T16:02:43Z</time>
      </trkpt>
      <trkpt lat="45.32026" lon="1.43734">
        <ele>421</ele>
        <time>2011-07-15T16:02:46Z</time>
      </trkpt>
      <trkpt lat="45.32023" lon="1.43739">
        <ele>418</ele>
        <time>2011-07-15T16:02:51Z</time>
      </trkpt>
      <trkpt lat="45.32025" lon="1.43732">
        <ele>421</ele>
        <time>2011-07-15T16:03:03Z</time>
      </trkpt>
      <trkpt lat="45.32025" lon="1.43724">
        <ele>419</ele>
        <time>2011-07-15T16:03:06Z</time>
      </trkpt>
      <trkpt lat="45.32023" lon="1.43716">
        <ele>422</ele>
        <time>2011-07-15T16:03:08Z</time>
      </trkpt>
      <trkpt lat="45.32022" lon="1.43707">
        <ele>426</ele>
        <time>2011-07-15T16:03:11Z</time>
      </trkpt>
      <trkpt lat="45.32021" lon="1.437">
        <ele>424</ele>
        <time>2011-07-15T16:03:13Z</time>
      </trkpt>
      <trkpt lat="45.32022" lon="1.43692">
        <ele>417</ele>
        <time>2011-07-15T16:03:15Z</time>
      </trkpt>
      <trkpt lat="45.32023" lon="1.43684">
        <ele>425</ele>
        <time>2011-07-15T16:03:17Z</time>
      </trkpt>
      <trkpt lat="45.32022" lon="1.43676">
        <ele>430</ele>
        <time>2011-07-15T16:03:19Z</time>
      </trkpt>
      <trkpt lat="45.3202" lon="1.43669">
        <ele>427</ele>
        <time>2011-07-15T16:03:21Z</time>
      </trkpt>
      <trkpt lat="45.32018" lon="1.43661">
        <ele>422</ele>
        <time>2011-07-15T16:03:23Z</time>
      </trkpt>
      <trkpt lat="45.32016" lon="1.43653">
        <ele>423</ele>
        <time>2011-07-15T16:03:25Z</time>
      </trkpt>
      <trkpt lat="45.32013" lon="1.43644">
        <ele>425</ele>
        <time>2011-07-15T16:03:27Z</time>
      </trkpt>
      <trkpt lat="45.32011" lon="1.43634">
        <ele>423</ele>
        <time>2011-07-15T16:03:29Z</time>
      </trkpt>
      <trkpt lat="45.32008" lon="1.43624">
        <ele>420</ele>
        <time>2011-07-15T16:03:31Z</time>
      </trkpt>
      <trkpt lat="45.32008" lon="1.43612">
        <ele>417</ele>
        <time>2011-07-15T16:03:33Z</time>
      </trkpt>
      <trkpt lat="45.3201" lon="1.43603">
        <ele>423</ele>
        <time>2011-07-15T16:03:35Z</time>
      </trkpt>
      <trkpt lat="45.32012" lon="1.43595">
        <ele>420</ele>
        <time>2011-07-15T16:03:37Z</time>
      </trkpt>
      <trkpt lat="45.32015" lon="1.43585">
        <ele>420</ele>
        <time>2011-07-15T16:03:39Z</time>
      </trkpt>
      <trkpt lat="45.32017" lon="1.43574">
        <ele>421</ele>
        <time>2011-07-15T16:03:41Z</time>
      </trkpt>
      <trkpt lat="45.32019" lon="1.43567">
        <ele>419</ele>
        <time>2011-07-15T16:03:42Z</time>
      </trkpt>
      <trkpt lat="45.32018" lon="1.43554">
        <ele>414</ele>
        <time>2011-07-15T16:03:44Z</time>
      </trkpt>
      <trkpt lat="45.32017" lon="1.43543">
        <ele>413</ele>
        <time>2011-07-15T16:03:46Z</time>
      </trkpt>
      <trkpt lat="45.32015" lon="1.43532">
        <ele>406</ele>
        <time>2011-07-15T16:03:48Z</time>
      </trkpt>
      <trkpt lat="45.32014" lon="1.43525">
        <ele>409</ele>
        <time>2011-07-15T16:03:51Z</time>
      </trkpt>
      <trkpt lat="45.32018" lon="1.43522">
        <ele>412</ele>
        <time>2011-07-15T16:03:55Z</time>
      </trkpt>
      <trkpt lat="45.32012" lon="1.43522">
        <ele>410</ele>
        <time>2011-07-15T16:04:06Z</time>
      </trkpt>
      <trkpt lat="45.32007" lon="1.43519">
        <ele>408</ele>
        <time>2011-07-15T16:04:08Z</time>
      </trkpt>
      <trkpt lat="45.32003" lon="1.43514">
        <ele>408</ele>
        <time>2011-07-15T16:04:10Z</time>
      </trkpt>
      <trkpt lat="45.31995" lon="1.43508">
        <ele>408</ele>
        <time>2011-07-15T16:04:12Z</time>
      </trkpt>
      <trkpt lat="45.31988" lon="1.435">
        <ele>408</ele>
        <time>2011-07-15T16:04:14Z</time>
      </trkpt>
      <trkpt lat="45.31984" lon="1.43496">
        <ele>409</ele>
        <time>2011-07-15T16:04:15Z</time>
      </trkpt>
      <trkpt lat="45.31977" lon="1.43489">
        <ele>410</ele>
        <time>2011-07-15T16:04:17Z</time>
      </trkpt>
      <trkpt lat="45.31972" lon="1.43485">
        <ele>412</ele>
        <time>2011-07-15T16:04:18Z</time>
      </trkpt>
      <trkpt lat="45.31966" lon="1.4348">
        <ele>412</ele>
        <time>2011-07-15T16:04:19Z</time>
      </trkpt>
      <trkpt lat="45.3196" lon="1.43475">
        <ele>412</ele>
        <time>2011-07-15T16:04:20Z</time>
      </trkpt>
      <trkpt lat="45.31953" lon="1.43471">
        <ele>412</ele>
        <time>2011-07-15T16:04:21Z</time>
      </trkpt>
      <trkpt lat="45.31947" lon="1.43467">
        <ele>412</ele>
        <time>2011-07-15T16:04:22Z</time>
      </trkpt>
      <trkpt lat="45.3194" lon="1.43463">
        <ele>411</ele>
        <time>2011-07-15T16:04:23Z</time>
      </trkpt>
      <trkpt lat="45.31935" lon="1.4346">
        <ele>409</ele>
        <time>2011-07-15T16:04:24Z</time>
      </trkpt>
      <trkpt lat="45.31931" lon="1.43458">
        <ele>408</ele>
        <time>2011-07-15T16:04:25Z</time>
      </trkpt>
      <trkpt lat="45.31926" lon="1.43454">
        <ele>407</ele>
        <time>2011-07-15T16:04:26Z</time>
      </trkpt>
      <trkpt lat="45.31922" lon="1.43451">
        <ele>405</ele>
        <time>2011-07-15T16:04:27Z</time>
      </trkpt>
      <trkpt lat="45.31916" lon="1.43446">
        <ele>403</ele>
        <time>2011-07-15T16:04:29Z</time>
      </trkpt>
      <trkpt lat="45.31913" lon="1.43433">
        <ele>402</ele>
        <time>2011-07-15T16:04:32Z</time>
      </trkpt>
      <trkpt lat="45.31914" lon="1.43424">
        <ele>398</ele>
        <time>2011-07-15T16:04:34Z</time>
      </trkpt>
      <trkpt lat="45.31915" lon="1.43416">
        <ele>398</ele>
        <time>2011-07-15T16:04:36Z</time>
      </trkpt>
      <trkpt lat="45.31918" lon="1.43407">
        <ele>395</ele>
        <time>2011-07-15T16:04:38Z</time>
      </trkpt>
      <trkpt lat="45.31921" lon="1.43396">
        <ele>394</ele>
        <time>2011-07-15T16:04:40Z</time>
      </trkpt>
      <trkpt lat="45.31923" lon="1.4339">
        <ele>397</ele>
        <time>2011-07-15T16:04:41Z</time>
      </trkpt>
      <trkpt lat="45.31925" lon="1.43382">
        <ele>395</ele>
        <time>2011-07-15T16:04:42Z</time>
      </trkpt>
      <trkpt lat="45.31927" lon="1.43372">
        <ele>393</ele>
        <time>2011-07-15T16:04:43Z</time>
      </trkpt>
      <trkpt lat="45.31929" lon="1.43365">
        <ele>394</ele>
        <time>2011-07-15T16:04:44Z</time>
      </trkpt>
      <trkpt lat="45.3193" lon="1.43358">
        <ele>402</ele>
        <time>2011-07-15T16:04:45Z</time>
      </trkpt>
      <trkpt lat="45.31932" lon="1.4335">
        <ele>399</ele>
        <time>2011-07-15T16:04:46Z</time>
      </trkpt>
      <trkpt lat="45.31933" lon="1.43338">
        <ele>402</ele>
        <time>2011-07-15T16:04:47Z</time>
      </trkpt>
      <trkpt lat="45.31933" lon="1.43338">
        <ele>402</ele>
        <time>2011-07-15T16:04:47Z</time>
      </trkpt>
      <trkpt lat="45.31933" lon="1.43338">
        <ele>402</ele>
        <time>2011-07-15T16:04:49Z</time>
      </trkpt>
      <trkpt lat="45.31934" lon="1.43328">
        <ele>408</ele>
        <time>2011-07-15T16:04:50Z</time>
      </trkpt>
      <trkpt lat="45.31935" lon="1.43315">
        <ele>411</ele>
        <time>2011-07-15T16:04:51Z</time>
      </trkpt>
      <trkpt lat="45.31937" lon="1.43303">
        <ele>411</ele>
        <time>2011-07-15T16:04:52Z</time>
      </trkpt>
      <trkpt lat="45.31938" lon="1.43292">
        <ele>412</ele>
        <time>2011-07-15T16:04:53Z</time>
      </trkpt>
      <trkpt lat="45.3194" lon="1.4328">
        <ele>414</ele>
        <time>2011-07-15T16:04:54Z</time>
      </trkpt>
      <trkpt lat="45.31942" lon="1.43269">
        <ele>414</ele>
        <time>2011-07-15T16:04:55Z</time>
      </trkpt>
      <trkpt lat="45.31945" lon="1.43255">
        <ele>415</ele>
        <time>2011-07-15T16:04:56Z</time>
      </trkpt>
      <trkpt lat="45.31948" lon="1.43241">
        <ele>416</ele>
        <time>2011-07-15T16:04:57Z</time>
      </trkpt>
      <trkpt lat="45.3195" lon="1.43228">
        <ele>412</ele>
        <time>2011-07-15T16:04:58Z</time>
      </trkpt>
      <trkpt lat="45.31953" lon="1.43215">
        <ele>408</ele>
        <time>2011-07-15T16:04:59Z</time>
      </trkpt>
      <trkpt lat="45.31956" lon="1.43201">
        <ele>406</ele>
        <time>2011-07-15T16:05:00Z</time>
      </trkpt>
      <trkpt lat="45.31961" lon="1.43191">
        <ele>409</ele>
        <time>2011-07-15T16:05:01Z</time>
      </trkpt>
      <trkpt lat="45.31966" lon="1.43181">
        <ele>413</ele>
        <time>2011-07-15T16:05:02Z</time>
      </trkpt>
      <trkpt lat="45.31971" lon="1.43174">
        <ele>407</ele>
        <time>2011-07-15T16:05:03Z</time>
      </trkpt>
      <trkpt lat="45.31976" lon="1.43168">
        <ele>409</ele>
        <time>2011-07-15T16:05:04Z</time>
      </trkpt>
      <trkpt lat="45.31982" lon="1.43162">
        <ele>407</ele>
        <time>2011-07-15T16:05:05Z</time>
      </trkpt>
      <trkpt lat="45.31985" lon="1.43157">
        <ele>404</ele>
        <time>2011-07-15T16:05:06Z</time>
      </trkpt>
      <trkpt lat="45.31989" lon="1.43152">
        <ele>407</ele>
        <time>2011-07-15T16:05:07Z</time>
      </trkpt>
      <trkpt lat="45.31993" lon="1.43146">
        <ele>409</ele>
        <time>2011-07-15T16:05:08Z</time>
      </trkpt>
      <trkpt lat="45.31996" lon="1.43141">
        <ele>408</ele>
        <time>2011-07-15T16:05:09Z</time>
      </trkpt>
      <trkpt lat="45.31999" lon="1.43128">
        <ele>416</ele>
        <time>2011-07-15T16:05:11Z</time>
      </trkpt>
      <trkpt lat="45.31998" lon="1.43121">
        <ele>411</ele>
        <time>2011-07-15T16:05:12Z</time>
      </trkpt>
      <trkpt lat="45.31997" lon="1.43108">
        <ele>412</ele>
        <time>2011-07-15T16:05:14Z</time>
      </trkpt>
      <trkpt lat="45.31996" lon="1.43102">
        <ele>410</ele>
        <time>2011-07-15T16:05:15Z</time>
      </trkpt>
      <trkpt lat="45.31995" lon="1.43095">
        <ele>413</ele>
        <time>2011-07-15T16:05:16Z</time>
      </trkpt>
      <trkpt lat="45.31992" lon="1.43089">
        <ele>409</ele>
        <time>2011-07-15T16:05:17Z</time>
      </trkpt>
      <trkpt lat="45.31989" lon="1.43082">
        <ele>408</ele>
        <time>2011-07-15T16:05:18Z</time>
      </trkpt>
      <trkpt lat="45.31984" lon="1.43074">
        <ele>408</ele>
        <time>2011-07-15T16:05:19Z</time>
      </trkpt>
      <trkpt lat="45.31978" lon="1.43064">
        <ele>411</ele>
        <time>2011-07-15T16:05:20Z</time>
      </trkpt>
      <trkpt lat="45.31969" lon="1.43053">
        <ele>411</ele>
        <time>2011-07-15T16:05:21Z</time>
      </trkpt>
      <trkpt lat="45.31959" lon="1.43045">
        <ele>405</ele>
        <time>2011-07-15T16:05:22Z</time>
      </trkpt>
      <trkpt lat="45.3193" lon="1.43016">
        <ele>406</ele>
        <time>2011-07-15T16:05:25Z</time>
      </trkpt>
      <trkpt lat="45.3192" lon="1.43008">
        <ele>405</ele>
        <time>2011-07-15T16:05:26Z</time>
      </trkpt>
      <trkpt lat="45.31914" lon="1.43002">
        <ele>405</ele>
        <time>2011-07-15T16:05:27Z</time>
      </trkpt>
      <trkpt lat="45.31914" lon="1.43002">
        <ele>405</ele>
        <time>2011-07-15T16:05:27Z</time>
      </trkpt>
      <trkpt lat="45.31914" lon="1.43002">
        <ele>405</ele>
        <time>2011-07-15T16:05:34Z</time>
      </trkpt>
      <trkpt lat="45.32082" lon="1.42847">
        <ele>409</ele>
        <time>2011-07-15T16:06:39Z</time>
      </trkpt>
      <trkpt lat="45.32082" lon="1.42847">
        <ele>409</ele>
        <time>2011-07-15T16:06:39Z</time>
      </trkpt>
      <trkpt lat="45.32082" lon="1.42847">
        <ele>409</ele>
        <time>2011-07-15T16:06:40Z</time>
      </trkpt>
      <trkpt lat="45.31917" lon="1.42495">
        <ele>219</ele>
        <time>2011-07-15T16:12:53Z</time>
      </trkpt>
      <trkpt lat="45.31917" lon="1.42495">
        <ele>219</ele>
        <time>2011-07-15T16:12:53Z</time>
      </trkpt>
      <trkpt lat="45.31917" lon="1.42495">
        <ele>219</ele>
        <time>2011-07-15T16:12:56Z</time>
      </trkpt>
      <trkpt lat="45.3186" lon="1.42521">
        <ele>185.5</ele>
        <time>2011-07-15T16:13:04Z</time>
      </trkpt>
      <trkpt lat="45.32169" lon="1.4178">
        <ele>301</ele>
        <time>2011-07-15T16:28:10Z</time>
      </trkpt>
      <trkpt lat="45.3216" lon="1.41783">
        <ele>312</ele>
        <time>2011-07-15T16:28:12Z</time>
      </trkpt>
      <trkpt lat="45.3216" lon="1.41783">
        <ele>312</ele>
        <time>2011-07-15T16:28:12Z</time>
      </trkpt>
      <trkpt lat="45.3216" lon="1.41783">
        <ele>312</ele>
        <time>2011-07-15T16:28:35Z</time>
      </trkpt>
      <trkpt lat="45.3216" lon="1.41775">
        <ele>145</ele>
        <time>2011-07-15T16:28:39Z</time>
      </trkpt>
      <trkpt lat="45.3216" lon="1.41769">
        <ele>130</ele>
        <time>2011-07-15T16:28:45Z</time>
      </trkpt>
      <trkpt lat="45.32165" lon="1.41768">
        <ele>133</ele>
        <time>2011-07-15T16:28:49Z</time>
      </trkpt>
      <trkpt lat="45.3217" lon="1.41769">
        <ele>132</ele>
        <time>2011-07-15T16:28:53Z</time>
      </trkpt>
      <trkpt lat="45.32175" lon="1.41769">
        <ele>132</ele>
        <time>2011-07-15T16:28:57Z</time>
      </trkpt>
      <trkpt lat="45.3218" lon="1.41769">
        <ele>144</ele>
        <time>2011-07-15T16:29:02Z</time>
      </trkpt>
      <trkpt lat="45.32186" lon="1.41771">
        <ele>145</ele>
        <time>2011-07-15T16:29:06Z</time>
      </trkpt>
      <trkpt lat="45.32191" lon="1.41771">
        <ele>151</ele>
        <time>2011-07-15T16:29:09Z</time>
      </trkpt>
      <trkpt lat="45.32196" lon="1.41772">
        <ele>148</ele>
        <time>2011-07-15T16:29:13Z</time>
      </trkpt>
      <trkpt lat="45.32202" lon="1.41773">
        <ele>118</ele>
        <time>2011-07-15T16:29:17Z</time>
      </trkpt>
      <trkpt lat="45.32211" lon="1.41773">
        <ele>92</ele>
        <time>2011-07-15T16:29:24Z</time>
      </trkpt>
      <trkpt lat="45.32217" lon="1.41773">
        <ele>88</ele>
        <time>2011-07-15T16:29:26Z</time>
      </trkpt>
      <trkpt lat="45.32224" lon="1.41774">
        <ele>80</ele>
        <time>2011-07-15T16:29:28Z</time>
      </trkpt>
      <trkpt lat="45.32228" lon="1.41773">
        <ele>77</ele>
        <time>2011-07-15T16:29:30Z</time>
      </trkpt>
      <trkpt lat="45.32234" lon="1.41775">
        <ele>69</ele>
        <time>2011-07-15T16:29:32Z</time>
      </trkpt>
      <trkpt lat="45.3224" lon="1.41775">
        <ele>68</ele>
        <time>2011-07-15T16:29:34Z</time>
      </trkpt>
      <trkpt lat="45.32245" lon="1.41775">
        <ele>59</ele>
        <time>2011-07-15T16:29:36Z</time>
      </trkpt>
      <trkpt lat="45.3225" lon="1.41775">
        <ele>57</ele>
        <time>2011-07-15T16:29:38Z</time>
      </trkpt>
      <trkpt lat="45.32256" lon="1.41775">
        <ele>54</ele>
        <time>2011-07-15T16:29:41Z</time>
      </trkpt>
      <trkpt lat="45.32261" lon="1.41773">
        <ele>42</ele>
        <time>2011-07-15T16:29:44Z</time>
      </trkpt>
      <trkpt lat="45.32266" lon="1.41771">
        <ele>45</ele>
        <time>2011-07-15T16:29:47Z</time>
      </trkpt>
      <trkpt lat="45.32271" lon="1.41769">
        <ele>42</ele>
        <time>2011-07-15T16:29:49Z</time>
      </trkpt>
      <trkpt lat="45.32276" lon="1.41767">
        <ele>37</ele>
        <time>2011-07-15T16:29:52Z</time>
      </trkpt>
      <trkpt lat="45.32281" lon="1.41767">
        <ele>34</ele>
        <time>2011-07-15T16:29:55Z</time>
      </trkpt>
      <trkpt lat="45.32287" lon="1.41765">
        <ele>31</ele>
        <time>2011-07-15T16:29:58Z</time>
      </trkpt>
      <trkpt lat="45.32292" lon="1.41763">
        <ele>37</ele>
        <time>2011-07-15T16:30:01Z</time>
      </trkpt>
      <trkpt lat="45.32296" lon="1.41762">
        <ele>29</ele>
        <time>2011-07-15T16:30:04Z</time>
      </trkpt>
      <trkpt lat="45.32301" lon="1.41762">
        <ele>25</ele>
        <time>2011-07-15T16:30:08Z</time>
      </trkpt>
      <trkpt lat="45.32306" lon="1.41761">
        <ele>25</ele>
        <time>2011-07-15T16:30:12Z</time>
      </trkpt>
      <trkpt lat="45.32311" lon="1.41759">
        <ele>25</ele>
        <time>2011-07-15T16:30:19Z</time>
      </trkpt>
      <trkpt lat="45.32315" lon="1.41756">
        <ele>24</ele>
        <time>2011-07-15T16:30:23Z</time>
      </trkpt>
      <trkpt lat="45.32321" lon="1.41754">
        <ele>24</ele>
        <time>2011-07-15T16:30:26Z</time>
      </trkpt>
      <trkpt lat="45.32326" lon="1.41753">
        <ele>18</ele>
        <time>2011-07-15T16:30:30Z</time>
      </trkpt>
      <trkpt lat="45.32332" lon="1.4175">
        <ele>17</ele>
        <time>2011-07-15T16:30:34Z</time>
      </trkpt>
      <trkpt lat="45.32336" lon="1.41747">
        <ele>15</ele>
        <time>2011-07-15T16:30:37Z</time>
      </trkpt>
      <trkpt lat="45.3234" lon="1.41744">
        <ele>18</ele>
        <time>2011-07-15T16:30:42Z</time>
      </trkpt>
      <trkpt lat="45.32345" lon="1.41742">
        <ele>17</ele>
        <time>2011-07-15T16:30:47Z</time>
      </trkpt>
      <trkpt lat="45.32346" lon="1.41734">
        <ele>18</ele>
        <time>2011-07-15T16:31:11Z</time>
      </trkpt>
      <trkpt lat="45.32341" lon="1.41731">
        <ele>14</ele>
        <time>2011-07-15T16:31:19Z</time>
      </trkpt>
      <trkpt lat="45.32334" lon="1.41729">
        <ele>13</ele>
        <time>2011-07-15T16:31:24Z</time>
      </trkpt>
      <trkpt lat="45.32329" lon="1.41728">
        <ele>12</ele>
        <time>2011-07-15T16:31:27Z</time>
      </trkpt>
      <trkpt lat="45.32324" lon="1.41727">
        <ele>7</ele>
        <time>2011-07-15T16:31:33Z</time>
      </trkpt>
      <trkpt lat="45.32319" lon="1.41722">
        <ele>8</ele>
        <time>2011-07-15T16:31:36Z</time>
      </trkpt>
      <trkpt lat="45.32314" lon="1.41716">
        <ele>7</ele>
        <time>2011-07-15T16:31:41Z</time>
      </trkpt>
      <trkpt lat="45.3231" lon="1.4171">
        <ele>6</ele>
        <time>2011-07-15T16:31:43Z</time>
      </trkpt>
      <trkpt lat="45.32304" lon="1.41702">
        <ele>7</ele>
        <time>2011-07-15T16:31:45Z</time>
      </trkpt>
      <trkpt lat="45.32301" lon="1.41695">
        <ele>7</ele>
        <time>2011-07-15T16:31:48Z</time>
      </trkpt>
      <trkpt lat="45.32295" lon="1.41691">
        <ele>4</ele>
        <time>2011-07-15T16:31:51Z</time>
      </trkpt>
      <trkpt lat="45.3229" lon="1.41685">
        <ele>2</ele>
        <time>2011-07-15T16:31:54Z</time>
      </trkpt>
      <trkpt lat="45.32286" lon="1.41682">
        <ele>3</ele>
        <time>2011-07-15T16:31:56Z</time>
      </trkpt>
      <trkpt lat="45.32282" lon="1.41678">
        <ele>347.6</ele>
        <time>2011-07-15T16:31:58Z</time>
      </trkpt>
      <trkpt lat="45.32276" lon="1.41673">
        <ele>3</ele>
        <time>2011-07-15T16:32:01Z</time>
      </trkpt>
      <trkpt lat="45.32271" lon="1.41668">
        <ele>346.9</ele>
        <time>2011-07-15T16:32:04Z</time>
      </trkpt>
      <trkpt lat="45.32266" lon="1.41665">
        <ele>1</ele>
        <time>2011-07-15T16:32:07Z</time>
      </trkpt>
      <trkpt lat="45.32261" lon="1.41662">
        <ele>345.3</ele>
        <time>2011-07-15T16:32:10Z</time>
      </trkpt>
      <trkpt lat="45.32257" lon="1.41659">
        <ele>-1</ele>
        <time>2011-07-15T16:32:14Z</time>
      </trkpt>
      <trkpt lat="45.32253" lon="1.41655">
        <ele>-3</ele>
        <time>2011-07-15T16:32:20Z</time>
      </trkpt>
      <trkpt lat="45.32249" lon="1.41649">
        <ele>-7</ele>
        <time>2011-07-15T16:32:24Z</time>
      </trkpt>
      <trkpt lat="45.32244" lon="1.41643">
        <ele>-5</ele>
        <time>2011-07-15T16:32:26Z</time>
      </trkpt>
      <trkpt lat="45.3224" lon="1.41639">
        <ele>-8</ele>
        <time>2011-07-15T16:32:27Z</time>
      </trkpt>
      <trkpt lat="45.32235" lon="1.41633">
        <ele>-10</ele>
        <time>2011-07-15T16:32:29Z</time>
      </trkpt>
      <trkpt lat="45.32231" lon="1.41626">
        <ele>-10</ele>
        <time>2011-07-15T16:32:31Z</time>
      </trkpt>
      <trkpt lat="45.32228" lon="1.41618">
        <ele>-9</ele>
        <time>2011-07-15T16:32:33Z</time>
      </trkpt>
      <trkpt lat="45.32225" lon="1.41609">
        <ele>-6</ele>
        <time>2011-07-15T16:32:36Z</time>
      </trkpt>
      <trkpt lat="45.32225" lon="1.41602">
        <ele>-6</ele>
        <time>2011-07-15T16:32:38Z</time>
      </trkpt>
      <trkpt lat="45.32223" lon="1.41595">
        <ele>-7</ele>
        <time>2011-07-15T16:32:41Z</time>
      </trkpt>
      <trkpt lat="45.32518" lon="1.41444">
        <ele>412</ele>
        <time>2011-07-15T16:37:38Z</time>
      </trkpt>
      <trkpt lat="45.32518" lon="1.41444">
        <ele>412</ele>
        <time>2011-07-15T16:37:38Z</time>
      </trkpt>
      <trkpt lat="45.32518" lon="1.41444">
        <ele>412</ele>
        <time>2011-07-15T16:37:47Z</time>
      </trkpt>
      <trkpt lat="45.32528" lon="1.4144">
        <ele>406</ele>
        <time>2011-07-15T16:37:48Z</time>
      </trkpt>
      <trkpt lat="45.32528" lon="1.4144">
        <ele>406</ele>
        <time>2011-07-15T16:37:48Z</time>
      </trkpt>
      <trkpt lat="45.32528" lon="1.4144">
        <ele>406</ele>
        <time>2011-07-15T16:37:54Z</time>
      </trkpt>
      <trkpt lat="45.32537" lon="1.41439">
        <ele>409</ele>
        <time>2011-07-15T16:37:55Z</time>
      </trkpt>
      <trkpt lat="45.32537" lon="1.41439">
        <ele>409</ele>
        <time>2011-07-15T16:37:55Z</time>
      </trkpt>
      <trkpt lat="45.32537" lon="1.41439">
        <ele>409</ele>
        <time>2011-07-15T16:38:01Z</time>
      </trkpt>
      <trkpt lat="45.32547" lon="1.41436">
        <ele>409</ele>
        <time>2011-07-15T16:38:02Z</time>
      </trkpt>
      <trkpt lat="45.32547" lon="1.41436">
        <ele>409</ele>
        <time>2011-07-15T16:38:02Z</time>
      </trkpt>
      <trkpt lat="45.32547" lon="1.41436">
        <ele>409</ele>
        <time>2011-07-15T16:38:04Z</time>
      </trkpt>
      <trkpt lat="45.32554" lon="1.41431">
        <ele>408</ele>
        <time>2011-07-15T16:38:09Z</time>
      </trkpt>
      <trkpt lat="45.32558" lon="1.41428">
        <ele>407</ele>
        <time>2011-07-15T16:38:11Z</time>
      </trkpt>
      <trkpt lat="45.32562" lon="1.41425">
        <ele>406</ele>
        <time>2011-07-15T16:38:15Z</time>
      </trkpt>
      <trkpt lat="45.32557" lon="1.41421">
        <ele>409</ele>
        <time>2011-07-15T16:38:43Z</time>
      </trkpt>
      <trkpt lat="45.32562" lon="1.41417">
        <ele>408</ele>
        <time>2011-07-15T16:38:54Z</time>
      </trkpt>
      <trkpt lat="45.32568" lon="1.41416">
        <ele>407</ele>
        <time>2011-07-15T16:38:57Z</time>
      </trkpt>
      <trkpt lat="45.32572" lon="1.41411">
        <ele>407</ele>
        <time>2011-07-15T16:39:00Z</time>
      </trkpt>
      <trkpt lat="45.32577" lon="1.41408">
        <ele>410</ele>
        <time>2011-07-15T16:39:03Z</time>
      </trkpt>
      <trkpt lat="45.32581" lon="1.41404">
        <ele>405</ele>
        <time>2011-07-15T16:39:05Z</time>
      </trkpt>
      <trkpt lat="45.32586" lon="1.41399">
        <ele>403</ele>
        <time>2011-07-15T16:39:08Z</time>
      </trkpt>
      <trkpt lat="45.32591" lon="1.41397">
        <ele>402</ele>
        <time>2011-07-15T16:39:11Z</time>
      </trkpt>
      <trkpt lat="45.32596" lon="1.41394">
        <ele>403</ele>
        <time>2011-07-15T16:39:14Z</time>
      </trkpt>
      <trkpt lat="45.32602" lon="1.41391">
        <ele>404</ele>
        <time>2011-07-15T16:39:17Z</time>
      </trkpt>
      <trkpt lat="45.32606" lon="1.4139">
        <ele>405</ele>
        <time>2011-07-15T16:39:20Z</time>
      </trkpt>
      <trkpt lat="45.32612" lon="1.41386">
        <ele>404</ele>
        <time>2011-07-15T16:39:23Z</time>
      </trkpt>
      <trkpt lat="45.32616" lon="1.41384">
        <ele>404</ele>
        <time>2011-07-15T16:39:26Z</time>
      </trkpt>
      <trkpt lat="45.32622" lon="1.41381">
        <ele>405</ele>
        <time>2011-07-15T16:39:29Z</time>
      </trkpt>
      <trkpt lat="45.32628" lon="1.4138">
        <ele>405</ele>
        <time>2011-07-15T16:39:32Z</time>
      </trkpt>
      <trkpt lat="45.32634" lon="1.4138">
        <ele>405</ele>
        <time>2011-07-15T16:39:35Z</time>
      </trkpt>
      <trkpt lat="45.32638" lon="1.41381">
        <ele>403</ele>
        <time>2011-07-15T16:39:37Z</time>
      </trkpt>
      <trkpt lat="45.32646" lon="1.4138">
        <ele>404</ele>
        <time>2011-07-15T16:39:39Z</time>
      </trkpt>
      <trkpt lat="45.32652" lon="1.41378">
        <ele>403</ele>
        <time>2011-07-15T16:39:41Z</time>
      </trkpt>
      <trkpt lat="45.3266" lon="1.41376">
        <ele>404</ele>
        <time>2011-07-15T16:39:43Z</time>
      </trkpt>
      <trkpt lat="45.32667" lon="1.41371">
        <ele>406</ele>
        <time>2011-07-15T16:39:45Z</time>
      </trkpt>
      <trkpt lat="45.32671" lon="1.41369">
        <ele>405</ele>
        <time>2011-07-15T16:39:46Z</time>
      </trkpt>
      <trkpt lat="45.32675" lon="1.41367">
        <ele>405</ele>
        <time>2011-07-15T16:39:47Z</time>
      </trkpt>
      <trkpt lat="45.32682" lon="1.41364">
        <ele>402</ele>
        <time>2011-07-15T16:39:49Z</time>
      </trkpt>
      <trkpt lat="45.32689" lon="1.41361">
        <ele>405</ele>
        <time>2011-07-15T16:39:51Z</time>
      </trkpt>
      <trkpt lat="45.32695" lon="1.41359">
        <ele>405</ele>
        <time>2011-07-15T16:39:53Z</time>
      </trkpt>
      <trkpt lat="45.32702" lon="1.41358">
        <ele>405</ele>
        <time>2011-07-15T16:39:55Z</time>
      </trkpt>
      <trkpt lat="45.3271" lon="1.41355">
        <ele>406</ele>
        <time>2011-07-15T16:39:57Z</time>
      </trkpt>
      <trkpt lat="45.32716" lon="1.41352">
        <ele>407</ele>
        <time>2011-07-15T16:39:59Z</time>
      </trkpt>
      <trkpt lat="45.3272" lon="1.41349">
        <ele>408</ele>
        <time>2011-07-15T16:40:01Z</time>
      </trkpt>
      <trkpt lat="45.32725" lon="1.41346">
        <ele>407</ele>
        <time>2011-07-15T16:40:03Z</time>
      </trkpt>
      <trkpt lat="45.32728" lon="1.41341">
        <ele>408</ele>
        <time>2011-07-15T16:40:06Z</time>
      </trkpt>
      <trkpt lat="45.32725" lon="1.41332">
        <ele>405</ele>
        <time>2011-07-15T16:40:09Z</time>
      </trkpt>
      <trkpt lat="45.32722" lon="1.41325">
        <ele>405</ele>
        <time>2011-07-15T16:40:12Z</time>
      </trkpt>
      <trkpt lat="45.32722" lon="1.41316">
        <ele>402</ele>
        <time>2011-07-15T16:40:15Z</time>
      </trkpt>
      <trkpt lat="45.3272" lon="1.41306">
        <ele>404</ele>
        <time>2011-07-15T16:40:17Z</time>
      </trkpt>
      <trkpt lat="45.32718" lon="1.41295">
        <ele>403</ele>
        <time>2011-07-15T16:40:19Z</time>
      </trkpt>
      <trkpt lat="45.32717" lon="1.41287">
        <ele>398</ele>
        <time>2011-07-15T16:40:20Z</time>
      </trkpt>
      <trkpt lat="45.32717" lon="1.4128">
        <ele>400</ele>
        <time>2011-07-15T16:40:21Z</time>
      </trkpt>
      <trkpt lat="45.32716" lon="1.41272">
        <ele>400</ele>
        <time>2011-07-15T16:40:22Z</time>
      </trkpt>
      <trkpt lat="45.32715" lon="1.41264">
        <ele>400</ele>
        <time>2011-07-15T16:40:23Z</time>
      </trkpt>
      <trkpt lat="45.32715" lon="1.41257">
        <ele>398</ele>
        <time>2011-07-15T16:40:24Z</time>
      </trkpt>
      <trkpt lat="45.32714" lon="1.4125">
        <ele>399</ele>
        <time>2011-07-15T16:40:25Z</time>
      </trkpt>
      <trkpt lat="45.32714" lon="1.41241">
        <ele>399</ele>
        <time>2011-07-15T16:40:26Z</time>
      </trkpt>
      <trkpt lat="45.32714" lon="1.41233">
        <ele>401</ele>
        <time>2011-07-15T16:40:27Z</time>
      </trkpt>
      <trkpt lat="45.32715" lon="1.41225">
        <ele>397</ele>
        <time>2011-07-15T16:40:28Z</time>
      </trkpt>
      <trkpt lat="45.32717" lon="1.41218">
        <ele>399</ele>
        <time>2011-07-15T16:40:29Z</time>
      </trkpt>
      <trkpt lat="45.32719" lon="1.41211">
        <ele>397</ele>
        <time>2011-07-15T16:40:30Z</time>
      </trkpt>
      <trkpt lat="45.32722" lon="1.41206">
        <ele>396</ele>
        <time>2011-07-15T16:40:31Z</time>
      </trkpt>
      <trkpt lat="45.32725" lon="1.412">
        <ele>398</ele>
        <time>2011-07-15T16:40:32Z</time>
      </trkpt>
      <trkpt lat="45.32734" lon="1.41194">
        <ele>399</ele>
        <time>2011-07-15T16:40:34Z</time>
      </trkpt>
      <trkpt lat="45.32739" lon="1.4119">
        <ele>401</ele>
        <time>2011-07-15T16:40:35Z</time>
      </trkpt>
      <trkpt lat="45.32744" lon="1.41187">
        <ele>402</ele>
        <time>2011-07-15T16:40:36Z</time>
      </trkpt>
      <trkpt lat="45.3275" lon="1.41183">
        <ele>403</ele>
        <time>2011-07-15T16:40:37Z</time>
      </trkpt>
      <trkpt lat="45.32756" lon="1.41178">
        <ele>404</ele>
        <time>2011-07-15T16:40:38Z</time>
      </trkpt>
      <trkpt lat="45.32764" lon="1.41174">
        <ele>401</ele>
        <time>2011-07-15T16:40:39Z</time>
      </trkpt>
      <trkpt lat="45.32771" lon="1.41171">
        <ele>402</ele>
        <time>2011-07-15T16:40:40Z</time>
      </trkpt>
      <trkpt lat="45.32779" lon="1.41168">
        <ele>401</ele>
        <time>2011-07-15T16:40:41Z</time>
      </trkpt>
      <trkpt lat="45.32786" lon="1.41166">
        <ele>399</ele>
        <time>2011-07-15T16:40:42Z</time>
      </trkpt>
      <trkpt lat="45.32794" lon="1.41164">
        <ele>399</ele>
        <time>2011-07-15T16:40:43Z</time>
      </trkpt>
      <trkpt lat="45.32802" lon="1.41162">
        <ele>398</ele>
        <time>2011-07-15T16:40:44Z</time>
      </trkpt>
      <trkpt lat="45.32808" lon="1.41157">
        <ele>400</ele>
        <time>2011-07-15T16:40:45Z</time>
      </trkpt>
      <trkpt lat="45.32814" lon="1.41152">
        <ele>400</ele>
        <time>2011-07-15T16:40:46Z</time>
      </trkpt>
      <trkpt lat="45.32819" lon="1.41145">
        <ele>402</ele>
        <time>2011-07-15T16:40:47Z</time>
      </trkpt>
      <trkpt lat="45.32824" lon="1.41138">
        <ele>401</ele>
        <time>2011-07-15T16:40:48Z</time>
      </trkpt>
      <trkpt lat="45.32828" lon="1.41131">
        <ele>399</ele>
        <time>2011-07-15T16:40:49Z</time>
      </trkpt>
      <trkpt lat="45.32832" lon="1.41121">
        <ele>395</ele>
        <time>2011-07-15T16:40:50Z</time>
      </trkpt>
      <trkpt lat="45.32836" lon="1.41114">
        <ele>393</ele>
        <time>2011-07-15T16:40:51Z</time>
      </trkpt>
      <trkpt lat="45.32839" lon="1.41106">
        <ele>392</ele>
        <time>2011-07-15T16:40:52Z</time>
      </trkpt>
      <trkpt lat="45.32841" lon="1.411">
        <ele>391</ele>
        <time>2011-07-15T16:40:53Z</time>
      </trkpt>
      <trkpt lat="45.32843" lon="1.41094">
        <ele>393</ele>
        <time>2011-07-15T16:40:54Z</time>
      </trkpt>
      <trkpt lat="45.32845" lon="1.41087">
        <ele>392</ele>
        <time>2011-07-15T16:40:55Z</time>
      </trkpt>
      <trkpt lat="45.32848" lon="1.41076">
        <ele>392</ele>
        <time>2011-07-15T16:40:57Z</time>
      </trkpt>
      <trkpt lat="45.32849" lon="1.41064">
        <ele>388</ele>
        <time>2011-07-15T16:40:59Z</time>
      </trkpt>
      <trkpt lat="45.3285" lon="1.41054">
        <ele>387</ele>
        <time>2011-07-15T16:41:01Z</time>
      </trkpt>
      <trkpt lat="45.32851" lon="1.41044">
        <ele>386</ele>
        <time>2011-07-15T16:41:03Z</time>
      </trkpt>
      <trkpt lat="45.32853" lon="1.41035">
        <ele>386</ele>
        <time>2011-07-15T16:41:05Z</time>
      </trkpt>
      <trkpt lat="45.32857" lon="1.41024">
        <ele>387</ele>
        <time>2011-07-15T16:41:07Z</time>
      </trkpt>
      <trkpt lat="45.3286" lon="1.41018">
        <ele>386</ele>
        <time>2011-07-15T16:41:08Z</time>
      </trkpt>
      <trkpt lat="45.32863" lon="1.41012">
        <ele>385</ele>
        <time>2011-07-15T16:41:09Z</time>
      </trkpt>
      <trkpt lat="45.32868" lon="1.41006">
        <ele>385</ele>
        <time>2011-07-15T16:41:10Z</time>
      </trkpt>
      <trkpt lat="45.32874" lon="1.41">
        <ele>387</ele>
        <time>2011-07-15T16:41:11Z</time>
      </trkpt>
      <trkpt lat="45.32879" lon="1.40993">
        <ele>391</ele>
        <time>2011-07-15T16:41:12Z</time>
      </trkpt>
      <trkpt lat="45.32885" lon="1.40987">
        <ele>391</ele>
        <time>2011-07-15T16:41:13Z</time>
      </trkpt>
      <trkpt lat="45.3289" lon="1.4098">
        <ele>391</ele>
        <time>2011-07-15T16:41:14Z</time>
      </trkpt>
      <trkpt lat="45.32896" lon="1.40972">
        <ele>393</ele>
        <time>2011-07-15T16:41:15Z</time>
      </trkpt>
      <trkpt lat="45.32902" lon="1.40963">
        <ele>394</ele>
        <time>2011-07-15T16:41:16Z</time>
      </trkpt>
      <trkpt lat="45.32906" lon="1.40954">
        <ele>396</ele>
        <time>2011-07-15T16:41:17Z</time>
      </trkpt>
      <trkpt lat="45.3291" lon="1.40943">
        <ele>398</ele>
        <time>2011-07-15T16:41:18Z</time>
      </trkpt>
      <trkpt lat="45.32915" lon="1.40936">
        <ele>399</ele>
        <time>2011-07-15T16:41:19Z</time>
      </trkpt>
      <trkpt lat="45.3292" lon="1.40929">
        <ele>400</ele>
        <time>2011-07-15T16:41:20Z</time>
      </trkpt>
      <trkpt lat="45.32926" lon="1.40924">
        <ele>402</ele>
        <time>2011-07-15T16:41:21Z</time>
      </trkpt>
      <trkpt lat="45.32931" lon="1.40921">
        <ele>405</ele>
        <time>2011-07-15T16:41:22Z</time>
      </trkpt>
      <trkpt lat="45.32936" lon="1.40918">
        <ele>404</ele>
        <time>2011-07-15T16:41:23Z</time>
      </trkpt>
      <trkpt lat="45.32942" lon="1.40915">
        <ele>402</ele>
        <time>2011-07-15T16:41:25Z</time>
      </trkpt>
      <trkpt lat="45.32949" lon="1.40912">
        <ele>402</ele>
        <time>2011-07-15T16:41:27Z</time>
      </trkpt>
      <trkpt lat="45.32956" lon="1.40908">
        <ele>406</ele>
        <time>2011-07-15T16:41:29Z</time>
      </trkpt>
      <trkpt lat="45.32961" lon="1.40902">
        <ele>406</ele>
        <time>2011-07-15T16:41:31Z</time>
      </trkpt>
      <trkpt lat="45.32964" lon="1.40896">
        <ele>405</ele>
        <time>2011-07-15T16:41:33Z</time>
      </trkpt>
      <trkpt lat="45.32966" lon="1.40889">
        <ele>405</ele>
        <time>2011-07-15T16:41:36Z</time>
      </trkpt>
      <trkpt lat="45.32971" lon="1.40872">
        <ele>407</ele>
        <time>2011-07-15T16:41:42Z</time>
      </trkpt>
      <trkpt lat="45.32973" lon="1.40866">
        <ele>405</ele>
        <time>2011-07-15T16:41:44Z</time>
      </trkpt>
      <trkpt lat="45.32973" lon="1.40866">
        <ele>405</ele>
        <time>2011-07-15T16:41:44Z</time>
      </trkpt>
      <trkpt lat="45.32973" lon="1.40866">
        <ele>405</ele>
        <time>2011-07-15T16:41:46Z</time>
      </trkpt>
      <trkpt lat="45.32979" lon="1.4085">
        <ele>408</ele>
        <time>2011-07-15T16:41:52Z</time>
      </trkpt>
      <trkpt lat="45.32979" lon="1.4085">
        <ele>408</ele>
        <time>2011-07-15T16:41:52Z</time>
      </trkpt>
      <trkpt lat="45.32979" lon="1.4085">
        <ele>408</ele>
        <time>2011-07-15T16:41:57Z</time>
      </trkpt>
      <trkpt lat="45.32984" lon="1.40838">
        <ele>408</ele>
        <time>2011-07-15T16:41:58Z</time>
      </trkpt>
      <trkpt lat="45.32984" lon="1.40838">
        <ele>408</ele>
        <time>2011-07-15T16:41:58Z</time>
      </trkpt>
      <trkpt lat="45.32984" lon="1.40838">
        <ele>408</ele>
        <time>2011-07-15T16:42:04Z</time>
      </trkpt>
      <trkpt lat="45.32993" lon="1.40831">
        <ele>409</ele>
        <time>2011-07-15T16:42:05Z</time>
      </trkpt>
      <trkpt lat="45.32993" lon="1.40831">
        <ele>409</ele>
        <time>2011-07-15T16:42:05Z</time>
      </trkpt>
      <trkpt lat="45.32993" lon="1.40831">
        <ele>409</ele>
        <time>2011-07-15T16:42:09Z</time>
      </trkpt>
      <trkpt lat="45.33001" lon="1.40821">
        <ele>408</ele>
        <time>2011-07-15T16:42:10Z</time>
      </trkpt>
      <trkpt lat="45.33001" lon="1.40821">
        <ele>408</ele>
        <time>2011-07-15T16:42:10Z</time>
      </trkpt>
      <trkpt lat="45.33001" lon="1.40821">
        <ele>408</ele>
        <time>2011-07-15T16:42:16Z</time>
      </trkpt>
      <trkpt lat="45.33014" lon="1.40816">
        <ele>408</ele>
        <time>2011-07-15T16:42:17Z</time>
      </trkpt>
      <trkpt lat="45.33014" lon="1.40816">
        <ele>408</ele>
        <time>2011-07-15T16:42:17Z</time>
      </trkpt>
      <trkpt lat="45.33014" lon="1.40816">
        <ele>408</ele>
        <time>2011-07-15T16:42:19Z</time>
      </trkpt>
      <trkpt lat="45.33025" lon="1.40812">
        <ele>413</ele>
        <time>2011-07-15T16:42:20Z</time>
      </trkpt>
      <trkpt lat="45.33025" lon="1.40812">
        <ele>413</ele>
        <time>2011-07-15T16:42:20Z</time>
      </trkpt>
      <trkpt lat="45.33025" lon="1.40812">
        <ele>413</ele>
        <time>2011-07-15T16:42:22Z</time>
      </trkpt>
      <trkpt lat="45.33034" lon="1.40809">
        <ele>410</ele>
        <time>2011-07-15T16:42:23Z</time>
      </trkpt>
      <trkpt lat="45.33034" lon="1.40809">
        <ele>410</ele>
        <time>2011-07-15T16:42:23Z</time>
      </trkpt>
      <trkpt lat="45.33034" lon="1.40809">
        <ele>410</ele>
        <time>2011-07-15T16:42:26Z</time>
      </trkpt>
      <trkpt lat="45.33043" lon="1.40804">
        <ele>413</ele>
        <time>2011-07-15T16:42:27Z</time>
      </trkpt>
      <trkpt lat="45.33043" lon="1.40804">
        <ele>413</ele>
        <time>2011-07-15T16:42:27Z</time>
      </trkpt>
      <trkpt lat="45.33043" lon="1.40804">
        <ele>413</ele>
        <time>2011-07-15T16:42:35Z</time>
      </trkpt>
      <trkpt lat="45.33052" lon="1.40801">
        <ele>413</ele>
        <time>2011-07-15T16:42:36Z</time>
      </trkpt>
      <trkpt lat="45.33052" lon="1.40801">
        <ele>413</ele>
        <time>2011-07-15T16:42:36Z</time>
      </trkpt>
      <trkpt lat="45.33052" lon="1.40801">
        <ele>413</ele>
        <time>2011-07-15T16:42:39Z</time>
      </trkpt>
      <trkpt lat="45.33062" lon="1.40799">
        <ele>409</ele>
        <time>2011-07-15T16:42:40Z</time>
      </trkpt>
      <trkpt lat="45.33062" lon="1.40799">
        <ele>409</ele>
        <time>2011-07-15T16:42:40Z</time>
      </trkpt>
      <trkpt lat="45.33062" lon="1.40799">
        <ele>409</ele>
        <time>2011-07-15T16:42:43Z</time>
      </trkpt>
      <trkpt lat="45.33073" lon="1.40798">
        <ele>411</ele>
        <time>2011-07-15T16:42:44Z</time>
      </trkpt>
      <trkpt lat="45.33073" lon="1.40798">
        <ele>411</ele>
        <time>2011-07-15T16:42:44Z</time>
      </trkpt>
      <trkpt lat="45.33073" lon="1.40798">
        <ele>411</ele>
        <time>2011-07-15T16:42:50Z</time>
      </trkpt>
      <trkpt lat="45.33084" lon="1.40795">
        <ele>408</ele>
        <time>2011-07-15T16:42:51Z</time>
      </trkpt>
      <trkpt lat="45.33084" lon="1.40795">
        <ele>408</ele>
        <time>2011-07-15T16:42:51Z</time>
      </trkpt>
      <trkpt lat="45.33084" lon="1.40795">
        <ele>408</ele>
        <time>2011-07-15T16:42:53Z</time>
      </trkpt>
      <trkpt lat="45.33096" lon="1.40794">
        <ele>407</ele>
        <time>2011-07-15T16:42:54Z</time>
      </trkpt>
      <trkpt lat="45.33109" lon="1.40787">
        <ele>407</ele>
        <time>2011-07-15T16:43:08Z</time>
      </trkpt>
      <trkpt lat="45.33109" lon="1.40787">
        <ele>407</ele>
        <time>2011-07-15T16:43:08Z</time>
      </trkpt>
      <trkpt lat="45.33109" lon="1.40787">
        <ele>407</ele>
        <time>2011-07-15T16:43:12Z</time>
      </trkpt>
      <trkpt lat="45.33116" lon="1.40779">
        <ele>406</ele>
        <time>2011-07-15T16:43:13Z</time>
      </trkpt>
      <trkpt lat="45.33116" lon="1.40779">
        <ele>406</ele>
        <time>2011-07-15T16:43:13Z</time>
      </trkpt>
      <trkpt lat="45.33116" lon="1.40779">
        <ele>406</ele>
        <time>2011-07-15T16:43:24Z</time>
      </trkpt>
      <trkpt lat="45.33121" lon="1.40768">
        <ele>406</ele>
        <time>2011-07-15T16:43:25Z</time>
      </trkpt>
      <trkpt lat="45.33121" lon="1.40768">
        <ele>406</ele>
        <time>2011-07-15T16:43:25Z</time>
      </trkpt>
      <trkpt lat="45.33121" lon="1.40768">
        <ele>406</ele>
        <time>2011-07-15T16:43:59Z</time>
      </trkpt>
      <trkpt lat="45.33108" lon="1.40769">
        <ele>389</ele>
        <time>2011-07-15T16:44:00Z</time>
      </trkpt>
      <trkpt lat="45.33108" lon="1.40769">
        <ele>389</ele>
        <time>2011-07-15T16:44:00Z</time>
      </trkpt>
      <trkpt lat="45.33108" lon="1.40769">
        <ele>389</ele>
        <time>2011-07-15T16:44:03Z</time>
      </trkpt>
      <trkpt lat="45.33095" lon="1.40768">
        <ele>394</ele>
        <time>2011-07-15T16:44:04Z</time>
      </trkpt>
      <trkpt lat="45.33095" lon="1.40768">
        <ele>394</ele>
        <time>2011-07-15T16:44:04Z</time>
      </trkpt>
      <trkpt lat="45.33095" lon="1.40768">
        <ele>394</ele>
        <time>2011-07-15T16:44:06Z</time>
      </trkpt>
      <trkpt lat="45.33083" lon="1.40765">
        <ele>396</ele>
        <time>2011-07-15T16:44:07Z</time>
      </trkpt>
      <trkpt lat="45.33083" lon="1.40765">
        <ele>396</ele>
        <time>2011-07-15T16:44:07Z</time>
      </trkpt>
      <trkpt lat="45.33083" lon="1.40765">
        <ele>396</ele>
        <time>2011-07-15T16:44:11Z</time>
      </trkpt>
      <trkpt lat="45.33073" lon="1.40761">
        <ele>397</ele>
        <time>2011-07-15T16:44:12Z</time>
      </trkpt>
      <trkpt lat="45.33073" lon="1.40761">
        <ele>397</ele>
        <time>2011-07-15T16:44:12Z</time>
      </trkpt>
      <trkpt lat="45.33073" lon="1.40761">
        <ele>397</ele>
        <time>2011-07-15T16:44:16Z</time>
      </trkpt>
      <trkpt lat="45.33062" lon="1.40756">
        <ele>394</ele>
        <time>2011-07-15T16:44:17Z</time>
      </trkpt>
      <trkpt lat="45.33062" lon="1.40756">
        <ele>394</ele>
        <time>2011-07-15T16:44:17Z</time>
      </trkpt>
      <trkpt lat="45.33062" lon="1.40756">
        <ele>394</ele>
        <time>2011-07-15T16:44:21Z</time>
      </trkpt>
      <trkpt lat="45.33052" lon="1.40754">
        <ele>389</ele>
        <time>2011-07-15T16:44:22Z</time>
      </trkpt>
      <trkpt lat="45.33052" lon="1.40754">
        <ele>389</ele>
        <time>2011-07-15T16:44:22Z</time>
      </trkpt>
      <trkpt lat="45.33052" lon="1.40754">
        <ele>389</ele>
        <time>2011-07-15T16:44:25Z</time>
      </trkpt>
      <trkpt lat="45.33042" lon="1.40753">
        <ele>388</ele>
        <time>2011-07-15T16:44:26Z</time>
      </trkpt>
      <trkpt lat="45.33031" lon="1.40755">
        <ele>384</ele>
        <time>2011-07-15T16:44:32Z</time>
      </trkpt>
      <trkpt lat="45.33031" lon="1.40755">
        <ele>384</ele>
        <time>2011-07-15T16:44:32Z</time>
      </trkpt>
      <trkpt lat="45.33031" lon="1.40755">
        <ele>384</ele>
        <time>2011-07-15T16:44:35Z</time>
      </trkpt>
      <trkpt lat="45.33025" lon="1.40751">
        <ele>388</ele>
        <time>2011-07-15T16:44:36Z</time>
      </trkpt>
      <trkpt lat="45.33025" lon="1.40751">
        <ele>388</ele>
        <time>2011-07-15T16:44:36Z</time>
      </trkpt>
      <trkpt lat="45.33025" lon="1.40751">
        <ele>388</ele>
        <time>2011-07-15T16:44:39Z</time>
      </trkpt>
      <trkpt lat="45.33016" lon="1.40741">
        <ele>385</ele>
        <time>2011-07-15T16:44:40Z</time>
      </trkpt>
      <trkpt lat="45.33012" lon="1.40735">
        <ele>382</ele>
        <time>2011-07-15T16:44:43Z</time>
      </trkpt>
      <trkpt lat="45.33002" lon="1.4072">
        <ele>390</ele>
        <time>2011-07-15T16:44:50Z</time>
      </trkpt>
      <trkpt lat="45.32997" lon="1.4071">
        <ele>388</ele>
        <time>2011-07-15T16:44:52Z</time>
      </trkpt>
      <trkpt lat="45.32997" lon="1.4071">
        <ele>388</ele>
        <time>2011-07-15T16:44:52Z</time>
      </trkpt>
      <trkpt lat="45.32997" lon="1.4071">
        <ele>388</ele>
        <time>2011-07-15T16:44:54Z</time>
      </trkpt>
      <trkpt lat="45.32989" lon="1.40699">
        <ele>389</ele>
        <time>2011-07-15T16:44:55Z</time>
      </trkpt>
      <trkpt lat="45.32989" lon="1.40699">
        <ele>389</ele>
        <time>2011-07-15T16:44:55Z</time>
      </trkpt>
      <trkpt lat="45.32989" lon="1.40699">
        <ele>389</ele>
        <time>2011-07-15T16:44:56Z</time>
      </trkpt>
      <trkpt lat="45.32979" lon="1.40681">
        <ele>412</ele>
        <time>2011-07-15T16:45:03Z</time>
      </trkpt>
      <trkpt lat="45.32979" lon="1.40681">
        <ele>412</ele>
        <time>2011-07-15T16:45:03Z</time>
      </trkpt>
      <trkpt lat="45.32979" lon="1.40681">
        <ele>412</ele>
        <time>2011-07-15T16:45:06Z</time>
      </trkpt>
      <trkpt lat="45.32971" lon="1.4067">
        <ele>415</ele>
        <time>2011-07-15T16:45:07Z</time>
      </trkpt>
      <trkpt lat="45.32971" lon="1.4067">
        <ele>415</ele>
        <time>2011-07-15T16:45:07Z</time>
      </trkpt>
      <trkpt lat="45.32971" lon="1.4067">
        <ele>415</ele>
        <time>2011-07-15T16:45:11Z</time>
      </trkpt>
      <trkpt lat="45.32965" lon="1.4066">
        <ele>409</ele>
        <time>2011-07-15T16:45:12Z</time>
      </trkpt>
      <trkpt lat="45.32962" lon="1.4065">
        <ele>409</ele>
        <time>2011-07-15T16:45:14Z</time>
      </trkpt>
      <trkpt lat="45.32959" lon="1.40641">
        <ele>406</ele>
        <time>2011-07-15T16:45:16Z</time>
      </trkpt>
      <trkpt lat="45.32955" lon="1.40632">
        <ele>411</ele>
        <time>2011-07-15T16:45:18Z</time>
      </trkpt>
      <trkpt lat="45.32953" lon="1.40626">
        <ele>409</ele>
        <time>2011-07-15T16:45:19Z</time>
      </trkpt>
      <trkpt lat="45.32951" lon="1.4062">
        <ele>404</ele>
        <time>2011-07-15T16:45:20Z</time>
      </trkpt>
      <trkpt lat="45.32948" lon="1.40612">
        <ele>403</ele>
        <time>2011-07-15T16:45:21Z</time>
      </trkpt>
      <trkpt lat="45.32945" lon="1.40606">
        <ele>404</ele>
        <time>2011-07-15T16:45:22Z</time>
      </trkpt>
      <trkpt lat="45.32942" lon="1.40599">
        <ele>405</ele>
        <time>2011-07-15T16:45:23Z</time>
      </trkpt>
      <trkpt lat="45.32941" lon="1.40593">
        <ele>403</ele>
        <time>2011-07-15T16:45:24Z</time>
      </trkpt>
      <trkpt lat="45.3294" lon="1.40585">
        <ele>404</ele>
        <time>2011-07-15T16:45:25Z</time>
      </trkpt>
      <trkpt lat="45.32938" lon="1.40577">
        <ele>404</ele>
        <time>2011-07-15T16:45:26Z</time>
      </trkpt>
      <trkpt lat="45.32936" lon="1.4057">
        <ele>405</ele>
        <time>2011-07-15T16:45:27Z</time>
      </trkpt>
      <trkpt lat="45.32934" lon="1.40561">
        <ele>406</ele>
        <time>2011-07-15T16:45:28Z</time>
      </trkpt>
      <trkpt lat="45.3293" lon="1.40554">
        <ele>407</ele>
        <time>2011-07-15T16:45:29Z</time>
      </trkpt>
      <trkpt lat="45.32926" lon="1.40548">
        <ele>406</ele>
        <time>2011-07-15T16:45:30Z</time>
      </trkpt>
      <trkpt lat="45.32923" lon="1.40543">
        <ele>406</ele>
        <time>2011-07-15T16:45:31Z</time>
      </trkpt>
      <trkpt lat="45.32918" lon="1.40537">
        <ele>407</ele>
        <time>2011-07-15T16:45:32Z</time>
      </trkpt>
      <trkpt lat="45.32914" lon="1.40533">
        <ele>409</ele>
        <time>2011-07-15T16:45:33Z</time>
      </trkpt>
      <trkpt lat="45.32909" lon="1.4053">
        <ele>406</ele>
        <time>2011-07-15T16:45:34Z</time>
      </trkpt>
      <trkpt lat="45.32905" lon="1.40526">
        <ele>407</ele>
        <time>2011-07-15T16:45:35Z</time>
      </trkpt>
      <trkpt lat="45.32899" lon="1.40522">
        <ele>405</ele>
        <time>2011-07-15T16:45:37Z</time>
      </trkpt>
      <trkpt lat="45.32891" lon="1.40518">
        <ele>406</ele>
        <time>2011-07-15T16:45:41Z</time>
      </trkpt>
      <trkpt lat="45.32891" lon="1.40518">
        <ele>406</ele>
        <time>2011-07-15T16:45:41Z</time>
      </trkpt>
      <trkpt lat="45.32891" lon="1.40518">
        <ele>406</ele>
        <time>2011-07-15T16:45:46Z</time>
      </trkpt>
      <trkpt lat="45.32882" lon="1.4051">
        <ele>414</ele>
        <time>2011-07-15T16:45:47Z</time>
      </trkpt>
      <trkpt lat="45.32876" lon="1.40505">
        <ele>411</ele>
        <time>2011-07-15T16:45:49Z</time>
      </trkpt>
      <trkpt lat="45.32871" lon="1.40501">
        <ele>418</ele>
        <time>2011-07-15T16:45:50Z</time>
      </trkpt>
      <trkpt lat="45.32863" lon="1.40494">
        <ele>415</ele>
        <time>2011-07-15T16:45:52Z</time>
      </trkpt>
      <trkpt lat="45.32858" lon="1.40491">
        <ele>416</ele>
        <time>2011-07-15T16:45:53Z</time>
      </trkpt>
      <trkpt lat="45.32851" lon="1.40488">
        <ele>417</ele>
        <time>2011-07-15T16:45:55Z</time>
      </trkpt>
      <trkpt lat="45.32851" lon="1.40488">
        <ele>417</ele>
        <time>2011-07-15T16:45:55Z</time>
      </trkpt>
      <trkpt lat="45.32851" lon="1.40488">
        <ele>417</ele>
        <time>2011-07-15T16:45:57Z</time>
      </trkpt>
      <trkpt lat="45.32843" lon="1.40483">
        <ele>421</ele>
        <time>2011-07-15T16:45:58Z</time>
      </trkpt>
      <trkpt lat="45.32832" lon="1.40471">
        <ele>401</ele>
        <time>2011-07-15T16:46:07Z</time>
      </trkpt>
      <trkpt lat="45.32827" lon="1.40466">
        <ele>398</ele>
        <time>2011-07-15T16:46:08Z</time>
      </trkpt>
      <trkpt lat="45.32819" lon="1.40459">
        <ele>402</ele>
        <time>2011-07-15T16:46:09Z</time>
      </trkpt>
      <trkpt lat="45.32813" lon="1.40453">
        <ele>400</ele>
        <time>2011-07-15T16:46:10Z</time>
      </trkpt>
      <trkpt lat="45.32805" lon="1.40445">
        <ele>400</ele>
        <time>2011-07-15T16:46:11Z</time>
      </trkpt>
      <trkpt lat="45.32799" lon="1.40441">
        <ele>398</ele>
        <time>2011-07-15T16:46:12Z</time>
      </trkpt>
      <trkpt lat="45.32794" lon="1.40438">
        <ele>398</ele>
        <time>2011-07-15T16:46:13Z</time>
      </trkpt>
      <trkpt lat="45.32787" lon="1.40435">
        <ele>397</ele>
        <time>2011-07-15T16:46:14Z</time>
      </trkpt>
      <trkpt lat="45.3278" lon="1.40432">
        <ele>398</ele>
        <time>2011-07-15T16:46:15Z</time>
      </trkpt>
      <trkpt lat="45.32774" lon="1.4043">
        <ele>397</ele>
        <time>2011-07-15T16:46:16Z</time>
      </trkpt>
      <trkpt lat="45.3277" lon="1.40428">
        <ele>397</ele>
        <time>2011-07-15T16:46:17Z</time>
      </trkpt>
      <trkpt lat="45.32763" lon="1.40425">
        <ele>398</ele>
        <time>2011-07-15T16:46:19Z</time>
      </trkpt>
      <trkpt lat="45.32755" lon="1.4042">
        <ele>397</ele>
        <time>2011-07-15T16:46:21Z</time>
      </trkpt>
      <trkpt lat="45.32747" lon="1.40415">
        <ele>399</ele>
        <time>2011-07-15T16:46:23Z</time>
      </trkpt>
      <trkpt lat="45.32739" lon="1.4041">
        <ele>401</ele>
        <time>2011-07-15T16:46:25Z</time>
      </trkpt>
      <trkpt lat="45.32733" lon="1.40407">
        <ele>402</ele>
        <time>2011-07-15T16:46:27Z</time>
      </trkpt>
      <trkpt lat="45.32726" lon="1.40402">
        <ele>402</ele>
        <time>2011-07-15T16:46:29Z</time>
      </trkpt>
      <trkpt lat="45.32719" lon="1.40396">
        <ele>400</ele>
        <time>2011-07-15T16:46:31Z</time>
      </trkpt>
      <trkpt lat="45.32712" lon="1.40388">
        <ele>404</ele>
        <time>2011-07-15T16:46:33Z</time>
      </trkpt>
      <trkpt lat="45.32707" lon="1.40383">
        <ele>402</ele>
        <time>2011-07-15T16:46:35Z</time>
      </trkpt>
      <trkpt lat="45.32701" lon="1.40378">
        <ele>403</ele>
        <time>2011-07-15T16:46:37Z</time>
      </trkpt>
      <trkpt lat="45.32695" lon="1.40374">
        <ele>403</ele>
        <time>2011-07-15T16:46:39Z</time>
      </trkpt>
      <trkpt lat="45.32691" lon="1.40371">
        <ele>400</ele>
        <time>2011-07-15T16:46:41Z</time>
      </trkpt>
      <trkpt lat="45.32686" lon="1.40366">
        <ele>402</ele>
        <time>2011-07-15T16:46:43Z</time>
      </trkpt>
      <trkpt lat="45.3268" lon="1.40361">
        <ele>401</ele>
        <time>2011-07-15T16:46:45Z</time>
      </trkpt>
      <trkpt lat="45.32672" lon="1.40354">
        <ele>404</ele>
        <time>2011-07-15T16:46:47Z</time>
      </trkpt>
      <trkpt lat="45.32668" lon="1.4035">
        <ele>405</ele>
        <time>2011-07-15T16:46:48Z</time>
      </trkpt>
      <trkpt lat="45.32663" lon="1.40342">
        <ele>406</ele>
        <time>2011-07-15T16:46:51Z</time>
      </trkpt>
      <trkpt lat="45.32658" lon="1.40336">
        <ele>408</ele>
        <time>2011-07-15T16:46:53Z</time>
      </trkpt>
      <trkpt lat="45.32654" lon="1.40331">
        <ele>410</ele>
        <time>2011-07-15T16:46:55Z</time>
      </trkpt>
      <trkpt lat="45.32649" lon="1.40322">
        <ele>411</ele>
        <time>2011-07-15T16:46:57Z</time>
      </trkpt>
      <trkpt lat="45.32644" lon="1.40316">
        <ele>415</ele>
        <time>2011-07-15T16:46:59Z</time>
      </trkpt>
      <trkpt lat="45.3264" lon="1.40311">
        <ele>414</ele>
        <time>2011-07-15T16:47:01Z</time>
      </trkpt>
      <trkpt lat="45.32635" lon="1.40306">
        <ele>418</ele>
        <time>2011-07-15T16:47:04Z</time>
      </trkpt>
      <trkpt lat="45.3263" lon="1.40302">
        <ele>416</ele>
        <time>2011-07-15T16:47:06Z</time>
      </trkpt>
      <trkpt lat="45.32626" lon="1.40296">
        <ele>421</ele>
        <time>2011-07-15T16:47:08Z</time>
      </trkpt>
      <trkpt lat="45.32621" lon="1.4029">
        <ele>422</ele>
        <time>2011-07-15T16:47:11Z</time>
      </trkpt>
      <trkpt lat="45.32618" lon="1.40285">
        <ele>421</ele>
        <time>2011-07-15T16:47:13Z</time>
      </trkpt>
      <trkpt lat="45.32615" lon="1.4028">
        <ele>421</ele>
        <time>2011-07-15T16:47:15Z</time>
      </trkpt>
      <trkpt lat="45.32612" lon="1.40273">
        <ele>416</ele>
        <time>2011-07-15T16:47:17Z</time>
      </trkpt>
      <trkpt lat="45.32608" lon="1.40266">
        <ele>418</ele>
        <time>2011-07-15T16:47:19Z</time>
      </trkpt>
      <trkpt lat="45.32603" lon="1.40256">
        <ele>415</ele>
        <time>2011-07-15T16:47:21Z</time>
      </trkpt>
      <trkpt lat="45.32599" lon="1.40244">
        <ele>411</ele>
        <time>2011-07-15T16:47:23Z</time>
      </trkpt>
      <trkpt lat="45.32596" lon="1.40238">
        <ele>415</ele>
        <time>2011-07-15T16:47:24Z</time>
      </trkpt>
      <trkpt lat="45.32594" lon="1.40232">
        <ele>418</ele>
        <time>2011-07-15T16:47:25Z</time>
      </trkpt>
      <trkpt lat="45.32591" lon="1.40226">
        <ele>416</ele>
        <time>2011-07-15T16:47:26Z</time>
      </trkpt>
      <trkpt lat="45.32587" lon="1.40218">
        <ele>413</ele>
        <time>2011-07-15T16:47:27Z</time>
      </trkpt>
      <trkpt lat="45.32583" lon="1.40211">
        <ele>412</ele>
        <time>2011-07-15T16:47:28Z</time>
      </trkpt>
      <trkpt lat="45.32579" lon="1.40203">
        <ele>412</ele>
        <time>2011-07-15T16:47:29Z</time>
      </trkpt>
      <trkpt lat="45.32574" lon="1.40196">
        <ele>412</ele>
        <time>2011-07-15T16:47:30Z</time>
      </trkpt>
      <trkpt lat="45.32568" lon="1.4019">
        <ele>414</ele>
        <time>2011-07-15T16:47:31Z</time>
      </trkpt>
      <trkpt lat="45.32563" lon="1.40184">
        <ele>415</ele>
        <time>2011-07-15T16:47:32Z</time>
      </trkpt>
      <trkpt lat="45.32558" lon="1.40177">
        <ele>414</ele>
        <time>2011-07-15T16:47:33Z</time>
      </trkpt>
      <trkpt lat="45.32553" lon="1.40171">
        <ele>414</ele>
        <time>2011-07-15T16:47:34Z</time>
      </trkpt>
      <trkpt lat="45.32548" lon="1.40164">
        <ele>413</ele>
        <time>2011-07-15T16:47:35Z</time>
      </trkpt>
      <trkpt lat="45.32543" lon="1.40158">
        <ele>413</ele>
        <time>2011-07-15T16:47:36Z</time>
      </trkpt>
      <trkpt lat="45.32538" lon="1.40152">
        <ele>413</ele>
        <time>2011-07-15T16:47:37Z</time>
      </trkpt>
      <trkpt lat="45.32532" lon="1.40146">
        <ele>411</ele>
        <time>2011-07-15T16:47:38Z</time>
      </trkpt>
      <trkpt lat="45.32526" lon="1.4014">
        <ele>411</ele>
        <time>2011-07-15T16:47:39Z</time>
      </trkpt>
      <trkpt lat="45.3252" lon="1.40135">
        <ele>412</ele>
        <time>2011-07-15T16:47:40Z</time>
      </trkpt>
      <trkpt lat="45.32514" lon="1.40129">
        <ele>411</ele>
        <time>2011-07-15T16:47:41Z</time>
      </trkpt>
      <trkpt lat="45.32508" lon="1.40123">
        <ele>410</ele>
        <time>2011-07-15T16:47:42Z</time>
      </trkpt>
      <trkpt lat="45.32503" lon="1.40117">
        <ele>410</ele>
        <time>2011-07-15T16:47:43Z</time>
      </trkpt>
      <trkpt lat="45.32497" lon="1.40113">
        <ele>409</ele>
        <time>2011-07-15T16:47:44Z</time>
      </trkpt>
      <trkpt lat="45.32491" lon="1.40109">
        <ele>408</ele>
        <time>2011-07-15T16:47:45Z</time>
      </trkpt>
      <trkpt lat="45.32486" lon="1.40105">
        <ele>408</ele>
        <time>2011-07-15T16:47:46Z</time>
      </trkpt>
      <trkpt lat="45.32482" lon="1.40101">
        <ele>409</ele>
        <time>2011-07-15T16:47:47Z</time>
      </trkpt>
      <trkpt lat="45.32477" lon="1.40097">
        <ele>410</ele>
        <time>2011-07-15T16:47:48Z</time>
      </trkpt>
      <trkpt lat="45.32473" lon="1.40093">
        <ele>408</ele>
        <time>2011-07-15T16:47:49Z</time>
      </trkpt>
      <trkpt lat="45.32468" lon="1.4009">
        <ele>411</ele>
        <time>2011-07-15T16:47:50Z</time>
      </trkpt>
      <trkpt lat="45.32463" lon="1.40087">
        <ele>412</ele>
        <time>2011-07-15T16:47:51Z</time>
      </trkpt>
      <trkpt lat="45.32458" lon="1.40083">
        <ele>410</ele>
        <time>2011-07-15T16:47:52Z</time>
      </trkpt>
      <trkpt lat="45.32453" lon="1.40079">
        <ele>410</ele>
        <time>2011-07-15T16:47:53Z</time>
      </trkpt>
      <trkpt lat="45.32448" lon="1.40075">
        <ele>409</ele>
        <time>2011-07-15T16:47:54Z</time>
      </trkpt>
      <trkpt lat="45.32445" lon="1.4007">
        <ele>409</ele>
        <time>2011-07-15T16:47:55Z</time>
      </trkpt>
      <trkpt lat="45.32438" lon="1.40061">
        <ele>409</ele>
        <time>2011-07-15T16:47:57Z</time>
      </trkpt>
      <trkpt lat="45.32433" lon="1.40051">
        <ele>407</ele>
        <time>2011-07-15T16:47:59Z</time>
      </trkpt>
      <trkpt lat="45.32429" lon="1.40039">
        <ele>406</ele>
        <time>2011-07-15T16:48:01Z</time>
      </trkpt>
      <trkpt lat="45.32428" lon="1.40032">
        <ele>404</ele>
        <time>2011-07-15T16:48:02Z</time>
      </trkpt>
      <trkpt lat="45.32426" lon="1.40024">
        <ele>406</ele>
        <time>2011-07-15T16:48:03Z</time>
      </trkpt>
      <trkpt lat="45.32425" lon="1.40016">
        <ele>406</ele>
        <time>2011-07-15T16:48:04Z</time>
      </trkpt>
      <trkpt lat="45.32422" lon="1.40008">
        <ele>405</ele>
        <time>2011-07-15T16:48:05Z</time>
      </trkpt>
      <trkpt lat="45.32421" lon="1.4">
        <ele>403</ele>
        <time>2011-07-15T16:48:06Z</time>
      </trkpt>
      <trkpt lat="45.32419" lon="1.39992">
        <ele>402</ele>
        <time>2011-07-15T16:48:07Z</time>
      </trkpt>
      <trkpt lat="45.32417" lon="1.39984">
        <ele>402</ele>
        <time>2011-07-15T16:48:08Z</time>
      </trkpt>
      <trkpt lat="45.32415" lon="1.39975">
        <ele>400</ele>
        <time>2011-07-15T16:48:09Z</time>
      </trkpt>
      <trkpt lat="45.32414" lon="1.39966">
        <ele>403</ele>
        <time>2011-07-15T16:48:10Z</time>
      </trkpt>
      <trkpt lat="45.32411" lon="1.39959">
        <ele>402</ele>
        <time>2011-07-15T16:48:11Z</time>
      </trkpt>
      <trkpt lat="45.32409" lon="1.39952">
        <ele>398</ele>
        <time>2011-07-15T16:48:12Z</time>
      </trkpt>
      <trkpt lat="45.32406" lon="1.39944">
        <ele>397</ele>
        <time>2011-07-15T16:48:13Z</time>
      </trkpt>
      <trkpt lat="45.32403" lon="1.39939">
        <ele>398</ele>
        <time>2011-07-15T16:48:14Z</time>
      </trkpt>
      <trkpt lat="45.324" lon="1.39933">
        <ele>399</ele>
        <time>2011-07-15T16:48:15Z</time>
      </trkpt>
      <trkpt lat="45.32396" lon="1.39928">
        <ele>400</ele>
        <time>2011-07-15T16:48:16Z</time>
      </trkpt>
      <trkpt lat="45.32392" lon="1.39924">
        <ele>403</ele>
        <time>2011-07-15T16:48:17Z</time>
      </trkpt>
      <trkpt lat="45.32389" lon="1.39919">
        <ele>405</ele>
        <time>2011-07-15T16:48:18Z</time>
      </trkpt>
      <trkpt lat="45.32381" lon="1.39911">
        <ele>401</ele>
        <time>2011-07-15T16:48:20Z</time>
      </trkpt>
      <trkpt lat="45.32376" lon="1.39906">
        <ele>403</ele>
        <time>2011-07-15T16:48:21Z</time>
      </trkpt>
      <trkpt lat="45.32371" lon="1.39903">
        <ele>404</ele>
        <time>2011-07-15T16:48:22Z</time>
      </trkpt>
      <trkpt lat="45.32367" lon="1.399">
        <ele>401</ele>
        <time>2011-07-15T16:48:23Z</time>
      </trkpt>
      <trkpt lat="45.32361" lon="1.39897">
        <ele>398</ele>
        <time>2011-07-15T16:48:24Z</time>
      </trkpt>
      <trkpt lat="45.32356" lon="1.39894">
        <ele>398</ele>
        <time>2011-07-15T16:48:25Z</time>
      </trkpt>
      <trkpt lat="45.3235" lon="1.39892">
        <ele>399</ele>
        <time>2011-07-15T16:48:26Z</time>
      </trkpt>
      <trkpt lat="45.32345" lon="1.39889">
        <ele>399</ele>
        <time>2011-07-15T16:48:27Z</time>
      </trkpt>
      <trkpt lat="45.32338" lon="1.39887">
        <ele>396</ele>
        <time>2011-07-15T16:48:28Z</time>
      </trkpt>
      <trkpt lat="45.32332" lon="1.39884">
        <ele>399</ele>
        <time>2011-07-15T16:48:29Z</time>
      </trkpt>
      <trkpt lat="45.32326" lon="1.39882">
        <ele>398</ele>
        <time>2011-07-15T16:48:30Z</time>
      </trkpt>
      <trkpt lat="45.32319" lon="1.39878">
        <ele>397</ele>
        <time>2011-07-15T16:48:31Z</time>
      </trkpt>
      <trkpt lat="45.32313" lon="1.39874">
        <ele>398</ele>
        <time>2011-07-15T16:48:32Z</time>
      </trkpt>
      <trkpt lat="45.32308" lon="1.39871">
        <ele>399</ele>
        <time>2011-07-15T16:48:33Z</time>
      </trkpt>
      <trkpt lat="45.32294" lon="1.39873">
        <ele>407</ele>
        <time>2011-07-15T16:48:50Z</time>
      </trkpt>
      <trkpt lat="45.32294" lon="1.39873">
        <ele>407</ele>
        <time>2011-07-15T16:48:50Z</time>
      </trkpt>
      <trkpt lat="45.32294" lon="1.39873">
        <ele>407</ele>
        <time>2011-07-15T16:48:51Z</time>
      </trkpt>
      <trkpt lat="45.3229" lon="1.39879">
        <ele>409</ele>
        <time>2011-07-15T16:48:52Z</time>
      </trkpt>
      <trkpt lat="45.32287" lon="1.39884">
        <ele>409</ele>
        <time>2011-07-15T16:48:53Z</time>
      </trkpt>
      <trkpt lat="45.32284" lon="1.39889">
        <ele>408</ele>
        <time>2011-07-15T16:48:54Z</time>
      </trkpt>
      <trkpt lat="45.3228" lon="1.39893">
        <ele>407</ele>
        <time>2011-07-15T16:48:55Z</time>
      </trkpt>
      <trkpt lat="45.32273" lon="1.39896">
        <ele>408</ele>
        <time>2011-07-15T16:48:56Z</time>
      </trkpt>
      <trkpt lat="45.32266" lon="1.39898">
        <ele>407</ele>
        <time>2011-07-15T16:48:57Z</time>
      </trkpt>
      <trkpt lat="45.32259" lon="1.39899">
        <ele>405</ele>
        <time>2011-07-15T16:48:58Z</time>
      </trkpt>
      <trkpt lat="45.32251" lon="1.39899">
        <ele>407</ele>
        <time>2011-07-15T16:48:59Z</time>
      </trkpt>
      <trkpt lat="45.32244" lon="1.399">
        <ele>408</ele>
        <time>2011-07-15T16:49:00Z</time>
      </trkpt>
      <trkpt lat="45.32236" lon="1.39901">
        <ele>408</ele>
        <time>2011-07-15T16:49:01Z</time>
      </trkpt>
      <trkpt lat="45.32228" lon="1.39902">
        <ele>407</ele>
        <time>2011-07-15T16:49:02Z</time>
      </trkpt>
      <trkpt lat="45.32221" lon="1.39904">
        <ele>407</ele>
        <time>2011-07-15T16:49:03Z</time>
      </trkpt>
      <trkpt lat="45.32214" lon="1.39906">
        <ele>407</ele>
        <time>2011-07-15T16:49:04Z</time>
      </trkpt>
      <trkpt lat="45.32206" lon="1.39906">
        <ele>406</ele>
        <time>2011-07-15T16:49:05Z</time>
      </trkpt>
      <trkpt lat="45.322" lon="1.39907">
        <ele>408</ele>
        <time>2011-07-15T16:49:06Z</time>
      </trkpt>
      <trkpt lat="45.32194" lon="1.39906">
        <ele>411</ele>
        <time>2011-07-15T16:49:07Z</time>
      </trkpt>
      <trkpt lat="45.32189" lon="1.39907">
        <ele>410</ele>
        <time>2011-07-15T16:49:08Z</time>
      </trkpt>
      <trkpt lat="45.32183" lon="1.39908">
        <ele>410</ele>
        <time>2011-07-15T16:49:09Z</time>
      </trkpt>
      <trkpt lat="45.32178" lon="1.3991">
        <ele>410</ele>
        <time>2011-07-15T16:49:10Z</time>
      </trkpt>
      <trkpt lat="45.32178" lon="1.3991">
        <ele>410</ele>
        <time>2011-07-15T16:49:10Z</time>
      </trkpt>
      <trkpt lat="45.32178" lon="1.3991">
        <ele>410</ele>
        <time>2011-07-15T16:49:15Z</time>
      </trkpt>
      <trkpt lat="45.32168" lon="1.39914">
        <ele>409</ele>
        <time>2011-07-15T16:49:16Z</time>
      </trkpt>
      <trkpt lat="45.32161" lon="1.39917">
        <ele>412</ele>
        <time>2011-07-15T16:49:17Z</time>
      </trkpt>
      <trkpt lat="45.32155" lon="1.39919">
        <ele>412</ele>
        <time>2011-07-15T16:49:18Z</time>
      </trkpt>
      <trkpt lat="45.32149" lon="1.39921">
        <ele>412</ele>
        <time>2011-07-15T16:49:19Z</time>
      </trkpt>
      <trkpt lat="45.32149" lon="1.39921">
        <ele>412</ele>
        <time>2011-07-15T16:49:19Z</time>
      </trkpt>
      <trkpt lat="45.32149" lon="1.39921">
        <ele>412</ele>
        <time>2011-07-15T16:49:20Z</time>
      </trkpt>
      <trkpt lat="45.32141" lon="1.39923">
        <ele>410</ele>
        <time>2011-07-15T16:49:21Z</time>
      </trkpt>
      <trkpt lat="45.32135" lon="1.39924">
        <ele>409</ele>
        <time>2011-07-15T16:49:22Z</time>
      </trkpt>
      <trkpt lat="45.32135" lon="1.39924">
        <ele>409</ele>
        <time>2011-07-15T16:49:22Z</time>
      </trkpt>
      <trkpt lat="45.32135" lon="1.39924">
        <ele>409</ele>
        <time>2011-07-15T16:49:24Z</time>
      </trkpt>
      <trkpt lat="45.32122" lon="1.39923">
        <ele>412</ele>
        <time>2011-07-15T16:49:25Z</time>
      </trkpt>
      <trkpt lat="45.32106" lon="1.39922">
        <ele>408</ele>
        <time>2011-07-15T16:49:35Z</time>
      </trkpt>
      <trkpt lat="45.32106" lon="1.39922">
        <ele>408</ele>
        <time>2011-07-15T16:49:35Z</time>
      </trkpt>
      <trkpt lat="45.32106" lon="1.39922">
        <ele>408</ele>
        <time>2011-07-15T16:49:39Z</time>
      </trkpt>
      <trkpt lat="45.32095" lon="1.39922">
        <ele>408</ele>
        <time>2011-07-15T16:49:40Z</time>
      </trkpt>
      <trkpt lat="45.32095" lon="1.39922">
        <ele>408</ele>
        <time>2011-07-15T16:49:40Z</time>
      </trkpt>
      <trkpt lat="45.32095" lon="1.39922">
        <ele>408</ele>
        <time>2011-07-15T16:49:42Z</time>
      </trkpt>
      <trkpt lat="45.32084" lon="1.39921">
        <ele>413</ele>
        <time>2011-07-15T16:49:43Z</time>
      </trkpt>
      <trkpt lat="45.32084" lon="1.39921">
        <ele>413</ele>
        <time>2011-07-15T16:49:43Z</time>
      </trkpt>
      <trkpt lat="45.32084" lon="1.39921">
        <ele>413</ele>
        <time>2011-07-15T16:49:46Z</time>
      </trkpt>
      <trkpt lat="45.32074" lon="1.3992">
        <ele>414</ele>
        <time>2011-07-15T16:49:47Z</time>
      </trkpt>
      <trkpt lat="45.32074" lon="1.3992">
        <ele>414</ele>
        <time>2011-07-15T16:49:47Z</time>
      </trkpt>
      <trkpt lat="45.32074" lon="1.3992">
        <ele>414</ele>
        <time>2011-07-15T16:49:50Z</time>
      </trkpt>
      <trkpt lat="45.32064" lon="1.39916">
        <ele>415</ele>
        <time>2011-07-15T16:49:51Z</time>
      </trkpt>
      <trkpt lat="45.32064" lon="1.39916">
        <ele>415</ele>
        <time>2011-07-15T16:49:51Z</time>
      </trkpt>
      <trkpt lat="45.32064" lon="1.39916">
        <ele>415</ele>
        <time>2011-07-15T16:49:53Z</time>
      </trkpt>
      <trkpt lat="45.32055" lon="1.39911">
        <ele>409</ele>
        <time>2011-07-15T16:49:54Z</time>
      </trkpt>
      <trkpt lat="45.32055" lon="1.39911">
        <ele>409</ele>
        <time>2011-07-15T16:49:54Z</time>
      </trkpt>
      <trkpt lat="45.32055" lon="1.39911">
        <ele>409</ele>
        <time>2011-07-15T16:49:56Z</time>
      </trkpt>
      <trkpt lat="45.32044" lon="1.39907">
        <ele>411</ele>
        <time>2011-07-15T16:49:57Z</time>
      </trkpt>
      <trkpt lat="45.32036" lon="1.39906">
        <ele>408</ele>
        <time>2011-07-15T16:49:58Z</time>
      </trkpt>
      <trkpt lat="45.32029" lon="1.39904">
        <ele>405</ele>
        <time>2011-07-15T16:49:59Z</time>
      </trkpt>
      <trkpt lat="45.3202" lon="1.39904">
        <ele>403</ele>
        <time>2011-07-15T16:50:00Z</time>
      </trkpt>
      <trkpt lat="45.32009" lon="1.39905">
        <ele>402</ele>
        <time>2011-07-15T16:50:01Z</time>
      </trkpt>
      <trkpt lat="45.31996" lon="1.39906">
        <ele>400</ele>
        <time>2011-07-15T16:50:02Z</time>
      </trkpt>
      <trkpt lat="45.31984" lon="1.39908">
        <ele>401</ele>
        <time>2011-07-15T16:50:03Z</time>
      </trkpt>
      <trkpt lat="45.31973" lon="1.39911">
        <ele>400</ele>
        <time>2011-07-15T16:50:04Z</time>
      </trkpt>
      <trkpt lat="45.31961" lon="1.39915">
        <ele>402</ele>
        <time>2011-07-15T16:50:05Z</time>
      </trkpt>
      <trkpt lat="45.31951" lon="1.39921">
        <ele>407</ele>
        <time>2011-07-15T16:50:06Z</time>
      </trkpt>
      <trkpt lat="45.31943" lon="1.39925">
        <ele>407</ele>
        <time>2011-07-15T16:50:07Z</time>
      </trkpt>
      <trkpt lat="45.31935" lon="1.39929">
        <ele>407</ele>
        <time>2011-07-15T16:50:08Z</time>
      </trkpt>
      <trkpt lat="45.31928" lon="1.39933">
        <ele>408</ele>
        <time>2011-07-15T16:50:09Z</time>
      </trkpt>
      <trkpt lat="45.31928" lon="1.39933">
        <ele>408</ele>
        <time>2011-07-15T16:50:09Z</time>
      </trkpt>
      <trkpt lat="45.31928" lon="1.39933">
        <ele>408</ele>
        <time>2011-07-15T16:50:11Z</time>
      </trkpt>
      <trkpt lat="45.31923" lon="1.39936">
        <ele>410</ele>
        <time>2011-07-15T16:50:12Z</time>
      </trkpt>
      <trkpt lat="45.31923" lon="1.39936">
        <ele>410</ele>
        <time>2011-07-15T16:50:12Z</time>
      </trkpt>
      <trkpt lat="45.31923" lon="1.39936">
        <ele>410</ele>
        <time>2011-07-15T16:50:14Z</time>
      </trkpt>
      <trkpt lat="45.31917" lon="1.39942">
        <ele>409</ele>
        <time>2011-07-15T16:50:15Z</time>
      </trkpt>
      <trkpt lat="45.3191" lon="1.39948">
        <ele>407</ele>
        <time>2011-07-15T16:50:16Z</time>
      </trkpt>
      <trkpt lat="45.31901" lon="1.39955">
        <ele>403</ele>
        <time>2011-07-15T16:50:17Z</time>
      </trkpt>
      <trkpt lat="45.31901" lon="1.39955">
        <ele>403</ele>
        <time>2011-07-15T16:50:17Z</time>
      </trkpt>
      <trkpt lat="45.31901" lon="1.39955">
        <ele>403</ele>
        <time>2011-07-15T16:50:21Z</time>
      </trkpt>
      <trkpt lat="45.31894" lon="1.39958">
        <ele>407</ele>
        <time>2011-07-15T16:50:22Z</time>
      </trkpt>
      <trkpt lat="45.31894" lon="1.39958">
        <ele>407</ele>
        <time>2011-07-15T16:50:22Z</time>
      </trkpt>
      <trkpt lat="45.31894" lon="1.39958">
        <ele>407</ele>
        <time>2011-07-15T16:50:32Z</time>
      </trkpt>
      <trkpt lat="45.31883" lon="1.39964">
        <ele>411</ele>
        <time>2011-07-15T16:50:33Z</time>
      </trkpt>
      <trkpt lat="45.31883" lon="1.39964">
        <ele>411</ele>
        <time>2011-07-15T16:50:33Z</time>
      </trkpt>
      <trkpt lat="45.31883" lon="1.39964">
        <ele>411</ele>
        <time>2011-07-15T16:50:34Z</time>
      </trkpt>
      <trkpt lat="45.3187" lon="1.39971">
        <ele>413</ele>
        <time>2011-07-15T16:50:35Z</time>
      </trkpt>
      <trkpt lat="45.3187" lon="1.39971">
        <ele>413</ele>
        <time>2011-07-15T16:50:35Z</time>
      </trkpt>
      <trkpt lat="45.3187" lon="1.39971">
        <ele>413</ele>
        <time>2011-07-15T16:50:36Z</time>
      </trkpt>
      <trkpt lat="45.31857" lon="1.39976">
        <ele>407</ele>
        <time>2011-07-15T16:50:37Z</time>
      </trkpt>
      <trkpt lat="45.3185" lon="1.39978">
        <ele>407</ele>
        <time>2011-07-15T16:50:38Z</time>
      </trkpt>
      <trkpt lat="45.31842" lon="1.3998">
        <ele>407</ele>
        <time>2011-07-15T16:50:39Z</time>
      </trkpt>
      <trkpt lat="45.31833" lon="1.39982">
        <ele>412</ele>
        <time>2011-07-15T16:50:40Z</time>
      </trkpt>
      <trkpt lat="45.3182" lon="1.39985">
        <ele>415</ele>
        <time>2011-07-15T16:50:41Z</time>
      </trkpt>
      <trkpt lat="45.31806" lon="1.39987">
        <ele>409</ele>
        <time>2011-07-15T16:50:42Z</time>
      </trkpt>
      <trkpt lat="45.3179" lon="1.3999">
        <ele>406</ele>
        <time>2011-07-15T16:50:43Z</time>
      </trkpt>
      <trkpt lat="45.31775" lon="1.39992">
        <ele>406</ele>
        <time>2011-07-15T16:50:44Z</time>
      </trkpt>
      <trkpt lat="45.31761" lon="1.39993">
        <ele>406</ele>
        <time>2011-07-15T16:50:45Z</time>
      </trkpt>
      <trkpt lat="45.31746" lon="1.39997">
        <ele>405</ele>
        <time>2011-07-15T16:50:46Z</time>
      </trkpt>
      <trkpt lat="45.31732" lon="1.4">
        <ele>405</ele>
        <time>2011-07-15T16:50:47Z</time>
      </trkpt>
      <trkpt lat="45.31717" lon="1.40001">
        <ele>410</ele>
        <time>2011-07-15T16:50:48Z</time>
      </trkpt>
      <trkpt lat="45.31703" lon="1.40002">
        <ele>409</ele>
        <time>2011-07-15T16:50:49Z</time>
      </trkpt>
      <trkpt lat="45.31692" lon="1.40003">
        <ele>411</ele>
        <time>2011-07-15T16:50:50Z</time>
      </trkpt>
      <trkpt lat="45.31682" lon="1.40005">
        <ele>411</ele>
        <time>2011-07-15T16:50:51Z</time>
      </trkpt>
      <trkpt lat="45.31671" lon="1.40007">
        <ele>408</ele>
        <time>2011-07-15T16:50:52Z</time>
      </trkpt>
      <trkpt lat="45.31662" lon="1.4001">
        <ele>409</ele>
        <time>2011-07-15T16:50:53Z</time>
      </trkpt>
      <trkpt lat="45.31654" lon="1.40012">
        <ele>408</ele>
        <time>2011-07-15T16:50:54Z</time>
      </trkpt>
      <trkpt lat="45.31646" lon="1.40016">
        <ele>406</ele>
        <time>2011-07-15T16:50:55Z</time>
      </trkpt>
      <trkpt lat="45.31637" lon="1.4002">
        <ele>404</ele>
        <time>2011-07-15T16:50:56Z</time>
      </trkpt>
      <trkpt lat="45.31628" lon="1.40027">
        <ele>404</ele>
        <time>2011-07-15T16:50:57Z</time>
      </trkpt>
      <trkpt lat="45.3162" lon="1.40033">
        <ele>403</ele>
        <time>2011-07-15T16:50:58Z</time>
      </trkpt>
      <trkpt lat="45.31616" lon="1.40039">
        <ele>399</ele>
        <time>2011-07-15T16:50:59Z</time>
      </trkpt>
      <trkpt lat="45.31604" lon="1.40044">
        <ele>408</ele>
        <time>2011-07-15T16:51:41Z</time>
      </trkpt>
      <trkpt lat="45.31598" lon="1.40028">
        <ele>407</ele>
        <time>2011-07-15T16:51:46Z</time>
      </trkpt>
      <trkpt lat="45.31598" lon="1.40028">
        <ele>407</ele>
        <time>2011-07-15T16:51:46Z</time>
      </trkpt>
      <trkpt lat="45.31598" lon="1.40028">
        <ele>407</ele>
        <time>2011-07-15T16:51:49Z</time>
      </trkpt>
      <trkpt lat="45.31595" lon="1.40012">
        <ele>408</ele>
        <time>2011-07-15T16:51:50Z</time>
      </trkpt>
      <trkpt lat="45.31593" lon="1.40006">
        <ele>406</ele>
        <time>2011-07-15T16:51:51Z</time>
      </trkpt>
      <trkpt lat="45.3159" lon="1.39999">
        <ele>407</ele>
        <time>2011-07-15T16:51:52Z</time>
      </trkpt>
      <trkpt lat="45.31587" lon="1.39994">
        <ele>407</ele>
        <time>2011-07-15T16:51:53Z</time>
      </trkpt>
      <trkpt lat="45.31583" lon="1.39987">
        <ele>404</ele>
        <time>2011-07-15T16:51:54Z</time>
      </trkpt>
      <trkpt lat="45.31579" lon="1.39982">
        <ele>406</ele>
        <time>2011-07-15T16:51:55Z</time>
      </trkpt>
      <trkpt lat="45.31575" lon="1.39975">
        <ele>406</ele>
        <time>2011-07-15T16:51:56Z</time>
      </trkpt>
      <trkpt lat="45.31572" lon="1.39969">
        <ele>406</ele>
        <time>2011-07-15T16:51:57Z</time>
      </trkpt>
      <trkpt lat="45.31569" lon="1.39962">
        <ele>407</ele>
        <time>2011-07-15T16:51:58Z</time>
      </trkpt>
      <trkpt lat="45.31566" lon="1.39955">
        <ele>402</ele>
        <time>2011-07-15T16:51:59Z</time>
      </trkpt>
      <trkpt lat="45.3156" lon="1.39947">
        <ele>400</ele>
        <time>2011-07-15T16:52:00Z</time>
      </trkpt>
      <trkpt lat="45.31554" lon="1.39939">
        <ele>400</ele>
        <time>2011-07-15T16:52:01Z</time>
      </trkpt>
      <trkpt lat="45.31554" lon="1.39939">
        <ele>400</ele>
        <time>2011-07-15T16:52:01Z</time>
      </trkpt>
      <trkpt lat="45.31554" lon="1.39939">
        <ele>400</ele>
        <time>2011-07-15T16:52:03Z</time>
      </trkpt>
      <trkpt lat="45.31548" lon="1.39932">
        <ele>396</ele>
        <time>2011-07-15T16:52:04Z</time>
      </trkpt>
      <trkpt lat="45.31542" lon="1.39927">
        <ele>396</ele>
        <time>2011-07-15T16:52:05Z</time>
      </trkpt>
      <trkpt lat="45.31536" lon="1.39921">
        <ele>399</ele>
        <time>2011-07-15T16:52:06Z</time>
      </trkpt>
      <trkpt lat="45.31529" lon="1.39915">
        <ele>400</ele>
        <time>2011-07-15T16:52:07Z</time>
      </trkpt>
      <trkpt lat="45.31525" lon="1.39911">
        <ele>400</ele>
        <time>2011-07-15T16:52:08Z</time>
      </trkpt>
      <trkpt lat="45.3152" lon="1.39907">
        <ele>401</ele>
        <time>2011-07-15T16:52:09Z</time>
      </trkpt>
      <trkpt lat="45.31516" lon="1.39903">
        <ele>400</ele>
        <time>2011-07-15T16:52:10Z</time>
      </trkpt>
      <trkpt lat="45.31511" lon="1.39899">
        <ele>399</ele>
        <time>2011-07-15T16:52:11Z</time>
      </trkpt>
      <trkpt lat="45.31506" lon="1.39895">
        <ele>401</ele>
        <time>2011-07-15T16:52:12Z</time>
      </trkpt>
      <trkpt lat="45.315" lon="1.39892">
        <ele>403</ele>
        <time>2011-07-15T16:52:13Z</time>
      </trkpt>
      <trkpt lat="45.31494" lon="1.39888">
        <ele>406</ele>
        <time>2011-07-15T16:52:14Z</time>
      </trkpt>
      <trkpt lat="45.31485" lon="1.39886">
        <ele>412</ele>
        <time>2011-07-15T16:52:18Z</time>
      </trkpt>
      <trkpt lat="45.31479" lon="1.39885">
        <ele>399</ele>
        <time>2011-07-15T16:52:19Z</time>
      </trkpt>
      <trkpt lat="45.31472" lon="1.39886">
        <ele>400</ele>
        <time>2011-07-15T16:52:20Z</time>
      </trkpt>
      <trkpt lat="45.31466" lon="1.39888">
        <ele>400</ele>
        <time>2011-07-15T16:52:21Z</time>
      </trkpt>
      <trkpt lat="45.31458" lon="1.39888">
        <ele>400</ele>
        <time>2011-07-15T16:52:22Z</time>
      </trkpt>
      <trkpt lat="45.31449" lon="1.3989">
        <ele>403</ele>
        <time>2011-07-15T16:52:23Z</time>
      </trkpt>
      <trkpt lat="45.31439" lon="1.39892">
        <ele>400</ele>
        <time>2011-07-15T16:52:24Z</time>
      </trkpt>
      <trkpt lat="45.31428" lon="1.39893">
        <ele>401</ele>
        <time>2011-07-15T16:52:25Z</time>
      </trkpt>
      <trkpt lat="45.31416" lon="1.39895">
        <ele>400</ele>
        <time>2011-07-15T16:52:26Z</time>
      </trkpt>
      <trkpt lat="45.31404" lon="1.39895">
        <ele>401</ele>
        <time>2011-07-15T16:52:27Z</time>
      </trkpt>
      <trkpt lat="45.31391" lon="1.39894">
        <ele>402</ele>
        <time>2011-07-15T16:52:28Z</time>
      </trkpt>
      <trkpt lat="45.31379" lon="1.39895">
        <ele>404</ele>
        <time>2011-07-15T16:52:29Z</time>
      </trkpt>
      <trkpt lat="45.31368" lon="1.39895">
        <ele>402</ele>
        <time>2011-07-15T16:52:30Z</time>
      </trkpt>
      <trkpt lat="45.31358" lon="1.39896">
        <ele>402</ele>
        <time>2011-07-15T16:52:31Z</time>
      </trkpt>
      <trkpt lat="45.31348" lon="1.39897">
        <ele>401</ele>
        <time>2011-07-15T16:52:32Z</time>
      </trkpt>
      <trkpt lat="45.3134" lon="1.39899">
        <ele>402</ele>
        <time>2011-07-15T16:52:33Z</time>
      </trkpt>
      <trkpt lat="45.31333" lon="1.39901">
        <ele>400</ele>
        <time>2011-07-15T16:52:34Z</time>
      </trkpt>
      <trkpt lat="45.31327" lon="1.39902">
        <ele>400</ele>
        <time>2011-07-15T16:52:35Z</time>
      </trkpt>
      <trkpt lat="45.31322" lon="1.39904">
        <ele>398</ele>
        <time>2011-07-15T16:52:36Z</time>
      </trkpt>
      <trkpt lat="45.31314" lon="1.39905">
        <ele>381</ele>
        <time>2011-07-15T16:52:38Z</time>
      </trkpt>
      <trkpt lat="45.31305" lon="1.39905">
        <ele>379</ele>
        <time>2011-07-15T16:52:40Z</time>
      </trkpt>
      <trkpt lat="45.313" lon="1.39904">
        <ele>380</ele>
        <time>2011-07-15T16:52:41Z</time>
      </trkpt>
      <trkpt lat="45.31294" lon="1.39901">
        <ele>376</ele>
        <time>2011-07-15T16:52:42Z</time>
      </trkpt>
      <trkpt lat="45.3129" lon="1.39898">
        <ele>381</ele>
        <time>2011-07-15T16:52:43Z</time>
      </trkpt>
      <trkpt lat="45.31288" lon="1.39881">
        <ele>362</ele>
        <time>2011-07-15T16:52:47Z</time>
      </trkpt>
      <trkpt lat="45.31293" lon="1.39864">
        <ele>350</ele>
        <time>2011-07-15T16:52:48Z</time>
      </trkpt>
      <trkpt lat="45.31298" lon="1.3985">
        <ele>347</ele>
        <time>2011-07-15T16:52:49Z</time>
      </trkpt>
      <trkpt lat="45.31302" lon="1.39842">
        <ele>341</ele>
        <time>2011-07-15T16:52:50Z</time>
      </trkpt>
      <trkpt lat="45.31305" lon="1.39834">
        <ele>341</ele>
        <time>2011-07-15T16:52:51Z</time>
      </trkpt>
      <trkpt lat="45.31305" lon="1.39834">
        <ele>341</ele>
        <time>2011-07-15T16:52:51Z</time>
      </trkpt>
      <trkpt lat="45.31305" lon="1.39834">
        <ele>341</ele>
        <time>2011-07-15T16:53:08Z</time>
      </trkpt>
      <trkpt lat="45.31299" lon="1.39833">
        <ele>339</ele>
        <time>2011-07-15T16:53:09Z</time>
      </trkpt>
      <trkpt lat="45.31299" lon="1.39833">
        <ele>339</ele>
        <time>2011-07-15T16:53:09Z</time>
      </trkpt>
      <trkpt lat="45.31299" lon="1.39833">
        <ele>339</ele>
        <time>2011-07-15T16:53:14Z</time>
      </trkpt>
      <trkpt lat="45.31287" lon="1.39831">
        <ele>338</ele>
        <time>2011-07-15T16:53:15Z</time>
      </trkpt>
      <trkpt lat="45.31287" lon="1.39831">
        <ele>338</ele>
        <time>2011-07-15T16:53:15Z</time>
      </trkpt>
      <trkpt lat="45.31287" lon="1.39831">
        <ele>338</ele>
        <time>2011-07-15T16:53:17Z</time>
      </trkpt>
      <trkpt lat="45.31278" lon="1.39828">
        <ele>335</ele>
        <time>2011-07-15T16:53:18Z</time>
      </trkpt>
      <trkpt lat="45.31278" lon="1.39828">
        <ele>335</ele>
        <time>2011-07-15T16:53:18Z</time>
      </trkpt>
      <trkpt lat="45.31278" lon="1.39828">
        <ele>335</ele>
        <time>2011-07-15T16:53:24Z</time>
      </trkpt>
      <trkpt lat="45.31267" lon="1.39829">
        <ele>331</ele>
        <time>2011-07-15T16:53:25Z</time>
      </trkpt>
      <trkpt lat="45.31267" lon="1.39829">
        <ele>331</ele>
        <time>2011-07-15T16:53:25Z</time>
      </trkpt>
      <trkpt lat="45.31267" lon="1.39829">
        <ele>331</ele>
        <time>2011-07-15T16:53:28Z</time>
      </trkpt>
      <trkpt lat="45.31258" lon="1.39834">
        <ele>334</ele>
        <time>2011-07-15T16:53:29Z</time>
      </trkpt>
      <trkpt lat="45.31258" lon="1.39834">
        <ele>334</ele>
        <time>2011-07-15T16:53:29Z</time>
      </trkpt>
      <trkpt lat="45.31258" lon="1.39834">
        <ele>334</ele>
        <time>2011-07-15T16:53:36Z</time>
      </trkpt>
      <trkpt lat="45.31246" lon="1.39846">
        <ele>343</ele>
        <time>2011-07-15T16:53:37Z</time>
      </trkpt>
      <trkpt lat="45.31239" lon="1.39855">
        <ele>340</ele>
        <time>2011-07-15T16:53:38Z</time>
      </trkpt>
      <trkpt lat="45.31239" lon="1.39855">
        <ele>340</ele>
        <time>2011-07-15T16:53:38Z</time>
      </trkpt>
      <trkpt lat="45.31239" lon="1.39855">
        <ele>340</ele>
        <time>2011-07-15T16:53:40Z</time>
      </trkpt>
      <trkpt lat="45.31228" lon="1.39866">
        <ele>318</ele>
        <time>2011-07-15T16:53:41Z</time>
      </trkpt>
      <trkpt lat="45.31228" lon="1.39866">
        <ele>318</ele>
        <time>2011-07-15T16:53:41Z</time>
      </trkpt>
      <trkpt lat="45.31228" lon="1.39866">
        <ele>318</ele>
        <time>2011-07-15T16:53:42Z</time>
      </trkpt>
      <trkpt lat="45.31218" lon="1.39879">
        <ele>327</ele>
        <time>2011-07-15T16:53:43Z</time>
      </trkpt>
      <trkpt lat="45.31215" lon="1.39884">
        <ele>332</ele>
        <time>2011-07-15T16:53:44Z</time>
      </trkpt>
      <trkpt lat="45.31209" lon="1.39892">
        <ele>328</ele>
        <time>2011-07-15T16:53:46Z</time>
      </trkpt>
      <trkpt lat="45.31204" lon="1.39901">
        <ele>321</ele>
        <time>2011-07-15T16:53:48Z</time>
      </trkpt>
      <trkpt lat="45.312" lon="1.39909">
        <ele>315</ele>
        <time>2011-07-15T16:53:50Z</time>
      </trkpt>
      <trkpt lat="45.31195" lon="1.39917">
        <ele>310</ele>
        <time>2011-07-15T16:53:52Z</time>
      </trkpt>
      <trkpt lat="45.31191" lon="1.39922">
        <ele>303</ele>
        <time>2011-07-15T16:53:54Z</time>
      </trkpt>
      <trkpt lat="45.31187" lon="1.39927">
        <ele>310</ele>
        <time>2011-07-15T16:53:56Z</time>
      </trkpt>
      <trkpt lat="45.31182" lon="1.39933">
        <ele>325</ele>
        <time>2011-07-15T16:53:58Z</time>
      </trkpt>
      <trkpt lat="45.31178" lon="1.3994">
        <ele>322</ele>
        <time>2011-07-15T16:54:00Z</time>
      </trkpt>
      <trkpt lat="45.31172" lon="1.39949">
        <ele>310</ele>
        <time>2011-07-15T16:54:02Z</time>
      </trkpt>
      <trkpt lat="45.31168" lon="1.39954">
        <ele>303</ele>
        <time>2011-07-15T16:54:03Z</time>
      </trkpt>
      <trkpt lat="45.31162" lon="1.39961">
        <ele>303</ele>
        <time>2011-07-15T16:54:05Z</time>
      </trkpt>
      <trkpt lat="45.31162" lon="1.39961">
        <ele>303</ele>
        <time>2011-07-15T16:54:05Z</time>
      </trkpt>
      <trkpt lat="45.31162" lon="1.39961">
        <ele>303</ele>
        <time>2011-07-15T16:54:06Z</time>
      </trkpt>
      <trkpt lat="45.31154" lon="1.39968">
        <ele>302</ele>
        <time>2011-07-15T16:54:07Z</time>
      </trkpt>
      <trkpt lat="45.31142" lon="1.3998">
        <ele>289</ele>
        <time>2011-07-15T16:54:11Z</time>
      </trkpt>
      <trkpt lat="45.31134" lon="1.39989">
        <ele>291</ele>
        <time>2011-07-15T16:54:13Z</time>
      </trkpt>
      <trkpt lat="45.31128" lon="1.39994">
        <ele>291</ele>
        <time>2011-07-15T16:54:14Z</time>
      </trkpt>
      <trkpt lat="45.31124" lon="1.39998">
        <ele>290</ele>
        <time>2011-07-15T16:54:15Z</time>
      </trkpt>
      <trkpt lat="45.31118" lon="1.40006">
        <ele>291</ele>
        <time>2011-07-15T16:54:17Z</time>
      </trkpt>
      <trkpt lat="45.31112" lon="1.40013">
        <ele>301</ele>
        <time>2011-07-15T16:54:19Z</time>
      </trkpt>
      <trkpt lat="45.31107" lon="1.40022">
        <ele>295</ele>
        <time>2011-07-15T16:54:21Z</time>
      </trkpt>
      <trkpt lat="45.31107" lon="1.40022">
        <ele>295</ele>
        <time>2011-07-15T16:54:21Z</time>
      </trkpt>
      <trkpt lat="45.31107" lon="1.40022">
        <ele>295</ele>
        <time>2011-07-15T16:54:24Z</time>
      </trkpt>
      <trkpt lat="45.31102" lon="1.4003">
        <ele>299</ele>
        <time>2011-07-15T16:54:25Z</time>
      </trkpt>
      <trkpt lat="45.31102" lon="1.4003">
        <ele>299</ele>
        <time>2011-07-15T16:54:25Z</time>
      </trkpt>
      <trkpt lat="45.31102" lon="1.4003">
        <ele>299</ele>
        <time>2011-07-15T16:54:27Z</time>
      </trkpt>
      <trkpt lat="45.31093" lon="1.40043">
        <ele>295</ele>
        <time>2011-07-15T16:54:28Z</time>
      </trkpt>
      <trkpt lat="45.3109" lon="1.40048">
        <ele>296</ele>
        <time>2011-07-15T16:54:29Z</time>
      </trkpt>
      <trkpt lat="45.31086" lon="1.40052">
        <ele>295</ele>
        <time>2011-07-15T16:54:30Z</time>
      </trkpt>
      <trkpt lat="45.31083" lon="1.40057">
        <ele>295</ele>
        <time>2011-07-15T16:54:31Z</time>
      </trkpt>
      <trkpt lat="45.31078" lon="1.40064">
        <ele>301</ele>
        <time>2011-07-15T16:54:33Z</time>
      </trkpt>
      <trkpt lat="45.31073" lon="1.40071">
        <ele>301</ele>
        <time>2011-07-15T16:54:35Z</time>
      </trkpt>
      <trkpt lat="45.31068" lon="1.40077">
        <ele>297</ele>
        <time>2011-07-15T16:54:37Z</time>
      </trkpt>
      <trkpt lat="45.31064" lon="1.40083">
        <ele>297</ele>
        <time>2011-07-15T16:54:39Z</time>
      </trkpt>
      <trkpt lat="45.31059" lon="1.40087">
        <ele>299</ele>
        <time>2011-07-15T16:54:41Z</time>
      </trkpt>
      <trkpt lat="45.31053" lon="1.40091">
        <ele>304</ele>
        <time>2011-07-15T16:54:43Z</time>
      </trkpt>
      <trkpt lat="45.31046" lon="1.40097">
        <ele>309</ele>
        <time>2011-07-15T16:54:45Z</time>
      </trkpt>
      <trkpt lat="45.31039" lon="1.40101">
        <ele>314</ele>
        <time>2011-07-15T16:54:47Z</time>
      </trkpt>
      <trkpt lat="45.31028" lon="1.40108">
        <ele>323</ele>
        <time>2011-07-15T16:54:51Z</time>
      </trkpt>
      <trkpt lat="45.31022" lon="1.4011">
        <ele>323</ele>
        <time>2011-07-15T16:54:53Z</time>
      </trkpt>
      <trkpt lat="45.31014" lon="1.40114">
        <ele>337</ele>
        <time>2011-07-15T16:54:56Z</time>
      </trkpt>
      <trkpt lat="45.31007" lon="1.40121">
        <ele>329</ele>
        <time>2011-07-15T16:54:58Z</time>
      </trkpt>
      <trkpt lat="45.31003" lon="1.40126">
        <ele>323</ele>
        <time>2011-07-15T16:54:59Z</time>
      </trkpt>
      <trkpt lat="45.31" lon="1.4013">
        <ele>322</ele>
        <time>2011-07-15T16:55:00Z</time>
      </trkpt>
      <trkpt lat="45.30996" lon="1.40136">
        <ele>322</ele>
        <time>2011-07-15T16:55:01Z</time>
      </trkpt>
      <trkpt lat="45.30992" lon="1.40141">
        <ele>322</ele>
        <time>2011-07-15T16:55:02Z</time>
      </trkpt>
      <trkpt lat="45.30989" lon="1.40145">
        <ele>322</ele>
        <time>2011-07-15T16:55:03Z</time>
      </trkpt>
      <trkpt lat="45.30984" lon="1.4015">
        <ele>323</ele>
        <time>2011-07-15T16:55:04Z</time>
      </trkpt>
      <trkpt lat="45.3098" lon="1.40154">
        <ele>328</ele>
        <time>2011-07-15T16:55:05Z</time>
      </trkpt>
      <trkpt lat="45.30976" lon="1.40158">
        <ele>328</ele>
        <time>2011-07-15T16:55:06Z</time>
      </trkpt>
      <trkpt lat="45.30972" lon="1.40162">
        <ele>334</ele>
        <time>2011-07-15T16:55:07Z</time>
      </trkpt>
      <trkpt lat="45.30967" lon="1.40166">
        <ele>334</ele>
        <time>2011-07-15T16:55:08Z</time>
      </trkpt>
      <trkpt lat="45.30963" lon="1.4017">
        <ele>334</ele>
        <time>2011-07-15T16:55:09Z</time>
      </trkpt>
      <trkpt lat="45.30959" lon="1.40173">
        <ele>334</ele>
        <time>2011-07-15T16:55:10Z</time>
      </trkpt>
      <trkpt lat="45.30954" lon="1.40176">
        <ele>337</ele>
        <time>2011-07-15T16:55:11Z</time>
      </trkpt>
      <trkpt lat="45.3095" lon="1.4018">
        <ele>338</ele>
        <time>2011-07-15T16:55:12Z</time>
      </trkpt>
      <trkpt lat="45.30945" lon="1.40184">
        <ele>339</ele>
        <time>2011-07-15T16:55:13Z</time>
      </trkpt>
      <trkpt lat="45.3094" lon="1.40187">
        <ele>340</ele>
        <time>2011-07-15T16:55:14Z</time>
      </trkpt>
      <trkpt lat="45.30935" lon="1.40189">
        <ele>343</ele>
        <time>2011-07-15T16:55:15Z</time>
      </trkpt>
      <trkpt lat="45.30929" lon="1.40191">
        <ele>344</ele>
        <time>2011-07-15T16:55:16Z</time>
      </trkpt>
      <trkpt lat="45.30924" lon="1.40194">
        <ele>346</ele>
        <time>2011-07-15T16:55:17Z</time>
      </trkpt>
      <trkpt lat="45.3092" lon="1.40197">
        <ele>348</ele>
        <time>2011-07-15T16:55:18Z</time>
      </trkpt>
      <trkpt lat="45.30915" lon="1.402">
        <ele>350</ele>
        <time>2011-07-15T16:55:19Z</time>
      </trkpt>
      <trkpt lat="45.30907" lon="1.402">
        <ele>352</ele>
        <time>2011-07-15T16:55:20Z</time>
      </trkpt>
      <trkpt lat="45.309" lon="1.402">
        <ele>353</ele>
        <time>2011-07-15T16:55:21Z</time>
      </trkpt>
      <trkpt lat="45.30891" lon="1.402">
        <ele>355</ele>
        <time>2011-07-15T16:55:22Z</time>
      </trkpt>
      <trkpt lat="45.30883" lon="1.402">
        <ele>359</ele>
        <time>2011-07-15T16:55:23Z</time>
      </trkpt>
      <trkpt lat="45.30876" lon="1.402">
        <ele>360</ele>
        <time>2011-07-15T16:55:24Z</time>
      </trkpt>
      <trkpt lat="45.30869" lon="1.40199">
        <ele>352</ele>
        <time>2011-07-15T16:55:25Z</time>
      </trkpt>
      <trkpt lat="45.30864" lon="1.40199">
        <ele>351</ele>
        <time>2011-07-15T16:55:26Z</time>
      </trkpt>
      <trkpt lat="45.30859" lon="1.40198">
        <ele>351</ele>
        <time>2011-07-15T16:55:27Z</time>
      </trkpt>
      <trkpt lat="45.30764" lon="1.40125">
        <ele>357</ele>
        <time>2011-07-15T16:55:38Z</time>
      </trkpt>
      <trkpt lat="45.30756" lon="1.4012">
        <ele>358</ele>
        <time>2011-07-15T16:55:39Z</time>
      </trkpt>
      <trkpt lat="45.30749" lon="1.4012">
        <ele>362</ele>
        <time>2011-07-15T16:55:40Z</time>
      </trkpt>
      <trkpt lat="45.3074" lon="1.40118">
        <ele>363</ele>
        <time>2011-07-15T16:55:41Z</time>
      </trkpt>
      <trkpt lat="45.30732" lon="1.40118">
        <ele>365</ele>
        <time>2011-07-15T16:55:42Z</time>
      </trkpt>
      <trkpt lat="45.30732" lon="1.40118">
        <ele>365</ele>
        <time>2011-07-15T16:55:42Z</time>
      </trkpt>
      <trkpt lat="45.30732" lon="1.40118">
        <ele>365</ele>
        <time>2011-07-15T16:55:44Z</time>
      </trkpt>
      <trkpt lat="45.30726" lon="1.40121">
        <ele>363</ele>
        <time>2011-07-15T16:55:45Z</time>
      </trkpt>
      <trkpt lat="45.30721" lon="1.40123">
        <ele>353</ele>
        <time>2011-07-15T16:55:46Z</time>
      </trkpt>
      <trkpt lat="45.30714" lon="1.40127">
        <ele>344</ele>
        <time>2011-07-15T16:55:47Z</time>
      </trkpt>
      <trkpt lat="45.30706" lon="1.4013">
        <ele>339</ele>
        <time>2011-07-15T16:55:48Z</time>
      </trkpt>
      <trkpt lat="45.30698" lon="1.40134">
        <ele>336</ele>
        <time>2011-07-15T16:55:49Z</time>
      </trkpt>
      <trkpt lat="45.30691" lon="1.40137">
        <ele>336</ele>
        <time>2011-07-15T16:55:50Z</time>
      </trkpt>
      <trkpt lat="45.30684" lon="1.4014">
        <ele>332</ele>
        <time>2011-07-15T16:55:51Z</time>
      </trkpt>
      <trkpt lat="45.30678" lon="1.40142">
        <ele>333</ele>
        <time>2011-07-15T16:55:52Z</time>
      </trkpt>
      <trkpt lat="45.30671" lon="1.40143">
        <ele>328</ele>
        <time>2011-07-15T16:55:53Z</time>
      </trkpt>
      <trkpt lat="45.30665" lon="1.40143">
        <ele>324</ele>
        <time>2011-07-15T16:55:54Z</time>
      </trkpt>
      <trkpt lat="45.3066" lon="1.40144">
        <ele>326</ele>
        <time>2011-07-15T16:55:55Z</time>
      </trkpt>
      <trkpt lat="45.30655" lon="1.40144">
        <ele>330</ele>
        <time>2011-07-15T16:55:56Z</time>
      </trkpt>
      <trkpt lat="45.30648" lon="1.40146">
        <ele>331</ele>
        <time>2011-07-15T16:55:57Z</time>
      </trkpt>
      <trkpt lat="45.30643" lon="1.40148">
        <ele>331</ele>
        <time>2011-07-15T16:55:58Z</time>
      </trkpt>
      <trkpt lat="45.30637" lon="1.4015">
        <ele>331</ele>
        <time>2011-07-15T16:55:59Z</time>
      </trkpt>
      <trkpt lat="45.30629" lon="1.40154">
        <ele>333</ele>
        <time>2011-07-15T16:56:00Z</time>
      </trkpt>
      <trkpt lat="45.30622" lon="1.40158">
        <ele>336</ele>
        <time>2011-07-15T16:56:01Z</time>
      </trkpt>
      <trkpt lat="45.30615" lon="1.40163">
        <ele>329</ele>
        <time>2011-07-15T16:56:02Z</time>
      </trkpt>
      <trkpt lat="45.30608" lon="1.40167">
        <ele>320</ele>
        <time>2011-07-15T16:56:03Z</time>
      </trkpt>
      <trkpt lat="45.30602" lon="1.40174">
        <ele>312</ele>
        <time>2011-07-15T16:56:04Z</time>
      </trkpt>
      <trkpt lat="45.30594" lon="1.4018">
        <ele>308</ele>
        <time>2011-07-15T16:56:05Z</time>
      </trkpt>
      <trkpt lat="45.30585" lon="1.40185">
        <ele>304</ele>
        <time>2011-07-15T16:56:06Z</time>
      </trkpt>
      <trkpt lat="45.30577" lon="1.4019">
        <ele>304</ele>
        <time>2011-07-15T16:56:07Z</time>
      </trkpt>
      <trkpt lat="45.3057" lon="1.40194">
        <ele>299</ele>
        <time>2011-07-15T16:56:08Z</time>
      </trkpt>
      <trkpt lat="45.30561" lon="1.40198">
        <ele>298</ele>
        <time>2011-07-15T16:56:09Z</time>
      </trkpt>
      <trkpt lat="45.30552" lon="1.40203">
        <ele>295</ele>
        <time>2011-07-15T16:56:10Z</time>
      </trkpt>
      <trkpt lat="45.30543" lon="1.40207">
        <ele>297</ele>
        <time>2011-07-15T16:56:11Z</time>
      </trkpt>
      <trkpt lat="45.30535" lon="1.40212">
        <ele>308</ele>
        <time>2011-07-15T16:56:12Z</time>
      </trkpt>
      <trkpt lat="45.30527" lon="1.40216">
        <ele>307</ele>
        <time>2011-07-15T16:56:13Z</time>
      </trkpt>
      <trkpt lat="45.30519" lon="1.40221">
        <ele>304</ele>
        <time>2011-07-15T16:56:14Z</time>
      </trkpt>
      <trkpt lat="45.30512" lon="1.40225">
        <ele>302</ele>
        <time>2011-07-15T16:56:15Z</time>
      </trkpt>
      <trkpt lat="45.30504" lon="1.4023">
        <ele>297</ele>
        <time>2011-07-15T16:56:16Z</time>
      </trkpt>
      <trkpt lat="45.30496" lon="1.40233">
        <ele>298</ele>
        <time>2011-07-15T16:56:17Z</time>
      </trkpt>
      <trkpt lat="45.30489" lon="1.40235">
        <ele>302</ele>
        <time>2011-07-15T16:56:18Z</time>
      </trkpt>
      <trkpt lat="45.30481" lon="1.4024">
        <ele>301</ele>
        <time>2011-07-15T16:56:19Z</time>
      </trkpt>
      <trkpt lat="45.30473" lon="1.40244">
        <ele>300</ele>
        <time>2011-07-15T16:56:20Z</time>
      </trkpt>
      <trkpt lat="45.30465" lon="1.40248">
        <ele>300</ele>
        <time>2011-07-15T16:56:21Z</time>
      </trkpt>
      <trkpt lat="45.30456" lon="1.40251">
        <ele>296</ele>
        <time>2011-07-15T16:56:22Z</time>
      </trkpt>
      <trkpt lat="45.30447" lon="1.40253">
        <ele>305</ele>
        <time>2011-07-15T16:56:23Z</time>
      </trkpt>
      <trkpt lat="45.30438" lon="1.40256">
        <ele>310</ele>
        <time>2011-07-15T16:56:24Z</time>
      </trkpt>
      <trkpt lat="45.3043" lon="1.40258">
        <ele>314</ele>
        <time>2011-07-15T16:56:25Z</time>
      </trkpt>
      <trkpt lat="45.30422" lon="1.40261">
        <ele>315</ele>
        <time>2011-07-15T16:56:26Z</time>
      </trkpt>
      <trkpt lat="45.30415" lon="1.40263">
        <ele>313</ele>
        <time>2011-07-15T16:56:27Z</time>
      </trkpt>
      <trkpt lat="45.30409" lon="1.40266">
        <ele>313</ele>
        <time>2011-07-15T16:56:28Z</time>
      </trkpt>
      <trkpt lat="45.304" lon="1.4027">
        <ele>310</ele>
        <time>2011-07-15T16:56:29Z</time>
      </trkpt>
      <trkpt lat="45.30391" lon="1.40272">
        <ele>310</ele>
        <time>2011-07-15T16:56:30Z</time>
      </trkpt>
      <trkpt lat="45.30381" lon="1.40275">
        <ele>311</ele>
        <time>2011-07-15T16:56:31Z</time>
      </trkpt>
      <trkpt lat="45.30372" lon="1.40278">
        <ele>312</ele>
        <time>2011-07-15T16:56:32Z</time>
      </trkpt>
      <trkpt lat="45.30363" lon="1.40281">
        <ele>310</ele>
        <time>2011-07-15T16:56:33Z</time>
      </trkpt>
      <trkpt lat="45.30353" lon="1.40284">
        <ele>304</ele>
        <time>2011-07-15T16:56:34Z</time>
      </trkpt>
      <trkpt lat="45.30342" lon="1.40286">
        <ele>300</ele>
        <time>2011-07-15T16:56:35Z</time>
      </trkpt>
      <trkpt lat="45.30331" lon="1.40288">
        <ele>295</ele>
        <time>2011-07-15T16:56:36Z</time>
      </trkpt>
      <trkpt lat="45.30319" lon="1.4029">
        <ele>290</ele>
        <time>2011-07-15T16:56:37Z</time>
      </trkpt>
      <trkpt lat="45.30307" lon="1.40292">
        <ele>285</ele>
        <time>2011-07-15T16:56:38Z</time>
      </trkpt>
      <trkpt lat="45.30296" lon="1.40294">
        <ele>282</ele>
        <time>2011-07-15T16:56:39Z</time>
      </trkpt>
      <trkpt lat="45.30286" lon="1.40295">
        <ele>288</ele>
        <time>2011-07-15T16:56:40Z</time>
      </trkpt>
      <trkpt lat="45.30276" lon="1.40297">
        <ele>291</ele>
        <time>2011-07-15T16:56:41Z</time>
      </trkpt>
      <trkpt lat="45.30265" lon="1.40298">
        <ele>286</ele>
        <time>2011-07-15T16:56:42Z</time>
      </trkpt>
      <trkpt lat="45.30254" lon="1.40299">
        <ele>290</ele>
        <time>2011-07-15T16:56:43Z</time>
      </trkpt>
      <trkpt lat="45.30244" lon="1.403">
        <ele>290</ele>
        <time>2011-07-15T16:56:44Z</time>
      </trkpt>
      <trkpt lat="45.30233" lon="1.40301">
        <ele>293</ele>
        <time>2011-07-15T16:56:45Z</time>
      </trkpt>
      <trkpt lat="45.30222" lon="1.40303">
        <ele>293</ele>
        <time>2011-07-15T16:56:46Z</time>
      </trkpt>
      <trkpt lat="45.30212" lon="1.40305">
        <ele>294</ele>
        <time>2011-07-15T16:56:47Z</time>
      </trkpt>
      <trkpt lat="45.30201" lon="1.40307">
        <ele>295</ele>
        <time>2011-07-15T16:56:48Z</time>
      </trkpt>
      <trkpt lat="45.30191" lon="1.40309">
        <ele>296</ele>
        <time>2011-07-15T16:56:49Z</time>
      </trkpt>
      <trkpt lat="45.30181" lon="1.40311">
        <ele>295</ele>
        <time>2011-07-15T16:56:50Z</time>
      </trkpt>
      <trkpt lat="45.30172" lon="1.40313">
        <ele>296</ele>
        <time>2011-07-15T16:56:51Z</time>
      </trkpt>
      <trkpt lat="45.30164" lon="1.40315">
        <ele>297</ele>
        <time>2011-07-15T16:56:52Z</time>
      </trkpt>
      <trkpt lat="45.30164" lon="1.40315">
        <ele>297</ele>
        <time>2011-07-15T16:56:52Z</time>
      </trkpt>
      <trkpt lat="45.30164" lon="1.40315">
        <ele>297</ele>
        <time>2011-07-15T16:56:54Z</time>
      </trkpt>
      <trkpt lat="45.30156" lon="1.40317">
        <ele>301</ele>
        <time>2011-07-15T16:56:55Z</time>
      </trkpt>
      <trkpt lat="45.30146" lon="1.4032">
        <ele>299</ele>
        <time>2011-07-15T16:56:56Z</time>
      </trkpt>
      <trkpt lat="45.30137" lon="1.40321">
        <ele>299</ele>
        <time>2011-07-15T16:56:57Z</time>
      </trkpt>
      <trkpt lat="45.30128" lon="1.40323">
        <ele>301</ele>
        <time>2011-07-15T16:56:58Z</time>
      </trkpt>
      <trkpt lat="45.30119" lon="1.40325">
        <ele>304</ele>
        <time>2011-07-15T16:56:59Z</time>
      </trkpt>
      <trkpt lat="45.30112" lon="1.40327">
        <ele>302</ele>
        <time>2011-07-15T16:57:00Z</time>
      </trkpt>
      <trkpt lat="45.30105" lon="1.40329">
        <ele>302</ele>
        <time>2011-07-15T16:57:01Z</time>
      </trkpt>
      <trkpt lat="45.30097" lon="1.40331">
        <ele>297</ele>
        <time>2011-07-15T16:57:02Z</time>
      </trkpt>
      <trkpt lat="45.30091" lon="1.40332">
        <ele>297</ele>
        <time>2011-07-15T16:57:03Z</time>
      </trkpt>
      <trkpt lat="45.30091" lon="1.40332">
        <ele>297</ele>
        <time>2011-07-15T16:57:03Z</time>
      </trkpt>
      <trkpt lat="45.30091" lon="1.40332">
        <ele>297</ele>
        <time>2011-07-15T16:57:05Z</time>
      </trkpt>
      <trkpt lat="45.30085" lon="1.40335">
        <ele>297</ele>
        <time>2011-07-15T16:57:06Z</time>
      </trkpt>
      <trkpt lat="45.30078" lon="1.40337">
        <ele>294</ele>
        <time>2011-07-15T16:57:07Z</time>
      </trkpt>
      <trkpt lat="45.30071" lon="1.4034">
        <ele>294</ele>
        <time>2011-07-15T16:57:08Z</time>
      </trkpt>
      <trkpt lat="45.30063" lon="1.40341">
        <ele>292</ele>
        <time>2011-07-15T16:57:09Z</time>
      </trkpt>
      <trkpt lat="45.30055" lon="1.40343">
        <ele>292</ele>
        <time>2011-07-15T16:57:10Z</time>
      </trkpt>
      <trkpt lat="45.30048" lon="1.40344">
        <ele>291</ele>
        <time>2011-07-15T16:57:11Z</time>
      </trkpt>
      <trkpt lat="45.30041" lon="1.40346">
        <ele>292</ele>
        <time>2011-07-15T16:57:12Z</time>
      </trkpt>
      <trkpt lat="45.30033" lon="1.40348">
        <ele>289</ele>
        <time>2011-07-15T16:57:13Z</time>
      </trkpt>
      <trkpt lat="45.30025" lon="1.40349">
        <ele>288</ele>
        <time>2011-07-15T16:57:14Z</time>
      </trkpt>
      <trkpt lat="45.30018" lon="1.40352">
        <ele>289</ele>
        <time>2011-07-15T16:57:15Z</time>
      </trkpt>
      <trkpt lat="45.3001" lon="1.40354">
        <ele>290</ele>
        <time>2011-07-15T16:57:16Z</time>
      </trkpt>
      <trkpt lat="45.30001" lon="1.40355">
        <ele>286</ele>
        <time>2011-07-15T16:57:17Z</time>
      </trkpt>
      <trkpt lat="45.29993" lon="1.40356">
        <ele>285</ele>
        <time>2011-07-15T16:57:18Z</time>
      </trkpt>
      <trkpt lat="45.29983" lon="1.40358">
        <ele>284</ele>
        <time>2011-07-15T16:57:19Z</time>
      </trkpt>
      <trkpt lat="45.29974" lon="1.40359">
        <ele>280</ele>
        <time>2011-07-15T16:57:20Z</time>
      </trkpt>
      <trkpt lat="45.29963" lon="1.40362">
        <ele>275</ele>
        <time>2011-07-15T16:57:21Z</time>
      </trkpt>
      <trkpt lat="45.29952" lon="1.40366">
        <ele>270</ele>
        <time>2011-07-15T16:57:22Z</time>
      </trkpt>
      <trkpt lat="45.2994" lon="1.40369">
        <ele>273</ele>
        <time>2011-07-15T16:57:23Z</time>
      </trkpt>
      <trkpt lat="45.2993" lon="1.4037">
        <ele>275</ele>
        <time>2011-07-15T16:57:24Z</time>
      </trkpt>
      <trkpt lat="45.29919" lon="1.40372">
        <ele>275</ele>
        <time>2011-07-15T16:57:25Z</time>
      </trkpt>
      <trkpt lat="45.2991" lon="1.40373">
        <ele>277</ele>
        <time>2011-07-15T16:57:26Z</time>
      </trkpt>
      <trkpt lat="45.29898" lon="1.40376">
        <ele>273</ele>
        <time>2011-07-15T16:57:27Z</time>
      </trkpt>
      <trkpt lat="45.29888" lon="1.40378">
        <ele>274</ele>
        <time>2011-07-15T16:57:28Z</time>
      </trkpt>
      <trkpt lat="45.2988" lon="1.40381">
        <ele>271</ele>
        <time>2011-07-15T16:57:29Z</time>
      </trkpt>
      <trkpt lat="45.2987" lon="1.40384">
        <ele>262</ele>
        <time>2011-07-15T16:57:30Z</time>
      </trkpt>
      <trkpt lat="45.29864" lon="1.40388">
        <ele>263</ele>
        <time>2011-07-15T16:57:31Z</time>
      </trkpt>
      <trkpt lat="45.29858" lon="1.40389">
        <ele>265</ele>
        <time>2011-07-15T16:57:32Z</time>
      </trkpt>
      <trkpt lat="45.29849" lon="1.4039">
        <ele>261</ele>
        <time>2011-07-15T16:57:34Z</time>
      </trkpt>
      <trkpt lat="45.29849" lon="1.4039">
        <ele>261</ele>
        <time>2011-07-15T16:57:34Z</time>
      </trkpt>
      <trkpt lat="45.29849" lon="1.4039">
        <ele>261</ele>
        <time>2011-07-15T16:57:36Z</time>
      </trkpt>
      <trkpt lat="45.29843" lon="1.40391">
        <ele>255</ele>
        <time>2011-07-15T16:57:37Z</time>
      </trkpt>
      <trkpt lat="45.29837" lon="1.40393">
        <ele>252</ele>
        <time>2011-07-15T16:57:38Z</time>
      </trkpt>
      <trkpt lat="45.29832" lon="1.40394">
        <ele>248</ele>
        <time>2011-07-15T16:57:39Z</time>
      </trkpt>
      <trkpt lat="45.29832" lon="1.40394">
        <ele>248</ele>
        <time>2011-07-15T16:57:39Z</time>
      </trkpt>
      <trkpt lat="45.29832" lon="1.40394">
        <ele>248</ele>
        <time>2011-07-15T16:57:41Z</time>
      </trkpt>
      <trkpt lat="45.29826" lon="1.40394">
        <ele>251</ele>
        <time>2011-07-15T16:57:42Z</time>
      </trkpt>
      <trkpt lat="45.2982" lon="1.40393">
        <ele>252</ele>
        <time>2011-07-15T16:57:43Z</time>
      </trkpt>
      <trkpt lat="45.29815" lon="1.40392">
        <ele>252</ele>
        <time>2011-07-15T16:57:44Z</time>
      </trkpt>
      <trkpt lat="45.29807" lon="1.4039">
        <ele>257</ele>
        <time>2011-07-15T16:57:46Z</time>
      </trkpt>
      <trkpt lat="45.29798" lon="1.40385">
        <ele>263</ele>
        <time>2011-07-15T16:57:50Z</time>
      </trkpt>
      <trkpt lat="45.2979" lon="1.40382">
        <ele>271</ele>
        <time>2011-07-15T16:57:54Z</time>
      </trkpt>
      <trkpt lat="45.29783" lon="1.4038">
        <ele>274</ele>
        <time>2011-07-15T16:57:56Z</time>
      </trkpt>
      <trkpt lat="45.29783" lon="1.4038">
        <ele>274</ele>
        <time>2011-07-15T16:57:56Z</time>
      </trkpt>
      <trkpt lat="45.29783" lon="1.4038">
        <ele>274</ele>
        <time>2011-07-15T16:58:04Z</time>
      </trkpt>
      <trkpt lat="45.29773" lon="1.40385">
        <ele>264</ele>
        <time>2011-07-15T16:58:05Z</time>
      </trkpt>
      <trkpt lat="45.29773" lon="1.40385">
        <ele>264</ele>
        <time>2011-07-15T16:58:05Z</time>
      </trkpt>
      <trkpt lat="45.29773" lon="1.40385">
        <ele>264</ele>
        <time>2011-07-15T16:58:13Z</time>
      </trkpt>
      <trkpt lat="45.29777" lon="1.40398">
        <ele>248</ele>
        <time>2011-07-15T16:58:14Z</time>
      </trkpt>
      <trkpt lat="45.29779" lon="1.40406">
        <ele>251</ele>
        <time>2011-07-15T16:58:16Z</time>
      </trkpt>
      <trkpt lat="45.2978" lon="1.40416">
        <ele>251</ele>
        <time>2011-07-15T16:58:19Z</time>
      </trkpt>
      <trkpt lat="45.2978" lon="1.40416">
        <ele>251</ele>
        <time>2011-07-15T16:58:19Z</time>
      </trkpt>
      <trkpt lat="45.2978" lon="1.40416">
        <ele>251</ele>
        <time>2011-07-15T16:58:21Z</time>
      </trkpt>
      <trkpt lat="45.29779" lon="1.40425">
        <ele>248</ele>
        <time>2011-07-15T16:58:22Z</time>
      </trkpt>
      <trkpt lat="45.29775" lon="1.4044">
        <ele>249</ele>
        <time>2011-07-15T16:58:28Z</time>
      </trkpt>
      <trkpt lat="45.29775" lon="1.4044">
        <ele>249</ele>
        <time>2011-07-15T16:58:28Z</time>
      </trkpt>
      <trkpt lat="45.29775" lon="1.4044">
        <ele>249</ele>
        <time>2011-07-15T16:58:30Z</time>
      </trkpt>
      <trkpt lat="45.29769" lon="1.40444">
        <ele>248</ele>
        <time>2011-07-15T16:58:31Z</time>
      </trkpt>
      <trkpt lat="45.29769" lon="1.40444">
        <ele>248</ele>
        <time>2011-07-15T16:58:31Z</time>
      </trkpt>
      <trkpt lat="45.29769" lon="1.40444">
        <ele>248</ele>
        <time>2011-07-15T16:58:32Z</time>
      </trkpt>
      <trkpt lat="45.29762" lon="1.40446">
        <ele>245</ele>
        <time>2011-07-15T16:58:33Z</time>
      </trkpt>
      <trkpt lat="45.29755" lon="1.40446">
        <ele>245</ele>
        <time>2011-07-15T16:58:35Z</time>
      </trkpt>
      <trkpt lat="45.29748" lon="1.40446">
        <ele>251</ele>
        <time>2011-07-15T16:58:37Z</time>
      </trkpt>
      <trkpt lat="45.29736" lon="1.40448">
        <ele>249</ele>
        <time>2011-07-15T16:58:41Z</time>
      </trkpt>
      <trkpt lat="45.29726" lon="1.40451">
        <ele>255</ele>
        <time>2011-07-15T16:58:46Z</time>
      </trkpt>
      <trkpt lat="45.29718" lon="1.40454">
        <ele>254</ele>
        <time>2011-07-15T16:58:48Z</time>
      </trkpt>
      <trkpt lat="45.29709" lon="1.40457">
        <ele>253</ele>
        <time>2011-07-15T16:58:50Z</time>
      </trkpt>
      <trkpt lat="45.29704" lon="1.40459">
        <ele>254</ele>
        <time>2011-07-15T16:58:51Z</time>
      </trkpt>
      <trkpt lat="45.29699" lon="1.40462">
        <ele>257</ele>
        <time>2011-07-15T16:58:52Z</time>
      </trkpt>
      <trkpt lat="45.29694" lon="1.40465">
        <ele>259</ele>
        <time>2011-07-15T16:58:53Z</time>
      </trkpt>
      <trkpt lat="45.29688" lon="1.40467">
        <ele>254</ele>
        <time>2011-07-15T16:58:54Z</time>
      </trkpt>
      <trkpt lat="45.29683" lon="1.4047">
        <ele>254</ele>
        <time>2011-07-15T16:58:55Z</time>
      </trkpt>
      <trkpt lat="45.29679" lon="1.40474">
        <ele>255</ele>
        <time>2011-07-15T16:58:56Z</time>
      </trkpt>
      <trkpt lat="45.29674" lon="1.40477">
        <ele>257</ele>
        <time>2011-07-15T16:58:57Z</time>
      </trkpt>
      <trkpt lat="45.29669" lon="1.40479">
        <ele>252</ele>
        <time>2011-07-15T16:58:58Z</time>
      </trkpt>
      <trkpt lat="45.29661" lon="1.40485">
        <ele>253</ele>
        <time>2011-07-15T16:59:00Z</time>
      </trkpt>
      <trkpt lat="45.29657" lon="1.40488">
        <ele>254</ele>
        <time>2011-07-15T16:59:01Z</time>
      </trkpt>
      <trkpt lat="45.29648" lon="1.40493">
        <ele>253</ele>
        <time>2011-07-15T16:59:03Z</time>
      </trkpt>
      <trkpt lat="45.29643" lon="1.40495">
        <ele>253</ele>
        <time>2011-07-15T16:59:04Z</time>
      </trkpt>
      <trkpt lat="45.29639" lon="1.40498">
        <ele>253</ele>
        <time>2011-07-15T16:59:05Z</time>
      </trkpt>
      <trkpt lat="45.29635" lon="1.405">
        <ele>255</ele>
        <time>2011-07-15T16:59:06Z</time>
      </trkpt>
      <trkpt lat="45.29626" lon="1.40504">
        <ele>255</ele>
        <time>2011-07-15T16:59:08Z</time>
      </trkpt>
      <trkpt lat="45.29617" lon="1.40508">
        <ele>256</ele>
        <time>2011-07-15T16:59:10Z</time>
      </trkpt>
      <trkpt lat="45.29613" lon="1.4051">
        <ele>255</ele>
        <time>2011-07-15T16:59:11Z</time>
      </trkpt>
      <trkpt lat="45.29605" lon="1.40515">
        <ele>249</ele>
        <time>2011-07-15T16:59:14Z</time>
      </trkpt>
      <trkpt lat="45.29599" lon="1.4052">
        <ele>250</ele>
        <time>2011-07-15T16:59:15Z</time>
      </trkpt>
      <trkpt lat="45.29592" lon="1.40526">
        <ele>250</ele>
        <time>2011-07-15T16:59:16Z</time>
      </trkpt>
      <trkpt lat="45.29586" lon="1.40525">
        <ele>254</ele>
        <time>2011-07-15T16:59:17Z</time>
      </trkpt>
      <trkpt lat="45.29578" lon="1.40523">
        <ele>253</ele>
        <time>2011-07-15T16:59:19Z</time>
      </trkpt>
      <trkpt lat="45.29578" lon="1.40523">
        <ele>253</ele>
        <time>2011-07-15T16:59:19Z</time>
      </trkpt>
      <trkpt lat="45.29578" lon="1.40523">
        <ele>253</ele>
        <time>2011-07-15T16:59:25Z</time>
      </trkpt>
      <trkpt lat="45.29574" lon="1.40512">
        <ele>248</ele>
        <time>2011-07-15T16:59:26Z</time>
      </trkpt>
      <trkpt lat="45.29574" lon="1.40512">
        <ele>248</ele>
        <time>2011-07-15T16:59:26Z</time>
      </trkpt>
      <trkpt lat="45.29574" lon="1.40512">
        <ele>248</ele>
        <time>2011-07-15T16:59:27Z</time>
      </trkpt>
      <trkpt lat="45.29574" lon="1.40475">
        <ele>254</ele>
        <time>2011-07-15T16:59:38Z</time>
      </trkpt>
      <trkpt lat="45.29574" lon="1.40468">
        <ele>252</ele>
        <time>2011-07-15T16:59:39Z</time>
      </trkpt>
      <trkpt lat="45.29573" lon="1.40459">
        <ele>253</ele>
        <time>2011-07-15T16:59:41Z</time>
      </trkpt>
      <trkpt lat="45.29572" lon="1.4045">
        <ele>256</ele>
        <time>2011-07-15T16:59:43Z</time>
      </trkpt>
      <trkpt lat="45.29571" lon="1.4044">
        <ele>253</ele>
        <time>2011-07-15T16:59:46Z</time>
      </trkpt>
      <trkpt lat="45.29571" lon="1.4044">
        <ele>253</ele>
        <time>2011-07-15T16:59:46Z</time>
      </trkpt>
      <trkpt lat="45.29571" lon="1.4044">
        <ele>253</ele>
        <time>2011-07-15T16:59:48Z</time>
      </trkpt>
      <trkpt lat="45.2957" lon="1.40424">
        <ele>252</ele>
        <time>2011-07-15T16:59:49Z</time>
      </trkpt>
      <trkpt lat="45.29571" lon="1.40413">
        <ele>252</ele>
        <time>2011-07-15T16:59:51Z</time>
      </trkpt>
      <trkpt lat="45.29577" lon="1.40394">
        <ele>253</ele>
        <time>2011-07-15T16:59:57Z</time>
      </trkpt>
      <trkpt lat="45.29577" lon="1.40394">
        <ele>253</ele>
        <time>2011-07-15T16:59:57Z</time>
      </trkpt>
      <trkpt lat="45.29577" lon="1.40394">
        <ele>253</ele>
        <time>2011-07-15T17:00:01Z</time>
      </trkpt>
      <trkpt lat="45.2958" lon="1.40382">
        <ele>252</ele>
        <time>2011-07-15T17:00:02Z</time>
      </trkpt>
      <trkpt lat="45.29582" lon="1.40365">
        <ele>254</ele>
        <time>2011-07-15T17:00:07Z</time>
      </trkpt>
      <trkpt lat="45.29583" lon="1.40345">
        <ele>252</ele>
        <time>2011-07-15T17:00:12Z</time>
      </trkpt>
      <trkpt lat="45.29583" lon="1.40345">
        <ele>252</ele>
        <time>2011-07-15T17:00:12Z</time>
      </trkpt>
      <trkpt lat="45.29583" lon="1.40345">
        <ele>252</ele>
        <time>2011-07-15T17:00:16Z</time>
      </trkpt>
      <trkpt lat="45.29579" lon="1.40327">
        <ele>259</ele>
        <time>2011-07-15T17:00:17Z</time>
      </trkpt>
      <trkpt lat="45.29574" lon="1.40319">
        <ele>260</ele>
        <time>2011-07-15T17:00:19Z</time>
      </trkpt>
      <trkpt lat="45.29566" lon="1.40312">
        <ele>263</ele>
        <time>2011-07-15T17:00:21Z</time>
      </trkpt>
      <trkpt lat="45.29561" lon="1.40308">
        <ele>263</ele>
        <time>2011-07-15T17:00:22Z</time>
      </trkpt>
      <trkpt lat="45.29555" lon="1.40303">
        <ele>263</ele>
        <time>2011-07-15T17:00:23Z</time>
      </trkpt>
      <trkpt lat="45.29549" lon="1.40299">
        <ele>261</ele>
        <time>2011-07-15T17:00:24Z</time>
      </trkpt>
      <trkpt lat="45.29543" lon="1.40295">
        <ele>258</ele>
        <time>2011-07-15T17:00:25Z</time>
      </trkpt>
      <trkpt lat="45.29535" lon="1.4029">
        <ele>256</ele>
        <time>2011-07-15T17:00:26Z</time>
      </trkpt>
      <trkpt lat="45.29528" lon="1.40286">
        <ele>257</ele>
        <time>2011-07-15T17:00:27Z</time>
      </trkpt>
      <trkpt lat="45.2952" lon="1.40281">
        <ele>256</ele>
        <time>2011-07-15T17:00:28Z</time>
      </trkpt>
      <trkpt lat="45.29511" lon="1.40275">
        <ele>254</ele>
        <time>2011-07-15T17:00:29Z</time>
      </trkpt>
      <trkpt lat="45.29502" lon="1.4027">
        <ele>254</ele>
        <time>2011-07-15T17:00:30Z</time>
      </trkpt>
      <trkpt lat="45.29493" lon="1.40266">
        <ele>253</ele>
        <time>2011-07-15T17:00:31Z</time>
      </trkpt>
      <trkpt lat="45.29484" lon="1.40262">
        <ele>254</ele>
        <time>2011-07-15T17:00:32Z</time>
      </trkpt>
      <trkpt lat="45.29475" lon="1.40262">
        <ele>256</ele>
        <time>2011-07-15T17:00:33Z</time>
      </trkpt>
      <trkpt lat="45.29465" lon="1.40261">
        <ele>253</ele>
        <time>2011-07-15T17:00:34Z</time>
      </trkpt>
      <trkpt lat="45.29453" lon="1.40262">
        <ele>253</ele>
        <time>2011-07-15T17:00:35Z</time>
      </trkpt>
      <trkpt lat="45.29442" lon="1.40262">
        <ele>253</ele>
        <time>2011-07-15T17:00:36Z</time>
      </trkpt>
      <trkpt lat="45.29431" lon="1.40263">
        <ele>254</ele>
        <time>2011-07-15T17:00:37Z</time>
      </trkpt>
      <trkpt lat="45.2942" lon="1.40263">
        <ele>254</ele>
        <time>2011-07-15T17:00:38Z</time>
      </trkpt>
      <trkpt lat="45.29409" lon="1.40263">
        <ele>254</ele>
        <time>2011-07-15T17:00:39Z</time>
      </trkpt>
      <trkpt lat="45.29397" lon="1.40263">
        <ele>254</ele>
        <time>2011-07-15T17:00:40Z</time>
      </trkpt>
      <trkpt lat="45.29387" lon="1.40264">
        <ele>253</ele>
        <time>2011-07-15T17:00:41Z</time>
      </trkpt>
      <trkpt lat="45.29376" lon="1.40265">
        <ele>253</ele>
        <time>2011-07-15T17:00:42Z</time>
      </trkpt>
      <trkpt lat="45.29367" lon="1.40265">
        <ele>254</ele>
        <time>2011-07-15T17:00:43Z</time>
      </trkpt>
      <trkpt lat="45.29359" lon="1.40265">
        <ele>253</ele>
        <time>2011-07-15T17:00:44Z</time>
      </trkpt>
      <trkpt lat="45.29352" lon="1.40264">
        <ele>253</ele>
        <time>2011-07-15T17:00:45Z</time>
      </trkpt>
      <trkpt lat="45.29352" lon="1.40264">
        <ele>253</ele>
        <time>2011-07-15T17:00:45Z</time>
      </trkpt>
      <trkpt lat="45.29352" lon="1.40264">
        <ele>253</ele>
        <time>2011-07-15T17:00:46Z</time>
      </trkpt>
      <trkpt lat="45.29348" lon="1.40261">
        <ele>251</ele>
        <time>2011-07-15T17:00:47Z</time>
      </trkpt>
      <trkpt lat="45.29344" lon="1.40254">
        <ele>248</ele>
        <time>2011-07-15T17:00:49Z</time>
      </trkpt>
      <trkpt lat="45.29341" lon="1.40246">
        <ele>246</ele>
        <time>2011-07-15T17:00:51Z</time>
      </trkpt>
      <trkpt lat="45.29341" lon="1.40246">
        <ele>246</ele>
        <time>2011-07-15T17:00:51Z</time>
      </trkpt>
      <trkpt lat="45.29341" lon="1.40246">
        <ele>246</ele>
        <time>2011-07-15T17:00:56Z</time>
      </trkpt>
      <trkpt lat="45.29344" lon="1.40227">
        <ele>250</ele>
        <time>2011-07-15T17:00:57Z</time>
      </trkpt>
      <trkpt lat="45.29344" lon="1.40227">
        <ele>250</ele>
        <time>2011-07-15T17:00:57Z</time>
      </trkpt>
      <trkpt lat="45.29344" lon="1.40227">
        <ele>250</ele>
        <time>2011-07-15T17:00:58Z</time>
      </trkpt>
      <trkpt lat="45.29349" lon="1.40216">
        <ele>250</ele>
        <time>2011-07-15T17:00:59Z</time>
      </trkpt>
      <trkpt lat="45.29351" lon="1.40208">
        <ele>249</ele>
        <time>2011-07-15T17:01:01Z</time>
      </trkpt>
      <trkpt lat="45.29351" lon="1.40208">
        <ele>249</ele>
        <time>2011-07-15T17:01:01Z</time>
      </trkpt>
      <trkpt lat="45.29351" lon="1.40208">
        <ele>249</ele>
        <time>2011-07-15T17:01:07Z</time>
      </trkpt>
      <trkpt lat="45.29346" lon="1.40196">
        <ele>236</ele>
        <time>2011-07-15T17:01:08Z</time>
      </trkpt>
      <trkpt lat="45.29346" lon="1.40196">
        <ele>236</ele>
        <time>2011-07-15T17:01:08Z</time>
      </trkpt>
      <trkpt lat="45.29346" lon="1.40196">
        <ele>236</ele>
        <time>2011-07-15T17:01:13Z</time>
      </trkpt>
      <trkpt lat="45.29338" lon="1.40187">
        <ele>235</ele>
        <time>2011-07-15T17:01:14Z</time>
      </trkpt>
      <trkpt lat="45.29338" lon="1.40187">
        <ele>235</ele>
        <time>2011-07-15T17:01:14Z</time>
      </trkpt>
      <trkpt lat="45.29338" lon="1.40187">
        <ele>235</ele>
        <time>2011-07-15T17:01:17Z</time>
      </trkpt>
      <trkpt lat="45.2933" lon="1.4018">
        <ele>232</ele>
        <time>2011-07-15T17:01:18Z</time>
      </trkpt>
      <trkpt lat="45.2933" lon="1.4018">
        <ele>232</ele>
        <time>2011-07-15T17:01:18Z</time>
      </trkpt>
      <trkpt lat="45.2933" lon="1.4018">
        <ele>232</ele>
        <time>2011-07-15T17:01:20Z</time>
      </trkpt>
      <trkpt lat="45.29323" lon="1.40175">
        <ele>234</ele>
        <time>2011-07-15T17:01:21Z</time>
      </trkpt>
      <trkpt lat="45.29314" lon="1.40173">
        <ele>238</ele>
        <time>2011-07-15T17:01:23Z</time>
      </trkpt>
      <trkpt lat="45.29309" lon="1.40172">
        <ele>240</ele>
        <time>2011-07-15T17:01:24Z</time>
      </trkpt>
      <trkpt lat="45.293" lon="1.40171">
        <ele>240</ele>
        <time>2011-07-15T17:01:26Z</time>
      </trkpt>
      <trkpt lat="45.29292" lon="1.40172">
        <ele>242</ele>
        <time>2011-07-15T17:01:27Z</time>
      </trkpt>
      <trkpt lat="45.2927" lon="1.40175">
        <ele>245</ele>
        <time>2011-07-15T17:01:30Z</time>
      </trkpt>
      <trkpt lat="45.29263" lon="1.40178">
        <ele>241</ele>
        <time>2011-07-15T17:01:31Z</time>
      </trkpt>
      <trkpt lat="45.29254" lon="1.4018">
        <ele>241</ele>
        <time>2011-07-15T17:01:32Z</time>
      </trkpt>
      <trkpt lat="45.29245" lon="1.40183">
        <ele>245</ele>
        <time>2011-07-15T17:01:33Z</time>
      </trkpt>
      <trkpt lat="45.29237" lon="1.40185">
        <ele>242</ele>
        <time>2011-07-15T17:01:34Z</time>
      </trkpt>
      <trkpt lat="45.2923" lon="1.40187">
        <ele>242</ele>
        <time>2011-07-15T17:01:35Z</time>
      </trkpt>
      <trkpt lat="45.29224" lon="1.40189">
        <ele>240</ele>
        <time>2011-07-15T17:01:36Z</time>
      </trkpt>
      <trkpt lat="45.29218" lon="1.4019">
        <ele>241</ele>
        <time>2011-07-15T17:01:37Z</time>
      </trkpt>
      <trkpt lat="45.29213" lon="1.40192">
        <ele>243</ele>
        <time>2011-07-15T17:01:38Z</time>
      </trkpt>
      <trkpt lat="45.29207" lon="1.40193">
        <ele>245</ele>
        <time>2011-07-15T17:01:39Z</time>
      </trkpt>
      <trkpt lat="45.29202" lon="1.40194">
        <ele>246</ele>
        <time>2011-07-15T17:01:40Z</time>
      </trkpt>
      <trkpt lat="45.29197" lon="1.40196">
        <ele>246</ele>
        <time>2011-07-15T17:01:41Z</time>
      </trkpt>
      <trkpt lat="45.29192" lon="1.40198">
        <ele>247</ele>
        <time>2011-07-15T17:01:42Z</time>
      </trkpt>
      <trkpt lat="45.29186" lon="1.402">
        <ele>249</ele>
        <time>2011-07-15T17:01:43Z</time>
      </trkpt>
      <trkpt lat="45.2918" lon="1.40202">
        <ele>249</ele>
        <time>2011-07-15T17:01:44Z</time>
      </trkpt>
      <trkpt lat="45.29175" lon="1.40204">
        <ele>247</ele>
        <time>2011-07-15T17:01:45Z</time>
      </trkpt>
      <trkpt lat="45.29169" lon="1.40206">
        <ele>252</ele>
        <time>2011-07-15T17:01:46Z</time>
      </trkpt>
      <trkpt lat="45.29163" lon="1.40208">
        <ele>249</ele>
        <time>2011-07-15T17:01:47Z</time>
      </trkpt>
      <trkpt lat="45.29157" lon="1.4021">
        <ele>249</ele>
        <time>2011-07-15T17:01:48Z</time>
      </trkpt>
      <trkpt lat="45.29152" lon="1.40211">
        <ele>246</ele>
        <time>2011-07-15T17:01:49Z</time>
      </trkpt>
      <trkpt lat="45.29152" lon="1.40211">
        <ele>246</ele>
        <time>2011-07-15T17:01:49Z</time>
      </trkpt>
      <trkpt lat="45.29152" lon="1.40211">
        <ele>246</ele>
        <time>2011-07-15T17:01:51Z</time>
      </trkpt>
      <trkpt lat="45.29146" lon="1.40211">
        <ele>250</ele>
        <time>2011-07-15T17:01:52Z</time>
      </trkpt>
      <trkpt lat="45.29146" lon="1.40211">
        <ele>250</ele>
        <time>2011-07-15T17:01:52Z</time>
      </trkpt>
      <trkpt lat="45.29146" lon="1.40211">
        <ele>250</ele>
        <time>2011-07-15T17:01:57Z</time>
      </trkpt>
      <trkpt lat="45.29136" lon="1.40214">
        <ele>253</ele>
        <time>2011-07-15T17:01:58Z</time>
      </trkpt>
      <trkpt lat="45.29136" lon="1.40214">
        <ele>253</ele>
        <time>2011-07-15T17:01:58Z</time>
      </trkpt>
      <trkpt lat="45.29136" lon="1.40214">
        <ele>253</ele>
        <time>2011-07-15T17:02:01Z</time>
      </trkpt>
      <trkpt lat="45.29126" lon="1.40217">
        <ele>248</ele>
        <time>2011-07-15T17:02:02Z</time>
      </trkpt>
      <trkpt lat="45.29126" lon="1.40217">
        <ele>248</ele>
        <time>2011-07-15T17:02:02Z</time>
      </trkpt>
      <trkpt lat="45.29126" lon="1.40217">
        <ele>248</ele>
        <time>2011-07-15T17:02:03Z</time>
      </trkpt>
      <trkpt lat="45.29117" lon="1.4022">
        <ele>248</ele>
        <time>2011-07-15T17:02:04Z</time>
      </trkpt>
      <trkpt lat="45.29117" lon="1.4022">
        <ele>248</ele>
        <time>2011-07-15T17:02:04Z</time>
      </trkpt>
      <trkpt lat="45.29117" lon="1.4022">
        <ele>248</ele>
        <time>2011-07-15T17:02:07Z</time>
      </trkpt>
      <trkpt lat="45.29106" lon="1.40222">
        <ele>252</ele>
        <time>2011-07-15T17:02:08Z</time>
      </trkpt>
      <trkpt lat="45.29106" lon="1.40222">
        <ele>252</ele>
        <time>2011-07-15T17:02:08Z</time>
      </trkpt>
      <trkpt lat="45.29106" lon="1.40222">
        <ele>252</ele>
        <time>2011-07-15T17:02:11Z</time>
      </trkpt>
      <trkpt lat="45.29094" lon="1.40224">
        <ele>240</ele>
        <time>2011-07-15T17:02:12Z</time>
      </trkpt>
      <trkpt lat="45.29094" lon="1.40224">
        <ele>240</ele>
        <time>2011-07-15T17:02:12Z</time>
      </trkpt>
      <trkpt lat="45.29094" lon="1.40224">
        <ele>240</ele>
        <time>2011-07-15T17:02:17Z</time>
      </trkpt>
      <trkpt lat="45.2908" lon="1.40226">
        <ele>236</ele>
        <time>2011-07-15T17:02:18Z</time>
      </trkpt>
      <trkpt lat="45.2908" lon="1.40226">
        <ele>236</ele>
        <time>2011-07-15T17:02:18Z</time>
      </trkpt>
      <trkpt lat="45.2908" lon="1.40226">
        <ele>236</ele>
        <time>2011-07-15T17:02:19Z</time>
      </trkpt>
      <trkpt lat="45.29068" lon="1.40228">
        <ele>244</ele>
        <time>2011-07-15T17:02:20Z</time>
      </trkpt>
      <trkpt lat="45.29068" lon="1.40228">
        <ele>244</ele>
        <time>2011-07-15T17:02:20Z</time>
      </trkpt>
      <trkpt lat="45.29068" lon="1.40228">
        <ele>244</ele>
        <time>2011-07-15T17:02:26Z</time>
      </trkpt>
      <trkpt lat="45.29054" lon="1.40228">
        <ele>238</ele>
        <time>2011-07-15T17:02:27Z</time>
      </trkpt>
      <trkpt lat="45.29054" lon="1.40228">
        <ele>238</ele>
        <time>2011-07-15T17:02:27Z</time>
      </trkpt>
      <trkpt lat="45.29054" lon="1.40228">
        <ele>238</ele>
        <time>2011-07-15T17:02:28Z</time>
      </trkpt>
      <trkpt lat="45.29042" lon="1.40227">
        <ele>229</ele>
        <time>2011-07-15T17:02:29Z</time>
      </trkpt>
      <trkpt lat="45.29042" lon="1.40227">
        <ele>229</ele>
        <time>2011-07-15T17:02:29Z</time>
      </trkpt>
      <trkpt lat="45.29042" lon="1.40227">
        <ele>229</ele>
        <time>2011-07-15T17:02:31Z</time>
      </trkpt>
      <trkpt lat="45.29029" lon="1.40228">
        <ele>235</ele>
        <time>2011-07-15T17:02:32Z</time>
      </trkpt>
      <trkpt lat="45.29029" lon="1.40228">
        <ele>235</ele>
        <time>2011-07-15T17:02:32Z</time>
      </trkpt>
      <trkpt lat="45.29029" lon="1.40228">
        <ele>235</ele>
        <time>2011-07-15T17:02:36Z</time>
      </trkpt>
      <trkpt lat="45.29017" lon="1.40229">
        <ele>245</ele>
        <time>2011-07-15T17:02:37Z</time>
      </trkpt>
      <trkpt lat="45.29017" lon="1.40229">
        <ele>245</ele>
        <time>2011-07-15T17:02:37Z</time>
      </trkpt>
      <trkpt lat="45.29017" lon="1.40229">
        <ele>245</ele>
        <time>2011-07-15T17:02:40Z</time>
      </trkpt>
      <trkpt lat="45.29005" lon="1.4023">
        <ele>235</ele>
        <time>2011-07-15T17:02:41Z</time>
      </trkpt>
      <trkpt lat="45.29005" lon="1.4023">
        <ele>235</ele>
        <time>2011-07-15T17:02:41Z</time>
      </trkpt>
      <trkpt lat="45.29005" lon="1.4023">
        <ele>235</ele>
        <time>2011-07-15T17:02:48Z</time>
      </trkpt>
      <trkpt lat="45.28994" lon="1.40228">
        <ele>232</ele>
        <time>2011-07-15T17:02:49Z</time>
      </trkpt>
      <trkpt lat="45.28994" lon="1.40228">
        <ele>232</ele>
        <time>2011-07-15T17:02:49Z</time>
      </trkpt>
      <trkpt lat="45.28994" lon="1.40228">
        <ele>232</ele>
        <time>2011-07-15T17:02:56Z</time>
      </trkpt>
      <trkpt lat="45.28984" lon="1.40228">
        <ele>234</ele>
        <time>2011-07-15T17:02:57Z</time>
      </trkpt>
      <trkpt lat="45.28984" lon="1.40228">
        <ele>234</ele>
        <time>2011-07-15T17:02:57Z</time>
      </trkpt>
      <trkpt lat="45.28984" lon="1.40228">
        <ele>234</ele>
        <time>2011-07-15T17:02:59Z</time>
      </trkpt>
      <trkpt lat="45.28974" lon="1.40225">
        <ele>233</ele>
        <time>2011-07-15T17:03:00Z</time>
      </trkpt>
      <trkpt lat="45.28974" lon="1.40225">
        <ele>233</ele>
        <time>2011-07-15T17:03:00Z</time>
      </trkpt>
      <trkpt lat="45.28974" lon="1.40225">
        <ele>233</ele>
        <time>2011-07-15T17:03:03Z</time>
      </trkpt>
      <trkpt lat="45.28965" lon="1.40222">
        <ele>233</ele>
        <time>2011-07-15T17:03:04Z</time>
      </trkpt>
      <trkpt lat="45.28965" lon="1.40222">
        <ele>233</ele>
        <time>2011-07-15T17:03:04Z</time>
      </trkpt>
      <trkpt lat="45.28965" lon="1.40222">
        <ele>233</ele>
        <time>2011-07-15T17:03:09Z</time>
      </trkpt>
      <trkpt lat="45.28956" lon="1.40213">
        <ele>235</ele>
        <time>2011-07-15T17:03:10Z</time>
      </trkpt>
      <trkpt lat="45.28956" lon="1.40213">
        <ele>235</ele>
        <time>2011-07-15T17:03:10Z</time>
      </trkpt>
      <trkpt lat="45.28956" lon="1.40213">
        <ele>235</ele>
        <time>2011-07-15T17:03:14Z</time>
      </trkpt>
      <trkpt lat="45.28949" lon="1.40201">
        <ele>234</ele>
        <time>2011-07-15T17:03:15Z</time>
      </trkpt>
      <trkpt lat="45.28949" lon="1.40201">
        <ele>234</ele>
        <time>2011-07-15T17:03:15Z</time>
      </trkpt>
      <trkpt lat="45.28949" lon="1.40201">
        <ele>234</ele>
        <time>2011-07-15T17:03:21Z</time>
      </trkpt>
      <trkpt lat="45.28942" lon="1.40191">
        <ele>231</ele>
        <time>2011-07-15T17:03:22Z</time>
      </trkpt>
      <trkpt lat="45.28942" lon="1.40191">
        <ele>231</ele>
        <time>2011-07-15T17:03:22Z</time>
      </trkpt>
      <trkpt lat="45.28942" lon="1.40191">
        <ele>231</ele>
        <time>2011-07-15T17:03:25Z</time>
      </trkpt>
      <trkpt lat="45.28935" lon="1.40183">
        <ele>244</ele>
        <time>2011-07-15T17:03:26Z</time>
      </trkpt>
      <trkpt lat="45.28935" lon="1.40183">
        <ele>244</ele>
        <time>2011-07-15T17:03:26Z</time>
      </trkpt>
      <trkpt lat="45.28935" lon="1.40183">
        <ele>244</ele>
        <time>2011-07-15T17:03:31Z</time>
      </trkpt>
      <trkpt lat="45.28926" lon="1.40178">
        <ele>245</ele>
        <time>2011-07-15T17:03:32Z</time>
      </trkpt>
      <trkpt lat="45.28926" lon="1.40178">
        <ele>245</ele>
        <time>2011-07-15T17:03:32Z</time>
      </trkpt>
      <trkpt lat="45.28926" lon="1.40178">
        <ele>245</ele>
        <time>2011-07-15T17:03:34Z</time>
      </trkpt>
      <trkpt lat="45.28918" lon="1.40173">
        <ele>243</ele>
        <time>2011-07-15T17:03:35Z</time>
      </trkpt>
      <trkpt lat="45.28918" lon="1.40173">
        <ele>243</ele>
        <time>2011-07-15T17:03:35Z</time>
      </trkpt>
      <trkpt lat="45.28918" lon="1.40173">
        <ele>243</ele>
        <time>2011-07-15T17:03:38Z</time>
      </trkpt>
      <trkpt lat="45.28909" lon="1.40166">
        <ele>244</ele>
        <time>2011-07-15T17:03:39Z</time>
      </trkpt>
      <trkpt lat="45.28909" lon="1.40166">
        <ele>244</ele>
        <time>2011-07-15T17:03:39Z</time>
      </trkpt>
      <trkpt lat="45.28909" lon="1.40166">
        <ele>244</ele>
        <time>2011-07-15T17:03:43Z</time>
      </trkpt>
      <trkpt lat="45.28902" lon="1.40157">
        <ele>244</ele>
        <time>2011-07-15T17:03:44Z</time>
      </trkpt>
      <trkpt lat="45.28902" lon="1.40157">
        <ele>244</ele>
        <time>2011-07-15T17:03:44Z</time>
      </trkpt>
      <trkpt lat="45.28902" lon="1.40157">
        <ele>244</ele>
        <time>2011-07-15T17:03:51Z</time>
      </trkpt>
      <trkpt lat="45.28896" lon="1.40146">
        <ele>246</ele>
        <time>2011-07-15T17:03:52Z</time>
      </trkpt>
      <trkpt lat="45.28896" lon="1.40146">
        <ele>246</ele>
        <time>2011-07-15T17:03:52Z</time>
      </trkpt>
      <trkpt lat="45.28896" lon="1.40146">
        <ele>246</ele>
        <time>2011-07-15T17:03:57Z</time>
      </trkpt>
      <trkpt lat="45.2889" lon="1.40136">
        <ele>250</ele>
        <time>2011-07-15T17:03:58Z</time>
      </trkpt>
      <trkpt lat="45.2889" lon="1.40136">
        <ele>250</ele>
        <time>2011-07-15T17:03:58Z</time>
      </trkpt>
      <trkpt lat="45.2889" lon="1.40136">
        <ele>250</ele>
        <time>2011-07-15T17:04:09Z</time>
      </trkpt>
      <trkpt lat="45.28883" lon="1.40126">
        <ele>255</ele>
        <time>2011-07-15T17:04:10Z</time>
      </trkpt>
      <trkpt lat="45.28883" lon="1.40126">
        <ele>255</ele>
        <time>2011-07-15T17:04:10Z</time>
      </trkpt>
      <trkpt lat="45.28883" lon="1.40126">
        <ele>255</ele>
        <time>2011-07-15T17:04:18Z</time>
      </trkpt>
      <trkpt lat="45.28874" lon="1.4012">
        <ele>250</ele>
        <time>2011-07-15T17:04:19Z</time>
      </trkpt>
      <trkpt lat="45.28874" lon="1.4012">
        <ele>250</ele>
        <time>2011-07-15T17:04:19Z</time>
      </trkpt>
      <trkpt lat="45.28874" lon="1.4012">
        <ele>250</ele>
        <time>2011-07-15T17:04:24Z</time>
      </trkpt>
      <trkpt lat="45.28865" lon="1.40116">
        <ele>251</ele>
        <time>2011-07-15T17:04:25Z</time>
      </trkpt>
      <trkpt lat="45.28865" lon="1.40116">
        <ele>251</ele>
        <time>2011-07-15T17:04:25Z</time>
      </trkpt>
      <trkpt lat="45.28865" lon="1.40116">
        <ele>251</ele>
        <time>2011-07-15T17:04:33Z</time>
      </trkpt>
      <trkpt lat="45.28856" lon="1.40117">
        <ele>253</ele>
        <time>2011-07-15T17:04:34Z</time>
      </trkpt>
      <trkpt lat="45.28856" lon="1.40117">
        <ele>253</ele>
        <time>2011-07-15T17:04:34Z</time>
      </trkpt>
      <trkpt lat="45.28856" lon="1.40117">
        <ele>253</ele>
        <time>2011-07-15T17:04:44Z</time>
      </trkpt>
      <trkpt lat="45.28847" lon="1.40125">
        <ele>264</ele>
        <time>2011-07-15T17:04:45Z</time>
      </trkpt>
      <trkpt lat="45.28847" lon="1.40125">
        <ele>264</ele>
        <time>2011-07-15T17:04:45Z</time>
      </trkpt>
      <trkpt lat="45.28847" lon="1.40125">
        <ele>264</ele>
        <time>2011-07-15T17:04:48Z</time>
      </trkpt>
      <trkpt lat="45.28839" lon="1.40132">
        <ele>252</ele>
        <time>2011-07-15T17:04:49Z</time>
      </trkpt>
      <trkpt lat="45.28839" lon="1.40132">
        <ele>252</ele>
        <time>2011-07-15T17:04:49Z</time>
      </trkpt>
      <trkpt lat="45.28839" lon="1.40132">
        <ele>252</ele>
        <time>2011-07-15T17:04:52Z</time>
      </trkpt>
      <trkpt lat="45.28829" lon="1.40142">
        <ele>253</ele>
        <time>2011-07-15T17:04:53Z</time>
      </trkpt>
      <trkpt lat="45.28829" lon="1.40142">
        <ele>253</ele>
        <time>2011-07-15T17:04:53Z</time>
      </trkpt>
      <trkpt lat="45.28829" lon="1.40142">
        <ele>253</ele>
        <time>2011-07-15T17:04:56Z</time>
      </trkpt>
      <trkpt lat="45.2882" lon="1.4015">
        <ele>255</ele>
        <time>2011-07-15T17:04:57Z</time>
      </trkpt>
      <trkpt lat="45.2882" lon="1.4015">
        <ele>255</ele>
        <time>2011-07-15T17:04:57Z</time>
      </trkpt>
      <trkpt lat="45.2882" lon="1.4015">
        <ele>255</ele>
        <time>2011-07-15T17:04:59Z</time>
      </trkpt>
      <trkpt lat="45.28812" lon="1.40157">
        <ele>261</ele>
        <time>2011-07-15T17:05:00Z</time>
      </trkpt>
      <trkpt lat="45.28812" lon="1.40157">
        <ele>261</ele>
        <time>2011-07-15T17:05:00Z</time>
      </trkpt>
      <trkpt lat="45.28812" lon="1.40157">
        <ele>261</ele>
        <time>2011-07-15T17:05:02Z</time>
      </trkpt>
      <trkpt lat="45.28804" lon="1.40167">
        <ele>266</ele>
        <time>2011-07-15T17:05:03Z</time>
      </trkpt>
      <trkpt lat="45.28804" lon="1.40167">
        <ele>266</ele>
        <time>2011-07-15T17:05:03Z</time>
      </trkpt>
      <trkpt lat="45.28804" lon="1.40167">
        <ele>266</ele>
        <time>2011-07-15T17:05:08Z</time>
      </trkpt>
      <trkpt lat="45.28796" lon="1.40178">
        <ele>265</ele>
        <time>2011-07-15T17:05:09Z</time>
      </trkpt>
      <trkpt lat="45.28796" lon="1.40178">
        <ele>265</ele>
        <time>2011-07-15T17:05:09Z</time>
      </trkpt>
      <trkpt lat="45.28796" lon="1.40178">
        <ele>265</ele>
        <time>2011-07-15T17:05:11Z</time>
      </trkpt>
      <trkpt lat="45.2879" lon="1.40191">
        <ele>266</ele>
        <time>2011-07-15T17:05:12Z</time>
      </trkpt>
      <trkpt lat="45.2879" lon="1.40191">
        <ele>266</ele>
        <time>2011-07-15T17:05:12Z</time>
      </trkpt>
      <trkpt lat="45.2879" lon="1.40191">
        <ele>266</ele>
        <time>2011-07-15T17:05:14Z</time>
      </trkpt>
      <trkpt lat="45.28784" lon="1.40205">
        <ele>269</ele>
        <time>2011-07-15T17:05:15Z</time>
      </trkpt>
      <trkpt lat="45.28784" lon="1.40205">
        <ele>269</ele>
        <time>2011-07-15T17:05:15Z</time>
      </trkpt>
      <trkpt lat="45.28784" lon="1.40205">
        <ele>269</ele>
        <time>2011-07-15T17:05:19Z</time>
      </trkpt>
      <trkpt lat="45.28777" lon="1.40217">
        <ele>264</ele>
        <time>2011-07-15T17:05:20Z</time>
      </trkpt>
      <trkpt lat="45.28777" lon="1.40217">
        <ele>264</ele>
        <time>2011-07-15T17:05:20Z</time>
      </trkpt>
      <trkpt lat="45.28777" lon="1.40217">
        <ele>264</ele>
        <time>2011-07-15T17:05:22Z</time>
      </trkpt>
      <trkpt lat="45.28769" lon="1.40229">
        <ele>265</ele>
        <time>2011-07-15T17:05:23Z</time>
      </trkpt>
      <trkpt lat="45.28769" lon="1.40229">
        <ele>265</ele>
        <time>2011-07-15T17:05:23Z</time>
      </trkpt>
      <trkpt lat="45.28769" lon="1.40229">
        <ele>265</ele>
        <time>2011-07-15T17:05:25Z</time>
      </trkpt>
      <trkpt lat="45.28762" lon="1.40243">
        <ele>262</ele>
        <time>2011-07-15T17:05:26Z</time>
      </trkpt>
      <trkpt lat="45.28762" lon="1.40243">
        <ele>262</ele>
        <time>2011-07-15T17:05:26Z</time>
      </trkpt>
      <trkpt lat="45.28762" lon="1.40243">
        <ele>262</ele>
        <time>2011-07-15T17:05:27Z</time>
      </trkpt>
      <trkpt lat="45.28746" lon="1.40267">
        <ele>264</ele>
        <time>2011-07-15T17:05:38Z</time>
      </trkpt>
      <trkpt lat="45.28746" lon="1.40267">
        <ele>264</ele>
        <time>2011-07-15T17:05:38Z</time>
      </trkpt>
      <trkpt lat="45.28746" lon="1.40267">
        <ele>264</ele>
        <time>2011-07-15T17:05:41Z</time>
      </trkpt>
      <trkpt lat="45.28734" lon="1.40275">
        <ele>257</ele>
        <time>2011-07-15T17:05:42Z</time>
      </trkpt>
      <trkpt lat="45.28734" lon="1.40275">
        <ele>257</ele>
        <time>2011-07-15T17:05:42Z</time>
      </trkpt>
      <trkpt lat="45.28734" lon="1.40275">
        <ele>257</ele>
        <time>2011-07-15T17:05:45Z</time>
      </trkpt>
      <trkpt lat="45.28725" lon="1.40281">
        <ele>271</ele>
        <time>2011-07-15T17:05:46Z</time>
      </trkpt>
      <trkpt lat="45.28725" lon="1.40281">
        <ele>271</ele>
        <time>2011-07-15T17:05:46Z</time>
      </trkpt>
      <trkpt lat="45.28725" lon="1.40281">
        <ele>271</ele>
        <time>2011-07-15T17:05:47Z</time>
      </trkpt>
      <trkpt lat="45.28712" lon="1.40287">
        <ele>275</ele>
        <time>2011-07-15T17:05:48Z</time>
      </trkpt>
      <trkpt lat="45.28706" lon="1.40289">
        <ele>277</ele>
        <time>2011-07-15T17:05:49Z</time>
      </trkpt>
      <trkpt lat="45.28698" lon="1.40291">
        <ele>270</ele>
        <time>2011-07-15T17:05:50Z</time>
      </trkpt>
      <trkpt lat="45.2869" lon="1.40291">
        <ele>271</ele>
        <time>2011-07-15T17:05:51Z</time>
      </trkpt>
      <trkpt lat="45.28684" lon="1.40291">
        <ele>272</ele>
        <time>2011-07-15T17:05:52Z</time>
      </trkpt>
      <trkpt lat="45.28675" lon="1.4029">
        <ele>269</ele>
        <time>2011-07-15T17:05:53Z</time>
      </trkpt>
      <trkpt lat="45.28666" lon="1.40291">
        <ele>262</ele>
        <time>2011-07-15T17:05:54Z</time>
      </trkpt>
      <trkpt lat="45.28656" lon="1.40293">
        <ele>256</ele>
        <time>2011-07-15T17:05:55Z</time>
      </trkpt>
      <trkpt lat="45.28647" lon="1.40295">
        <ele>254</ele>
        <time>2011-07-15T17:05:56Z</time>
      </trkpt>
      <trkpt lat="45.28638" lon="1.40298">
        <ele>250</ele>
        <time>2011-07-15T17:05:57Z</time>
      </trkpt>
      <trkpt lat="45.2863" lon="1.403">
        <ele>252</ele>
        <time>2011-07-15T17:05:58Z</time>
      </trkpt>
      <trkpt lat="45.28622" lon="1.40302">
        <ele>253</ele>
        <time>2011-07-15T17:05:59Z</time>
      </trkpt>
      <trkpt lat="45.28614" lon="1.40304">
        <ele>252</ele>
        <time>2011-07-15T17:06:00Z</time>
      </trkpt>
      <trkpt lat="45.28607" lon="1.40306">
        <ele>251</ele>
        <time>2011-07-15T17:06:01Z</time>
      </trkpt>
      <trkpt lat="45.286" lon="1.40308">
        <ele>250</ele>
        <time>2011-07-15T17:06:02Z</time>
      </trkpt>
      <trkpt lat="45.28593" lon="1.4031">
        <ele>251</ele>
        <time>2011-07-15T17:06:03Z</time>
      </trkpt>
      <trkpt lat="45.28586" lon="1.40311">
        <ele>250</ele>
        <time>2011-07-15T17:06:04Z</time>
      </trkpt>
      <trkpt lat="45.28581" lon="1.40313">
        <ele>250</ele>
        <time>2011-07-15T17:06:05Z</time>
      </trkpt>
      <trkpt lat="45.28576" lon="1.40313">
        <ele>250</ele>
        <time>2011-07-15T17:06:06Z</time>
      </trkpt>
      <trkpt lat="45.28571" lon="1.40313">
        <ele>249</ele>
        <time>2011-07-15T17:06:07Z</time>
      </trkpt>
      <trkpt lat="45.28562" lon="1.40312">
        <ele>257</ele>
        <time>2011-07-15T17:06:09Z</time>
      </trkpt>
      <trkpt lat="45.28562" lon="1.40312">
        <ele>257</ele>
        <time>2011-07-15T17:06:09Z</time>
      </trkpt>
      <trkpt lat="45.28562" lon="1.40312">
        <ele>257</ele>
        <time>2011-07-15T17:06:16Z</time>
      </trkpt>
      <trkpt lat="45.28552" lon="1.40312">
        <ele>267</ele>
        <time>2011-07-15T17:06:17Z</time>
      </trkpt>
      <trkpt lat="45.28552" lon="1.40312">
        <ele>267</ele>
        <time>2011-07-15T17:06:17Z</time>
      </trkpt>
      <trkpt lat="45.28552" lon="1.40312">
        <ele>267</ele>
        <time>2011-07-15T17:06:18Z</time>
      </trkpt>
      <trkpt lat="45.28539" lon="1.40313">
        <ele>267</ele>
        <time>2011-07-15T17:06:19Z</time>
      </trkpt>
      <trkpt lat="45.28534" lon="1.40313">
        <ele>269</ele>
        <time>2011-07-15T17:06:20Z</time>
      </trkpt>
      <trkpt lat="45.28528" lon="1.40313">
        <ele>267</ele>
        <time>2011-07-15T17:06:21Z</time>
      </trkpt>
      <trkpt lat="45.28524" lon="1.40313">
        <ele>269</ele>
        <time>2011-07-15T17:06:22Z</time>
      </trkpt>
      <trkpt lat="45.28516" lon="1.40312">
        <ele>267</ele>
        <time>2011-07-15T17:06:24Z</time>
      </trkpt>
      <trkpt lat="45.28509" lon="1.40312">
        <ele>264</ele>
        <time>2011-07-15T17:06:26Z</time>
      </trkpt>
      <trkpt lat="45.28502" lon="1.40313">
        <ele>261</ele>
        <time>2011-07-15T17:06:28Z</time>
      </trkpt>
      <trkpt lat="45.28502" lon="1.40313">
        <ele>261</ele>
        <time>2011-07-15T17:06:28Z</time>
      </trkpt>
      <trkpt lat="45.28502" lon="1.40313">
        <ele>261</ele>
        <time>2011-07-15T17:06:29Z</time>
      </trkpt>
      <trkpt lat="45.28497" lon="1.40313">
        <ele>261</ele>
        <time>2011-07-15T17:06:30Z</time>
      </trkpt>
      <trkpt lat="45.28497" lon="1.40313">
        <ele>261</ele>
        <time>2011-07-15T17:06:30Z</time>
      </trkpt>
      <trkpt lat="45.28497" lon="1.40313">
        <ele>261</ele>
        <time>2011-07-15T17:06:35Z</time>
      </trkpt>
      <trkpt lat="45.28488" lon="1.40315">
        <ele>266</ele>
        <time>2011-07-15T17:06:36Z</time>
      </trkpt>
      <trkpt lat="45.28488" lon="1.40315">
        <ele>266</ele>
        <time>2011-07-15T17:06:36Z</time>
      </trkpt>
      <trkpt lat="45.28488" lon="1.40315">
        <ele>266</ele>
        <time>2011-07-15T17:06:43Z</time>
      </trkpt>
      <trkpt lat="45.28476" lon="1.40318">
        <ele>271</ele>
        <time>2011-07-15T17:06:44Z</time>
      </trkpt>
      <trkpt lat="45.28476" lon="1.40318">
        <ele>271</ele>
        <time>2011-07-15T17:06:44Z</time>
      </trkpt>
      <trkpt lat="45.28476" lon="1.40318">
        <ele>271</ele>
        <time>2011-07-15T17:06:47Z</time>
      </trkpt>
      <trkpt lat="45.28465" lon="1.40319">
        <ele>263</ele>
        <time>2011-07-15T17:06:48Z</time>
      </trkpt>
      <trkpt lat="45.28465" lon="1.40319">
        <ele>263</ele>
        <time>2011-07-15T17:06:48Z</time>
      </trkpt>
      <trkpt lat="45.28465" lon="1.40319">
        <ele>263</ele>
        <time>2011-07-15T17:06:53Z</time>
      </trkpt>
      <trkpt lat="45.28454" lon="1.4032">
        <ele>259</ele>
        <time>2011-07-15T17:06:54Z</time>
      </trkpt>
      <trkpt lat="45.28454" lon="1.4032">
        <ele>259</ele>
        <time>2011-07-15T17:06:54Z</time>
      </trkpt>
      <trkpt lat="45.28454" lon="1.4032">
        <ele>259</ele>
        <time>2011-07-15T17:06:59Z</time>
      </trkpt>
      <trkpt lat="45.28445" lon="1.4032">
        <ele>268</ele>
        <time>2011-07-15T17:07:00Z</time>
      </trkpt>
      <trkpt lat="45.28445" lon="1.4032">
        <ele>268</ele>
        <time>2011-07-15T17:07:00Z</time>
      </trkpt>
      <trkpt lat="45.28445" lon="1.4032">
        <ele>268</ele>
        <time>2011-07-15T17:08:48Z</time>
      </trkpt>
      <trkpt lat="45.28433" lon="1.40321">
        <ele>255</ele>
        <time>2011-07-15T17:08:49Z</time>
      </trkpt>
      <trkpt lat="45.28433" lon="1.40321">
        <ele>255</ele>
        <time>2011-07-15T17:08:49Z</time>
      </trkpt>
      <trkpt lat="45.28433" lon="1.40321">
        <ele>255</ele>
        <time>2011-07-15T17:08:51Z</time>
      </trkpt>
      <trkpt lat="45.28424" lon="1.40316">
        <ele>260</ele>
        <time>2011-07-15T17:08:52Z</time>
      </trkpt>
      <trkpt lat="45.28424" lon="1.40316">
        <ele>260</ele>
        <time>2011-07-15T17:08:52Z</time>
      </trkpt>
      <trkpt lat="45.28424" lon="1.40316">
        <ele>260</ele>
        <time>2011-07-15T17:08:57Z</time>
      </trkpt>
      <trkpt lat="45.28413" lon="1.40313">
        <ele>262</ele>
        <time>2011-07-15T17:08:58Z</time>
      </trkpt>
      <trkpt lat="45.28413" lon="1.40313">
        <ele>262</ele>
        <time>2011-07-15T17:08:58Z</time>
      </trkpt>
      <trkpt lat="45.28413" lon="1.40313">
        <ele>262</ele>
        <time>2011-07-15T17:09:01Z</time>
      </trkpt>
      <trkpt lat="45.28404" lon="1.40312">
        <ele>267</ele>
        <time>2011-07-15T17:09:02Z</time>
      </trkpt>
      <trkpt lat="45.28404" lon="1.40312">
        <ele>267</ele>
        <time>2011-07-15T17:09:02Z</time>
      </trkpt>
      <trkpt lat="45.28404" lon="1.40312">
        <ele>267</ele>
        <time>2011-07-15T17:09:06Z</time>
      </trkpt>
      <trkpt lat="45.28392" lon="1.40311">
        <ele>270</ele>
        <time>2011-07-15T17:09:07Z</time>
      </trkpt>
      <trkpt lat="45.28392" lon="1.40311">
        <ele>270</ele>
        <time>2011-07-15T17:09:07Z</time>
      </trkpt>
      <trkpt lat="45.28392" lon="1.40311">
        <ele>270</ele>
        <time>2011-07-15T17:09:09Z</time>
      </trkpt>
      <trkpt lat="45.28378" lon="1.4031">
        <ele>266</ele>
        <time>2011-07-15T17:09:10Z</time>
      </trkpt>
      <trkpt lat="45.28373" lon="1.4031">
        <ele>265</ele>
        <time>2011-07-15T17:09:11Z</time>
      </trkpt>
      <trkpt lat="45.28373" lon="1.4031">
        <ele>265</ele>
        <time>2011-07-15T17:09:11Z</time>
      </trkpt>
      <trkpt lat="45.28373" lon="1.4031">
        <ele>265</ele>
        <time>2011-07-15T17:09:13Z</time>
      </trkpt>
      <trkpt lat="45.2836" lon="1.40313">
        <ele>264</ele>
        <time>2011-07-15T17:09:14Z</time>
      </trkpt>
      <trkpt lat="45.28345" lon="1.40313">
        <ele>250</ele>
        <time>2011-07-15T17:09:19Z</time>
      </trkpt>
      <trkpt lat="45.28345" lon="1.40313">
        <ele>250</ele>
        <time>2011-07-15T17:09:19Z</time>
      </trkpt>
      <trkpt lat="45.28345" lon="1.40313">
        <ele>250</ele>
        <time>2011-07-15T17:09:23Z</time>
      </trkpt>
      <trkpt lat="45.28331" lon="1.40311">
        <ele>245</ele>
        <time>2011-07-15T17:09:24Z</time>
      </trkpt>
      <trkpt lat="45.28331" lon="1.40311">
        <ele>245</ele>
        <time>2011-07-15T17:09:24Z</time>
      </trkpt>
      <trkpt lat="45.28331" lon="1.40311">
        <ele>245</ele>
        <time>2011-07-15T17:09:27Z</time>
      </trkpt>
      <trkpt lat="45.28285" lon="1.40313">
        <ele>257</ele>
        <time>2011-07-15T17:09:38Z</time>
      </trkpt>
      <trkpt lat="45.28281" lon="1.40314">
        <ele>256</ele>
        <time>2011-07-15T17:09:39Z</time>
      </trkpt>
      <trkpt lat="45.28273" lon="1.40315">
        <ele>254</ele>
        <time>2011-07-15T17:09:41Z</time>
      </trkpt>
      <trkpt lat="45.28268" lon="1.40316">
        <ele>259</ele>
        <time>2011-07-15T17:09:42Z</time>
      </trkpt>
      <trkpt lat="45.28263" lon="1.40316">
        <ele>260</ele>
        <time>2011-07-15T17:09:43Z</time>
      </trkpt>
      <trkpt lat="45.28259" lon="1.40316">
        <ele>258</ele>
        <time>2011-07-15T17:09:44Z</time>
      </trkpt>
      <trkpt lat="45.28254" lon="1.40317">
        <ele>258</ele>
        <time>2011-07-15T17:09:45Z</time>
      </trkpt>
      <trkpt lat="45.28249" lon="1.40317">
        <ele>259</ele>
        <time>2011-07-15T17:09:46Z</time>
      </trkpt>
      <trkpt lat="45.28244" lon="1.40316">
        <ele>259</ele>
        <time>2011-07-15T17:09:47Z</time>
      </trkpt>
      <trkpt lat="45.28239" lon="1.40316">
        <ele>260</ele>
        <time>2011-07-15T17:09:48Z</time>
      </trkpt>
      <trkpt lat="45.28234" lon="1.40316">
        <ele>262</ele>
        <time>2011-07-15T17:09:49Z</time>
      </trkpt>
      <trkpt lat="45.28229" lon="1.40316">
        <ele>262</ele>
        <time>2011-07-15T17:09:50Z</time>
      </trkpt>
      <trkpt lat="45.28223" lon="1.40315">
        <ele>268</ele>
        <time>2011-07-15T17:09:51Z</time>
      </trkpt>
      <trkpt lat="45.28217" lon="1.40315">
        <ele>266</ele>
        <time>2011-07-15T17:09:52Z</time>
      </trkpt>
      <trkpt lat="45.28211" lon="1.40313">
        <ele>266</ele>
        <time>2011-07-15T17:09:53Z</time>
      </trkpt>
      <trkpt lat="45.28205" lon="1.40311">
        <ele>265</ele>
        <time>2011-07-15T17:09:54Z</time>
      </trkpt>
      <trkpt lat="45.28198" lon="1.4031">
        <ele>264</ele>
        <time>2011-07-15T17:09:55Z</time>
      </trkpt>
      <trkpt lat="45.28191" lon="1.40309">
        <ele>260</ele>
        <time>2011-07-15T17:09:56Z</time>
      </trkpt>
      <trkpt lat="45.28185" lon="1.40308">
        <ele>256</ele>
        <time>2011-07-15T17:09:57Z</time>
      </trkpt>
      <trkpt lat="45.28178" lon="1.40306">
        <ele>254</ele>
        <time>2011-07-15T17:09:58Z</time>
      </trkpt>
      <trkpt lat="45.28173" lon="1.40305">
        <ele>255</ele>
        <time>2011-07-15T17:09:59Z</time>
      </trkpt>
      <trkpt lat="45.28167" lon="1.40303">
        <ele>259</ele>
        <time>2011-07-15T17:10:00Z</time>
      </trkpt>
      <trkpt lat="45.28161" lon="1.40301">
        <ele>258</ele>
        <time>2011-07-15T17:10:01Z</time>
      </trkpt>
      <trkpt lat="45.28161" lon="1.40301">
        <ele>258</ele>
        <time>2011-07-15T17:10:01Z</time>
      </trkpt>
      <trkpt lat="45.28161" lon="1.40301">
        <ele>258</ele>
        <time>2011-07-15T17:10:03Z</time>
      </trkpt>
      <trkpt lat="45.28154" lon="1.403">
        <ele>262</ele>
        <time>2011-07-15T17:10:04Z</time>
      </trkpt>
      <trkpt lat="45.28143" lon="1.40297">
        <ele>262</ele>
        <time>2011-07-15T17:10:05Z</time>
      </trkpt>
      <trkpt lat="45.28135" lon="1.40295">
        <ele>260</ele>
        <time>2011-07-15T17:10:06Z</time>
      </trkpt>
      <trkpt lat="45.28128" lon="1.40293">
        <ele>263</ele>
        <time>2011-07-15T17:10:07Z</time>
      </trkpt>
      <trkpt lat="45.2812" lon="1.40293">
        <ele>262</ele>
        <time>2011-07-15T17:10:08Z</time>
      </trkpt>
      <trkpt lat="45.28111" lon="1.40293">
        <ele>260</ele>
        <time>2011-07-15T17:10:09Z</time>
      </trkpt>
      <trkpt lat="45.28101" lon="1.40294">
        <ele>260</ele>
        <time>2011-07-15T17:10:10Z</time>
      </trkpt>
      <trkpt lat="45.28092" lon="1.40295">
        <ele>263</ele>
        <time>2011-07-15T17:10:11Z</time>
      </trkpt>
      <trkpt lat="45.28082" lon="1.40296">
        <ele>261</ele>
        <time>2011-07-15T17:10:12Z</time>
      </trkpt>
      <trkpt lat="45.28069" lon="1.40297">
        <ele>260</ele>
        <time>2011-07-15T17:10:13Z</time>
      </trkpt>
      <trkpt lat="45.28057" lon="1.40299">
        <ele>258</ele>
        <time>2011-07-15T17:10:14Z</time>
      </trkpt>
      <trkpt lat="45.28044" lon="1.403">
        <ele>259</ele>
        <time>2011-07-15T17:10:15Z</time>
      </trkpt>
      <trkpt lat="45.28031" lon="1.40299">
        <ele>259</ele>
        <time>2011-07-15T17:10:16Z</time>
      </trkpt>
      <trkpt lat="45.28019" lon="1.40298">
        <ele>254</ele>
        <time>2011-07-15T17:10:17Z</time>
      </trkpt>
      <trkpt lat="45.28007" lon="1.40296">
        <ele>253</ele>
        <time>2011-07-15T17:10:18Z</time>
      </trkpt>
      <trkpt lat="45.27996" lon="1.40295">
        <ele>254</ele>
        <time>2011-07-15T17:10:19Z</time>
      </trkpt>
      <trkpt lat="45.27996" lon="1.40295">
        <ele>254</ele>
        <time>2011-07-15T17:10:19Z</time>
      </trkpt>
      <trkpt lat="45.27996" lon="1.40295">
        <ele>254</ele>
        <time>2011-07-15T17:10:20Z</time>
      </trkpt>
      <trkpt lat="45.27986" lon="1.40295">
        <ele>251</ele>
        <time>2011-07-15T17:10:21Z</time>
      </trkpt>
      <trkpt lat="45.27974" lon="1.40295">
        <ele>251</ele>
        <time>2011-07-15T17:10:22Z</time>
      </trkpt>
      <trkpt lat="45.27962" lon="1.40297">
        <ele>251</ele>
        <time>2011-07-15T17:10:23Z</time>
      </trkpt>
      <trkpt lat="45.27948" lon="1.40299">
        <ele>249</ele>
        <time>2011-07-15T17:10:24Z</time>
      </trkpt>
      <trkpt lat="45.27936" lon="1.40301">
        <ele>251</ele>
        <time>2011-07-15T17:10:25Z</time>
      </trkpt>
      <trkpt lat="45.27923" lon="1.40305">
        <ele>249</ele>
        <time>2011-07-15T17:10:26Z</time>
      </trkpt>
      <trkpt lat="45.2791" lon="1.40309">
        <ele>252</ele>
        <time>2011-07-15T17:10:27Z</time>
      </trkpt>
      <trkpt lat="45.27889" lon="1.40309">
        <ele>249</ele>
        <time>2011-07-15T17:10:29Z</time>
      </trkpt>
      <trkpt lat="45.2788" lon="1.40309">
        <ele>249</ele>
        <time>2011-07-15T17:10:30Z</time>
      </trkpt>
      <trkpt lat="45.2787" lon="1.40309">
        <ele>246</ele>
        <time>2011-07-15T17:10:31Z</time>
      </trkpt>
      <trkpt lat="45.2786" lon="1.40309">
        <ele>245</ele>
        <time>2011-07-15T17:10:32Z</time>
      </trkpt>
      <trkpt lat="45.27849" lon="1.40307">
        <ele>247</ele>
        <time>2011-07-15T17:10:33Z</time>
      </trkpt>
      <trkpt lat="45.27837" lon="1.40305">
        <ele>249</ele>
        <time>2011-07-15T17:10:34Z</time>
      </trkpt>
      <trkpt lat="45.27824" lon="1.40304">
        <ele>252</ele>
        <time>2011-07-15T17:10:35Z</time>
      </trkpt>
      <trkpt lat="45.27812" lon="1.40303">
        <ele>251</ele>
        <time>2011-07-15T17:10:36Z</time>
      </trkpt>
      <trkpt lat="45.27802" lon="1.40302">
        <ele>249</ele>
        <time>2011-07-15T17:10:37Z</time>
      </trkpt>
      <trkpt lat="45.27791" lon="1.403">
        <ele>248</ele>
        <time>2011-07-15T17:10:38Z</time>
      </trkpt>
      <trkpt lat="45.27782" lon="1.403">
        <ele>246</ele>
        <time>2011-07-15T17:10:39Z</time>
      </trkpt>
      <trkpt lat="45.27776" lon="1.403">
        <ele>247</ele>
        <time>2011-07-15T17:10:40Z</time>
      </trkpt>
      <trkpt lat="45.2777" lon="1.403">
        <ele>249</ele>
        <time>2011-07-15T17:10:41Z</time>
      </trkpt>
      <trkpt lat="45.27764" lon="1.40305">
        <ele>246</ele>
        <time>2011-07-15T17:10:43Z</time>
      </trkpt>
      <trkpt lat="45.27762" lon="1.40311">
        <ele>243</ele>
        <time>2011-07-15T17:10:44Z</time>
      </trkpt>
      <trkpt lat="45.27765" lon="1.40322">
        <ele>236</ele>
        <time>2011-07-15T17:10:47Z</time>
      </trkpt>
      <trkpt lat="45.27765" lon="1.40322">
        <ele>236</ele>
        <time>2011-07-15T17:10:47Z</time>
      </trkpt>
      <trkpt lat="45.27765" lon="1.40322">
        <ele>236</ele>
        <time>2011-07-15T17:10:48Z</time>
      </trkpt>
      <trkpt lat="45.27773" lon="1.4033">
        <ele>234</ele>
        <time>2011-07-15T17:10:49Z</time>
      </trkpt>
      <trkpt lat="45.27777" lon="1.40333">
        <ele>231</ele>
        <time>2011-07-15T17:10:50Z</time>
      </trkpt>
      <trkpt lat="45.27786" lon="1.40337">
        <ele>229</ele>
        <time>2011-07-15T17:10:52Z</time>
      </trkpt>
      <trkpt lat="45.27791" lon="1.4034">
        <ele>229</ele>
        <time>2011-07-15T17:10:53Z</time>
      </trkpt>
      <trkpt lat="45.27796" lon="1.40342">
        <ele>227</ele>
        <time>2011-07-15T17:10:54Z</time>
      </trkpt>
      <trkpt lat="45.278" lon="1.40345">
        <ele>228</ele>
        <time>2011-07-15T17:10:55Z</time>
      </trkpt>
      <trkpt lat="45.27805" lon="1.40348">
        <ele>229</ele>
        <time>2011-07-15T17:10:56Z</time>
      </trkpt>
      <trkpt lat="45.2781" lon="1.40351">
        <ele>227</ele>
        <time>2011-07-15T17:10:57Z</time>
      </trkpt>
      <trkpt lat="45.27815" lon="1.40353">
        <ele>234</ele>
        <time>2011-07-15T17:10:58Z</time>
      </trkpt>
      <trkpt lat="45.27821" lon="1.40355">
        <ele>237</ele>
        <time>2011-07-15T17:10:59Z</time>
      </trkpt>
      <trkpt lat="45.27827" lon="1.40359">
        <ele>235</ele>
        <time>2011-07-15T17:11:00Z</time>
      </trkpt>
      <trkpt lat="45.27833" lon="1.40363">
        <ele>234</ele>
        <time>2011-07-15T17:11:01Z</time>
      </trkpt>
      <trkpt lat="45.27838" lon="1.40369">
        <ele>231</ele>
        <time>2011-07-15T17:11:02Z</time>
      </trkpt>
      <trkpt lat="45.27843" lon="1.40375">
        <ele>232</ele>
        <time>2011-07-15T17:11:03Z</time>
      </trkpt>
      <trkpt lat="45.27848" lon="1.40382">
        <ele>234</ele>
        <time>2011-07-15T17:11:04Z</time>
      </trkpt>
      <trkpt lat="45.27854" lon="1.40388">
        <ele>228</ele>
        <time>2011-07-15T17:11:05Z</time>
      </trkpt>
      <trkpt lat="45.27858" lon="1.40394">
        <ele>230</ele>
        <time>2011-07-15T17:11:06Z</time>
      </trkpt>
      <trkpt lat="45.27863" lon="1.404">
        <ele>231</ele>
        <time>2011-07-15T17:11:07Z</time>
      </trkpt>
      <trkpt lat="45.27868" lon="1.40407">
        <ele>236</ele>
        <time>2011-07-15T17:11:08Z</time>
      </trkpt>
      <trkpt lat="45.27873" lon="1.40414">
        <ele>236</ele>
        <time>2011-07-15T17:11:09Z</time>
      </trkpt>
      <trkpt lat="45.27878" lon="1.40421">
        <ele>237</ele>
        <time>2011-07-15T17:11:10Z</time>
      </trkpt>
      <trkpt lat="45.27882" lon="1.40427">
        <ele>239</ele>
        <time>2011-07-15T17:11:11Z</time>
      </trkpt>
      <trkpt lat="45.27886" lon="1.40436">
        <ele>244</ele>
        <time>2011-07-15T17:11:12Z</time>
      </trkpt>
      <trkpt lat="45.27891" lon="1.40445">
        <ele>249</ele>
        <time>2011-07-15T17:11:13Z</time>
      </trkpt>
      <trkpt lat="45.27894" lon="1.40455">
        <ele>243</ele>
        <time>2011-07-15T17:11:14Z</time>
      </trkpt>
      <trkpt lat="45.27896" lon="1.40468">
        <ele>242</ele>
        <time>2011-07-15T17:11:15Z</time>
      </trkpt>
      <trkpt lat="45.27899" lon="1.40481">
        <ele>243</ele>
        <time>2011-07-15T17:11:16Z</time>
      </trkpt>
      <trkpt lat="45.279" lon="1.40496">
        <ele>245</ele>
        <time>2011-07-15T17:11:17Z</time>
      </trkpt>
      <trkpt lat="45.279" lon="1.40513">
        <ele>242</ele>
        <time>2011-07-15T17:11:18Z</time>
      </trkpt>
      <trkpt lat="45.27899" lon="1.40529">
        <ele>244</ele>
        <time>2011-07-15T17:11:19Z</time>
      </trkpt>
      <trkpt lat="45.27898" lon="1.40544">
        <ele>242</ele>
        <time>2011-07-15T17:11:20Z</time>
      </trkpt>
      <trkpt lat="45.27896" lon="1.40559">
        <ele>236</ele>
        <time>2011-07-15T17:11:21Z</time>
      </trkpt>
      <trkpt lat="45.27894" lon="1.40574">
        <ele>229</ele>
        <time>2011-07-15T17:11:22Z</time>
      </trkpt>
      <trkpt lat="45.27889" lon="1.40588">
        <ele>230</ele>
        <time>2011-07-15T17:11:23Z</time>
      </trkpt>
      <trkpt lat="45.27883" lon="1.40604">
        <ele>227</ele>
        <time>2011-07-15T17:11:24Z</time>
      </trkpt>
      <trkpt lat="45.27875" lon="1.40619">
        <ele>223</ele>
        <time>2011-07-15T17:11:25Z</time>
      </trkpt>
      <trkpt lat="45.27865" lon="1.40634">
        <ele>223</ele>
        <time>2011-07-15T17:11:26Z</time>
      </trkpt>
      <trkpt lat="45.27854" lon="1.40648">
        <ele>219</ele>
        <time>2011-07-15T17:11:27Z</time>
      </trkpt>
      <trkpt lat="45.27841" lon="1.4066">
        <ele>217</ele>
        <time>2011-07-15T17:11:28Z</time>
      </trkpt>
      <trkpt lat="45.27826" lon="1.40675">
        <ele>212</ele>
        <time>2011-07-15T17:11:29Z</time>
      </trkpt>
      <trkpt lat="45.27813" lon="1.40688">
        <ele>208</ele>
        <time>2011-07-15T17:11:30Z</time>
      </trkpt>
      <trkpt lat="45.27799" lon="1.40703">
        <ele>207</ele>
        <time>2011-07-15T17:11:31Z</time>
      </trkpt>
      <trkpt lat="45.27785" lon="1.40717">
        <ele>219</ele>
        <time>2011-07-15T17:11:32Z</time>
      </trkpt>
      <trkpt lat="45.27772" lon="1.4073">
        <ele>218</ele>
        <time>2011-07-15T17:11:33Z</time>
      </trkpt>
      <trkpt lat="45.27762" lon="1.40739">
        <ele>218</ele>
        <time>2011-07-15T17:11:34Z</time>
      </trkpt>
      <trkpt lat="45.27762" lon="1.40739">
        <ele>218</ele>
        <time>2011-07-15T17:11:34Z</time>
      </trkpt>
      <trkpt lat="45.27762" lon="1.40739">
        <ele>218</ele>
        <time>2011-07-15T17:11:36Z</time>
      </trkpt>
      <trkpt lat="45.27756" lon="1.40742">
        <ele>228</ele>
        <time>2011-07-15T17:11:37Z</time>
      </trkpt>
      <trkpt lat="45.27756" lon="1.40742">
        <ele>228</ele>
        <time>2011-07-15T17:11:37Z</time>
      </trkpt>
      <trkpt lat="45.27756" lon="1.40742">
        <ele>228</ele>
        <time>2011-07-15T17:11:39Z</time>
      </trkpt>
      <trkpt lat="45.27751" lon="1.40744">
        <ele>231</ele>
        <time>2011-07-15T17:11:40Z</time>
      </trkpt>
      <trkpt lat="45.27745" lon="1.40746">
        <ele>225</ele>
        <time>2011-07-15T17:11:41Z</time>
      </trkpt>
      <trkpt lat="45.27739" lon="1.40748">
        <ele>227</ele>
        <time>2011-07-15T17:11:42Z</time>
      </trkpt>
      <trkpt lat="45.27733" lon="1.40749">
        <ele>226</ele>
        <time>2011-07-15T17:11:43Z</time>
      </trkpt>
      <trkpt lat="45.27726" lon="1.40751">
        <ele>223</ele>
        <time>2011-07-15T17:11:44Z</time>
      </trkpt>
      <trkpt lat="45.27716" lon="1.40753">
        <ele>225</ele>
        <time>2011-07-15T17:11:45Z</time>
      </trkpt>
      <trkpt lat="45.27707" lon="1.40755">
        <ele>227</ele>
        <time>2011-07-15T17:11:46Z</time>
      </trkpt>
      <trkpt lat="45.27707" lon="1.40755">
        <ele>227</ele>
        <time>2011-07-15T17:11:46Z</time>
      </trkpt>
      <trkpt lat="45.27707" lon="1.40755">
        <ele>227</ele>
        <time>2011-07-15T17:11:48Z</time>
      </trkpt>
      <trkpt lat="45.27701" lon="1.40756">
        <ele>227</ele>
        <time>2011-07-15T17:11:49Z</time>
      </trkpt>
      <trkpt lat="45.27691" lon="1.40759">
        <ele>228</ele>
        <time>2011-07-15T17:11:50Z</time>
      </trkpt>
      <trkpt lat="45.27682" lon="1.4076">
        <ele>224</ele>
        <time>2011-07-15T17:11:51Z</time>
      </trkpt>
      <trkpt lat="45.27672" lon="1.4076">
        <ele>224</ele>
        <time>2011-07-15T17:11:52Z</time>
      </trkpt>
      <trkpt lat="45.27662" lon="1.40762">
        <ele>225</ele>
        <time>2011-07-15T17:11:53Z</time>
      </trkpt>
      <trkpt lat="45.27653" lon="1.40763">
        <ele>232</ele>
        <time>2011-07-15T17:11:54Z</time>
      </trkpt>
      <trkpt lat="45.27644" lon="1.40765">
        <ele>231</ele>
        <time>2011-07-15T17:11:55Z</time>
      </trkpt>
      <trkpt lat="45.27636" lon="1.40767">
        <ele>227</ele>
        <time>2011-07-15T17:11:56Z</time>
      </trkpt>
      <trkpt lat="45.27628" lon="1.40769">
        <ele>226</ele>
        <time>2011-07-15T17:11:57Z</time>
      </trkpt>
      <trkpt lat="45.27622" lon="1.4077">
        <ele>226</ele>
        <time>2011-07-15T17:11:58Z</time>
      </trkpt>
      <trkpt lat="45.27616" lon="1.4077">
        <ele>225</ele>
        <time>2011-07-15T17:11:59Z</time>
      </trkpt>
      <trkpt lat="45.27609" lon="1.4077">
        <ele>226</ele>
        <time>2011-07-15T17:12:00Z</time>
      </trkpt>
      <trkpt lat="45.27602" lon="1.40769">
        <ele>226</ele>
        <time>2011-07-15T17:12:01Z</time>
      </trkpt>
      <trkpt lat="45.27594" lon="1.40769">
        <ele>222</ele>
        <time>2011-07-15T17:12:02Z</time>
      </trkpt>
      <trkpt lat="45.27587" lon="1.40769">
        <ele>220</ele>
        <time>2011-07-15T17:12:03Z</time>
      </trkpt>
      <trkpt lat="45.27579" lon="1.40768">
        <ele>217</ele>
        <time>2011-07-15T17:12:04Z</time>
      </trkpt>
      <trkpt lat="45.27572" lon="1.40768">
        <ele>217</ele>
        <time>2011-07-15T17:12:05Z</time>
      </trkpt>
      <trkpt lat="45.27564" lon="1.40766">
        <ele>212</ele>
        <time>2011-07-15T17:12:06Z</time>
      </trkpt>
      <trkpt lat="45.27554" lon="1.40765">
        <ele>210</ele>
        <time>2011-07-15T17:12:07Z</time>
      </trkpt>
      <trkpt lat="45.27544" lon="1.40763">
        <ele>208</ele>
        <time>2011-07-15T17:12:08Z</time>
      </trkpt>
      <trkpt lat="45.27535" lon="1.4076">
        <ele>208</ele>
        <time>2011-07-15T17:12:09Z</time>
      </trkpt>
      <trkpt lat="45.27526" lon="1.40758">
        <ele>205</ele>
        <time>2011-07-15T17:12:10Z</time>
      </trkpt>
      <trkpt lat="45.27519" lon="1.40756">
        <ele>202</ele>
        <time>2011-07-15T17:12:11Z</time>
      </trkpt>
      <trkpt lat="45.27513" lon="1.40755">
        <ele>203</ele>
        <time>2011-07-15T17:12:12Z</time>
      </trkpt>
      <trkpt lat="45.27507" lon="1.40754">
        <ele>202</ele>
        <time>2011-07-15T17:12:13Z</time>
      </trkpt>
      <trkpt lat="45.27501" lon="1.40754">
        <ele>202</ele>
        <time>2011-07-15T17:12:14Z</time>
      </trkpt>
      <trkpt lat="45.27494" lon="1.40755">
        <ele>210</ele>
        <time>2011-07-15T17:12:15Z</time>
      </trkpt>
      <trkpt lat="45.27489" lon="1.40758">
        <ele>211</ele>
        <time>2011-07-15T17:12:16Z</time>
      </trkpt>
      <trkpt lat="45.27487" lon="1.40767">
        <ele>210</ele>
        <time>2011-07-15T17:12:17Z</time>
      </trkpt>
      <trkpt lat="45.27486" lon="1.40779">
        <ele>211</ele>
        <time>2011-07-15T17:12:18Z</time>
      </trkpt>
      <trkpt lat="45.27486" lon="1.40789">
        <ele>207</ele>
        <time>2011-07-15T17:12:19Z</time>
      </trkpt>
      <trkpt lat="45.27485" lon="1.40796">
        <ele>207</ele>
        <time>2011-07-15T17:12:20Z</time>
      </trkpt>
      <trkpt lat="45.27482" lon="1.40802">
        <ele>204</ele>
        <time>2011-07-15T17:12:21Z</time>
      </trkpt>
      <trkpt lat="45.27482" lon="1.40802">
        <ele>204</ele>
        <time>2011-07-15T17:12:21Z</time>
      </trkpt>
      <trkpt lat="45.27482" lon="1.40802">
        <ele>204</ele>
        <time>2011-07-15T17:12:29Z</time>
      </trkpt>
      <trkpt lat="45.27471" lon="1.40797">
        <ele>198</ele>
        <time>2011-07-15T17:12:35Z</time>
      </trkpt>
      <trkpt lat="45.27463" lon="1.40792">
        <ele>195</ele>
        <time>2011-07-15T17:12:37Z</time>
      </trkpt>
      <trkpt lat="45.27457" lon="1.40787">
        <ele>192</ele>
        <time>2011-07-15T17:12:39Z</time>
      </trkpt>
      <trkpt lat="45.27457" lon="1.40787">
        <ele>192</ele>
        <time>2011-07-15T17:12:39Z</time>
      </trkpt>
      <trkpt lat="45.27457" lon="1.40787">
        <ele>192</ele>
        <time>2011-07-15T17:12:40Z</time>
      </trkpt>
      <trkpt lat="45.27452" lon="1.40784">
        <ele>191</ele>
        <time>2011-07-15T17:12:41Z</time>
      </trkpt>
      <trkpt lat="45.27447" lon="1.40782">
        <ele>191</ele>
        <time>2011-07-15T17:12:42Z</time>
      </trkpt>
      <trkpt lat="45.27442" lon="1.4078">
        <ele>190</ele>
        <time>2011-07-15T17:12:43Z</time>
      </trkpt>
      <trkpt lat="45.27438" lon="1.40778">
        <ele>189</ele>
        <time>2011-07-15T17:12:44Z</time>
      </trkpt>
      <trkpt lat="45.27434" lon="1.40776">
        <ele>190</ele>
        <time>2011-07-15T17:12:45Z</time>
      </trkpt>
      <trkpt lat="45.27426" lon="1.40772">
        <ele>189</ele>
        <time>2011-07-15T17:12:47Z</time>
      </trkpt>
      <trkpt lat="45.27418" lon="1.40768">
        <ele>188</ele>
        <time>2011-07-15T17:12:49Z</time>
      </trkpt>
      <trkpt lat="45.2741" lon="1.40764">
        <ele>193</ele>
        <time>2011-07-15T17:12:51Z</time>
      </trkpt>
      <trkpt lat="45.27402" lon="1.40762">
        <ele>195</ele>
        <time>2011-07-15T17:12:53Z</time>
      </trkpt>
      <trkpt lat="45.27395" lon="1.40758">
        <ele>195</ele>
        <time>2011-07-15T17:12:55Z</time>
      </trkpt>
      <trkpt lat="45.27388" lon="1.40756">
        <ele>195</ele>
        <time>2011-07-15T17:12:57Z</time>
      </trkpt>
      <trkpt lat="45.27382" lon="1.40754">
        <ele>193</ele>
        <time>2011-07-15T17:12:59Z</time>
      </trkpt>
      <trkpt lat="45.27376" lon="1.40753">
        <ele>191</ele>
        <time>2011-07-15T17:13:01Z</time>
      </trkpt>
      <trkpt lat="45.27371" lon="1.40762">
        <ele>195</ele>
        <time>2011-07-15T17:13:03Z</time>
      </trkpt>
      <trkpt lat="45.27368" lon="1.40768">
        <ele>194</ele>
        <time>2011-07-15T17:13:04Z</time>
      </trkpt>
      <trkpt lat="45.27366" lon="1.40775">
        <ele>194</ele>
        <time>2011-07-15T17:13:05Z</time>
      </trkpt>
      <trkpt lat="45.27364" lon="1.40782">
        <ele>192</ele>
        <time>2011-07-15T17:13:06Z</time>
      </trkpt>
      <trkpt lat="45.27361" lon="1.40788">
        <ele>191</ele>
        <time>2011-07-15T17:13:07Z</time>
      </trkpt>
      <trkpt lat="45.27358" lon="1.40796">
        <ele>192</ele>
        <time>2011-07-15T17:13:08Z</time>
      </trkpt>
      <trkpt lat="45.27354" lon="1.40806">
        <ele>194</ele>
        <time>2011-07-15T17:13:09Z</time>
      </trkpt>
      <trkpt lat="45.2735" lon="1.40817">
        <ele>195</ele>
        <time>2011-07-15T17:13:10Z</time>
      </trkpt>
      <trkpt lat="45.27345" lon="1.40828">
        <ele>194</ele>
        <time>2011-07-15T17:13:11Z</time>
      </trkpt>
      <trkpt lat="45.2734" lon="1.4084">
        <ele>195</ele>
        <time>2011-07-15T17:13:12Z</time>
      </trkpt>
      <trkpt lat="45.27334" lon="1.40854">
        <ele>199</ele>
        <time>2011-07-15T17:13:13Z</time>
      </trkpt>
      <trkpt lat="45.27329" lon="1.40867">
        <ele>200</ele>
        <time>2011-07-15T17:13:14Z</time>
      </trkpt>
      <trkpt lat="45.27326" lon="1.4088">
        <ele>198</ele>
        <time>2011-07-15T17:13:15Z</time>
      </trkpt>
      <trkpt lat="45.27324" lon="1.40892">
        <ele>197</ele>
        <time>2011-07-15T17:13:16Z</time>
      </trkpt>
      <trkpt lat="45.27321" lon="1.40903">
        <ele>190</ele>
        <time>2011-07-15T17:13:17Z</time>
      </trkpt>
      <trkpt lat="45.2732" lon="1.40916">
        <ele>189</ele>
        <time>2011-07-15T17:13:18Z</time>
      </trkpt>
      <trkpt lat="45.27319" lon="1.40927">
        <ele>191</ele>
        <time>2011-07-15T17:13:19Z</time>
      </trkpt>
      <trkpt lat="45.27318" lon="1.40939">
        <ele>188</ele>
        <time>2011-07-15T17:13:20Z</time>
      </trkpt>
      <trkpt lat="45.27317" lon="1.4095">
        <ele>181</ele>
        <time>2011-07-15T17:13:21Z</time>
      </trkpt>
      <trkpt lat="45.27315" lon="1.4096">
        <ele>182</ele>
        <time>2011-07-15T17:13:22Z</time>
      </trkpt>
      <trkpt lat="45.27313" lon="1.40969">
        <ele>182</ele>
        <time>2011-07-15T17:13:23Z</time>
      </trkpt>
      <trkpt lat="45.27311" lon="1.40979">
        <ele>186</ele>
        <time>2011-07-15T17:13:23Z</time>
      </trkpt>
      <trkpt lat="45.27309" lon="1.40988">
        <ele>185</ele>
        <time>2011-07-15T17:13:25Z</time>
      </trkpt>
      <trkpt lat="45.27306" lon="1.40999">
        <ele>185</ele>
        <time>2011-07-15T17:13:26Z</time>
      </trkpt>
      <trkpt lat="45.27304" lon="1.4101">
        <ele>184</ele>
        <time>2011-07-15T17:13:27Z</time>
      </trkpt>
      <trkpt lat="45.27301" lon="1.41021">
        <ele>182</ele>
        <time>2011-07-15T17:13:29Z</time>
      </trkpt>
      <trkpt lat="45.27301" lon="1.41021">
        <ele>182</ele>
        <time>2011-07-15T17:13:29Z</time>
      </trkpt>
      <trkpt lat="45.27301" lon="1.41021">
        <ele>182</ele>
        <time>2011-07-15T17:13:37Z</time>
      </trkpt>
      <trkpt lat="45.27292" lon="1.41024">
        <ele>180</ele>
        <time>2011-07-15T17:13:38Z</time>
      </trkpt>
      <trkpt lat="45.27292" lon="1.41024">
        <ele>180</ele>
        <time>2011-07-15T17:13:38Z</time>
      </trkpt>
      <trkpt lat="45.27292" lon="1.41024">
        <ele>180</ele>
        <time>2011-07-15T17:14:04Z</time>
      </trkpt>
      <trkpt lat="45.27283" lon="1.41025">
        <ele>182</ele>
        <time>2011-07-15T17:14:05Z</time>
      </trkpt>
      <trkpt lat="45.27283" lon="1.41025">
        <ele>182</ele>
        <time>2011-07-15T17:14:05Z</time>
      </trkpt>
    </trkseg>
  </trk>
</gpx>